<?xml version='1.0' encoding='UTF-8'?><gpx version="1.1" creator="JPX - https://github.com/jenetics/jpx" xmlns="http://www.topografix.com/GPX/1/1"><trk><trkseg><trkpt lat="45.35573764904495" lon="11.954339800567336"><ele>3.0</ele><time>2026-04-12T08:09:52Z</time></trkpt><trkpt lat="45.35570097341304" lon="11.954444448690777"><ele>3.0</ele><time>2026-04-12T08:09:54Z</time></trkpt><trkpt lat="45.35561600575654" lon="11.954470722419895"><ele>3.0</ele><time>2026-04-12T08:09:56Z</time></trkpt><trkpt lat="45.35554318817772" lon="11.95446136641891"><ele>3.0</ele><time>2026-04-12T08:09:58Z</time></trkpt><trkpt lat="45.355548079508445" lon="11.9543519704787"><ele>3.0</ele><time>2026-04-12T08:10:01Z</time></trkpt><trkpt lat="45.3555218863382" lon="11.95423769894603"><ele>3.0</ele><time>2026-04-12T08:10:03Z</time></trkpt><trkpt lat="45.35550225541753" lon="11.954096584505724"><ele>3.75</ele><time>2026-04-12T08:10:05Z</time></trkpt><trkpt lat="45.35549577950175" lon="11.953928169754587"><ele>4.5</ele><time>2026-04-12T08:10:07Z</time></trkpt><trkpt lat="45.3555043094974" lon="11.953769469638157"><ele>5.25</ele><time>2026-04-12T08:10:09Z</time></trkpt><trkpt lat="45.35548901680711" lon="11.95361948213251"><ele>6.0</ele><time>2026-04-12T08:10:11Z</time></trkpt><trkpt lat="45.35548483833302" lon="11.953455057088611"><ele>6.0</ele><time>2026-04-12T08:10:13Z</time></trkpt><trkpt lat="45.3554762253546" lon="11.953284567910437"><ele>6.0</ele><time>2026-04-12T08:10:15Z</time></trkpt><trkpt lat="45.35546928173969" lon="11.953107673963911"><ele>6.0</ele><time>2026-04-12T08:10:17Z</time></trkpt><trkpt lat="45.355378186444014" lon="11.95304778991624"><ele>6.0</ele><time>2026-04-12T08:10:18Z</time></trkpt><trkpt lat="45.355316958820545" lon="11.952992275500513"><ele>6.0</ele><time>2026-04-12T08:10:19Z</time></trkpt><trkpt lat="45.35526020731382" lon="11.95293903173255"><ele>5.999999999999999</ele><time>2026-04-12T08:10:20Z</time></trkpt><trkpt lat="45.35520969204295" lon="11.952879844491331"><ele>6.0</ele><time>2026-04-12T08:10:21Z</time></trkpt><trkpt lat="45.35516370955603" lon="11.952816541669833"><ele>6.0</ele><time>2026-04-12T08:10:22Z</time></trkpt><trkpt lat="45.35511760566612" lon="11.952754523962454"><ele>6.0</ele><time>2026-04-12T08:10:23Z</time></trkpt><trkpt lat="45.355070658749526" lon="11.952687602337027"><ele>6.0</ele><time>2026-04-12T08:10:24Z</time></trkpt><trkpt lat="45.35502635720754" lon="11.952622336168542"><ele>5.999999999999999</ele><time>2026-04-12T08:10:25Z</time></trkpt><trkpt lat="45.35498055036514" lon="11.952560455384383"><ele>6.0</ele><time>2026-04-12T08:10:26Z</time></trkpt><trkpt lat="45.35492315148883" lon="11.952471927936381"><ele>6.166666666666667</ele><time>2026-04-12T08:10:27.999Z</time></trkpt><trkpt lat="45.35498870173203" lon="11.952393745903471"><ele>6.333333333333334</ele><time>2026-04-12T08:10:43.999Z</time></trkpt><trkpt lat="45.35503270539299" lon="11.95231869906818"><ele>6.5</ele><time>2026-04-12T08:10:45.999Z</time></trkpt><trkpt lat="45.35497858533219" lon="11.952412953652264"><ele>6.666666666666667</ele><time>2026-04-12T08:19:03.999Z</time></trkpt><trkpt lat="45.35493170495503" lon="11.952480367211525"><ele>6.833333333333334</ele><time>2026-04-12T08:19:06.999Z</time></trkpt><trkpt lat="45.354834542859614" lon="11.952427572229233"><ele>7.0</ele><time>2026-04-12T08:19:35Z</time></trkpt><trkpt lat="45.354782935174086" lon="11.952340938274872"><ele>7.000000000000001</ele><time>2026-04-12T08:19:36Z</time></trkpt><trkpt lat="45.35473119360923" lon="11.952248326894162"><ele>7.0</ele><time>2026-04-12T08:19:37Z</time></trkpt><trkpt lat="45.35465720136144" lon="11.952156328860662"><ele>7.0</ele><time>2026-04-12T08:19:38Z</time></trkpt><trkpt lat="45.35457913963546" lon="11.952060044761962"><ele>7.0</ele><time>2026-04-12T08:19:39Z</time></trkpt><trkpt lat="45.3545157452309" lon="11.951980345496372"><ele>7.000000000000001</ele><time>2026-04-12T08:19:40Z</time></trkpt><trkpt lat="45.35446045657547" lon="11.951907971799955"><ele>7.0</ele><time>2026-04-12T08:19:41Z</time></trkpt><trkpt lat="45.35441566879147" lon="11.951843917078213"><ele>6.833333333333334</ele><time>2026-04-12T08:19:42Z</time></trkpt><trkpt lat="45.35440157848198" lon="11.951703173078819"><ele>6.666666666666667</ele><time>2026-04-12T08:19:44Z</time></trkpt><trkpt lat="45.354440646182" lon="11.951609493467512"><ele>6.5</ele><time>2026-04-12T08:19:45Z</time></trkpt><trkpt lat="45.354502387926274" lon="11.951523185994374"><ele>6.333333333333334</ele><time>2026-04-12T08:19:46Z</time></trkpt><trkpt lat="45.35457324184547" lon="11.951431158453701"><ele>6.166666666666667</ele><time>2026-04-12T08:19:47Z</time></trkpt><trkpt lat="45.354633623783236" lon="11.951347684213921"><ele>6.0</ele><time>2026-04-12T08:19:48Z</time></trkpt><trkpt lat="45.35469184731398" lon="11.95128739068639"><ele>6.0</ele><time>2026-04-12T08:19:49Z</time></trkpt><trkpt lat="45.354760562882404" lon="11.95129347660671"><ele>6.0</ele><time>2026-04-12T08:19:50Z</time></trkpt><trkpt lat="45.354846586750625" lon="11.95134411281876"><ele>6.0</ele><time>2026-04-12T08:19:51Z</time></trkpt><trkpt lat="45.35489766555044" lon="11.95149523897704"><ele>6.0</ele><time>2026-04-12T08:19:52Z</time></trkpt><trkpt lat="45.35499966560961" lon="11.951600601325275"><ele>6.0</ele><time>2026-04-12T08:19:53Z</time></trkpt><trkpt lat="45.35508300989822" lon="11.951753690878482"><ele>6.199999999999999</ele><time>2026-04-12T08:19:54Z</time></trkpt><trkpt lat="45.35517196513187" lon="11.951865339627291"><ele>6.3999999999999995</ele><time>2026-04-12T08:19:55Z</time></trkpt><trkpt lat="45.35523875498195" lon="11.951949087549544"><ele>6.6</ele><time>2026-04-12T08:19:56Z</time></trkpt><trkpt lat="45.355281674961844" lon="11.952023488252065"><ele>6.8</ele><time>2026-04-12T08:19:57Z</time></trkpt><trkpt lat="45.355364549681994" lon="11.952045726569912"><ele>7.0</ele><time>2026-04-12T08:19:59Z</time></trkpt><trkpt lat="45.35538727247314" lon="11.951752140966116"><ele>6.666666666666667</ele><time>2026-04-12T08:20:02Z</time></trkpt><trkpt lat="45.35536206955666" lon="11.951541336743333"><ele>6.333333333333334</ele><time>2026-04-12T08:20:03Z</time></trkpt><trkpt lat="45.35534460059289" lon="11.951317434886212"><ele>6.0</ele><time>2026-04-12T08:20:04Z</time></trkpt><trkpt lat="45.35534323915427" lon="11.951080659032966"><ele>6.0</ele><time>2026-04-12T08:20:05Z</time></trkpt><trkpt lat="45.355337945464164" lon="11.95084129056633"><ele>6.0</ele><time>2026-04-12T08:20:06Z</time></trkpt><trkpt lat="45.35534830463553" lon="11.950627191241875"><ele>6.0</ele><time>2026-04-12T08:20:07Z</time></trkpt><trkpt lat="45.355371251671485" lon="11.950446230574132"><ele>6.0</ele><time>2026-04-12T08:20:08Z</time></trkpt><trkpt lat="45.355407259666805" lon="11.950289302296076"><ele>6.0</ele><time>2026-04-12T08:20:09Z</time></trkpt><trkpt lat="45.355458750049316" lon="11.950117122420394"><ele>6.0</ele><time>2026-04-12T08:20:10Z</time></trkpt><trkpt lat="45.35553932428345" lon="11.94995137692336"><ele>6.0</ele><time>2026-04-12T08:20:11Z</time></trkpt><trkpt lat="45.35559686094912" lon="11.949755743158255"><ele>6.0</ele><time>2026-04-12T08:20:11.999Z</time></trkpt><trkpt lat="45.35567908145981" lon="11.949587956305535"><ele>6.0</ele><time>2026-04-12T08:20:12.999Z</time></trkpt><trkpt lat="45.355754078402384" lon="11.949411289510003"><ele>6.0</ele><time>2026-04-12T08:20:13.999Z</time></trkpt><trkpt lat="45.35581523156841" lon="11.949240310486177"><ele>6.0</ele><time>2026-04-12T08:20:14.999Z</time></trkpt><trkpt lat="45.35587746432046" lon="11.949088154484448"><ele>6.0</ele><time>2026-04-12T08:20:15.999Z</time></trkpt><trkpt lat="45.355943973021326" lon="11.948970858358917"><ele>6.0</ele><time>2026-04-12T08:20:16.999Z</time></trkpt><trkpt lat="45.35601374164546" lon="11.948859773115982"><ele>6.0</ele><time>2026-04-12T08:20:17.999Z</time></trkpt><trkpt lat="45.35613033139521" lon="11.948685384653073"><ele>6.0</ele><time>2026-04-12T08:20:19.999Z</time></trkpt><trkpt lat="45.35618269514569" lon="11.948633523198465"><ele>6.0</ele><time>2026-04-12T08:20:20.999Z</time></trkpt><trkpt lat="45.35626487859061" lon="11.94860632961184"><ele>6.0</ele><time>2026-04-12T08:20:22.999Z</time></trkpt><trkpt lat="45.356260391682795" lon="11.94876039348235"><ele>6.0</ele><time>2026-04-12T08:20:24.999Z</time></trkpt><trkpt lat="45.35624451471807" lon="11.948898933587998"><ele>6.0</ele><time>2026-04-12T08:20:25.999Z</time></trkpt><trkpt lat="45.35616901422291" lon="11.9490505965458"><ele>6.0</ele><time>2026-04-12T08:20:26.999Z</time></trkpt><trkpt lat="45.35608688983145" lon="11.949236136181286"><ele>6.0</ele><time>2026-04-12T08:20:27.999Z</time></trkpt><trkpt lat="45.35601046634335" lon="11.949441174226365"><ele>6.0</ele><time>2026-04-12T08:20:28.999Z</time></trkpt><trkpt lat="45.355919441405185" lon="11.949662562539322"><ele>6.0</ele><time>2026-04-12T08:20:29.999Z</time></trkpt><trkpt lat="45.35582932867343" lon="11.94989410502724"><ele>6.0</ele><time>2026-04-12T08:20:30.999Z</time></trkpt><trkpt lat="45.355740185364205" lon="11.9501456439253"><ele>6.0</ele><time>2026-04-12T08:20:31.999Z</time></trkpt><trkpt lat="45.35567802168802" lon="11.950419667683223"><ele>6.0</ele><time>2026-04-12T08:20:32.999Z</time></trkpt><trkpt lat="45.35562043657073" lon="11.951322042561001"><ele>6.0</ele><time>2026-04-12T08:20:35.999Z</time></trkpt><trkpt lat="45.35565219705083" lon="11.951635706447032"><ele>6.0</ele><time>2026-04-12T08:20:36.999Z</time></trkpt><trkpt lat="45.355680247776995" lon="11.951982792864829"><ele>5.5</ele><time>2026-04-12T08:20:37.999Z</time></trkpt><trkpt lat="45.35570048888478" lon="11.95234223605031"><ele>5.0</ele><time>2026-04-12T08:20:38.999Z</time></trkpt><trkpt lat="45.35571633662808" lon="11.95270979127885"><ele>4.5</ele><time>2026-04-12T08:20:39.999Z</time></trkpt><trkpt lat="45.35573317436909" lon="11.953058337134946"><ele>4.0</ele><time>2026-04-12T08:20:40.999Z</time></trkpt><trkpt lat="45.35574898573297" lon="11.953367563167928"><ele>3.6666666666666665</ele><time>2026-04-12T08:20:41.999Z</time></trkpt><trkpt lat="45.355761966294295" lon="11.953649848970985"><ele>3.333333333333333</ele><time>2026-04-12T08:20:42.999Z</time></trkpt><trkpt lat="45.355776685568905" lon="11.953907984337935"><ele>3.0</ele><time>2026-04-12T08:20:43.999Z</time></trkpt><trkpt lat="45.3557857623209" lon="11.954155961539048"><ele>3.0</ele><time>2026-04-12T08:20:44.999Z</time></trkpt><trkpt lat="45.35579626673894" lon="11.954383382188498"><ele>3.0</ele><time>2026-04-12T08:20:45.999Z</time></trkpt><trkpt lat="45.35578391552511" lon="11.954612502288159"><ele>3.0</ele><time>2026-04-12T08:20:46.999Z</time></trkpt><trkpt lat="45.35579298245334" lon="11.954870087111487"><ele>3.666666666666667</ele><time>2026-04-12T08:20:47.999Z</time></trkpt><trkpt lat="45.35575672815688" lon="11.955162060898878"><ele>4.333333333333334</ele><time>2026-04-12T08:20:48.999Z</time></trkpt><trkpt lat="45.35569837073927" lon="11.955481429650112"><ele>5.0</ele><time>2026-04-12T08:20:49.999Z</time></trkpt><trkpt lat="45.35562025392407" lon="11.95583049269715"><ele>6.5</ele><time>2026-04-12T08:20:50.999Z</time></trkpt><trkpt lat="45.35552414000919" lon="11.956177443925961"><ele>8.0</ele><time>2026-04-12T08:20:51.999Z</time></trkpt><trkpt lat="45.355405215365025" lon="11.956530149491615"><ele>7.0</ele><time>2026-04-12T08:20:52.999Z</time></trkpt><trkpt lat="45.35527681912094" lon="11.956869605216042"><ele>6.0</ele><time>2026-04-12T08:20:53.999Z</time></trkpt><trkpt lat="45.35515799206268" lon="11.957162628224896"><ele>6.0</ele><time>2026-04-12T08:20:54.999Z</time></trkpt><trkpt lat="45.35506572622491" lon="11.957464270230309"><ele>6.0</ele><time>2026-04-12T08:20:55.999Z</time></trkpt><trkpt lat="45.355002422238066" lon="11.957782787838172"><ele>6.0</ele><time>2026-04-12T08:20:56.999Z</time></trkpt><trkpt lat="45.35496266236312" lon="11.958113542700834"><ele>6.0</ele><time>2026-04-12T08:20:57.999Z</time></trkpt><trkpt lat="45.35493590811029" lon="11.958464405653942"><ele>6.0</ele><time>2026-04-12T08:20:58.999Z</time></trkpt><trkpt lat="45.35491754001531" lon="11.95882432710208"><ele>6.0</ele><time>2026-04-12T08:20:59.999Z</time></trkpt><trkpt lat="45.354889776908934" lon="11.959210551672943"><ele>6.0</ele><time>2026-04-12T08:21:00.999Z</time></trkpt><trkpt lat="45.35485983374472" lon="11.959557128276302"><ele>6.0</ele><time>2026-04-12T08:21:01.999Z</time></trkpt><trkpt lat="45.35483966481206" lon="11.959849688483766"><ele>7.0</ele><time>2026-04-12T08:21:02.999Z</time></trkpt><trkpt lat="45.35482961109671" lon="11.960117681683245"><ele>8.0</ele><time>2026-04-12T08:21:03.999Z</time></trkpt><trkpt lat="45.3548242886789" lon="11.960360514852178"><ele>9.0</ele><time>2026-04-12T08:21:04.999Z</time></trkpt><trkpt lat="45.35481452678765" lon="11.960578834152761"><ele>9.0</ele><time>2026-04-12T08:21:05.999Z</time></trkpt><trkpt lat="45.35480331977409" lon="11.960757297523536"><ele>9.0</ele><time>2026-04-12T08:21:06.999Z</time></trkpt><trkpt lat="45.354800088396615" lon="11.960951925340988"><ele>9.0</ele><time>2026-04-12T08:21:07.999Z</time></trkpt><trkpt lat="45.354807117343725" lon="11.961169951730632"><ele>9.0</ele><time>2026-04-12T08:21:08.999Z</time></trkpt><trkpt lat="45.35480162591791" lon="11.961430510326178"><ele>8.666666666666666</ele><time>2026-04-12T08:21:09.999Z</time></trkpt><trkpt lat="45.35478765149178" lon="11.961701437917297"><ele>8.333333333333332</ele><time>2026-04-12T08:21:10.999Z</time></trkpt><trkpt lat="45.35477638685993" lon="11.961975009087944"><ele>8.0</ele><time>2026-04-12T08:21:11.999Z</time></trkpt><trkpt lat="45.35477359301383" lon="11.962209310884376"><ele>8.0</ele><time>2026-04-12T08:21:12.999Z</time></trkpt><trkpt lat="45.354777278613604" lon="11.962401001575593"><ele>8.0</ele><time>2026-04-12T08:21:13.999Z</time></trkpt><trkpt lat="45.35478472938772" lon="11.962588305958054"><ele>8.0</ele><time>2026-04-12T08:21:14.999Z</time></trkpt><trkpt lat="45.35480404274785" lon="11.962753693642302"><ele>8.0</ele><time>2026-04-12T08:21:15.999Z</time></trkpt><trkpt lat="45.35482771277602" lon="11.962896688508398"><ele>8.0</ele><time>2026-04-12T08:21:16.999Z</time></trkpt><trkpt lat="45.35484349532248" lon="11.963008938085284"><ele>8.0</ele><time>2026-04-12T08:21:17.999Z</time></trkpt><trkpt lat="45.35486176765166" lon="11.963143239082306"><ele>8.0</ele><time>2026-04-12T08:21:19.999Z</time></trkpt><trkpt lat="45.354774426071835" lon="11.96320930845236"><ele>8.0</ele><time>2026-04-12T08:21:21.999Z</time></trkpt><trkpt lat="45.35467607592649" lon="11.963251441222893"><ele>8.0</ele><time>2026-04-12T08:21:22.999Z</time></trkpt><trkpt lat="45.35454788994321" lon="11.963294501953566"><ele>8.333333333333332</ele><time>2026-04-12T08:21:23.999Z</time></trkpt><trkpt lat="45.35441003206076" lon="11.963353504926976"><ele>8.666666666666666</ele><time>2026-04-12T08:21:24.999Z</time></trkpt><trkpt lat="45.3542512857243" lon="11.963424180262587"><ele>9.0</ele><time>2026-04-12T08:21:25.999Z</time></trkpt><trkpt lat="45.35406723329389" lon="11.963474923997225"><ele>9.0</ele><time>2026-04-12T08:21:26.999Z</time></trkpt><trkpt lat="45.35386955638833" lon="11.963508027711427"><ele>9.0</ele><time>2026-04-12T08:21:27.999Z</time></trkpt><trkpt lat="45.353659547900214" lon="11.963524242405201"><ele>9.0</ele><time>2026-04-12T08:21:28.999Z</time></trkpt><trkpt lat="45.353478032317675" lon="11.963528429803075"><ele>9.0</ele><time>2026-04-12T08:21:29.999Z</time></trkpt><trkpt lat="45.35331119480494" lon="11.96352303758995"><ele>9.0</ele><time>2026-04-12T08:21:30.999Z</time></trkpt><trkpt lat="45.35315098456333" lon="11.963509949861516"><ele>9.0</ele><time>2026-04-12T08:21:31.999Z</time></trkpt><trkpt lat="45.35299258666544" lon="11.963488941390274"><ele>8.75</ele><time>2026-04-12T08:21:32.999Z</time></trkpt><trkpt lat="45.352837309404975" lon="11.963457363891994"><ele>8.5</ele><time>2026-04-12T08:21:33.999Z</time></trkpt><trkpt lat="45.35269839384141" lon="11.963413517885536"><ele>8.25</ele><time>2026-04-12T08:21:34.999Z</time></trkpt><trkpt lat="45.3525688685905" lon="11.963364470986212"><ele>8.0</ele><time>2026-04-12T08:21:35.999Z</time></trkpt><trkpt lat="45.35244172219574" lon="11.963318211376603"><ele>7.800000000000001</ele><time>2026-04-12T08:21:36.999Z</time></trkpt><trkpt lat="45.352321959832764" lon="11.96327650560665"><ele>7.6000000000000005</ele><time>2026-04-12T08:21:37.999Z</time></trkpt><trkpt lat="45.352212789573514" lon="11.963236838158696"><ele>7.3999999999999995</ele><time>2026-04-12T08:21:38.999Z</time></trkpt><trkpt lat="45.35211144065885" lon="11.963199226529964"><ele>7.199999999999999</ele><time>2026-04-12T08:21:39.999Z</time></trkpt><trkpt lat="45.35201763248162" lon="11.963164844762359"><ele>7.0</ele><time>2026-04-12T08:21:40.999Z</time></trkpt><trkpt lat="45.351931672234734" lon="11.963133193516112"><ele>7.000000000000001</ele><time>2026-04-12T08:21:41.999Z</time></trkpt><trkpt lat="45.351839175053044" lon="11.96306952662717"><ele>7.0</ele><time>2026-04-12T08:21:44Z</time></trkpt><trkpt lat="45.351765436752586" lon="11.963088548779997"><ele>7.0</ele><time>2026-04-12T08:22:22.999Z</time></trkpt><trkpt lat="45.351699286901386" lon="11.963076667712716"><ele>7.0</ele><time>2026-04-12T08:22:23.999Z</time></trkpt><trkpt lat="45.35162139186076" lon="11.963052397747822"><ele>7.000000000000001</ele><time>2026-04-12T08:22:24.999Z</time></trkpt><trkpt lat="45.35152536455863" lon="11.963037520251193"><ele>7.0</ele><time>2026-04-12T08:22:25.999Z</time></trkpt><trkpt lat="45.35141465640154" lon="11.9630358351104"><ele>7.25</ele><time>2026-04-12T08:22:26.999Z</time></trkpt><trkpt lat="45.351279454536495" lon="11.963058585281116"><ele>7.5</ele><time>2026-04-12T08:22:27.999Z</time></trkpt><trkpt lat="45.351140114014235" lon="11.963098787103814"><ele>7.75</ele><time>2026-04-12T08:22:28.999Z</time></trkpt><trkpt lat="45.350983677432616" lon="11.9631518076688"><ele>8.0</ele><time>2026-04-12T08:22:29.999Z</time></trkpt><trkpt lat="45.350808716645496" lon="11.963190724185859"><ele>8.0</ele><time>2026-04-12T08:22:30.999Z</time></trkpt><trkpt lat="45.350646922531666" lon="11.963269924119313"><ele>8.0</ele><time>2026-04-12T08:22:31.999Z</time></trkpt><trkpt lat="45.350472175895234" lon="11.963323628547881"><ele>8.0</ele><time>2026-04-12T08:22:32.999Z</time></trkpt><trkpt lat="45.350297327229256" lon="11.963362515595197"><ele>8.0</ele><time>2026-04-12T08:22:33.999Z</time></trkpt><trkpt lat="45.3501151367025" lon="11.963357189032044"><ele>8.0</ele><time>2026-04-12T08:22:34.999Z</time></trkpt><trkpt lat="45.34993489314448" lon="11.963376352884044"><ele>8.0</ele><time>2026-04-12T08:22:35.999Z</time></trkpt><trkpt lat="45.34977167527903" lon="11.963337856929238"><ele>8.333333333333332</ele><time>2026-04-12T08:22:36.999Z</time></trkpt><trkpt lat="45.34959431189233" lon="11.963249957743095"><ele>8.666666666666666</ele><time>2026-04-12T08:22:37.999Z</time></trkpt><trkpt lat="45.34940306243476" lon="11.963192547516249"><ele>9.0</ele><time>2026-04-12T08:22:38.999Z</time></trkpt><trkpt lat="45.34920875067124" lon="11.963111598961358"><ele>9.0</ele><time>2026-04-12T08:22:39.999Z</time></trkpt><trkpt lat="45.349004060288586" lon="11.963039920789146"><ele>9.0</ele><time>2026-04-12T08:22:40.999Z</time></trkpt><trkpt lat="45.34880580232339" lon="11.962990988257095"><ele>9.0</ele><time>2026-04-12T08:22:41.999Z</time></trkpt><trkpt lat="45.348607234283904" lon="11.962959502891465"><ele>9.0</ele><time>2026-04-12T08:22:42.999Z</time></trkpt><trkpt lat="45.34842478647878" lon="11.962955031274378"><ele>9.0</ele><time>2026-04-12T08:22:43.999Z</time></trkpt><trkpt lat="45.34805307626794" lon="11.96300983290898"><ele>9.0</ele><time>2026-04-12T08:22:45.999Z</time></trkpt><trkpt lat="45.34784674129397" lon="11.963069593752381"><ele>9.0</ele><time>2026-04-12T08:22:46.999Z</time></trkpt><trkpt lat="45.34764885964091" lon="11.963145180291864"><ele>9.0</ele><time>2026-04-12T08:22:47.999Z</time></trkpt><trkpt lat="45.34747411304305" lon="11.963210174843283"><ele>9.0</ele><time>2026-04-12T08:22:48.999Z</time></trkpt><trkpt lat="45.34730225824015" lon="11.963263077016471"><ele>9.0</ele><time>2026-04-12T08:22:49.999Z</time></trkpt><trkpt lat="45.34714991754658" lon="11.963335372288126"><ele>9.0</ele><time>2026-04-12T08:22:50.999Z</time></trkpt><trkpt lat="45.34698383507368" lon="11.963426598662082"><ele>8.333333333333334</ele><time>2026-04-12T08:22:51.999Z</time></trkpt><trkpt lat="45.346828893802034" lon="11.963550258072889"><ele>7.666666666666667</ele><time>2026-04-12T08:22:52.999Z</time></trkpt><trkpt lat="45.346676474505635" lon="11.963666865706136"><ele>7.0</ele><time>2026-04-12T08:22:53.999Z</time></trkpt><trkpt lat="45.34653852688982" lon="11.963768503534768"><ele>7.0</ele><time>2026-04-12T08:22:54.999Z</time></trkpt><trkpt lat="45.34641631757378" lon="11.963857275872163"><ele>7.0</ele><time>2026-04-12T08:22:55.999Z</time></trkpt><trkpt lat="45.34630233021065" lon="11.963944205206928"><ele>7.0</ele><time>2026-04-12T08:22:56.999Z</time></trkpt><trkpt lat="45.34618618995535" lon="11.963998851735287"><ele>7.0</ele><time>2026-04-12T08:22:57.999Z</time></trkpt><trkpt lat="45.34609611657506" lon="11.964076157295523"><ele>7.199999999999999</ele><time>2026-04-12T08:22:58.999Z</time></trkpt><trkpt lat="45.34600451444046" lon="11.964107748036726"><ele>7.3999999999999995</ele><time>2026-04-12T08:22:59.999Z</time></trkpt><trkpt lat="45.34593008677011" lon="11.964110948852646"><ele>7.6000000000000005</ele><time>2026-04-12T08:23:00.999Z</time></trkpt><trkpt lat="45.34583261200729" lon="11.96408435593126"><ele>7.800000000000001</ele><time>2026-04-12T08:23:02.999Z</time></trkpt><trkpt lat="45.34574766112682" lon="11.963961115369338"><ele>8.0</ele><time>2026-04-12T08:23:10.999Z</time></trkpt><trkpt lat="45.345718664117406" lon="11.963859545998337"><ele>7.999999999999999</ele><time>2026-04-12T08:23:11.999Z</time></trkpt><trkpt lat="45.345635737384846" lon="11.963802274417562"><ele>8.0</ele><time>2026-04-12T08:23:13.999Z</time></trkpt><trkpt lat="45.34552550131662" lon="11.963825957919898"><ele>8.0</ele><time>2026-04-12T08:23:15.999Z</time></trkpt><trkpt lat="45.34549798519327" lon="11.963908863825948"><ele>8.0</ele><time>2026-04-12T08:23:16.999Z</time></trkpt><trkpt lat="45.34549045622627" lon="11.964027487481845"><ele>7.999999999999999</ele><time>2026-04-12T08:23:17.999Z</time></trkpt><trkpt lat="45.34547686790165" lon="11.964158765610865"><ele>8.0</ele><time>2026-04-12T08:23:18.999Z</time></trkpt><trkpt lat="45.34541709748057" lon="11.964252609605424"><ele>7.800000000000001</ele><time>2026-04-12T08:23:19.999Z</time></trkpt><trkpt lat="45.34534643920707" lon="11.964359416589044"><ele>7.6000000000000005</ele><time>2026-04-12T08:23:20.999Z</time></trkpt><trkpt lat="45.34527307655866" lon="11.96447480206397"><ele>7.3999999999999995</ele><time>2026-04-12T08:23:21.999Z</time></trkpt><trkpt lat="45.34519910940972" lon="11.96457328495067"><ele>7.199999999999999</ele><time>2026-04-12T08:23:22.999Z</time></trkpt><trkpt lat="45.34512799496228" lon="11.964673109377955"><ele>7.0</ele><time>2026-04-12T08:23:23.999Z</time></trkpt><trkpt lat="45.34505874190062" lon="11.964777385249345"><ele>7.0</ele><time>2026-04-12T08:23:24.999Z</time></trkpt><trkpt lat="45.34498478617247" lon="11.964885266780414"><ele>6.999999999999999</ele><time>2026-04-12T08:23:25.999Z</time></trkpt><trkpt lat="45.344904377315615" lon="11.964999948614851"><ele>6.999999999999999</ele><time>2026-04-12T08:23:26.999Z</time></trkpt><trkpt lat="45.34482791179458" lon="11.965112932045352"><ele>7.0</ele><time>2026-04-12T08:23:27.999Z</time></trkpt><trkpt lat="45.34475213366733" lon="11.965227066857992"><ele>7.0</ele><time>2026-04-12T08:23:28.999Z</time></trkpt><trkpt lat="45.34467726961702" lon="11.965340226722823"><ele>7.199999999999999</ele><time>2026-04-12T08:23:29.999Z</time></trkpt><trkpt lat="45.344605867353664" lon="11.96544699828818"><ele>7.3999999999999995</ele><time>2026-04-12T08:23:31Z</time></trkpt><trkpt lat="45.34453605548402" lon="11.965549143910234"><ele>7.6000000000000005</ele><time>2026-04-12T08:23:32Z</time></trkpt><trkpt lat="45.34446655045276" lon="11.965647100077966"><ele>7.800000000000001</ele><time>2026-04-12T08:23:33Z</time></trkpt><trkpt lat="45.344400263542184" lon="11.965745045821523"><ele>8.0</ele><time>2026-04-12T08:23:34Z</time></trkpt><trkpt lat="45.34433264854117" lon="11.965850896428183"><ele>7.800000000000001</ele><time>2026-04-12T08:23:35Z</time></trkpt><trkpt lat="45.3442619996569" lon="11.965962651867331"><ele>7.6000000000000005</ele><time>2026-04-12T08:23:36Z</time></trkpt><trkpt lat="45.34418933762101" lon="11.966073232085602"><ele>7.3999999999999995</ele><time>2026-04-12T08:23:37Z</time></trkpt><trkpt lat="45.344110708905774" lon="11.966186088329435"><ele>7.199999999999999</ele><time>2026-04-12T08:23:38Z</time></trkpt><trkpt lat="45.34402676300042" lon="11.966302468524072"><ele>7.0</ele><time>2026-04-12T08:23:39Z</time></trkpt><trkpt lat="45.34394416925019" lon="11.966417112931085"><ele>7.0</ele><time>2026-04-12T08:23:40Z</time></trkpt><trkpt lat="45.34386718844404" lon="11.966529426956312"><ele>6.999999999999999</ele><time>2026-04-12T08:23:41Z</time></trkpt><trkpt lat="45.3437921670351" lon="11.966641054251472"><ele>6.999999999999999</ele><time>2026-04-12T08:23:42Z</time></trkpt><trkpt lat="45.34371743761352" lon="11.966751151153689"><ele>7.0</ele><time>2026-04-12T08:23:43Z</time></trkpt><trkpt lat="45.34364140377227" lon="11.966867820403033"><ele>7.0</ele><time>2026-04-12T08:23:44Z</time></trkpt><trkpt lat="45.34356016404144" lon="11.966989813608823"><ele>7.0</ele><time>2026-04-12T08:23:45Z</time></trkpt><trkpt lat="45.34335001567843" lon="11.967304081622865"><ele>7.0</ele><time>2026-04-12T08:23:47Z</time></trkpt><trkpt lat="45.34322481984435" lon="11.967476088657223"><ele>7.0</ele><time>2026-04-12T08:23:48Z</time></trkpt><trkpt lat="45.34310505782859" lon="11.967646635265133"><ele>7.0</ele><time>2026-04-12T08:23:49Z</time></trkpt><trkpt lat="45.342974974407156" lon="11.967825992111312"><ele>7.0</ele><time>2026-04-12T08:23:50Z</time></trkpt><trkpt lat="45.342857111144724" lon="11.967998232627272"><ele>6.333333333333334</ele><time>2026-04-12T08:23:51Z</time></trkpt><trkpt lat="45.342747852576494" lon="11.968161618168324"><ele>5.666666666666667</ele><time>2026-04-12T08:23:52Z</time></trkpt><trkpt lat="45.342636744319904" lon="11.968324770364797"><ele>5.0</ele><time>2026-04-12T08:23:53Z</time></trkpt><trkpt lat="45.342533175093166" lon="11.968477638252685"><ele>4.666666666666667</ele><time>2026-04-12T08:23:54Z</time></trkpt><trkpt lat="45.34243587463528" lon="11.968620195011269"><ele>4.333333333333333</ele><time>2026-04-12T08:23:55Z</time></trkpt><trkpt lat="45.34232798139495" lon="11.968775592178085"><ele>4.0</ele><time>2026-04-12T08:23:56Z</time></trkpt><trkpt lat="45.3422150178411" lon="11.968939381794776"><ele>4.666666666666666</ele><time>2026-04-12T08:23:57Z</time></trkpt><trkpt lat="45.342096969702276" lon="11.969115756268316"><ele>5.333333333333333</ele><time>2026-04-12T08:23:58Z</time></trkpt><trkpt lat="45.34197366741124" lon="11.969297223250518"><ele>6.0</ele><time>2026-04-12T08:23:59Z</time></trkpt><trkpt lat="45.341849356965156" lon="11.969479773398884"><ele>6.0</ele><time>2026-04-12T08:24:00Z</time></trkpt><trkpt lat="45.3417163497537" lon="11.969674478916701"><ele>6.0</ele><time>2026-04-12T08:24:01Z</time></trkpt><trkpt lat="45.341576469403236" lon="11.969877383530102"><ele>6.0</ele><time>2026-04-12T08:24:02Z</time></trkpt><trkpt lat="45.3414427374556" lon="11.97006996509752"><ele>6.0</ele><time>2026-04-12T08:24:03Z</time></trkpt><trkpt lat="45.34130580761008" lon="11.970270731216155"><ele>6.0</ele><time>2026-04-12T08:24:04Z</time></trkpt><trkpt lat="45.34117321052938" lon="11.97047200806253"><ele>6.0</ele><time>2026-04-12T08:24:05Z</time></trkpt><trkpt lat="45.341030415134085" lon="11.9706752828876"><ele>5.333333333333333</ele><time>2026-04-12T08:24:06Z</time></trkpt><trkpt lat="45.34089357539188" lon="11.970877525256762"><ele>4.666666666666666</ele><time>2026-04-12T08:24:07Z</time></trkpt><trkpt lat="45.340755088622835" lon="11.971082001504435"><ele>4.0</ele><time>2026-04-12T08:24:08Z</time></trkpt><trkpt lat="45.340613191694544" lon="11.97129384989107"><ele>4.333333333333333</ele><time>2026-04-12T08:24:09Z</time></trkpt><trkpt lat="45.340474678444785" lon="11.971500722507509"><ele>4.666666666666667</ele><time>2026-04-12T08:24:10Z</time></trkpt><trkpt lat="45.340331589502" lon="11.971710013175466"><ele>5.0</ele><time>2026-04-12T08:24:11Z</time></trkpt><trkpt lat="45.34019041472591" lon="11.971917391699463"><ele>5.0</ele><time>2026-04-12T08:24:12Z</time></trkpt><trkpt lat="45.34004988143958" lon="11.972127725454211"><ele>5.0</ele><time>2026-04-12T08:24:13Z</time></trkpt><trkpt lat="45.33990412223679" lon="11.972342582724291"><ele>5.0</ele><time>2026-04-12T08:24:14Z</time></trkpt><trkpt lat="45.33975835574264" lon="11.972558985739013"><ele>5.0</ele><time>2026-04-12T08:24:15Z</time></trkpt><trkpt lat="45.339604843832795" lon="11.97277971841548"><ele>5.0</ele><time>2026-04-12T08:24:16Z</time></trkpt><trkpt lat="45.33945218134971" lon="11.972997561818847"><ele>5.0</ele><time>2026-04-12T08:24:17Z</time></trkpt><trkpt lat="45.33929833865778" lon="11.973213575178328"><ele>5.0</ele><time>2026-04-12T08:24:18Z</time></trkpt><trkpt lat="45.33915865930035" lon="11.97342300015321"><ele>5.0</ele><time>2026-04-12T08:24:19Z</time></trkpt><trkpt lat="45.33901576952748" lon="11.973633885789901"><ele>5.0</ele><time>2026-04-12T08:24:20Z</time></trkpt><trkpt lat="45.33886924008455" lon="11.973846126311942"><ele>4.333333333333334</ele><time>2026-04-12T08:24:21Z</time></trkpt><trkpt lat="45.338725693341104" lon="11.974056930304869"><ele>3.666666666666667</ele><time>2026-04-12T08:24:22Z</time></trkpt><trkpt lat="45.33858903323165" lon="11.974258808988813"><ele>3.0</ele><time>2026-04-12T08:24:23Z</time></trkpt><trkpt lat="45.33844679596463" lon="11.974464733200415"><ele>3.0</ele><time>2026-04-12T08:24:24Z</time></trkpt><trkpt lat="45.33830916542881" lon="11.97466832831341"><ele>3.0</ele><time>2026-04-12T08:24:25Z</time></trkpt><trkpt lat="45.33816951068453" lon="11.974870553089458"><ele>3.0</ele><time>2026-04-12T08:24:26Z</time></trkpt><trkpt lat="45.338032564315114" lon="11.975070821294803"><ele>4.333333333333334</ele><time>2026-04-12T08:24:27Z</time></trkpt><trkpt lat="45.337903045899544" lon="11.975262052331288"><ele>5.666666666666667</ele><time>2026-04-12T08:24:28Z</time></trkpt><trkpt lat="45.337771665877995" lon="11.975453487195043"><ele>7.0</ele><time>2026-04-12T08:24:29Z</time></trkpt><trkpt lat="45.33763864751368" lon="11.975651909200954"><ele>7.0</ele><time>2026-04-12T08:24:30Z</time></trkpt><trkpt lat="45.337502965411026" lon="11.975846873252365"><ele>7.0</ele><time>2026-04-12T08:24:31Z</time></trkpt><trkpt lat="45.33737579447766" lon="11.976042703678385"><ele>7.0</ele><time>2026-04-12T08:24:32Z</time></trkpt><trkpt lat="45.33724124966254" lon="11.976241691293485"><ele>6.0</ele><time>2026-04-12T08:24:33Z</time></trkpt><trkpt lat="45.337102804211725" lon="11.976443193879362"><ele>5.0</ele><time>2026-04-12T08:24:34Z</time></trkpt><trkpt lat="45.33696364631224" lon="11.9766475024021"><ele>4.0</ele><time>2026-04-12T08:24:35Z</time></trkpt><trkpt lat="45.33682045375091" lon="11.976856147513596"><ele>4.0</ele><time>2026-04-12T08:24:36Z</time></trkpt><trkpt lat="45.33668052826432" lon="11.9770651136372"><ele>4.0</ele><time>2026-04-12T08:24:37Z</time></trkpt><trkpt lat="45.33653292718712" lon="11.977278152658176"><ele>4.0</ele><time>2026-04-12T08:24:38Z</time></trkpt><trkpt lat="45.336385242336995" lon="11.977493699242098"><ele>4.333333333333333</ele><time>2026-04-12T08:24:39Z</time></trkpt><trkpt lat="45.33623722715912" lon="11.97771131931989"><ele>4.666666666666667</ele><time>2026-04-12T08:24:40Z</time></trkpt><trkpt lat="45.336090379015886" lon="11.977927940735418"><ele>5.0</ele><time>2026-04-12T08:24:41Z</time></trkpt><trkpt lat="45.33594191875425" lon="11.97814001003853"><ele>5.0</ele><time>2026-04-12T08:24:42Z</time></trkpt><trkpt lat="45.33580035763846" lon="11.978345374125622"><ele>5.0</ele><time>2026-04-12T08:24:43Z</time></trkpt><trkpt lat="45.335654837175724" lon="11.978553139878647"><ele>5.0</ele><time>2026-04-12T08:24:44Z</time></trkpt><trkpt lat="45.33551161393635" lon="11.978761739792006"><ele>5.0</ele><time>2026-04-12T08:24:45Z</time></trkpt><trkpt lat="45.335365061855" lon="11.97897406679582"><ele>5.0</ele><time>2026-04-12T08:24:46Z</time></trkpt><trkpt lat="45.33521922974707" lon="11.97918751462736"><ele>5.0</ele><time>2026-04-12T08:24:47Z</time></trkpt><trkpt lat="45.335071696570914" lon="11.97939813752109"><ele>5.0</ele><time>2026-04-12T08:24:48Z</time></trkpt><trkpt lat="45.33493325218244" lon="11.979601962504514"><ele>5.0</ele><time>2026-04-12T08:24:49Z</time></trkpt><trkpt lat="45.33479506527699" lon="11.979804728991734"><ele>5.0</ele><time>2026-04-12T08:24:50Z</time></trkpt><trkpt lat="45.33465805164569" lon="11.980006364924833"><ele>5.333333333333334</ele><time>2026-04-12T08:24:51Z</time></trkpt><trkpt lat="45.33452273571818" lon="11.980211619648898"><ele>5.666666666666667</ele><time>2026-04-12T08:24:52Z</time></trkpt><trkpt lat="45.334386061105754" lon="11.98041788966067"><ele>6.0</ele><time>2026-04-12T08:24:53Z</time></trkpt><trkpt lat="45.334243759442764" lon="11.980624065835542"><ele>6.0</ele><time>2026-04-12T08:24:54Z</time></trkpt><trkpt lat="45.33410749456627" lon="11.980820891588989"><ele>6.0</ele><time>2026-04-12T08:24:55Z</time></trkpt><trkpt lat="45.33397015306994" lon="11.981013468329081"><ele>6.0</ele><time>2026-04-12T08:24:55.999Z</time></trkpt><trkpt lat="45.333833441398546" lon="11.981207173127551"><ele>6.0</ele><time>2026-04-12T08:24:56.999Z</time></trkpt><trkpt lat="45.333702853665265" lon="11.981395958941919"><ele>6.0</ele><time>2026-04-12T08:24:57.999Z</time></trkpt><trkpt lat="45.333576944001244" lon="11.98158196021916"><ele>6.0</ele><time>2026-04-12T08:24:58.999Z</time></trkpt><trkpt lat="45.33345687601399" lon="11.981767352493902"><ele>6.0</ele><time>2026-04-12T08:24:59.999Z</time></trkpt><trkpt lat="45.333329024881166" lon="11.98195517674564"><ele>6.0</ele><time>2026-04-12T08:25:00.999Z</time></trkpt><trkpt lat="45.33320179413125" lon="11.982140339557267"><ele>6.0</ele><time>2026-04-12T08:25:01.999Z</time></trkpt><trkpt lat="45.333076561007935" lon="11.98232909178097"><ele>6.0</ele><time>2026-04-12T08:25:02.999Z</time></trkpt><trkpt lat="45.332943762363314" lon="11.982516828356959"><ele>6.0</ele><time>2026-04-12T08:25:03.999Z</time></trkpt><trkpt lat="45.33281534869703" lon="11.982700525553314"><ele>6.0</ele><time>2026-04-12T08:25:04.999Z</time></trkpt><trkpt lat="45.33268750484199" lon="11.982889578010175"><ele>6.0</ele><time>2026-04-12T08:25:05.999Z</time></trkpt><trkpt lat="45.33255363114877" lon="11.983081399474546"><ele>6.0</ele><time>2026-04-12T08:25:06.999Z</time></trkpt><trkpt lat="45.33242033073488" lon="11.983275579376118"><ele>6.0</ele><time>2026-04-12T08:25:07.999Z</time></trkpt><trkpt lat="45.33229196116013" lon="11.983467125255302"><ele>5.666666666666667</ele><time>2026-04-12T08:25:08.999Z</time></trkpt><trkpt lat="45.332157461004456" lon="11.983656645341771"><ele>5.333333333333334</ele><time>2026-04-12T08:25:09.999Z</time></trkpt><trkpt lat="45.332029823155054" lon="11.983842041754132"><ele>5.0</ele><time>2026-04-12T08:25:10.999Z</time></trkpt><trkpt lat="45.33190193846532" lon="11.984023176707442"><ele>4.666666666666667</ele><time>2026-04-12T08:25:11.999Z</time></trkpt><trkpt lat="45.33178429917343" lon="11.984195827791915"><ele>4.333333333333333</ele><time>2026-04-12T08:25:12.999Z</time></trkpt><trkpt lat="45.331665590509324" lon="11.98436431743014"><ele>4.0</ele><time>2026-04-12T08:25:13.999Z</time></trkpt><trkpt lat="45.33154973465163" lon="11.984531662774339"><ele>4.0</ele><time>2026-04-12T08:25:14.999Z</time></trkpt><trkpt lat="45.33143784126555" lon="11.984695349893181"><ele>4.0</ele><time>2026-04-12T08:25:15.999Z</time></trkpt><trkpt lat="45.33133095074567" lon="11.984847092607362"><ele>4.0</ele><time>2026-04-12T08:25:16.999Z</time></trkpt><trkpt lat="45.33122290158332" lon="11.984999910537997"><ele>4.0</ele><time>2026-04-12T08:25:17.999Z</time></trkpt><trkpt lat="45.33111875832957" lon="11.985152441175655"><ele>4.0</ele><time>2026-04-12T08:25:18.999Z</time></trkpt><trkpt lat="45.33102054723031" lon="11.985298253910734"><ele>4.0</ele><time>2026-04-12T08:25:19.999Z</time></trkpt><trkpt lat="45.33092561056775" lon="11.985437693808068"><ele>4.0</ele><time>2026-04-12T08:25:20.999Z</time></trkpt><trkpt lat="45.33082918352864" lon="11.98557612263117"><ele>4.0</ele><time>2026-04-12T08:25:21.999Z</time></trkpt><trkpt lat="45.33073282662169" lon="11.985711320390468"><ele>4.0</ele><time>2026-04-12T08:25:22.999Z</time></trkpt><trkpt lat="45.33063976381316" lon="11.985837307579088"><ele>4.0</ele><time>2026-04-12T08:25:23.999Z</time></trkpt><trkpt lat="45.33055859166067" lon="11.98595061654961"><ele>4.0</ele><time>2026-04-12T08:25:24.999Z</time></trkpt><trkpt lat="45.33048505616779" lon="11.986060517321407"><ele>4.0</ele><time>2026-04-12T08:25:25.999Z</time></trkpt><trkpt lat="45.330413166347164" lon="11.986165825316839"><ele>4.0</ele><time>2026-04-12T08:25:26.999Z</time></trkpt><trkpt lat="45.330345322202156" lon="11.986264580716012"><ele>4.0</ele><time>2026-04-12T08:25:27.999Z</time></trkpt><trkpt lat="45.330280493301466" lon="11.98635849303851"><ele>4.0</ele><time>2026-04-12T08:25:28.999Z</time></trkpt><trkpt lat="45.33020477547463" lon="11.986450832752752"><ele>4.0</ele><time>2026-04-12T08:25:29.999Z</time></trkpt><trkpt lat="45.33010407173166" lon="11.986521990714644"><ele>4.0</ele><time>2026-04-12T08:25:30.999Z</time></trkpt><trkpt lat="45.330001158702395" lon="11.986548107574777"><ele>4.0</ele><time>2026-04-12T08:25:31.999Z</time></trkpt><trkpt lat="45.329903104943924" lon="11.986515076607487"><ele>4.0</ele><time>2026-04-12T08:25:32.999Z</time></trkpt><trkpt lat="45.32982071460854" lon="11.986520963827168"><ele>4.0</ele><time>2026-04-12T08:25:33.999Z</time></trkpt><trkpt lat="45.32975322779028" lon="11.986281211197209"><ele>4.333333333333333</ele><time>2026-04-12T08:25:34.999Z</time></trkpt><trkpt lat="45.32965858749946" lon="11.98611944056235"><ele>4.666666666666667</ele><time>2026-04-12T08:25:35.999Z</time></trkpt><trkpt lat="45.32953163208963" lon="11.986009001511963"><ele>5.0</ele><time>2026-04-12T08:25:37Z</time></trkpt><trkpt lat="45.32938397843138" lon="11.985888077861304"><ele>5.333333333333334</ele><time>2026-04-12T08:25:38Z</time></trkpt><trkpt lat="45.32919458123761" lon="11.985763491131104"><ele>5.666666666666667</ele><time>2026-04-12T08:25:39Z</time></trkpt><trkpt lat="45.32899648655285" lon="11.985593036307385"><ele>6.0</ele><time>2026-04-12T08:25:40Z</time></trkpt><trkpt lat="45.32877073073343" lon="11.985445107562851"><ele>6.0</ele><time>2026-04-12T08:25:41Z</time></trkpt><trkpt lat="45.32854231238905" lon="11.98527640958152"><ele>6.0</ele><time>2026-04-12T08:25:42Z</time></trkpt><trkpt lat="45.32834674687542" lon="11.985112606435198"><ele>6.0</ele><time>2026-04-12T08:25:43Z</time></trkpt><trkpt lat="45.32815211855972" lon="11.985011408309111"><ele>6.0</ele><time>2026-04-12T08:25:44Z</time></trkpt><trkpt lat="45.32796311011042" lon="11.984923089994782"><ele>6.0</ele><time>2026-04-12T08:25:45Z</time></trkpt><trkpt lat="45.32775018660782" lon="11.984858523235628"><ele>6.0</ele><time>2026-04-12T08:25:46Z</time></trkpt><trkpt lat="45.32753040854546" lon="11.984813270993454"><ele>6.0</ele><time>2026-04-12T08:25:47Z</time></trkpt><trkpt lat="45.327309245099734" lon="11.984728971880966"><ele>6.0</ele><time>2026-04-12T08:25:48Z</time></trkpt><trkpt lat="45.32708498530628" lon="11.984687549580789"><ele>6.0</ele><time>2026-04-12T08:25:49Z</time></trkpt><trkpt lat="45.32688610014531" lon="11.9846344268799"><ele>6.0</ele><time>2026-04-12T08:25:50Z</time></trkpt><trkpt lat="45.326701624020004" lon="11.984591068528827"><ele>6.0</ele><time>2026-04-12T08:25:51Z</time></trkpt><trkpt lat="45.32651346451672" lon="11.984558319168235"><ele>6.0</ele><time>2026-04-12T08:25:52Z</time></trkpt><trkpt lat="45.326325030352905" lon="11.984563802138883"><ele>6.0</ele><time>2026-04-12T08:25:53Z</time></trkpt><trkpt lat="45.32614689009815" lon="11.98460048868911"><ele>5.75</ele><time>2026-04-12T08:25:54Z</time></trkpt><trkpt lat="45.325995257671856" lon="11.984623938923132"><ele>5.5</ele><time>2026-04-12T08:25:55Z</time></trkpt><trkpt lat="45.32585857973732" lon="11.984636001103063"><ele>5.25</ele><time>2026-04-12T08:25:56Z</time></trkpt><trkpt lat="45.32571802659611" lon="11.98460797149836"><ele>5.0</ele><time>2026-04-12T08:25:57Z</time></trkpt><trkpt lat="45.32556810415198" lon="11.984536478481775"><ele>5.666666666666667</ele><time>2026-04-12T08:25:58Z</time></trkpt><trkpt lat="45.325417588958665" lon="11.984445301352212"><ele>6.333333333333334</ele><time>2026-04-12T08:25:59Z</time></trkpt><trkpt lat="45.3252724852434" lon="11.98436991938402"><ele>7.0</ele><time>2026-04-12T08:26:00Z</time></trkpt><trkpt lat="45.32513040852944" lon="11.984288841383314"><ele>7.0</ele><time>2026-04-12T08:26:01Z</time></trkpt><trkpt lat="45.32497405125799" lon="11.984241080194831"><ele>7.0</ele><time>2026-04-12T08:26:02Z</time></trkpt><trkpt lat="45.32482062589376" lon="11.984229998569372"><ele>7.0</ele><time>2026-04-12T08:26:03Z</time></trkpt><trkpt lat="45.32469024794963" lon="11.98423565509868"><ele>7.0</ele><time>2026-04-12T08:26:04Z</time></trkpt><trkpt lat="45.32456922981678" lon="11.984233858236681"><ele>6.8</ele><time>2026-04-12T08:26:05Z</time></trkpt><trkpt lat="45.32447163828013" lon="11.984194610513038"><ele>6.6</ele><time>2026-04-12T08:26:06Z</time></trkpt><trkpt lat="45.32439616674734" lon="11.9841278395991"><ele>6.3999999999999995</ele><time>2026-04-12T08:26:07Z</time></trkpt><trkpt lat="45.3243383494905" lon="11.984027759333417"><ele>6.199999999999999</ele><time>2026-04-12T08:26:08Z</time></trkpt><trkpt lat="45.32431467856496" lon="11.983866439776605"><ele>6.0</ele><time>2026-04-12T08:26:09Z</time></trkpt><trkpt lat="45.32431447026997" lon="11.983670487802655"><ele>5.666666666666667</ele><time>2026-04-12T08:26:10Z</time></trkpt><trkpt lat="45.32432570223574" lon="11.98345300489491"><ele>5.333333333333334</ele><time>2026-04-12T08:26:11Z</time></trkpt><trkpt lat="45.32431635169738" lon="11.983221074645007"><ele>5.0</ele><time>2026-04-12T08:26:12Z</time></trkpt><trkpt lat="45.32426723300088" lon="11.98298618142013"><ele>5.0</ele><time>2026-04-12T08:26:13Z</time></trkpt><trkpt lat="45.32418756018702" lon="11.982734440937364"><ele>5.0</ele><time>2026-04-12T08:26:14Z</time></trkpt><trkpt lat="45.32408654677516" lon="11.982485190788758"><ele>5.0</ele><time>2026-04-12T08:26:15Z</time></trkpt><trkpt lat="45.32399888413784" lon="11.982274306987767"><ele>5.0</ele><time>2026-04-12T08:26:16Z</time></trkpt><trkpt lat="45.32393396862494" lon="11.982084003424694"><ele>5.0</ele><time>2026-04-12T08:26:17Z</time></trkpt><trkpt lat="45.32389148613076" lon="11.981922758188222"><ele>5.0</ele><time>2026-04-12T08:26:18Z</time></trkpt><trkpt lat="45.32384958719285" lon="11.98180031051492"><ele>5.0</ele><time>2026-04-12T08:26:19Z</time></trkpt><trkpt lat="45.323790694666755" lon="11.981692010073616"><ele>5.333333333333334</ele><time>2026-04-12T08:26:20Z</time></trkpt><trkpt lat="45.323656973820036" lon="11.981664528286982"><ele>5.666666666666667</ele><time>2026-04-12T08:26:21Z</time></trkpt><trkpt lat="45.32350652107733" lon="11.9816516256512"><ele>6.0</ele><time>2026-04-12T08:26:22Z</time></trkpt><trkpt lat="45.32334245540374" lon="11.98164871708923"><ele>6.0</ele><time>2026-04-12T08:26:23Z</time></trkpt><trkpt lat="45.323159538968284" lon="11.981612827114361"><ele>6.0</ele><time>2026-04-12T08:26:24Z</time></trkpt><trkpt lat="45.322979664753845" lon="11.981599099960519"><ele>6.0</ele><time>2026-04-12T08:26:25Z</time></trkpt><trkpt lat="45.32278938375166" lon="11.981634373362368"><ele>6.0</ele><time>2026-04-12T08:26:26Z</time></trkpt><trkpt lat="45.3226056977868" lon="11.98171225142279"><ele>6.0</ele><time>2026-04-12T08:26:27Z</time></trkpt><trkpt lat="45.32242754506794" lon="11.98182503256642"><ele>6.0</ele><time>2026-04-12T08:26:28Z</time></trkpt><trkpt lat="45.32226706253727" lon="11.981966145051649"><ele>6.0</ele><time>2026-04-12T08:26:29Z</time></trkpt><trkpt lat="45.322113936994775" lon="11.982146184740799"><ele>6.0</ele><time>2026-04-12T08:26:30Z</time></trkpt><trkpt lat="45.32197507526778" lon="11.982364480737514"><ele>6.0</ele><time>2026-04-12T08:26:31Z</time></trkpt><trkpt lat="45.32184805243416" lon="11.982601064462486"><ele>5.333333333333333</ele><time>2026-04-12T08:26:32Z</time></trkpt><trkpt lat="45.32171689219932" lon="11.982847905330004"><ele>4.666666666666666</ele><time>2026-04-12T08:26:33Z</time></trkpt><trkpt lat="45.321580476990896" lon="11.983093449092669"><ele>4.0</ele><time>2026-04-12T08:26:34Z</time></trkpt><trkpt lat="45.32145263306931" lon="11.98335009329762"><ele>5.0</ele><time>2026-04-12T08:26:35Z</time></trkpt><trkpt lat="45.32133919030032" lon="11.983623895080937"><ele>6.0</ele><time>2026-04-12T08:26:36Z</time></trkpt><trkpt lat="45.321230163464264" lon="11.983910821841299"><ele>6.0</ele><time>2026-04-12T08:26:37Z</time></trkpt><trkpt lat="45.321125267086835" lon="11.984170860213094"><ele>6.0</ele><time>2026-04-12T08:26:38Z</time></trkpt><trkpt lat="45.321022506235074" lon="11.984391028716713"><ele>6.0</ele><time>2026-04-12T08:26:39Z</time></trkpt><trkpt lat="45.3209120980043" lon="11.984600778753881"><ele>6.0</ele><time>2026-04-12T08:26:40Z</time></trkpt><trkpt lat="45.320778876336824" lon="11.984799010986876"><ele>6.0</ele><time>2026-04-12T08:26:41Z</time></trkpt><trkpt lat="45.32066178144494" lon="11.985039416751592"><ele>6.0</ele><time>2026-04-12T08:26:42Z</time></trkpt><trkpt lat="45.32052397030353" lon="11.985283769989548"><ele>6.0</ele><time>2026-04-12T08:26:43Z</time></trkpt><trkpt lat="45.320401427390905" lon="11.985546091863275"><ele>6.0</ele><time>2026-04-12T08:26:44Z</time></trkpt><trkpt lat="45.320275765221254" lon="11.985819287476323"><ele>5.0</ele><time>2026-04-12T08:26:45Z</time></trkpt><trkpt lat="45.32014795526762" lon="11.986090708512169"><ele>4.0</ele><time>2026-04-12T08:26:46Z</time></trkpt><trkpt lat="45.32000965467621" lon="11.986350498635103"><ele>4.0</ele><time>2026-04-12T08:26:47Z</time></trkpt><trkpt lat="45.31984850505215" lon="11.986580154970842"><ele>4.0</ele><time>2026-04-12T08:26:48Z</time></trkpt><trkpt lat="45.31969534315899" lon="11.986820710311035"><ele>6.0</ele><time>2026-04-12T08:26:49Z</time></trkpt><trkpt lat="45.319502762310734" lon="11.98700835847868"><ele>8.0</ele><time>2026-04-12T08:26:50Z</time></trkpt><trkpt lat="45.319300883701416" lon="11.987211822174567"><ele>8.0</ele><time>2026-04-12T08:26:51Z</time></trkpt><trkpt lat="45.319095866527825" lon="11.9874345116882"><ele>8.0</ele><time>2026-04-12T08:26:52Z</time></trkpt><trkpt lat="45.318875962355506" lon="11.987649779239034"><ele>7.0</ele><time>2026-04-12T08:26:53Z</time></trkpt><trkpt lat="45.318648574755" lon="11.987869892176095"><ele>6.0</ele><time>2026-04-12T08:26:54Z</time></trkpt><trkpt lat="45.3184191418519" lon="11.988095167809067"><ele>6.0</ele><time>2026-04-12T08:26:55Z</time></trkpt><trkpt lat="45.318180726457584" lon="11.988328064824268"><ele>6.0</ele><time>2026-04-12T08:26:56Z</time></trkpt><trkpt lat="45.31793859011191" lon="11.988557064145553"><ele>5.0</ele><time>2026-04-12T08:26:57Z</time></trkpt><trkpt lat="45.31768195544794" lon="11.988765312169395"><ele>4.0</ele><time>2026-04-12T08:26:58Z</time></trkpt><trkpt lat="45.31742618150354" lon="11.988953881512867"><ele>5.0</ele><time>2026-04-12T08:26:59Z</time></trkpt><trkpt lat="45.317156098507084" lon="11.989112951999045"><ele>6.0</ele><time>2026-04-12T08:27:00Z</time></trkpt><trkpt lat="45.31689948308543" lon="11.989307669657421"><ele>6.5</ele><time>2026-04-12T08:27:01Z</time></trkpt><trkpt lat="45.31665347424418" lon="11.989466299368097"><ele>7.0</ele><time>2026-04-12T08:27:02Z</time></trkpt><trkpt lat="45.316425704376826" lon="11.989625174767433"><ele>6.0</ele><time>2026-04-12T08:27:03Z</time></trkpt><trkpt lat="45.316222648179625" lon="11.989799285779208"><ele>5.0</ele><time>2026-04-12T08:27:04Z</time></trkpt><trkpt lat="45.31602625301076" lon="11.989993582754526"><ele>4.0</ele><time>2026-04-12T08:27:05Z</time></trkpt><trkpt lat="45.3158387439233" lon="11.99020988638819"><ele>3.0</ele><time>2026-04-12T08:27:06Z</time></trkpt><trkpt lat="45.315638302993534" lon="11.990420535805361"><ele>4.5</ele><time>2026-04-12T08:27:07Z</time></trkpt><trkpt lat="45.315430164328355" lon="11.990620113532861"><ele>6.0</ele><time>2026-04-12T08:27:08Z</time></trkpt><trkpt lat="45.31520594574903" lon="11.990796347571786"><ele>5.5</ele><time>2026-04-12T08:27:09Z</time></trkpt><trkpt lat="45.31497754231039" lon="11.990974795708631"><ele>5.0</ele><time>2026-04-12T08:27:10Z</time></trkpt><trkpt lat="45.314766602337656" lon="11.991167165096439"><ele>5.5</ele><time>2026-04-12T08:27:11Z</time></trkpt><trkpt lat="45.31455861919188" lon="11.991398863401342"><ele>6.0</ele><time>2026-04-12T08:27:12Z</time></trkpt><trkpt lat="45.31433583459566" lon="11.991619621419469"><ele>5.0</ele><time>2026-04-12T08:27:13Z</time></trkpt><trkpt lat="45.31412270327083" lon="11.991826032222198"><ele>4.0</ele><time>2026-04-12T08:27:14Z</time></trkpt><trkpt lat="45.31390302760488" lon="11.992033331499439"><ele>3.5</ele><time>2026-04-12T08:27:15Z</time></trkpt><trkpt lat="45.31368603216546" lon="11.992229073313238"><ele>3.0</ele><time>2026-04-12T08:27:16Z</time></trkpt><trkpt lat="45.31346541639563" lon="11.992427959351772"><ele>3.5</ele><time>2026-04-12T08:27:17Z</time></trkpt><trkpt lat="45.313247682234426" lon="11.992634719276339"><ele>4.0</ele><time>2026-04-12T08:27:18Z</time></trkpt><trkpt lat="45.313033861324215" lon="11.992847315732947"><ele>5.5</ele><time>2026-04-12T08:27:19Z</time></trkpt><trkpt lat="45.31280548195879" lon="11.99305067037544"><ele>7.0</ele><time>2026-04-12T08:27:20Z</time></trkpt><trkpt lat="45.31258670717042" lon="11.993244693975008"><ele>6.0</ele><time>2026-04-12T08:27:21Z</time></trkpt><trkpt lat="45.312365705270146" lon="11.993441335594875"><ele>5.0</ele><time>2026-04-12T08:27:22Z</time></trkpt><trkpt lat="45.312148507756724" lon="11.993639600296612"><ele>4.666666666666667</ele><time>2026-04-12T08:27:23Z</time></trkpt><trkpt lat="45.31195690647581" lon="11.993817774510886"><ele>4.333333333333333</ele><time>2026-04-12T08:27:24Z</time></trkpt><trkpt lat="45.311772500111246" lon="11.993981537573363"><ele>4.0</ele><time>2026-04-12T08:27:25Z</time></trkpt><trkpt lat="45.31159620816971" lon="11.994136092456696"><ele>4.0</ele><time>2026-04-12T08:27:26Z</time></trkpt><trkpt lat="45.3114197859253" lon="11.994290084683106"><ele>4.0</ele><time>2026-04-12T08:27:27Z</time></trkpt><trkpt lat="45.3112433014228" lon="11.99445336018253"><ele>4.0</ele><time>2026-04-12T08:27:28Z</time></trkpt><trkpt lat="45.3110770946882" lon="11.994617025254755"><ele>4.0</ele><time>2026-04-12T08:27:29Z</time></trkpt><trkpt lat="45.31091279880681" lon="11.994782459228206"><ele>4.0</ele><time>2026-04-12T08:27:30Z</time></trkpt><trkpt lat="45.31074279622705" lon="11.994955403254567"><ele>4.0</ele><time>2026-04-12T08:27:30.999Z</time></trkpt><trkpt lat="45.31058750451879" lon="11.99512513287042"><ele>4.333333333333333</ele><time>2026-04-12T08:27:31.999Z</time></trkpt><trkpt lat="45.310455530659276" lon="11.995288101007494"><ele>4.666666666666667</ele><time>2026-04-12T08:27:32.999Z</time></trkpt><trkpt lat="45.31034875527205" lon="11.995449307166151"><ele>5.0</ele><time>2026-04-12T08:27:33.999Z</time></trkpt><trkpt lat="45.31026092944377" lon="11.99564197903223"><ele>5.333333333333334</ele><time>2026-04-12T08:27:34.999Z</time></trkpt><trkpt lat="45.310178696184984" lon="11.995869579271474"><ele>5.666666666666667</ele><time>2026-04-12T08:27:35.999Z</time></trkpt><trkpt lat="45.31011774278653" lon="11.996132957882093"><ele>6.0</ele><time>2026-04-12T08:27:36.999Z</time></trkpt><trkpt lat="45.31004014103778" lon="11.996424768809176"><ele>6.0</ele><time>2026-04-12T08:27:37.999Z</time></trkpt><trkpt lat="45.30993730992358" lon="11.996727902469583"><ele>6.0</ele><time>2026-04-12T08:27:38.999Z</time></trkpt><trkpt lat="45.309856199152684" lon="11.996975689942529"><ele>6.0</ele><time>2026-04-12T08:27:39.999Z</time></trkpt><trkpt lat="45.30978585310404" lon="11.997200067981707"><ele>6.0</ele><time>2026-04-12T08:27:40.999Z</time></trkpt><trkpt lat="45.30971925853541" lon="11.997402549264178"><ele>6.0</ele><time>2026-04-12T08:27:41.999Z</time></trkpt><trkpt lat="45.30965018019962" lon="11.997593936504241"><ele>6.0</ele><time>2026-04-12T08:27:43Z</time></trkpt><trkpt lat="45.309578404397314" lon="11.997778503846806"><ele>5.75</ele><time>2026-04-12T08:27:44Z</time></trkpt><trkpt lat="45.30951371830799" lon="11.997947701975773"><ele>5.5</ele><time>2026-04-12T08:27:45Z</time></trkpt><trkpt lat="45.30943872275603" lon="11.99812198910243"><ele>5.25</ele><time>2026-04-12T08:27:46Z</time></trkpt><trkpt lat="45.309346723862376" lon="11.998298423245949"><ele>5.0</ele><time>2026-04-12T08:27:47Z</time></trkpt><trkpt lat="45.30924172094775" lon="11.998468327354006"><ele>5.0</ele><time>2026-04-12T08:27:48Z</time></trkpt><trkpt lat="45.309124085145235" lon="11.998622424948824"><ele>5.0</ele><time>2026-04-12T08:27:49Z</time></trkpt><trkpt lat="45.30900829311085" lon="11.9987720018317"><ele>5.0</ele><time>2026-04-12T08:27:50Z</time></trkpt><trkpt lat="45.308892070274304" lon="11.998915889055533"><ele>5.333333333333334</ele><time>2026-04-12T08:27:51Z</time></trkpt><trkpt lat="45.308770565521556" lon="11.999054136161073"><ele>5.666666666666667</ele><time>2026-04-12T08:27:52Z</time></trkpt><trkpt lat="45.30864610113742" lon="11.999183017600748"><ele>6.0</ele><time>2026-04-12T08:27:53Z</time></trkpt><trkpt lat="45.308524683130436" lon="11.999301525507846"><ele>6.0</ele><time>2026-04-12T08:27:54Z</time></trkpt><trkpt lat="45.30841326675483" lon="11.999393173195148"><ele>6.0</ele><time>2026-04-12T08:27:55Z</time></trkpt><trkpt lat="45.30830516465679" lon="11.999467108191807"><ele>6.0</ele><time>2026-04-12T08:27:56Z</time></trkpt><trkpt lat="45.308216107302044" lon="11.999530282511557"><ele>6.0</ele><time>2026-04-12T08:27:57Z</time></trkpt><trkpt lat="45.30814718207423" lon="11.99957667413472"><ele>6.0</ele><time>2026-04-12T08:27:58Z</time></trkpt><trkpt lat="45.308075683890635" lon="11.999609736359226"><ele>6.0</ele><time>2026-04-12T08:28:00Z</time></trkpt><trkpt lat="45.30799343737568" lon="11.999584813231314"><ele>6.0</ele><time>2026-04-12T08:28:05Z</time></trkpt><trkpt lat="45.30792230437903" lon="11.99953227840479"><ele>6.0</ele><time>2026-04-12T08:28:06Z</time></trkpt><trkpt lat="45.30782127356165" lon="11.99943634942224"><ele>6.0</ele><time>2026-04-12T08:28:07Z</time></trkpt><trkpt lat="45.30770065681506" lon="11.999339804270639"><ele>6.0</ele><time>2026-04-12T08:28:08Z</time></trkpt><trkpt lat="45.307570719485874" lon="11.999245107870827"><ele>6.333333333333334</ele><time>2026-04-12T08:28:09Z</time></trkpt><trkpt lat="45.30742917417751" lon="11.999135950590313"><ele>6.666666666666667</ele><time>2026-04-12T08:28:10Z</time></trkpt><trkpt lat="45.30728597757452" lon="11.999020490581144"><ele>7.0</ele><time>2026-04-12T08:28:11Z</time></trkpt><trkpt lat="45.30716503937272" lon="11.998921252559354"><ele>7.0</ele><time>2026-04-12T08:28:12Z</time></trkpt><trkpt lat="45.30705441773873" lon="11.998831889952442"><ele>6.999999999999999</ele><time>2026-04-12T08:28:13Z</time></trkpt><trkpt lat="45.3069607604351" lon="11.998755733765107"><ele>6.999999999999999</ele><time>2026-04-12T08:28:14Z</time></trkpt><trkpt lat="45.30687818444386" lon="11.998690926739357"><ele>7.0</ele><time>2026-04-12T08:28:15Z</time></trkpt><trkpt lat="45.30679943818899" lon="11.998633955794011"><ele>7.0</ele><time>2026-04-12T08:28:16Z</time></trkpt><trkpt lat="45.30672605267075" lon="11.998579689960348"><ele>7.0</ele><time>2026-04-12T08:28:17Z</time></trkpt><trkpt lat="45.306662331818195" lon="11.99852469439273"><ele>6.999999999999999</ele><time>2026-04-12T08:28:18Z</time></trkpt><trkpt lat="45.30660216129188" lon="11.998465664998097"><ele>6.999999999999999</ele><time>2026-04-12T08:28:19Z</time></trkpt><trkpt lat="45.30650523424598" lon="11.998371607706913"><ele>7.0</ele><time>2026-04-12T08:28:20Z</time></trkpt><trkpt lat="45.30639210759631" lon="11.99825919833791"><ele>7.0</ele><time>2026-04-12T08:28:21Z</time></trkpt><trkpt lat="45.30623935018926" lon="11.998108631631263"><ele>7.0</ele><time>2026-04-12T08:28:22Z</time></trkpt><trkpt lat="45.30607217365651" lon="11.99793077139785"><ele>7.0</ele><time>2026-04-12T08:28:23Z</time></trkpt><trkpt lat="45.305890096874954" lon="11.997718575494702"><ele>7.0</ele><time>2026-04-12T08:28:24Z</time></trkpt><trkpt lat="45.30568332754117" lon="11.997489151210175"><ele>6.0</ele><time>2026-04-12T08:28:25Z</time></trkpt><trkpt lat="45.30549884829291" lon="11.997292528473201"><ele>5.0</ele><time>2026-04-12T08:28:26Z</time></trkpt><trkpt lat="45.30533703792242" lon="11.9971157262321"><ele>4.0</ele><time>2026-04-12T08:28:27Z</time></trkpt><trkpt lat="45.30519290867578" lon="11.996956145538375"><ele>4.0</ele><time>2026-04-12T08:28:28Z</time></trkpt><trkpt lat="45.305062346321485" lon="11.996815032561019"><ele>4.0</ele><time>2026-04-12T08:28:29Z</time></trkpt><trkpt lat="45.30493181904734" lon="11.996679430203226"><ele>4.0</ele><time>2026-04-12T08:28:30Z</time></trkpt><trkpt lat="45.304813014741505" lon="11.996553461494821"><ele>4.25</ele><time>2026-04-12T08:28:31Z</time></trkpt><trkpt lat="45.30470816715953" lon="11.996437920880084"><ele>4.5</ele><time>2026-04-12T08:28:32Z</time></trkpt><trkpt lat="45.30460887001208" lon="11.996329059151591"><ele>4.75</ele><time>2026-04-12T08:28:33Z</time></trkpt><trkpt lat="45.30452274786901" lon="11.996237059760166"><ele>5.0</ele><time>2026-04-12T08:28:34Z</time></trkpt><trkpt lat="45.304454556849976" lon="11.996162428436287"><ele>5.0</ele><time>2026-04-12T08:28:35Z</time></trkpt><trkpt lat="45.304397313240344" lon="11.996079049098764"><ele>5.0</ele><time>2026-04-12T08:28:37Z</time></trkpt><trkpt lat="45.30434850347511" lon="11.996304698661321"><ele>5.0</ele><time>2026-04-12T08:28:39Z</time></trkpt><trkpt lat="45.30436198976228" lon="11.996478034651425"><ele>5.0</ele><time>2026-04-12T08:28:40Z</time></trkpt><trkpt lat="45.30436286114172" lon="11.996655410090634"><ele>5.0</ele><time>2026-04-12T08:28:41Z</time></trkpt><trkpt lat="45.30435504292047" lon="11.996838429288363"><ele>5.0</ele><time>2026-04-12T08:28:42Z</time></trkpt><trkpt lat="45.3043322656082" lon="11.997064505710394"><ele>5.0</ele><time>2026-04-12T08:28:43Z</time></trkpt><trkpt lat="45.304319040114265" lon="11.99732373204203"><ele>5.0</ele><time>2026-04-12T08:28:44Z</time></trkpt><trkpt lat="45.30431285533076" lon="11.9975975491272"><ele>5.0</ele><time>2026-04-12T08:28:45Z</time></trkpt><trkpt lat="45.304315138735696" lon="11.997830446866644"><ele>5.0</ele><time>2026-04-12T08:28:46Z</time></trkpt><trkpt lat="45.30431500540672" lon="11.998044439779468"><ele>5.0</ele><time>2026-04-12T08:28:47Z</time></trkpt><trkpt lat="45.304331703325225" lon="11.998226928148087"><ele>5.0</ele><time>2026-04-12T08:28:48Z</time></trkpt><trkpt lat="45.304356396393416" lon="11.998399720163263"><ele>5.0</ele><time>2026-04-12T08:28:49Z</time></trkpt><trkpt lat="45.30439445896298" lon="11.998572754349953"><ele>5.0</ele><time>2026-04-12T08:28:50Z</time></trkpt><trkpt lat="45.30446172568213" lon="11.998762468062564"><ele>5.0</ele><time>2026-04-12T08:28:51Z</time></trkpt><trkpt lat="45.30455360567016" lon="11.998945366204609"><ele>5.0</ele><time>2026-04-12T08:28:52Z</time></trkpt><trkpt lat="45.30463400807164" lon="11.999105143172358"><ele>5.0</ele><time>2026-04-12T08:28:53Z</time></trkpt><trkpt lat="45.304681251377325" lon="11.999260772458808"><ele>5.0</ele><time>2026-04-12T08:28:54Z</time></trkpt><trkpt lat="45.30466525401002" lon="11.999422150814784"><ele>5.0</ele><time>2026-04-12T08:28:55Z</time></trkpt><trkpt lat="45.30463006104141" lon="11.99956096844308"><ele>5.0</ele><time>2026-04-12T08:28:56Z</time></trkpt><trkpt lat="45.3045761197471" lon="11.99974010078291"><ele>5.0</ele><time>2026-04-12T08:28:57Z</time></trkpt><trkpt lat="45.30451774376531" lon="11.999962376948302"><ele>5.0</ele><time>2026-04-12T08:28:58Z</time></trkpt><trkpt lat="45.30443652349789" lon="12.000208250452879"><ele>5.0</ele><time>2026-04-12T08:28:59Z</time></trkpt><trkpt lat="45.30433811924085" lon="12.000437270831068"><ele>5.0</ele><time>2026-04-12T08:29:00Z</time></trkpt><trkpt lat="45.304195476151364" lon="12.00063975827713"><ele>5.0</ele><time>2026-04-12T08:29:01Z</time></trkpt><trkpt lat="45.304058244969795" lon="12.000883238029019"><ele>5.5</ele><time>2026-04-12T08:29:02Z</time></trkpt><trkpt lat="45.303904318260265" lon="12.001118925670061"><ele>6.0</ele><time>2026-04-12T08:29:03Z</time></trkpt><trkpt lat="45.30375557592875" lon="12.001374591449055"><ele>6.0</ele><time>2026-04-12T08:29:04Z</time></trkpt><trkpt lat="45.30362521665176" lon="12.001605636507604"><ele>6.0</ele><time>2026-04-12T08:29:05Z</time></trkpt><trkpt lat="45.303503318190025" lon="12.00180341322212"><ele>6.0</ele><time>2026-04-12T08:29:06Z</time></trkpt><trkpt lat="45.30339806291139" lon="12.001984248492413"><ele>5.666666666666667</ele><time>2026-04-12T08:29:07Z</time></trkpt><trkpt lat="45.30331398436605" lon="12.00217518991298"><ele>5.333333333333334</ele><time>2026-04-12T08:29:08Z</time></trkpt><trkpt lat="45.30325340491719" lon="12.00240917910049"><ele>5.0</ele><time>2026-04-12T08:29:09Z</time></trkpt><trkpt lat="45.30321954464104" lon="12.002667059277414"><ele>4.666666666666667</ele><time>2026-04-12T08:29:10Z</time></trkpt><trkpt lat="45.303202753217" lon="12.002920394191086"><ele>4.333333333333333</ele><time>2026-04-12T08:29:11Z</time></trkpt><trkpt lat="45.303137051278014" lon="12.003167694480885"><ele>4.0</ele><time>2026-04-12T08:29:12Z</time></trkpt><trkpt lat="45.303048347187946" lon="12.003416152429311"><ele>4.666666666666666</ele><time>2026-04-12T08:29:13Z</time></trkpt><trkpt lat="45.302972619130585" lon="12.00365819772241"><ele>5.333333333333333</ele><time>2026-04-12T08:29:14Z</time></trkpt><trkpt lat="45.302902939488256" lon="12.003856295791909"><ele>6.0</ele><time>2026-04-12T08:29:15Z</time></trkpt><trkpt lat="45.30285100094802" lon="12.004059506146085"><ele>5.666666666666667</ele><time>2026-04-12T08:29:16Z</time></trkpt><trkpt lat="45.30283750666492" lon="12.004271006674339"><ele>5.333333333333334</ele><time>2026-04-12T08:29:17Z</time></trkpt><trkpt lat="45.30286108223481" lon="12.004494928891106"><ele>5.0</ele><time>2026-04-12T08:29:18Z</time></trkpt><trkpt lat="45.30291547906548" lon="12.004733489510798"><ele>5.0</ele><time>2026-04-12T08:29:19Z</time></trkpt><trkpt lat="45.30297994639316" lon="12.004986995875484"><ele>5.0</ele><time>2026-04-12T08:29:20Z</time></trkpt><trkpt lat="45.30302619440822" lon="12.00527316444581"><ele>5.0</ele><time>2026-04-12T08:29:21Z</time></trkpt><trkpt lat="45.303050471262665" lon="12.005581809763152"><ele>4.0</ele><time>2026-04-12T08:29:22Z</time></trkpt><trkpt lat="45.30304202156807" lon="12.00591913199788"><ele>3.0</ele><time>2026-04-12T08:29:23Z</time></trkpt><trkpt lat="45.30304517184632" lon="12.006243706120728"><ele>3.0</ele><time>2026-04-12T08:29:24Z</time></trkpt><trkpt lat="45.30305821622404" lon="12.006528706308307"><ele>3.0</ele><time>2026-04-12T08:29:25Z</time></trkpt><trkpt lat="45.30306237882394" lon="12.006777679393513"><ele>3.0</ele><time>2026-04-12T08:29:26Z</time></trkpt><trkpt lat="45.30305938730542" lon="12.006997152624521"><ele>3.0</ele><time>2026-04-12T08:29:27Z</time></trkpt><trkpt lat="45.303026868440114" lon="12.00718164606894"><ele>3.0</ele><time>2026-04-12T08:29:28Z</time></trkpt><trkpt lat="45.3030129364176" lon="12.00736044412018"><ele>3.0</ele><time>2026-04-12T08:29:29Z</time></trkpt><trkpt lat="45.303000761411646" lon="12.007538716538672"><ele>3.0</ele><time>2026-04-12T08:29:30Z</time></trkpt><trkpt lat="45.30302751178509" lon="12.007755342768341"><ele>3.333333333333333</ele><time>2026-04-12T08:29:31Z</time></trkpt><trkpt lat="45.30308679426321" lon="12.00799805566555"><ele>3.6666666666666665</ele><time>2026-04-12T08:29:32Z</time></trkpt><trkpt lat="45.30314969065374" lon="12.008258523203725"><ele>4.0</ele><time>2026-04-12T08:29:33Z</time></trkpt><trkpt lat="45.30320544383246" lon="12.008523958130736"><ele>4.0</ele><time>2026-04-12T08:29:34Z</time></trkpt><trkpt lat="45.30324896223674" lon="12.00878215742358"><ele>4.0</ele><time>2026-04-12T08:29:35Z</time></trkpt><trkpt lat="45.3032725316157" lon="12.009020691269255"><ele>4.0</ele><time>2026-04-12T08:29:36Z</time></trkpt><trkpt lat="45.303284451235506" lon="12.009252557269557"><ele>3.75</ele><time>2026-04-12T08:29:37Z</time></trkpt><trkpt lat="45.30328756838077" lon="12.009459225340569"><ele>3.5</ele><time>2026-04-12T08:29:38Z</time></trkpt><trkpt lat="45.30329166311792" lon="12.009649203443727"><ele>3.25</ele><time>2026-04-12T08:29:39Z</time></trkpt><trkpt lat="45.303307946666536" lon="12.009825089192576"><ele>3.0</ele><time>2026-04-12T08:29:39.999Z</time></trkpt><trkpt lat="45.30334783008748" lon="12.009984621433729"><ele>3.0</ele><time>2026-04-12T08:29:40.999Z</time></trkpt><trkpt lat="45.30340058714587" lon="12.010138622363236"><ele>3.0</ele><time>2026-04-12T08:29:41.999Z</time></trkpt><trkpt lat="45.303427232386724" lon="12.010289825036727"><ele>3.0</ele><time>2026-04-12T08:29:42.999Z</time></trkpt><trkpt lat="45.30345156822406" lon="12.010421050074033"><ele>3.0</ele><time>2026-04-12T08:29:43.999Z</time></trkpt><trkpt lat="45.303394271069045" lon="12.01054133779303"><ele>3.0</ele><time>2026-04-12T08:29:44.999Z</time></trkpt><trkpt lat="45.30337267676489" lon="12.010690936048611"><ele>3.333333333333333</ele><time>2026-04-12T08:29:45.999Z</time></trkpt><trkpt lat="45.30331548614796" lon="12.010861892201103"><ele>3.6666666666666665</ele><time>2026-04-12T08:29:46.999Z</time></trkpt><trkpt lat="45.30326084266524" lon="12.011089471178892"><ele>4.0</ele><time>2026-04-12T08:29:47.999Z</time></trkpt><trkpt lat="45.303201019663405" lon="12.011331342878144"><ele>4.0</ele><time>2026-04-12T08:29:49Z</time></trkpt><trkpt lat="45.30312836179606" lon="12.011585316399318"><ele>4.0</ele><time>2026-04-12T08:29:50Z</time></trkpt><trkpt lat="45.3030537673486" lon="12.011859196324652"><ele>4.0</ele><time>2026-04-12T08:29:51Z</time></trkpt><trkpt lat="45.302978724996116" lon="12.01214627614709"><ele>3.6666666666666665</ele><time>2026-04-12T08:29:52Z</time></trkpt><trkpt lat="45.30290913241102" lon="12.012414790266199"><ele>3.333333333333333</ele><time>2026-04-12T08:29:53Z</time></trkpt><trkpt lat="45.302843139869836" lon="12.01264981760166"><ele>3.0</ele><time>2026-04-12T08:29:54Z</time></trkpt><trkpt lat="45.30278233865104" lon="12.012861999118984"><ele>3.333333333333333</ele><time>2026-04-12T08:29:55Z</time></trkpt><trkpt lat="45.302723213392035" lon="12.013082120628663"><ele>3.6666666666666665</ele><time>2026-04-12T08:29:56Z</time></trkpt><trkpt lat="45.302669061346215" lon="12.013296250881002"><ele>4.0</ele><time>2026-04-12T08:29:57Z</time></trkpt><trkpt lat="45.30262527249571" lon="12.01348254010247"><ele>4.0</ele><time>2026-04-12T08:29:58Z</time></trkpt><trkpt lat="45.30257814215982" lon="12.013654030332741"><ele>4.0</ele><time>2026-04-12T08:29:59Z</time></trkpt><trkpt lat="45.30252823556987" lon="12.013810492956798"><ele>4.0</ele><time>2026-04-12T08:30:00Z</time></trkpt><trkpt lat="45.30248991383836" lon="12.013960906969272"><ele>4.0</ele><time>2026-04-12T08:30:01Z</time></trkpt><trkpt lat="45.302455916303785" lon="12.014092173941492"><ele>3.6</ele><time>2026-04-12T08:30:02Z</time></trkpt><trkpt lat="45.30242117919422" lon="12.01421007971516"><ele>3.2</ele><time>2026-04-12T08:30:03Z</time></trkpt><trkpt lat="45.30238822486681" lon="12.014311419381963"><ele>2.8000000000000003</ele><time>2026-04-12T08:30:04Z</time></trkpt><trkpt lat="45.30235447024634" lon="12.014437102441777"><ele>2.4000000000000004</ele><time>2026-04-12T08:30:06Z</time></trkpt><trkpt lat="45.30219498245757" lon="12.014348218419268"><ele>2.0</ele><time>2026-04-12T08:30:09Z</time></trkpt><trkpt lat="45.30207025513467" lon="12.014308114355467"><ele>2.0</ele><time>2026-04-12T08:30:10Z</time></trkpt><trkpt lat="45.301937080193994" lon="12.014237876006371"><ele>2.0</ele><time>2026-04-12T08:30:11Z</time></trkpt><trkpt lat="45.301787541491926" lon="12.01413149015339"><ele>2.0</ele><time>2026-04-12T08:30:12Z</time></trkpt><trkpt lat="45.3016107640033" lon="12.014019377570028"><ele>2.333333333333333</ele><time>2026-04-12T08:30:13Z</time></trkpt><trkpt lat="45.301434864086765" lon="12.013931893584932"><ele>2.6666666666666665</ele><time>2026-04-12T08:30:14Z</time></trkpt><trkpt lat="45.30124884892939" lon="12.013852705351798"><ele>3.0</ele><time>2026-04-12T08:30:15Z</time></trkpt><trkpt lat="45.301038546397685" lon="12.01379976198783"><ele>3.0</ele><time>2026-04-12T08:30:16Z</time></trkpt><trkpt lat="45.300817902584676" lon="12.013759737685982"><ele>3.0</ele><time>2026-04-12T08:30:17Z</time></trkpt><trkpt lat="45.300625347030554" lon="12.01369215551917"><ele>3.0</ele><time>2026-04-12T08:30:18Z</time></trkpt><trkpt lat="45.3004431184632" lon="12.013667547727882"><ele>2.6666666666666665</ele><time>2026-04-12T08:30:19Z</time></trkpt><trkpt lat="45.30025300492029" lon="12.013615711271148"><ele>2.333333333333333</ele><time>2026-04-12T08:30:20Z</time></trkpt><trkpt lat="45.30006256385131" lon="12.013552143672907"><ele>2.0</ele><time>2026-04-12T08:30:21Z</time></trkpt><trkpt lat="45.29988117335939" lon="12.013471356029607"><ele>1.6666666666666665</ele><time>2026-04-12T08:30:22Z</time></trkpt><trkpt lat="45.2997361797707" lon="12.013344509229492"><ele>1.3333333333333333</ele><time>2026-04-12T08:30:23Z</time></trkpt><trkpt lat="45.299603727697644" lon="12.01324246734762"><ele>1.0</ele><time>2026-04-12T08:30:24Z</time></trkpt><trkpt lat="45.2994655153207" lon="12.013169028011108"><ele>1.0</ele><time>2026-04-12T08:30:25Z</time></trkpt><trkpt lat="45.29931891504847" lon="12.013096253358613"><ele>1.0</ele><time>2026-04-12T08:30:26Z</time></trkpt><trkpt lat="45.29915509010508" lon="12.01306938161121"><ele>1.0</ele><time>2026-04-12T08:30:27Z</time></trkpt><trkpt lat="45.29898302851312" lon="12.01308039797428"><ele>1.3333333333333333</ele><time>2026-04-12T08:30:28Z</time></trkpt><trkpt lat="45.29881207718889" lon="12.013082946476455"><ele>1.6666666666666665</ele><time>2026-04-12T08:30:29Z</time></trkpt><trkpt lat="45.298670309272374" lon="12.013025510041079"><ele>2.0</ele><time>2026-04-12T08:30:30Z</time></trkpt><trkpt lat="45.298526948321715" lon="12.01294852882741"><ele>2.0</ele><time>2026-04-12T08:30:31Z</time></trkpt><trkpt lat="45.29838235321237" lon="12.012838681050221"><ele>2.0</ele><time>2026-04-12T08:30:32Z</time></trkpt><trkpt lat="45.29822559925176" lon="12.012700956110564"><ele>2.0</ele><time>2026-04-12T08:30:33Z</time></trkpt><trkpt lat="45.29806420858345" lon="12.012549227872409"><ele>2.333333333333333</ele><time>2026-04-12T08:30:34Z</time></trkpt><trkpt lat="45.29790030914534" lon="12.01239921449142"><ele>2.6666666666666665</ele><time>2026-04-12T08:30:35Z</time></trkpt><trkpt lat="45.29772147113676" lon="12.01227175451196"><ele>3.0</ele><time>2026-04-12T08:30:36Z</time></trkpt><trkpt lat="45.29753938147129" lon="12.012133779591993"><ele>3.0</ele><time>2026-04-12T08:30:37Z</time></trkpt><trkpt lat="45.297357911135066" lon="12.01201923401424"><ele>3.0</ele><time>2026-04-12T08:30:38Z</time></trkpt><trkpt lat="45.29718877008511" lon="12.011932840400263"><ele>3.0</ele><time>2026-04-12T08:30:39Z</time></trkpt><trkpt lat="45.29703480611867" lon="12.011860165988923"><ele>3.0</ele><time>2026-04-12T08:30:40Z</time></trkpt><trkpt lat="45.296900294810335" lon="12.011766341079994"><ele>3.0</ele><time>2026-04-12T08:30:41Z</time></trkpt><trkpt lat="45.296769957489616" lon="12.011673564093776"><ele>3.0</ele><time>2026-04-12T08:30:42Z</time></trkpt><trkpt lat="45.29663143655832" lon="12.011560758965041"><ele>3.0</ele><time>2026-04-12T08:30:43Z</time></trkpt><trkpt lat="45.29648692892719" lon="12.011439782741945"><ele>3.0</ele><time>2026-04-12T08:30:44Z</time></trkpt><trkpt lat="45.2963601627235" lon="12.011333658732514"><ele>3.0</ele><time>2026-04-12T08:30:45Z</time></trkpt><trkpt lat="45.296254216402986" lon="12.011245410782458"><ele>3.0</ele><time>2026-04-12T08:30:46Z</time></trkpt><trkpt lat="45.296170649940834" lon="12.011180424160736"><ele>3.0</ele><time>2026-04-12T08:30:47Z</time></trkpt><trkpt lat="45.29609873963058" lon="12.011141765173667"><ele>3.0</ele><time>2026-04-12T08:30:48Z</time></trkpt><trkpt lat="45.29601745193026" lon="12.011172490920343"><ele>3.0</ele><time>2026-04-12T08:30:49Z</time></trkpt><trkpt lat="45.295969905336996" lon="12.011296657261896"><ele>3.0</ele><time>2026-04-12T08:30:50Z</time></trkpt><trkpt lat="45.295918395626856" lon="12.01141948213352"><ele>3.0</ele><time>2026-04-12T08:30:51Z</time></trkpt><trkpt lat="45.29586907368783" lon="12.011533468098795"><ele>3.0</ele><time>2026-04-12T08:30:52Z</time></trkpt><trkpt lat="45.295830360595346" lon="12.011653852147042"><ele>3.0</ele><time>2026-04-12T08:30:53Z</time></trkpt><trkpt lat="45.29580058251182" lon="12.011780735683585"><ele>3.0</ele><time>2026-04-12T08:30:54Z</time></trkpt><trkpt lat="45.29576601452197" lon="12.011912227755634"><ele>3.0</ele><time>2026-04-12T08:30:55Z</time></trkpt><trkpt lat="45.29573373252507" lon="12.012030324791718"><ele>3.0</ele><time>2026-04-12T08:30:56Z</time></trkpt><trkpt lat="45.295703302159794" lon="12.012150929396862"><ele>3.0</ele><time>2026-04-12T08:30:57Z</time></trkpt><trkpt lat="45.29566023510197" lon="12.012271732710209"><ele>3.0</ele><time>2026-04-12T08:30:58Z</time></trkpt><trkpt lat="45.295586946380446" lon="12.012342498423406"><ele>3.0</ele><time>2026-04-12T08:30:59Z</time></trkpt><trkpt lat="45.29551051462289" lon="12.01237571779135"><ele>3.0</ele><time>2026-04-12T08:31:00Z</time></trkpt><trkpt lat="45.295419890909855" lon="12.012358997474562"><ele>3.0</ele><time>2026-04-12T08:31:01Z</time></trkpt><trkpt lat="45.29531106449059" lon="12.012317264970136"><ele>3.0</ele><time>2026-04-12T08:31:02Z</time></trkpt><trkpt lat="45.295175473869755" lon="12.012291607271967"><ele>3.0</ele><time>2026-04-12T08:31:03Z</time></trkpt><trkpt lat="45.29506397935024" lon="12.012245426396635"><ele>3.0</ele><time>2026-04-12T08:31:04Z</time></trkpt><trkpt lat="45.29497118982493" lon="12.012237877269532"><ele>3.0</ele><time>2026-04-12T08:31:05Z</time></trkpt><trkpt lat="45.29488862788538" lon="12.012267833527897"><ele>3.0</ele><time>2026-04-12T08:31:06Z</time></trkpt><trkpt lat="45.294810067324704" lon="12.012316061968342"><ele>2.75</ele><time>2026-04-12T08:31:07Z</time></trkpt><trkpt lat="45.294754134251875" lon="12.012474820418571"><ele>2.5</ele><time>2026-04-12T08:31:08Z</time></trkpt><trkpt lat="45.29469884206878" lon="12.012656682034617"><ele>2.25</ele><time>2026-04-12T08:31:09Z</time></trkpt><trkpt lat="45.294646316788615" lon="12.012878091854908"><ele>2.0</ele><time>2026-04-12T08:31:10Z</time></trkpt><trkpt lat="45.29456159290421" lon="12.01312362672595"><ele>2.0</ele><time>2026-04-12T08:31:11Z</time></trkpt><trkpt lat="45.294478298168265" lon="12.013416537326504"><ele>2.0</ele><time>2026-04-12T08:31:12Z</time></trkpt><trkpt lat="45.29439471740101" lon="12.013729235630842"><ele>2.0</ele><time>2026-04-12T08:31:13Z</time></trkpt><trkpt lat="45.294323935971356" lon="12.013999810891287"><ele>2.0</ele><time>2026-04-12T08:31:14Z</time></trkpt><trkpt lat="45.29424618629275" lon="12.014232432108608"><ele>2.0</ele><time>2026-04-12T08:31:15Z</time></trkpt><trkpt lat="45.29414019202115" lon="12.014446386627338"><ele>2.0</ele><time>2026-04-12T08:31:16Z</time></trkpt><trkpt lat="45.29401843584145" lon="12.014680613169514"><ele>2.0</ele><time>2026-04-12T08:31:17Z</time></trkpt><trkpt lat="45.29390475315426" lon="12.01493618319917"><ele>2.0</ele><time>2026-04-12T08:31:18Z</time></trkpt><trkpt lat="45.29381620895841" lon="12.015220777318527"><ele>1.6666666666666665</ele><time>2026-04-12T08:31:19Z</time></trkpt><trkpt lat="45.293713431533064" lon="12.015507473938088"><ele>1.3333333333333333</ele><time>2026-04-12T08:31:20Z</time></trkpt><trkpt lat="45.29359707589857" lon="12.015749673568862"><ele>1.0</ele><time>2026-04-12T08:31:21Z</time></trkpt><trkpt lat="45.293488881437746" lon="12.015951977768822"><ele>0.6666666666666666</ele><time>2026-04-12T08:31:22Z</time></trkpt><trkpt lat="45.29338856734505" lon="12.016138761999104"><ele>0.3333333333333333</ele><time>2026-04-12T08:31:23Z</time></trkpt><trkpt lat="45.2933128528921" lon="12.016344956103074"><ele>0.0</ele><time>2026-04-12T08:31:24Z</time></trkpt><trkpt lat="45.29324036227381" lon="12.016548735530735"><ele>0.0</ele><time>2026-04-12T08:31:25Z</time></trkpt><trkpt lat="45.293155506797724" lon="12.016714923676915"><ele>0.0</ele><time>2026-04-12T08:31:26Z</time></trkpt><trkpt lat="45.2930854011248" lon="12.016848777347374"><ele>0.0</ele><time>2026-04-12T08:31:27Z</time></trkpt><trkpt lat="45.292986812938274" lon="12.016953890412012"><ele>0.0</ele><time>2026-04-12T08:31:28Z</time></trkpt><trkpt lat="45.29285763954024" lon="12.01700654735757"><ele>0.0</ele><time>2026-04-12T08:31:28.999Z</time></trkpt><trkpt lat="45.29274881782936" lon="12.017109742767072"><ele>0.0</ele><time>2026-04-12T08:31:29.999Z</time></trkpt><trkpt lat="45.2926578312348" lon="12.017209248377553"><ele>0.0</ele><time>2026-04-12T08:31:30.999Z</time></trkpt><trkpt lat="45.292592752933956" lon="12.017356026774253"><ele>0.0</ele><time>2026-04-12T08:31:31.999Z</time></trkpt><trkpt lat="45.29254697643608" lon="12.017534930451523"><ele>0.3333333333333333</ele><time>2026-04-12T08:31:32.999Z</time></trkpt><trkpt lat="45.29251977509184" lon="12.017743515931482"><ele>0.6666666666666666</ele><time>2026-04-12T08:31:33.999Z</time></trkpt><trkpt lat="45.29249904236942" lon="12.017969628703069"><ele>1.0</ele><time>2026-04-12T08:31:34.999Z</time></trkpt><trkpt lat="45.29248977745966" lon="12.018200784137116"><ele>1.3333333333333333</ele><time>2026-04-12T08:31:35.999Z</time></trkpt><trkpt lat="45.29248849125753" lon="12.01845757799528"><ele>1.6666666666666665</ele><time>2026-04-12T08:31:36.999Z</time></trkpt><trkpt lat="45.29250629320814" lon="12.018730746917118"><ele>2.0</ele><time>2026-04-12T08:31:37.999Z</time></trkpt><trkpt lat="45.29254166811096" lon="12.019026618788615"><ele>1.6666666666666665</ele><time>2026-04-12T08:31:38.999Z</time></trkpt><trkpt lat="45.292587047436704" lon="12.019299289476677"><ele>1.3333333333333333</ele><time>2026-04-12T08:31:39.999Z</time></trkpt><trkpt lat="45.292634690638614" lon="12.019535740811488"><ele>1.0</ele><time>2026-04-12T08:31:40.999Z</time></trkpt><trkpt lat="45.29272066789138" lon="12.019768781261753"><ele>1.0</ele><time>2026-04-12T08:31:41.999Z</time></trkpt><trkpt lat="45.292823440857795" lon="12.020010405919772"><ele>1.0</ele><time>2026-04-12T08:31:42.999Z</time></trkpt><trkpt lat="45.29293594513367" lon="12.020234410730449"><ele>1.0</ele><time>2026-04-12T08:31:43.999Z</time></trkpt><trkpt lat="45.29304447686196" lon="12.020427538799321"><ele>1.0</ele><time>2026-04-12T08:31:44.999Z</time></trkpt><trkpt lat="45.29314855917761" lon="12.020572630040217"><ele>1.0</ele><time>2026-04-12T08:31:45.999Z</time></trkpt><trkpt lat="45.293261901808926" lon="12.020704971448227"><ele>1.0</ele><time>2026-04-12T08:31:46.999Z</time></trkpt><trkpt lat="45.293376073859875" lon="12.020807844957963"><ele>1.0</ele><time>2026-04-12T08:31:47.999Z</time></trkpt><trkpt lat="45.29348016315945" lon="12.020910481270418"><ele>0.5</ele><time>2026-04-12T08:31:48.999Z</time></trkpt><trkpt lat="45.29357378395208" lon="12.02099946887753"><ele>0.0</ele><time>2026-04-12T08:31:49.999Z</time></trkpt><trkpt lat="45.29366265816063" lon="12.021077234689185"><ele>-0.5</ele><time>2026-04-12T08:31:50.999Z</time></trkpt><trkpt lat="45.293753301971215" lon="12.0211640963698"><ele>-1.0</ele><time>2026-04-12T08:31:51.999Z</time></trkpt><trkpt lat="45.29385106602894" lon="12.021286559703697"><ele>-0.4</ele><time>2026-04-12T08:31:52.999Z</time></trkpt><trkpt lat="45.2939403432544" lon="12.021386319308471"><ele>0.19999999999999996</ele><time>2026-04-12T08:31:53.999Z</time></trkpt><trkpt lat="45.293996884216824" lon="12.021502757119903"><ele>0.8000000000000002</ele><time>2026-04-12T08:31:55Z</time></trkpt><trkpt lat="45.29402134113992" lon="12.021646602974574"><ele>1.4000000000000001</ele><time>2026-04-12T08:31:56Z</time></trkpt><trkpt lat="45.29403100214629" lon="12.021827785554985"><ele>2.0</ele><time>2026-04-12T08:31:57Z</time></trkpt><trkpt lat="45.294056180203405" lon="12.022026623949015"><ele>2.0</ele><time>2026-04-12T08:31:58Z</time></trkpt><trkpt lat="45.294055519847156" lon="12.02225944764095"><ele>2.0</ele><time>2026-04-12T08:31:59Z</time></trkpt><trkpt lat="45.294068326119536" lon="12.022454172656795"><ele>2.0</ele><time>2026-04-12T08:32:00Z</time></trkpt><trkpt lat="45.294097137923934" lon="12.022624069932878"><ele>2.0</ele><time>2026-04-12T08:32:01Z</time></trkpt><trkpt lat="45.29415283178611" lon="12.022787711359584"><ele>1.5</ele><time>2026-04-12T08:32:02Z</time></trkpt><trkpt lat="45.294241050420645" lon="12.02293393920074"><ele>1.0</ele><time>2026-04-12T08:32:03Z</time></trkpt><trkpt lat="45.2943588491298" lon="12.023072153427558"><ele>0.5</ele><time>2026-04-12T08:32:04Z</time></trkpt><trkpt lat="45.29448510643933" lon="12.023194269870105"><ele>0.0</ele><time>2026-04-12T08:32:05Z</time></trkpt><trkpt lat="45.294589538746116" lon="12.023297462987063"><ele>0.0</ele><time>2026-04-12T08:32:06Z</time></trkpt><trkpt lat="45.29467967178901" lon="12.023388193367403"><ele>0.0</ele><time>2026-04-12T08:32:07Z</time></trkpt><trkpt lat="45.294800031104636" lon="12.023526571460902"><ele>0.0</ele><time>2026-04-12T08:32:08Z</time></trkpt><trkpt lat="45.29495171046401" lon="12.023685850107464"><ele>0.5</ele><time>2026-04-12T08:32:09Z</time></trkpt><trkpt lat="45.2950966949394" lon="12.023815371612134"><ele>1.0</ele><time>2026-04-12T08:32:10Z</time></trkpt><trkpt lat="45.29520881472548" lon="12.023936760267462"><ele>1.5</ele><time>2026-04-12T08:32:11Z</time></trkpt><trkpt lat="45.29530885133777" lon="12.02405301067671"><ele>2.0</ele><time>2026-04-12T08:32:12Z</time></trkpt><trkpt lat="45.29539093861237" lon="12.024178519101554"><ele>2.0</ele><time>2026-04-12T08:32:13Z</time></trkpt><trkpt lat="45.295447444931234" lon="12.02431577957079"><ele>2.0</ele><time>2026-04-12T08:32:14Z</time></trkpt><trkpt lat="45.295476879142505" lon="12.024460201656128"><ele>2.0</ele><time>2026-04-12T08:32:15Z</time></trkpt><trkpt lat="45.295473651306835" lon="12.024619648962096"><ele>2.0</ele><time>2026-04-12T08:32:16Z</time></trkpt><trkpt lat="45.29538808611815" lon="12.024765377541897"><ele>2.0</ele><time>2026-04-12T08:32:17Z</time></trkpt><trkpt lat="45.29530635341014" lon="12.024935552324905"><ele>2.0</ele><time>2026-04-12T08:32:18Z</time></trkpt><trkpt lat="45.2952259017334" lon="12.025132853170353"><ele>2.0</ele><time>2026-04-12T08:32:19Z</time></trkpt><trkpt lat="45.29515326953169" lon="12.025324368742936"><ele>2.0</ele><time>2026-04-12T08:32:20Z</time></trkpt><trkpt lat="45.295109717251144" lon="12.025534099617804"><ele>2.0</ele><time>2026-04-12T08:32:21Z</time></trkpt><trkpt lat="45.29510332134155" lon="12.02576803016623"><ele>2.0</ele><time>2026-04-12T08:32:22Z</time></trkpt><trkpt lat="45.29510693113267" lon="12.026020560643165"><ele>2.0</ele><time>2026-04-12T08:32:23Z</time></trkpt><trkpt lat="45.295104490906766" lon="12.02628243831311"><ele>2.0</ele><time>2026-04-12T08:32:24Z</time></trkpt><trkpt lat="45.2950861896294" lon="12.026539562334497"><ele>2.0</ele><time>2026-04-12T08:32:25Z</time></trkpt><trkpt lat="45.2950550437335" lon="12.02677445793831"><ele>2.0</ele><time>2026-04-12T08:32:26Z</time></trkpt><trkpt lat="45.2949917629374" lon="12.02695349027614"><ele>2.0</ele><time>2026-04-12T08:32:27Z</time></trkpt><trkpt lat="45.29496232707506" lon="12.027115290623799"><ele>2.0</ele><time>2026-04-12T08:32:28Z</time></trkpt><trkpt lat="45.29491909547929" lon="12.027260262413078"><ele>2.0</ele><time>2026-04-12T08:32:29Z</time></trkpt><trkpt lat="45.294881772471456" lon="12.027429835426233"><ele>2.0</ele><time>2026-04-12T08:32:30Z</time></trkpt><trkpt lat="45.29487705089481" lon="12.027636882694184"><ele>2.0</ele><time>2026-04-12T08:32:31Z</time></trkpt><trkpt lat="45.294914448644946" lon="12.027865496113652"><ele>2.0</ele><time>2026-04-12T08:32:32Z</time></trkpt><trkpt lat="45.29497797687769" lon="12.028105117477052"><ele>2.333333333333333</ele><time>2026-04-12T08:32:33Z</time></trkpt><trkpt lat="45.2950516077752" lon="12.028333424216184"><ele>2.6666666666666665</ele><time>2026-04-12T08:32:34Z</time></trkpt><trkpt lat="45.295113749600276" lon="12.028537294432384"><ele>3.0</ele><time>2026-04-12T08:32:35Z</time></trkpt><trkpt lat="45.29515001105325" lon="12.028719788181954"><ele>3.0</ele><time>2026-04-12T08:32:36Z</time></trkpt><trkpt lat="45.295155334749055" lon="12.02888633334333"><ele>3.0</ele><time>2026-04-12T08:32:37Z</time></trkpt><trkpt lat="45.29512432700424" lon="12.029040969395565"><ele>3.0</ele><time>2026-04-12T08:32:38Z</time></trkpt><trkpt lat="45.295047270268945" lon="12.029186540247807"><ele>3.0</ele><time>2026-04-12T08:32:39Z</time></trkpt><trkpt lat="45.2949541562568" lon="12.029338661338212"><ele>3.333333333333333</ele><time>2026-04-12T08:32:40Z</time></trkpt><trkpt lat="45.29484637269605" lon="12.029513649709942"><ele>3.6666666666666665</ele><time>2026-04-12T08:32:41Z</time></trkpt><trkpt lat="45.29474973349996" lon="12.029693875560614"><ele>4.0</ele><time>2026-04-12T08:32:42Z</time></trkpt><trkpt lat="45.29466694091775" lon="12.029841005302737"><ele>4.0</ele><time>2026-04-12T08:32:43Z</time></trkpt><trkpt lat="45.294602162624415" lon="12.029948843635037"><ele>4.0</ele><time>2026-04-12T08:32:44Z</time></trkpt><trkpt lat="45.29455658448727" lon="12.03003239337252"><ele>4.0</ele><time>2026-04-12T08:32:45Z</time></trkpt><trkpt lat="45.294488572995654" lon="12.0301199288116"><ele>4.0</ele><time>2026-04-12T08:32:47Z</time></trkpt><trkpt lat="45.294367693219236" lon="12.030102493979081"><ele>4.0</ele><time>2026-04-12T08:32:49Z</time></trkpt><trkpt lat="45.294268769134774" lon="12.030035801600421"><ele>4.0</ele><time>2026-04-12T08:32:50Z</time></trkpt><trkpt lat="45.294128799183454" lon="12.02998387267065"><ele>4.0</ele><time>2026-04-12T08:32:51Z</time></trkpt><trkpt lat="45.29398320668742" lon="12.029907358470462"><ele>4.0</ele><time>2026-04-12T08:32:52Z</time></trkpt><trkpt lat="45.293846489038614" lon="12.029848450731144"><ele>4.0</ele><time>2026-04-12T08:32:53Z</time></trkpt><trkpt lat="45.293730743655665" lon="12.029812989596548"><ele>4.333333333333333</ele><time>2026-04-12T08:32:54Z</time></trkpt><trkpt lat="45.29364106218848" lon="12.029761913463616"><ele>4.666666666666666</ele><time>2026-04-12T08:32:55Z</time></trkpt><trkpt lat="45.293576955874656" lon="12.029676059407956"><ele>5.0</ele><time>2026-04-12T08:32:56Z</time></trkpt><trkpt lat="45.29352572329774" lon="12.029600935432256"><ele>5.333333333333333</ele><time>2026-04-12T08:32:57Z</time></trkpt><trkpt lat="45.29346340512428" lon="12.029582585994234"><ele>5.666666666666667</ele><time>2026-04-12T08:32:58Z</time></trkpt><trkpt lat="45.29340889201748" lon="12.029635178367423"><ele>6.0</ele><time>2026-04-12T08:32:59Z</time></trkpt><trkpt lat="45.2933622613273" lon="12.02974992851581"><ele>6.0</ele><time>2026-04-12T08:33:00Z</time></trkpt><trkpt lat="45.293324430095645" lon="12.029913291605391"><ele>6.0</ele><time>2026-04-12T08:33:01Z</time></trkpt><trkpt lat="45.29326892126378" lon="12.030106894352036"><ele>6.0</ele><time>2026-04-12T08:33:02Z</time></trkpt><trkpt lat="45.29320231932245" lon="12.03031113166726"><ele>6.0</ele><time>2026-04-12T08:33:03Z</time></trkpt><trkpt lat="45.29314334305812" lon="12.030557542860183"><ele>5.666666666666667</ele><time>2026-04-12T08:33:04Z</time></trkpt><trkpt lat="45.29309090000895" lon="12.030823274849558"><ele>5.333333333333334</ele><time>2026-04-12T08:33:05Z</time></trkpt><trkpt lat="45.2930365873244" lon="12.031072523759393"><ele>5.0</ele><time>2026-04-12T08:33:06Z</time></trkpt><trkpt lat="45.29299150445028" lon="12.031274448294681"><ele>5.75</ele><time>2026-04-12T08:33:07Z</time></trkpt><trkpt lat="45.29294790808525" lon="12.031453584327487"><ele>6.5</ele><time>2026-04-12T08:33:08Z</time></trkpt><trkpt lat="45.292907530014666" lon="12.031620489240204"><ele>7.25</ele><time>2026-04-12T08:33:09Z</time></trkpt><trkpt lat="45.29286569270413" lon="12.031780700240237"><ele>8.0</ele><time>2026-04-12T08:33:10Z</time></trkpt><trkpt lat="45.29282231295471" lon="12.031929881270539"><ele>7.999999999999999</ele><time>2026-04-12T08:33:11Z</time></trkpt><trkpt lat="45.29276264892257" lon="12.032044849915017"><ele>8.0</ele><time>2026-04-12T08:33:12Z</time></trkpt><trkpt lat="45.29269041015388" lon="12.032127505995803"><ele>8.0</ele><time>2026-04-12T08:33:13Z</time></trkpt><trkpt lat="45.292632295499004" lon="12.032202091250431"><ele>8.0</ele><time>2026-04-12T08:33:14Z</time></trkpt><trkpt lat="45.29259346594324" lon="12.032279518126687"><ele>7.999999999999999</ele><time>2026-04-12T08:33:15Z</time></trkpt><trkpt lat="45.292640187716444" lon="12.032378704661873"><ele>8.0</ele><time>2026-04-12T08:33:16Z</time></trkpt><trkpt lat="45.29266211997116" lon="12.032471236834752"><ele>7.800000000000001</ele><time>2026-04-12T08:33:19Z</time></trkpt><trkpt lat="45.292663242413006" lon="12.032576527841998"><ele>7.6000000000000005</ele><time>2026-04-12T08:33:21Z</time></trkpt><trkpt lat="45.2926501127979" lon="12.032678130141056"><ele>7.3999999999999995</ele><time>2026-04-12T08:33:22Z</time></trkpt><trkpt lat="45.292627459028814" lon="12.032810370708573"><ele>7.199999999999999</ele><time>2026-04-12T08:33:23Z</time></trkpt><trkpt lat="45.29258707123288" lon="12.032956381626553"><ele>7.0</ele><time>2026-04-12T08:33:24Z</time></trkpt><trkpt lat="45.29253962296652" lon="12.033111525380994"><ele>7.0</ele><time>2026-04-12T08:33:25Z</time></trkpt><trkpt lat="45.29250314735379" lon="12.033261729192953"><ele>6.999999999999999</ele><time>2026-04-12T08:33:26Z</time></trkpt><trkpt lat="45.29246625231194" lon="12.033407323885884"><ele>6.999999999999999</ele><time>2026-04-12T08:33:27Z</time></trkpt><trkpt lat="45.29242827106597" lon="12.033556396992266"><ele>7.0</ele><time>2026-04-12T08:33:28Z</time></trkpt><trkpt lat="45.29239809579757" lon="12.033693102946012"><ele>7.0</ele><time>2026-04-12T08:33:29Z</time></trkpt><trkpt lat="45.29236755651224" lon="12.033819632863697"><ele>6.8</ele><time>2026-04-12T08:33:30Z</time></trkpt><trkpt lat="45.29233216331886" lon="12.033955486785098"><ele>6.6</ele><time>2026-04-12T08:33:31Z</time></trkpt><trkpt lat="45.292293732517614" lon="12.03409502065882"><ele>6.3999999999999995</ele><time>2026-04-12T08:33:32Z</time></trkpt><trkpt lat="45.29226288944469" lon="12.034221058300165"><ele>6.199999999999999</ele><time>2026-04-12T08:33:33Z</time></trkpt><trkpt lat="45.29223830181571" lon="12.03433451564065"><ele>6.0</ele><time>2026-04-12T08:33:34Z</time></trkpt><trkpt lat="45.29221001073623" lon="12.034432150196979"><ele>5.666666666666667</ele><time>2026-04-12T08:33:35Z</time></trkpt><trkpt lat="45.29219057233475" lon="12.034532926758498"><ele>5.333333333333333</ele><time>2026-04-12T08:33:36Z</time></trkpt><trkpt lat="45.29217542974067" lon="12.034620446492422"><ele>5.0</ele><time>2026-04-12T08:33:37Z</time></trkpt><trkpt lat="45.29215289257457" lon="12.034710485116305"><ele>4.666666666666666</ele><time>2026-04-12T08:33:38Z</time></trkpt><trkpt lat="45.29212604076903" lon="12.034835822512605"><ele>4.333333333333333</ele><time>2026-04-12T08:33:39Z</time></trkpt><trkpt lat="45.29207484568287" lon="12.034969440443009"><ele>4.0</ele><time>2026-04-12T08:33:40Z</time></trkpt><trkpt lat="45.29204296964072" lon="12.035128178600914"><ele>4.0</ele><time>2026-04-12T08:33:41Z</time></trkpt><trkpt lat="45.2919912395958" lon="12.035283162112353"><ele>4.0</ele><time>2026-04-12T08:33:42Z</time></trkpt><trkpt lat="45.291938875311466" lon="12.035413193946093"><ele>4.0</ele><time>2026-04-12T08:33:42.999Z</time></trkpt><trkpt lat="45.291897089599196" lon="12.03553257098742"><ele>4.0</ele><time>2026-04-12T08:33:43.999Z</time></trkpt><trkpt lat="45.29186219224899" lon="12.035644143776999"><ele>4.0</ele><time>2026-04-12T08:33:44.999Z</time></trkpt><trkpt lat="45.29183046127738" lon="12.03574691359621"><ele>3.9999999999999996</ele><time>2026-04-12T08:33:45.999Z</time></trkpt><trkpt lat="45.291796660869934" lon="12.035848604085524"><ele>4.0</ele><time>2026-04-12T08:33:46.999Z</time></trkpt><trkpt lat="45.29175476416844" lon="12.035930705616211"><ele>4.0</ele><time>2026-04-12T08:33:47.999Z</time></trkpt><trkpt lat="45.291681846683815" lon="12.035988578818266"><ele>4.0</ele><time>2026-04-12T08:33:48.999Z</time></trkpt><trkpt lat="45.291600885280815" lon="12.036049003236965"><ele>3.9999999999999996</ele><time>2026-04-12T08:33:49.999Z</time></trkpt><trkpt lat="45.29148910214862" lon="12.036006021315853"><ele>4.0</ele><time>2026-04-12T08:33:50.999Z</time></trkpt><trkpt lat="45.29141030538508" lon="12.035923441513496"><ele>4.0</ele><time>2026-04-12T08:33:51.999Z</time></trkpt><trkpt lat="45.29131676516307" lon="12.035850291923627"><ele>4.0</ele><time>2026-04-12T08:33:52.999Z</time></trkpt><trkpt lat="45.29122169258978" lon="12.035755742019793"><ele>4.0</ele><time>2026-04-12T08:33:53.999Z</time></trkpt><trkpt lat="45.291118861146614" lon="12.03567116658627"><ele>4.0</ele><time>2026-04-12T08:33:54.999Z</time></trkpt><trkpt lat="45.29100443985298" lon="12.035578798407427"><ele>4.0</ele><time>2026-04-12T08:33:55.999Z</time></trkpt><trkpt lat="45.29090097579156" lon="12.035488922942626"><ele>4.0</ele><time>2026-04-12T08:33:56.999Z</time></trkpt><trkpt lat="45.29080253562821" lon="12.03540659248153"><ele>4.0</ele><time>2026-04-12T08:33:57.999Z</time></trkpt><trkpt lat="45.29070885803356" lon="12.035330054966641"><ele>4.0</ele><time>2026-04-12T08:33:58.999Z</time></trkpt><trkpt lat="45.290617385104035" lon="12.035254119784687"><ele>4.0</ele><time>2026-04-12T08:33:59.999Z</time></trkpt><trkpt lat="45.29053546227849" lon="12.035182966253359"><ele>4.2</ele><time>2026-04-12T08:34:01Z</time></trkpt><trkpt lat="45.29046132674324" lon="12.035118633445975"><ele>4.4</ele><time>2026-04-12T08:34:02Z</time></trkpt><trkpt lat="45.29040080150619" lon="12.035079764805847"><ele>4.6</ele><time>2026-04-12T08:34:03Z</time></trkpt><trkpt lat="45.29032909268345" lon="12.035015360415102"><ele>4.8</ele><time>2026-04-12T08:34:05Z</time></trkpt><trkpt lat="45.2902522921719" lon="12.03517224949548"><ele>5.0</ele><time>2026-04-12T08:34:06Z</time></trkpt><trkpt lat="45.2901929894133" lon="12.035248077497977"><ele>5.0</ele><time>2026-04-12T08:34:07Z</time></trkpt><trkpt lat="45.29012576938178" lon="12.035333441756563"><ele>5.0</ele><time>2026-04-12T08:34:08Z</time></trkpt><trkpt lat="45.2900431951905" lon="12.035438626052102"><ele>5.0</ele><time>2026-04-12T08:34:09Z</time></trkpt><trkpt lat="45.28995641906198" lon="12.03555896994043"><ele>5.0</ele><time>2026-04-12T08:34:10Z</time></trkpt><trkpt lat="45.2898752979986" lon="12.035678783874062"><ele>5.0</ele><time>2026-04-12T08:34:11Z</time></trkpt><trkpt lat="45.28979042975921" lon="12.035810391416407"><ele>5.25</ele><time>2026-04-12T08:34:12Z</time></trkpt><trkpt lat="45.28969545807691" lon="12.035946403627229"><ele>5.5</ele><time>2026-04-12T08:34:13Z</time></trkpt><trkpt lat="45.289590275768184" lon="12.036080673103795"><ele>5.75</ele><time>2026-04-12T08:34:14Z</time></trkpt><trkpt lat="45.28947602549625" lon="12.036201074355587"><ele>6.0</ele><time>2026-04-12T08:34:15Z</time></trkpt><trkpt lat="45.289356886660585" lon="12.03628800474544"><ele>6.0</ele><time>2026-04-12T08:34:16Z</time></trkpt><trkpt lat="45.28922437243116" lon="12.036316248884049"><ele>6.0</ele><time>2026-04-12T08:34:17Z</time></trkpt><trkpt lat="45.289094211500164" lon="12.036376310137177"><ele>6.0</ele><time>2026-04-12T08:34:18Z</time></trkpt><trkpt lat="45.28897800045888" lon="12.036472322339382"><ele>6.0</ele><time>2026-04-12T08:34:19Z</time></trkpt><trkpt lat="45.288846578268945" lon="12.036584262193077"><ele>5.333333333333333</ele><time>2026-04-12T08:34:20Z</time></trkpt><trkpt lat="45.2887031359916" lon="12.03672899473383"><ele>4.666666666666666</ele><time>2026-04-12T08:34:21Z</time></trkpt><trkpt lat="45.28855830665083" lon="12.036890596618068"><ele>4.0</ele><time>2026-04-12T08:34:22Z</time></trkpt><trkpt lat="45.288409309683466" lon="12.037054452206712"><ele>4.0</ele><time>2026-04-12T08:34:23Z</time></trkpt><trkpt lat="45.28826968497971" lon="12.03719968948434"><ele>4.0</ele><time>2026-04-12T08:34:24Z</time></trkpt><trkpt lat="45.28814505368202" lon="12.037330492529192"><ele>4.0</ele><time>2026-04-12T08:34:25Z</time></trkpt><trkpt lat="45.28802609639252" lon="12.037454845153835"><ele>3.5</ele><time>2026-04-12T08:34:26Z</time></trkpt><trkpt lat="45.287907396767345" lon="12.03757702563641"><ele>3.0</ele><time>2026-04-12T08:34:27Z</time></trkpt><trkpt lat="45.28780035333713" lon="12.037689993565785"><ele>2.5</ele><time>2026-04-12T08:34:28Z</time></trkpt><trkpt lat="45.28769872950658" lon="12.03779752495236"><ele>2.0</ele><time>2026-04-12T08:34:29Z</time></trkpt><trkpt lat="45.2876037363278" lon="12.037893595898078"><ele>2.0</ele><time>2026-04-12T08:34:30Z</time></trkpt><trkpt lat="45.28751029460501" lon="12.037988437381621"><ele>2.0</ele><time>2026-04-12T08:34:31Z</time></trkpt><trkpt lat="45.287415790502436" lon="12.038097430475263"><ele>2.0</ele><time>2026-04-12T08:34:32Z</time></trkpt><trkpt lat="45.287305866454005" lon="12.038215024807474"><ele>2.0</ele><time>2026-04-12T08:34:33Z</time></trkpt><trkpt lat="45.28718434266747" lon="12.0383374612378"><ele>2.0</ele><time>2026-04-12T08:34:34Z</time></trkpt><trkpt lat="45.28705881670636" lon="12.038472864815283"><ele>2.0</ele><time>2026-04-12T08:34:35Z</time></trkpt><trkpt lat="45.28692625772458" lon="12.038623936945836"><ele>2.0</ele><time>2026-04-12T08:34:36Z</time></trkpt><trkpt lat="45.286792515893474" lon="12.038793300032696"><ele>2.0</ele><time>2026-04-12T08:34:37Z</time></trkpt><trkpt lat="45.286655823770694" lon="12.038980339658572"><ele>2.0</ele><time>2026-04-12T08:34:38Z</time></trkpt><trkpt lat="45.286528341770996" lon="12.03918443140393"><ele>2.0</ele><time>2026-04-12T08:34:39Z</time></trkpt><trkpt lat="45.28640947091524" lon="12.039373693442041"><ele>2.5</ele><time>2026-04-12T08:34:40Z</time></trkpt><trkpt lat="45.286306945365304" lon="12.039539365980572"><ele>3.0</ele><time>2026-04-12T08:34:41Z</time></trkpt><trkpt lat="45.28621289477399" lon="12.03968076324729"><ele>3.5</ele><time>2026-04-12T08:34:42Z</time></trkpt><trkpt lat="45.28612522511835" lon="12.039819414451934"><ele>4.0</ele><time>2026-04-12T08:34:43Z</time></trkpt><trkpt lat="45.28604242440726" lon="12.039950481971024"><ele>3.8000000000000003</ele><time>2026-04-12T08:34:44Z</time></trkpt><trkpt lat="45.28596591723848" lon="12.040071286786278"><ele>3.6000000000000005</ele><time>2026-04-12T08:34:45Z</time></trkpt><trkpt lat="45.28589422318613" lon="12.040182423454139"><ele>3.4</ele><time>2026-04-12T08:34:46Z</time></trkpt><trkpt lat="45.285829167034834" lon="12.040278732208408"><ele>3.2</ele><time>2026-04-12T08:34:47Z</time></trkpt><trkpt lat="45.28576718630016" lon="12.040366283054865"><ele>3.0</ele><time>2026-04-12T08:34:48Z</time></trkpt><trkpt lat="45.28570943944752" lon="12.040444928095788"><ele>3.0</ele><time>2026-04-12T08:34:49Z</time></trkpt><trkpt lat="45.28565123167162" lon="12.040519672250541"><ele>3.0</ele><time>2026-04-12T08:34:50Z</time></trkpt><trkpt lat="45.28560466283002" lon="12.040592719577901"><ele>3.0</ele><time>2026-04-12T08:34:51Z</time></trkpt><trkpt lat="45.285526521312114" lon="12.040715227159643"><ele>3.0</ele><time>2026-04-12T08:34:53Z</time></trkpt><trkpt lat="45.28546011391616" lon="12.04082996841144"><ele>3.0</ele><time>2026-04-12T08:34:55Z</time></trkpt><trkpt lat="45.285413180709085" lon="12.040925874150215"><ele>3.2</ele><time>2026-04-12T08:38:42Z</time></trkpt><trkpt lat="45.28533009318995" lon="12.041093182924708"><ele>3.4</ele><time>2026-04-12T08:38:44Z</time></trkpt><trkpt lat="45.28529880573295" lon="12.041175325286115"><ele>3.6000000000000005</ele><time>2026-04-12T08:38:45Z</time></trkpt><trkpt lat="45.285277069587984" lon="12.041278601760174"><ele>3.8000000000000003</ele><time>2026-04-12T08:38:46Z</time></trkpt><trkpt lat="45.28527680673826" lon="12.041401997549013"><ele>4.0</ele><time>2026-04-12T08:38:47Z</time></trkpt><trkpt lat="45.28529312303665" lon="12.04154400150698"><ele>3.5</ele><time>2026-04-12T08:38:48Z</time></trkpt><trkpt lat="45.285302457945505" lon="12.04172608297987"><ele>3.0</ele><time>2026-04-12T08:38:49Z</time></trkpt><trkpt lat="45.28528883532851" lon="12.041903737845345"><ele>2.5</ele><time>2026-04-12T08:38:50Z</time></trkpt><trkpt lat="45.28525304182665" lon="12.042109385053546"><ele>2.0</ele><time>2026-04-12T08:38:51Z</time></trkpt><trkpt lat="45.28519472993874" lon="12.042345274411064"><ele>1.6666666666666665</ele><time>2026-04-12T08:38:52Z</time></trkpt><trkpt lat="45.28512417547269" lon="12.042578171308667"><ele>1.3333333333333333</ele><time>2026-04-12T08:38:53Z</time></trkpt><trkpt lat="45.285029349142285" lon="12.042826191291216"><ele>1.0</ele><time>2026-04-12T08:38:54Z</time></trkpt><trkpt lat="45.284910228525206" lon="12.043079568522511"><ele>1.0</ele><time>2026-04-12T08:38:55Z</time></trkpt><trkpt lat="45.2847833012888" lon="12.043353471549382"><ele>1.0</ele><time>2026-04-12T08:38:56Z</time></trkpt><trkpt lat="45.28465841744506" lon="12.043641814475993"><ele>1.0</ele><time>2026-04-12T08:38:57Z</time></trkpt><trkpt lat="45.284531418639794" lon="12.04394341738788"><ele>1.0</ele><time>2026-04-12T08:38:58Z</time></trkpt><trkpt lat="45.284408081171584" lon="12.044242054388086"><ele>1.5</ele><time>2026-04-12T08:38:59Z</time></trkpt><trkpt lat="45.28429953564116" lon="12.044535962910244"><ele>2.0</ele><time>2026-04-12T08:39:00Z</time></trkpt><trkpt lat="45.28419597497314" lon="12.044829724933178"><ele>1.6666666666666665</ele><time>2026-04-12T08:39:01Z</time></trkpt><trkpt lat="45.28410660829893" lon="12.045112480599624"><ele>1.3333333333333333</ele><time>2026-04-12T08:39:02Z</time></trkpt><trkpt lat="45.28401576699764" lon="12.045406689371939"><ele>1.0</ele><time>2026-04-12T08:39:03Z</time></trkpt><trkpt lat="45.283930722976415" lon="12.045707133165218"><ele>1.3333333333333333</ele><time>2026-04-12T08:39:04Z</time></trkpt><trkpt lat="45.28384589340731" lon="12.046005576975066"><ele>1.6666666666666665</ele><time>2026-04-12T08:39:05Z</time></trkpt><trkpt lat="45.28376161844117" lon="12.046288895727272"><ele>2.0</ele><time>2026-04-12T08:39:06Z</time></trkpt><trkpt lat="45.28367510627974" lon="12.046567625443382"><ele>2.0</ele><time>2026-04-12T08:39:07Z</time></trkpt><trkpt lat="45.283589460894405" lon="12.046830378333016"><ele>2.0</ele><time>2026-04-12T08:39:08Z</time></trkpt><trkpt lat="45.28350161267029" lon="12.04708537181114"><ele>2.0</ele><time>2026-04-12T08:39:09Z</time></trkpt><trkpt lat="45.2834167900381" lon="12.047314566328089"><ele>2.333333333333333</ele><time>2026-04-12T08:39:10Z</time></trkpt><trkpt lat="45.283338982907765" lon="12.047523353426985"><ele>2.6666666666666665</ele><time>2026-04-12T08:39:11Z</time></trkpt><trkpt lat="45.283271244354204" lon="12.047717232660192"><ele>3.0</ele><time>2026-04-12T08:39:12Z</time></trkpt><trkpt lat="45.28320685736343" lon="12.04790028354857"><ele>3.0</ele><time>2026-04-12T08:39:13Z</time></trkpt><trkpt lat="45.28315109592156" lon="12.048056445437615"><ele>3.0</ele><time>2026-04-12T08:39:14Z</time></trkpt><trkpt lat="45.283093594789776" lon="12.048201480725576"><ele>3.0</ele><time>2026-04-12T08:39:15Z</time></trkpt><trkpt lat="45.28303254216812" lon="12.048307828010055"><ele>3.0</ele><time>2026-04-12T08:39:16Z</time></trkpt><trkpt lat="45.28296611943171" lon="12.048393704222573"><ele>3.0</ele><time>2026-04-12T08:39:17Z</time></trkpt><trkpt lat="45.282911222857244" lon="12.048483329580595"><ele>3.0</ele><time>2026-04-12T08:39:18Z</time></trkpt><trkpt lat="45.28288724475649" lon="12.048610121784728"><ele>3.0</ele><time>2026-04-12T08:39:19Z</time></trkpt><trkpt lat="45.282868249115744" lon="12.048773124040322"><ele>3.0</ele><time>2026-04-12T08:39:20Z</time></trkpt><trkpt lat="45.282813964468524" lon="12.04897497300049"><ele>3.0</ele><time>2026-04-12T08:39:21Z</time></trkpt><trkpt lat="45.28273079080418" lon="12.049208784547794"><ele>3.0</ele><time>2026-04-12T08:39:22Z</time></trkpt><trkpt lat="45.282639278190445" lon="12.049446644133855"><ele>3.0</ele><time>2026-04-12T08:39:23Z</time></trkpt><trkpt lat="45.282553574760556" lon="12.04969311017064"><ele>3.0</ele><time>2026-04-12T08:39:24Z</time></trkpt><trkpt lat="45.28246210849351" lon="12.049964074152976"><ele>3.0</ele><time>2026-04-12T08:39:25Z</time></trkpt><trkpt lat="45.28236655600602" lon="12.05023739549589"><ele>3.0</ele><time>2026-04-12T08:39:26Z</time></trkpt><trkpt lat="45.28225137881993" lon="12.050536614142944"><ele>2.3333333333333335</ele><time>2026-04-12T08:39:27Z</time></trkpt><trkpt lat="45.282144867675186" lon="12.050816542213516"><ele>1.6666666666666665</ele><time>2026-04-12T08:39:28Z</time></trkpt><trkpt lat="45.28205587453251" lon="12.051058506749431"><ele>1.0</ele><time>2026-04-12T08:39:29Z</time></trkpt><trkpt lat="45.28198239908441" lon="12.051273079899921"><ele>1.0</ele><time>2026-04-12T08:39:30Z</time></trkpt><trkpt lat="45.28190970887095" lon="12.051478229283942"><ele>1.0</ele><time>2026-04-12T08:39:31Z</time></trkpt><trkpt lat="45.281844554605556" lon="12.051661008219615"><ele>1.0</ele><time>2026-04-12T08:39:32Z</time></trkpt><trkpt lat="45.28178243829677" lon="12.051825929930201"><ele>1.0</ele><time>2026-04-12T08:39:33Z</time></trkpt><trkpt lat="45.28172433869518" lon="12.051974168149924"><ele>1.0</ele><time>2026-04-12T08:39:34Z</time></trkpt><trkpt lat="45.28167189590815" lon="12.052099133938764"><ele>1.0</ele><time>2026-04-12T08:39:35Z</time></trkpt><trkpt lat="45.28162702080327" lon="12.052196191598698"><ele>1.0</ele><time>2026-04-12T08:39:36Z</time></trkpt><trkpt lat="45.281600818383794" lon="12.052295371607649"><ele>1.0</ele><time>2026-04-12T08:39:38Z</time></trkpt><trkpt lat="45.28169370511342" lon="12.052476907916073"><ele>1.0</ele><time>2026-04-12T08:39:42Z</time></trkpt><trkpt lat="45.28181452681254" lon="12.052577980124362"><ele>0.6666666666666666</ele><time>2026-04-12T08:39:43Z</time></trkpt><trkpt lat="45.28194889947029" lon="12.052663180558074"><ele>0.3333333333333333</ele><time>2026-04-12T08:39:44Z</time></trkpt><trkpt lat="45.282107535922385" lon="12.052774275308217"><ele>0.0</ele><time>2026-04-12T08:39:45Z</time></trkpt><trkpt lat="45.28228121521286" lon="12.052900105848677"><ele>0.0</ele><time>2026-04-12T08:39:46Z</time></trkpt><trkpt lat="45.28245153046309" lon="12.05302163079409"><ele>0.0</ele><time>2026-04-12T08:39:47Z</time></trkpt><trkpt lat="45.28264917635654" lon="12.05316616493056"><ele>0.0</ele><time>2026-04-12T08:39:48Z</time></trkpt><trkpt lat="45.28285951564877" lon="12.053314614688173"><ele>0.0</ele><time>2026-04-12T08:39:49Z</time></trkpt><trkpt lat="45.28306978011884" lon="12.053461614423798"><ele>0.0</ele><time>2026-04-12T08:39:50Z</time></trkpt><trkpt lat="45.28329628038693" lon="12.053620024290938"><ele>0.5</ele><time>2026-04-12T08:39:51Z</time></trkpt><trkpt lat="45.28353474486251" lon="12.053791898743816"><ele>1.0</ele><time>2026-04-12T08:39:52Z</time></trkpt><trkpt lat="45.28378047955485" lon="12.053973575807705"><ele>0.5</ele><time>2026-04-12T08:39:52.999Z</time></trkpt><trkpt lat="45.28403579207996" lon="12.054157337725062"><ele>0.0</ele><time>2026-04-12T08:39:53.999Z</time></trkpt><trkpt lat="45.284296658148286" lon="12.054340275228807"><ele>0.0</ele><time>2026-04-12T08:39:54.999Z</time></trkpt><trkpt lat="45.28454635193148" lon="12.054518556379703"><ele>0.0</ele><time>2026-04-12T08:39:55.999Z</time></trkpt><trkpt lat="45.28476524351971" lon="12.054677323551546"><ele>0.0</ele><time>2026-04-12T08:39:56.999Z</time></trkpt><trkpt lat="45.28496371632383" lon="12.05482420871772"><ele>0.0</ele><time>2026-04-12T08:39:57.999Z</time></trkpt><trkpt lat="45.28515564838151" lon="12.054958746707323"><ele>0.0</ele><time>2026-04-12T08:39:58.999Z</time></trkpt><trkpt lat="45.285332559757926" lon="12.05507546668459"><ele>0.0</ele><time>2026-04-12T08:39:59.999Z</time></trkpt><trkpt lat="45.28549803043635" lon="12.055194897084995"><ele>0.0</ele><time>2026-04-12T08:40:00.999Z</time></trkpt><trkpt lat="45.28565006490392" lon="12.05531143011565"><ele>0.0</ele><time>2026-04-12T08:40:01.999Z</time></trkpt><trkpt lat="45.28578424453412" lon="12.05542011665542"><ele>0.0</ele><time>2026-04-12T08:40:02.999Z</time></trkpt><trkpt lat="45.285895303636714" lon="12.055506393570738"><ele>0.0</ele><time>2026-04-12T08:40:03.999Z</time></trkpt><trkpt lat="45.285987679471724" lon="12.055579549012947"><ele>0.0</ele><time>2026-04-12T08:40:04.999Z</time></trkpt><trkpt lat="45.28606422498097" lon="12.05564874371872"><ele>0.0</ele><time>2026-04-12T08:40:05.999Z</time></trkpt><trkpt lat="45.286135301764126" lon="12.055724082936402"><ele>0.0</ele><time>2026-04-12T08:40:06.999Z</time></trkpt><trkpt lat="45.2862102708123" lon="12.055802849263616"><ele>0.0</ele><time>2026-04-12T08:40:07.999Z</time></trkpt><trkpt lat="45.286313935730206" lon="12.05587143670235"><ele>0.0</ele><time>2026-04-12T08:40:08.999Z</time></trkpt><trkpt lat="45.286437861638404" lon="12.055925176951092"><ele>0.0</ele><time>2026-04-12T08:40:09.999Z</time></trkpt><trkpt lat="45.28657655169089" lon="12.055999570591636"><ele>0.0</ele><time>2026-04-12T08:40:10.999Z</time></trkpt><trkpt lat="45.286720878495274" lon="12.05608768187474"><ele>0.3333333333333333</ele><time>2026-04-12T08:40:11.999Z</time></trkpt><trkpt lat="45.28688060770226" lon="12.056199287930399"><ele>0.6666666666666666</ele><time>2026-04-12T08:40:12.999Z</time></trkpt><trkpt lat="45.28704723194248" lon="12.056329118239322"><ele>1.0</ele><time>2026-04-12T08:40:13.999Z</time></trkpt><trkpt lat="45.28722216796525" lon="12.056477239714985"><ele>1.0</ele><time>2026-04-12T08:40:14.999Z</time></trkpt><trkpt lat="45.287409997661086" lon="12.056619403725358"><ele>1.0</ele><time>2026-04-12T08:40:15.999Z</time></trkpt><trkpt lat="45.28760901876739" lon="12.056766717120666"><ele>1.0</ele><time>2026-04-12T08:40:16.999Z</time></trkpt><trkpt lat="45.28779846353682" lon="12.05690874678288"><ele>1.0</ele><time>2026-04-12T08:40:17.999Z</time></trkpt><trkpt lat="45.28800630633444" lon="12.057058254948261"><ele>1.0</ele><time>2026-04-12T08:40:19Z</time></trkpt><trkpt lat="45.28821120377043" lon="12.057209872603398"><ele>1.5</ele><time>2026-04-12T08:40:20Z</time></trkpt><trkpt lat="45.28842093303197" lon="12.05736616191724"><ele>2.0</ele><time>2026-04-12T08:40:21Z</time></trkpt><trkpt lat="45.28863144736398" lon="12.057519511190979"><ele>2.0</ele><time>2026-04-12T08:40:22Z</time></trkpt><trkpt lat="45.28884394455219" lon="12.057678910060005"><ele>2.0</ele><time>2026-04-12T08:40:23Z</time></trkpt><trkpt lat="45.28905125669936" lon="12.057839648126935"><ele>2.0</ele><time>2026-04-12T08:40:24Z</time></trkpt><trkpt lat="45.28926570370854" lon="12.058006062847737"><ele>2.0</ele><time>2026-04-12T08:40:25Z</time></trkpt><trkpt lat="45.28948795223417" lon="12.058175383499195"><ele>1.5</ele><time>2026-04-12T08:40:26Z</time></trkpt><trkpt lat="45.289716816633316" lon="12.058350619035185"><ele>1.0</ele><time>2026-04-12T08:40:27Z</time></trkpt><trkpt lat="45.28993801548196" lon="12.058528130619663"><ele>1.0</ele><time>2026-04-12T08:40:28Z</time></trkpt><trkpt lat="45.290152313946706" lon="12.05870971450017"><ele>1.0</ele><time>2026-04-12T08:40:29Z</time></trkpt><trkpt lat="45.290367532130034" lon="12.058898201883462"><ele>1.0</ele><time>2026-04-12T08:40:30Z</time></trkpt><trkpt lat="45.290564612188035" lon="12.059075507075848"><ele>1.0</ele><time>2026-04-12T08:40:31Z</time></trkpt><trkpt lat="45.29073803513907" lon="12.059227625190518"><ele>1.0</ele><time>2026-04-12T08:40:32Z</time></trkpt><trkpt lat="45.290900708059574" lon="12.059374272390352"><ele>1.3333333333333333</ele><time>2026-04-12T08:40:33Z</time></trkpt><trkpt lat="45.29105494094707" lon="12.059506936486263"><ele>1.6666666666666665</ele><time>2026-04-12T08:40:34Z</time></trkpt><trkpt lat="45.29120029459459" lon="12.059641287431976"><ele>2.0</ele><time>2026-04-12T08:40:35Z</time></trkpt><trkpt lat="45.291334203247956" lon="12.059758503756736"><ele>2.25</ele><time>2026-04-12T08:40:36Z</time></trkpt><trkpt lat="45.29145349603776" lon="12.059863870873505"><ele>2.5</ele><time>2026-04-12T08:40:37Z</time></trkpt><trkpt lat="45.29156458774835" lon="12.059963981783739"><ele>2.75</ele><time>2026-04-12T08:40:38Z</time></trkpt><trkpt lat="45.29167272544072" lon="12.060073286228526"><ele>3.0</ele><time>2026-04-12T08:40:39Z</time></trkpt><trkpt lat="45.29176929358018" lon="12.060185104958618"><ele>2.75</ele><time>2026-04-12T08:40:40Z</time></trkpt><trkpt lat="45.29185617140502" lon="12.060321166791587"><ele>2.5</ele><time>2026-04-12T08:40:41Z</time></trkpt><trkpt lat="45.29192647970442" lon="12.060490288942896"><ele>2.25</ele><time>2026-04-12T08:40:42Z</time></trkpt><trkpt lat="45.29202552358683" lon="12.060626682956483"><ele>2.0</ele><time>2026-04-12T08:40:43Z</time></trkpt><trkpt lat="45.2920004380968" lon="12.060900911979582"><ele>2.0</ele><time>2026-04-12T08:40:44Z</time></trkpt><trkpt lat="45.29199359740837" lon="12.061122159020774"><ele>2.0</ele><time>2026-04-12T08:40:45Z</time></trkpt><trkpt lat="45.29195760685189" lon="12.0613351537096"><ele>2.0</ele><time>2026-04-12T08:40:46Z</time></trkpt><trkpt lat="45.291887381605044" lon="12.061537661476954"><ele>1.3333333333333333</ele><time>2026-04-12T08:40:47Z</time></trkpt><trkpt lat="45.29184115975307" lon="12.06174684347723"><ele>0.6666666666666666</ele><time>2026-04-12T08:40:48Z</time></trkpt><trkpt lat="45.291683388509966" lon="12.06193485064931"><ele>0.0</ele><time>2026-04-12T08:40:49Z</time></trkpt><trkpt lat="45.29157590989423" lon="12.062172845420783"><ele>0.0</ele><time>2026-04-12T08:40:50Z</time></trkpt><trkpt lat="45.29147056932375" lon="12.062404722129331"><ele>0.0</ele><time>2026-04-12T08:40:51Z</time></trkpt><trkpt lat="45.29136531802841" lon="12.062633374156835"><ele>0.0</ele><time>2026-04-12T08:40:52Z</time></trkpt><trkpt lat="45.291229229107564" lon="12.062866020008379"><ele>-0.5</ele><time>2026-04-12T08:40:53Z</time></trkpt><trkpt lat="45.2910856915706" lon="12.063137049393204"><ele>-1.0</ele><time>2026-04-12T08:40:54Z</time></trkpt><trkpt lat="45.29093352267585" lon="12.063423646344436"><ele>-1.0</ele><time>2026-04-12T08:40:55Z</time></trkpt><trkpt lat="45.29078401215964" lon="12.063705236498386"><ele>-1.0</ele><time>2026-04-12T08:40:56Z</time></trkpt><trkpt lat="45.290639586797255" lon="12.064005356563266"><ele>-1.0</ele><time>2026-04-12T08:40:57Z</time></trkpt><trkpt lat="45.29048565903234" lon="12.06430093985698"><ele>-1.0</ele><time>2026-04-12T08:40:58Z</time></trkpt><trkpt lat="45.290308170694566" lon="12.064595946605861"><ele>-1.0</ele><time>2026-04-12T08:40:59Z</time></trkpt><trkpt lat="45.290137250318004" lon="12.064919004885486"><ele>-1.0</ele><time>2026-04-12T08:41:00Z</time></trkpt><trkpt lat="45.28996031618106" lon="12.065253616637454"><ele>-1.0</ele><time>2026-04-12T08:41:01Z</time></trkpt><trkpt lat="45.289789576396544" lon="12.065594549563066"><ele>-1.0</ele><time>2026-04-12T08:41:02Z</time></trkpt><trkpt lat="45.28961632613909" lon="12.065915054729373"><ele>0.5</ele><time>2026-04-12T08:41:03Z</time></trkpt><trkpt lat="45.28945067445105" lon="12.066233083669697"><ele>2.0</ele><time>2026-04-12T08:41:04Z</time></trkpt><trkpt lat="45.2892929938018" lon="12.066540768109903"><ele>1.5</ele><time>2026-04-12T08:41:05Z</time></trkpt><trkpt lat="45.289125712396135" lon="12.066829122267103"><ele>1.0</ele><time>2026-04-12T08:41:06Z</time></trkpt><trkpt lat="45.288975485077955" lon="12.067112049967875"><ele>1.5</ele><time>2026-04-12T08:41:07Z</time></trkpt><trkpt lat="45.288825666247845" lon="12.06739423111078"><ele>2.0</ele><time>2026-04-12T08:41:08Z</time></trkpt><trkpt lat="45.288672246085234" lon="12.067683195480829"><ele>0.5</ele><time>2026-04-12T08:41:09Z</time></trkpt><trkpt lat="45.2885156185121" lon="12.067978200890055"><ele>-1.0</ele><time>2026-04-12T08:41:10Z</time></trkpt><trkpt lat="45.288356209420016" lon="12.068278445145756"><ele>-1.0</ele><time>2026-04-12T08:41:11Z</time></trkpt><trkpt lat="45.288200611516984" lon="12.068571511139469"><ele>-1.0</ele><time>2026-04-12T08:41:12Z</time></trkpt><trkpt lat="45.28806265674039" lon="12.068860703695988"><ele>-1.0</ele><time>2026-04-12T08:41:13Z</time></trkpt><trkpt lat="45.28792640691139" lon="12.069115575019156"><ele>-1.0</ele><time>2026-04-12T08:41:14Z</time></trkpt><trkpt lat="45.287800881098526" lon="12.069358311016419"><ele>-1.0</ele><time>2026-04-12T08:41:15Z</time></trkpt><trkpt lat="45.28767719012225" lon="12.069595408016836"><ele>-1.0</ele><time>2026-04-12T08:41:16Z</time></trkpt><trkpt lat="45.28755607519898" lon="12.06982851492431"><ele>-1.0</ele><time>2026-04-12T08:41:17Z</time></trkpt><trkpt lat="45.28743510080639" lon="12.07005968987324"><ele>-1.0</ele><time>2026-04-12T08:41:18Z</time></trkpt><trkpt lat="45.287314086809985" lon="12.070295387876275"><ele>-1.0</ele><time>2026-04-12T08:41:19Z</time></trkpt><trkpt lat="45.28718340780786" lon="12.070553041223702"><ele>-1.0</ele><time>2026-04-12T08:41:20Z</time></trkpt><trkpt lat="45.287015550738495" lon="12.070818246813136"><ele>-1.0</ele><time>2026-04-12T08:41:21Z</time></trkpt><trkpt lat="45.28687564454206" lon="12.071114713162261"><ele>-1.0</ele><time>2026-04-12T08:41:22Z</time></trkpt><trkpt lat="45.286728298386954" lon="12.071374247470084"><ele>-1.0</ele><time>2026-04-12T08:41:23Z</time></trkpt><trkpt lat="45.286592601933435" lon="12.071627144406506"><ele>-1.0</ele><time>2026-04-12T08:41:24Z</time></trkpt><trkpt lat="45.28646114932563" lon="12.071884904205236"><ele>-1.0</ele><time>2026-04-12T08:41:25Z</time></trkpt><trkpt lat="45.28633538716358" lon="12.072133081909524"><ele>-1.0</ele><time>2026-04-12T08:41:26Z</time></trkpt><trkpt lat="45.28621194787296" lon="12.072367193694536"><ele>-1.0</ele><time>2026-04-12T08:41:27Z</time></trkpt><trkpt lat="45.286094516242144" lon="12.072586201455719"><ele>-1.0</ele><time>2026-04-12T08:41:28Z</time></trkpt><trkpt lat="45.285983700972835" lon="12.072794095185733"><ele>-1.0</ele><time>2026-04-12T08:41:29Z</time></trkpt><trkpt lat="45.28587874084017" lon="12.072995931364519"><ele>-1.0</ele><time>2026-04-12T08:41:30Z</time></trkpt><trkpt lat="45.285768540201595" lon="12.073205004272282"><ele>-1.0</ele><time>2026-04-12T08:41:31Z</time></trkpt><trkpt lat="45.28565391084058" lon="12.073420260827778"><ele>-1.0</ele><time>2026-04-12T08:41:32Z</time></trkpt><trkpt lat="45.28553637318213" lon="12.0736410380997"><ele>-1.0</ele><time>2026-04-12T08:41:33Z</time></trkpt><trkpt lat="45.28541328896502" lon="12.073878918954273"><ele>-1.0</ele><time>2026-04-12T08:41:34Z</time></trkpt><trkpt lat="45.28527702221957" lon="12.074158540117237"><ele>-1.0</ele><time>2026-04-12T08:41:35Z</time></trkpt><trkpt lat="45.28512757038494" lon="12.074464054129288"><ele>-1.0</ele><time>2026-04-12T08:41:36Z</time></trkpt><trkpt lat="45.28496220979429" lon="12.074771411689133"><ele>-1.0</ele><time>2026-04-12T08:41:37Z</time></trkpt><trkpt lat="45.28479183773381" lon="12.075084723898478"><ele>-1.0</ele><time>2026-04-12T08:41:38Z</time></trkpt><trkpt lat="45.28461451862079" lon="12.075420159308605"><ele>-1.0</ele><time>2026-04-12T08:41:39Z</time></trkpt><trkpt lat="45.28443456934835" lon="12.075766311148984"><ele>-1.0</ele><time>2026-04-12T08:41:40Z</time></trkpt><trkpt lat="45.28425088987977" lon="12.076113770315176"><ele>-1.5</ele><time>2026-04-12T08:41:40.999Z</time></trkpt><trkpt lat="45.28406597638947" lon="12.076458831600906"><ele>-2.0</ele><time>2026-04-12T08:41:41.999Z</time></trkpt><trkpt lat="45.2838804655178" lon="12.076807557523507"><ele>-2.0</ele><time>2026-04-12T08:41:42.999Z</time></trkpt><trkpt lat="45.28369346478871" lon="12.077156380479053"><ele>-2.0</ele><time>2026-04-12T08:41:43.999Z</time></trkpt><trkpt lat="45.28350350375591" lon="12.077492589410967"><ele>-2.5</ele><time>2026-04-12T08:41:44.999Z</time></trkpt><trkpt lat="45.28332006601818" lon="12.077804806592898"><ele>-3.0</ele><time>2026-04-12T08:41:45.999Z</time></trkpt><trkpt lat="45.28314715824842" lon="12.07809052628011"><ele>-2.5</ele><time>2026-04-12T08:41:46.999Z</time></trkpt><trkpt lat="45.28298396265655" lon="12.078387460024354"><ele>-2.0</ele><time>2026-04-12T08:41:47.999Z</time></trkpt><trkpt lat="45.28283394789499" lon="12.078698521518048"><ele>-2.0</ele><time>2026-04-12T08:41:48.999Z</time></trkpt><trkpt lat="45.282676861196194" lon="12.079015535217172"><ele>-2.0</ele><time>2026-04-12T08:41:49.999Z</time></trkpt><trkpt lat="45.2825089040634" lon="12.079333977168627"><ele>-2.5</ele><time>2026-04-12T08:41:50.999Z</time></trkpt><trkpt lat="45.28234355060439" lon="12.079640813617472"><ele>-3.0</ele><time>2026-04-12T08:41:51.999Z</time></trkpt><trkpt lat="45.28219566428766" lon="12.079920050971428"><ele>-2.0</ele><time>2026-04-12T08:41:52.999Z</time></trkpt><trkpt lat="45.282061594937055" lon="12.080180391122997"><ele>-1.0</ele><time>2026-04-12T08:41:53.999Z</time></trkpt><trkpt lat="45.281929425446634" lon="12.080432151166649"><ele>0.0</ele><time>2026-04-12T08:41:54.999Z</time></trkpt><trkpt lat="45.28180070609206" lon="12.08068031680851"><ele>1.0</ele><time>2026-04-12T08:41:55.999Z</time></trkpt><trkpt lat="45.281666183559224" lon="12.080943246986582"><ele>2.0</ele><time>2026-04-12T08:41:56.999Z</time></trkpt><trkpt lat="45.281515649806444" lon="12.081224564554383"><ele>1.5</ele><time>2026-04-12T08:41:57.999Z</time></trkpt><trkpt lat="45.28135091858036" lon="12.08151490726988"><ele>1.0</ele><time>2026-04-12T08:41:58.999Z</time></trkpt><trkpt lat="45.28117833957943" lon="12.08181176273226"><ele>1.0</ele><time>2026-04-12T08:41:59.999Z</time></trkpt><trkpt lat="45.281009752188254" lon="12.082121118224807"><ele>1.0</ele><time>2026-04-12T08:42:00.999Z</time></trkpt><trkpt lat="45.280845272790934" lon="12.082435159814082"><ele>1.0</ele><time>2026-04-12T08:42:01.999Z</time></trkpt><trkpt lat="45.280685378188906" lon="12.082748008430949"><ele>1.0</ele><time>2026-04-12T08:42:02.999Z</time></trkpt><trkpt lat="45.28052931834674" lon="12.083040776767005"><ele>0.5</ele><time>2026-04-12T08:42:03.999Z</time></trkpt><trkpt lat="45.280374768513695" lon="12.083326430169956"><ele>0.0</ele><time>2026-04-12T08:42:04.999Z</time></trkpt><trkpt lat="45.280221122958" lon="12.083611219162195"><ele>0.0</ele><time>2026-04-12T08:42:05.999Z</time></trkpt><trkpt lat="45.28006231541643" lon="12.083906780452017"><ele>0.0</ele><time>2026-04-12T08:42:06.999Z</time></trkpt><trkpt lat="45.279902610376176" lon="12.084217461844238"><ele>0.0</ele><time>2026-04-12T08:42:07.999Z</time></trkpt><trkpt lat="45.27974272705608" lon="12.084533857506361"><ele>0.0</ele><time>2026-04-12T08:42:08.999Z</time></trkpt><trkpt lat="45.27957204586551" lon="12.084857084940474"><ele>-0.5</ele><time>2026-04-12T08:42:09.999Z</time></trkpt><trkpt lat="45.27939858415767" lon="12.085181146361196"><ele>-1.0</ele><time>2026-04-12T08:42:10.999Z</time></trkpt><trkpt lat="45.279219319869476" lon="12.085497887871592"><ele>-1.5</ele><time>2026-04-12T08:42:11.999Z</time></trkpt><trkpt lat="45.279043361555615" lon="12.085785123800672"><ele>-2.0</ele><time>2026-04-12T08:42:12.999Z</time></trkpt><trkpt lat="45.278886096219395" lon="12.0860357684433"><ele>-2.0</ele><time>2026-04-12T08:42:13.999Z</time></trkpt><trkpt lat="45.27873679094438" lon="12.086275947834485"><ele>-2.0</ele><time>2026-04-12T08:42:14.999Z</time></trkpt><trkpt lat="45.2785944076601" lon="12.086493432217724"><ele>-2.0</ele><time>2026-04-12T08:42:15.999Z</time></trkpt><trkpt lat="45.27845628667994" lon="12.086698624791829"><ele>-2.0</ele><time>2026-04-12T08:42:16.999Z</time></trkpt><trkpt lat="45.27832180866767" lon="12.086896468158098"><ele>-2.0</ele><time>2026-04-12T08:42:17.999Z</time></trkpt><trkpt lat="45.27819268651457" lon="12.087089218118665"><ele>-2.0</ele><time>2026-04-12T08:42:18.999Z</time></trkpt><trkpt lat="45.27807334721416" lon="12.08726763573642"><ele>-1.3333333333333333</ele><time>2026-04-12T08:42:19.999Z</time></trkpt><trkpt lat="45.27796419704146" lon="12.087431333366068"><ele>-0.6666666666666666</ele><time>2026-04-12T08:42:20.999Z</time></trkpt><trkpt lat="45.2778570723164" lon="12.08758407528091"><ele>0.0</ele><time>2026-04-12T08:42:21.999Z</time></trkpt><trkpt lat="45.277754863030225" lon="12.087740923454342"><ele>0.0</ele><time>2026-04-12T08:42:22.999Z</time></trkpt><trkpt lat="45.27764838879311" lon="12.087902992853829"><ele>0.0</ele><time>2026-04-12T08:42:23.999Z</time></trkpt><trkpt lat="45.27753800773202" lon="12.088067214547065"><ele>0.0</ele><time>2026-04-12T08:42:25Z</time></trkpt><trkpt lat="45.277421616738174" lon="12.088236915422367"><ele>0.3333333333333333</ele><time>2026-04-12T08:42:26Z</time></trkpt><trkpt lat="45.277306328449924" lon="12.088402069473089"><ele>0.6666666666666666</ele><time>2026-04-12T08:42:27Z</time></trkpt><trkpt lat="45.277190199711036" lon="12.088570164461688"><ele>1.0</ele><time>2026-04-12T08:42:28Z</time></trkpt><trkpt lat="45.27708478255474" lon="12.088734231391253"><ele>1.0</ele><time>2026-04-12T08:42:29Z</time></trkpt><trkpt lat="45.27697078607503" lon="12.088906608452143"><ele>1.0</ele><time>2026-04-12T08:42:30Z</time></trkpt><trkpt lat="45.276851264811036" lon="12.089081830268096"><ele>1.0</ele><time>2026-04-12T08:42:31Z</time></trkpt><trkpt lat="45.27673093467246" lon="12.08925517003148"><ele>1.3333333333333333</ele><time>2026-04-12T08:42:32Z</time></trkpt><trkpt lat="45.27661666407993" lon="12.08942904686516"><ele>1.6666666666666665</ele><time>2026-04-12T08:42:33Z</time></trkpt><trkpt lat="45.276500846822834" lon="12.089611766710945"><ele>2.0</ele><time>2026-04-12T08:42:34Z</time></trkpt><trkpt lat="45.27638720730813" lon="12.089791984736202"><ele>2.0</ele><time>2026-04-12T08:42:35Z</time></trkpt><trkpt lat="45.276269335825845" lon="12.089956355299782"><ele>2.0</ele><time>2026-04-12T08:42:36Z</time></trkpt><trkpt lat="45.276152456348505" lon="12.09013165900921"><ele>2.0</ele><time>2026-04-12T08:42:37Z</time></trkpt><trkpt lat="45.27604395122267" lon="12.090318183262333"><ele>2.0</ele><time>2026-04-12T08:42:38Z</time></trkpt><trkpt lat="45.275924772320934" lon="12.09049708014689"><ele>2.0</ele><time>2026-04-12T08:42:39Z</time></trkpt><trkpt lat="45.27580675611442" lon="12.090664879342029"><ele>2.0</ele><time>2026-04-12T08:42:40Z</time></trkpt><trkpt lat="45.27568770459789" lon="12.090832191252352"><ele>1.6666666666666665</ele><time>2026-04-12T08:42:41Z</time></trkpt><trkpt lat="45.27557385675618" lon="12.091004457701192"><ele>1.3333333333333333</ele><time>2026-04-12T08:42:42Z</time></trkpt><trkpt lat="45.275456436516194" lon="12.091179514537476"><ele>1.0</ele><time>2026-04-12T08:42:43Z</time></trkpt><trkpt lat="45.27533832634335" lon="12.091357003645276"><ele>1.0</ele><time>2026-04-12T08:42:44Z</time></trkpt><trkpt lat="45.275225055778364" lon="12.091531811002039"><ele>1.0</ele><time>2026-04-12T08:42:45Z</time></trkpt><trkpt lat="45.27510701471681" lon="12.091705997931756"><ele>1.0</ele><time>2026-04-12T08:42:46Z</time></trkpt><trkpt lat="45.27499267178181" lon="12.091880004522594"><ele>1.0</ele><time>2026-04-12T08:42:47Z</time></trkpt><trkpt lat="45.27487840784822" lon="12.092055076982021"><ele>1.0</ele><time>2026-04-12T08:42:48Z</time></trkpt><trkpt lat="45.274760305273446" lon="12.092229709731372"><ele>1.0</ele><time>2026-04-12T08:42:49Z</time></trkpt><trkpt lat="45.27464319515456" lon="12.092403822822991"><ele>0.6666666666666666</ele><time>2026-04-12T08:42:50Z</time></trkpt><trkpt lat="45.274528905404935" lon="12.09257839585328"><ele>0.3333333333333333</ele><time>2026-04-12T08:42:51Z</time></trkpt><trkpt lat="45.27441540436003" lon="12.092754660421516"><ele>0.0</ele><time>2026-04-12T08:42:52Z</time></trkpt><trkpt lat="45.274297212388134" lon="12.092933577417963"><ele>0.0</ele><time>2026-04-12T08:42:53Z</time></trkpt><trkpt lat="45.274178060426195" lon="12.09311201173114"><ele>0.0</ele><time>2026-04-12T08:42:54Z</time></trkpt><trkpt lat="45.274059410184464" lon="12.093289108984612"><ele>0.0</ele><time>2026-04-12T08:42:55Z</time></trkpt><trkpt lat="45.27394651300825" lon="12.093464738638922"><ele>0.3333333333333333</ele><time>2026-04-12T08:42:56Z</time></trkpt><trkpt lat="45.27382998611429" lon="12.09363705804297"><ele>0.6666666666666666</ele><time>2026-04-12T08:42:57Z</time></trkpt><trkpt lat="45.273709777302145" lon="12.093811448941365"><ele>1.0</ele><time>2026-04-12T08:42:58Z</time></trkpt><trkpt lat="45.27359522156177" lon="12.093985460529176"><ele>0.6666666666666666</ele><time>2026-04-12T08:42:59Z</time></trkpt><trkpt lat="45.27348321344519" lon="12.094160594064011"><ele>0.3333333333333333</ele><time>2026-04-12T08:43:00Z</time></trkpt><trkpt lat="45.273367672564596" lon="12.094334409541862"><ele>0.0</ele><time>2026-04-12T08:43:01Z</time></trkpt><trkpt lat="45.27324684947294" lon="12.094508340853709"><ele>0.0</ele><time>2026-04-12T08:43:02Z</time></trkpt><trkpt lat="45.27313424610158" lon="12.094680275006652"><ele>0.0</ele><time>2026-04-12T08:43:03Z</time></trkpt><trkpt lat="45.27302162220361" lon="12.094854067213621"><ele>0.0</ele><time>2026-04-12T08:43:04Z</time></trkpt><trkpt lat="45.272897126190294" lon="12.095008938671572"><ele>0.3333333333333333</ele><time>2026-04-12T08:43:05Z</time></trkpt><trkpt lat="45.27276912925268" lon="12.095199360100171"><ele>0.6666666666666666</ele><time>2026-04-12T08:43:06Z</time></trkpt><trkpt lat="45.2726184121775" lon="12.095423799517574"><ele>1.0</ele><time>2026-04-12T08:43:07Z</time></trkpt><trkpt lat="45.27245408011675" lon="12.09567190692697"><ele>0.5</ele><time>2026-04-12T08:43:08Z</time></trkpt><trkpt lat="45.27228046305009" lon="12.095934015351455"><ele>0.0</ele><time>2026-04-12T08:43:09Z</time></trkpt><trkpt lat="45.27211255514989" lon="12.096185991937277"><ele>0.0</ele><time>2026-04-12T08:43:10Z</time></trkpt><trkpt lat="45.271958330859505" lon="12.096417434812352"><ele>0.0</ele><time>2026-04-12T08:43:11Z</time></trkpt><trkpt lat="45.27180859536246" lon="12.096642140215984"><ele>0.0</ele><time>2026-04-12T08:43:12Z</time></trkpt><trkpt lat="45.27165580068647" lon="12.096871436476908"><ele>0.0</ele><time>2026-04-12T08:43:13Z</time></trkpt><trkpt lat="45.27149495129673" lon="12.09711282030266"><ele>0.0</ele><time>2026-04-12T08:43:14Z</time></trkpt><trkpt lat="45.27134203286472" lon="12.097373333502999"><ele>0.5</ele><time>2026-04-12T08:43:15Z</time></trkpt><trkpt lat="45.27117135016565" lon="12.09761900640585"><ele>1.0</ele><time>2026-04-12T08:43:16Z</time></trkpt><trkpt lat="45.27100468277817" lon="12.097868504471124"><ele>1.0</ele><time>2026-04-12T08:43:17Z</time></trkpt><trkpt lat="45.27083588371897" lon="12.098125889058439"><ele>1.0</ele><time>2026-04-12T08:43:18Z</time></trkpt><trkpt lat="45.27067464559938" lon="12.098364507069297"><ele>0.6666666666666666</ele><time>2026-04-12T08:43:19Z</time></trkpt><trkpt lat="45.27052417281404" lon="12.098584440470365"><ele>0.3333333333333333</ele><time>2026-04-12T08:43:20Z</time></trkpt><trkpt lat="45.270376382967754" lon="12.098796769129565"><ele>0.0</ele><time>2026-04-12T08:43:21Z</time></trkpt><trkpt lat="45.270233169426696" lon="12.099008420176753"><ele>0.0</ele><time>2026-04-12T08:43:22Z</time></trkpt><trkpt lat="45.27009131843611" lon="12.099224492768993"><ele>0.0</ele><time>2026-04-12T08:43:23Z</time></trkpt><trkpt lat="45.26995288203695" lon="12.099439075306826"><ele>0.0</ele><time>2026-04-12T08:43:24Z</time></trkpt><trkpt lat="45.269813443610126" lon="12.09964791133812"><ele>0.0</ele><time>2026-04-12T08:43:25Z</time></trkpt><trkpt lat="45.26967844183862" lon="12.09984784751055"><ele>0.0</ele><time>2026-04-12T08:43:26Z</time></trkpt><trkpt lat="45.269543853463134" lon="12.10004493953174"><ele>0.0</ele><time>2026-04-12T08:43:27Z</time></trkpt><trkpt lat="45.269410447883175" lon="12.10024313482196"><ele>0.0</ele><time>2026-04-12T08:43:28Z</time></trkpt><trkpt lat="45.26928284141356" lon="12.100436519546728"><ele>0.0</ele><time>2026-04-12T08:43:29Z</time></trkpt><trkpt lat="45.2691563109549" lon="12.100636687110294"><ele>0.0</ele><time>2026-04-12T08:43:30Z</time></trkpt><trkpt lat="45.26904181198436" lon="12.100842309951215"><ele>0.6666666666666666</ele><time>2026-04-12T08:43:31Z</time></trkpt><trkpt lat="45.268933454882934" lon="12.101059293724502"><ele>1.3333333333333333</ele><time>2026-04-12T08:43:32Z</time></trkpt><trkpt lat="45.268832569020795" lon="12.101280733316377"><ele>2.0</ele><time>2026-04-12T08:43:33Z</time></trkpt><trkpt lat="45.268734515862945" lon="12.10150979836585"><ele>2.0</ele><time>2026-04-12T08:43:34Z</time></trkpt><trkpt lat="45.26865038560409" lon="12.101735320635562"><ele>2.0</ele><time>2026-04-12T08:43:35Z</time></trkpt><trkpt lat="45.26856935774842" lon="12.101968190811819"><ele>2.0</ele><time>2026-04-12T08:43:36Z</time></trkpt><trkpt lat="45.26849121432462" lon="12.102205862349207"><ele>2.0</ele><time>2026-04-12T08:43:37Z</time></trkpt><trkpt lat="45.26842000427635" lon="12.102449106330205"><ele>2.0</ele><time>2026-04-12T08:43:38Z</time></trkpt><trkpt lat="45.26836345925427" lon="12.102673617541244"><ele>2.0</ele><time>2026-04-12T08:43:39Z</time></trkpt><trkpt lat="45.268298987982455" lon="12.102845114813858"><ele>2.0</ele><time>2026-04-12T08:43:40Z</time></trkpt><trkpt lat="45.268299881558164" lon="12.103049086059052"><ele>2.0</ele><time>2026-04-12T08:43:41Z</time></trkpt><trkpt lat="45.26828034588098" lon="12.103228844741558"><ele>2.0</ele><time>2026-04-12T08:43:42Z</time></trkpt><trkpt lat="45.26825126704582" lon="12.103431431105259"><ele>2.0</ele><time>2026-04-12T08:43:43Z</time></trkpt><trkpt lat="45.268199156164265" lon="12.103666465465306"><ele>2.0</ele><time>2026-04-12T08:43:44Z</time></trkpt><trkpt lat="45.26814257705761" lon="12.103941496616326"><ele>2.0</ele><time>2026-04-12T08:43:45Z</time></trkpt><trkpt lat="45.268094365325155" lon="12.1042584063819"><ele>2.0</ele><time>2026-04-12T08:43:46Z</time></trkpt><trkpt lat="45.26805333578274" lon="12.104569988262186"><ele>1.3333333333333333</ele><time>2026-04-12T08:43:47Z</time></trkpt><trkpt lat="45.26801789500767" lon="12.104835654060302"><ele>0.6666666666666666</ele><time>2026-04-12T08:43:48Z</time></trkpt><trkpt lat="45.26798559774062" lon="12.105076933314582"><ele>0.0</ele><time>2026-04-12T08:43:49Z</time></trkpt><trkpt lat="45.26795733401855" lon="12.105310198724021"><ele>-0.3333333333333333</ele><time>2026-04-12T08:43:50Z</time></trkpt><trkpt lat="45.26792325246918" lon="12.105550980800105"><ele>-0.6666666666666666</ele><time>2026-04-12T08:43:50.999Z</time></trkpt><trkpt lat="45.26789158817219" lon="12.105763897156889"><ele>-1.0</ele><time>2026-04-12T08:43:51.999Z</time></trkpt><trkpt lat="45.2678616807901" lon="12.105957668595346"><ele>-0.4</ele><time>2026-04-12T08:43:52.999Z</time></trkpt><trkpt lat="45.26783115205279" lon="12.106136519243826"><ele>0.19999999999999996</ele><time>2026-04-12T08:43:53.999Z</time></trkpt><trkpt lat="45.26780844277764" lon="12.106289246297925"><ele>0.8000000000000002</ele><time>2026-04-12T08:43:54.999Z</time></trkpt><trkpt lat="45.26779318351686" lon="12.106405982841938"><ele>1.4000000000000001</ele><time>2026-04-12T08:43:55.999Z</time></trkpt><trkpt lat="45.2677776652881" lon="12.106517437462877"><ele>2.0</ele><time>2026-04-12T08:43:56.999Z</time></trkpt><trkpt lat="45.26776191036811" lon="12.10661247173466"><ele>1.9999999999999998</ele><time>2026-04-12T08:43:57.999Z</time></trkpt><trkpt lat="45.267744556424795" lon="12.106704471387888"><ele>2.0</ele><time>2026-04-12T08:43:58.999Z</time></trkpt><trkpt lat="45.267726871964804" lon="12.106823343895787"><ele>2.0</ele><time>2026-04-12T08:44:00.999Z</time></trkpt><trkpt lat="45.26771097248236" lon="12.1069321758271"><ele>2.0</ele><time>2026-04-12T08:44:02.999Z</time></trkpt><trkpt lat="45.26769542594434" lon="12.107035911393234"><ele>1.9999999999999998</ele><time>2026-04-12T08:44:04.999Z</time></trkpt><trkpt lat="45.26768033875866" lon="12.10712957198033"><ele>2.0</ele><time>2026-04-12T08:44:07.999Z</time></trkpt><trkpt lat="45.267645952374345" lon="12.107254055281356"><ele>1.9999999999999998</ele><time>2026-04-12T08:44:53Z</time></trkpt><trkpt lat="45.267637446129186" lon="12.10739176629395"><ele>2.0</ele><time>2026-04-12T08:44:55Z</time></trkpt><trkpt lat="45.267619181953116" lon="12.107541360512425"><ele>2.0</ele><time>2026-04-12T08:44:57Z</time></trkpt><trkpt lat="45.26760370986891" lon="12.107645938166161"><ele>2.0</ele><time>2026-04-12T08:44:58Z</time></trkpt><trkpt lat="45.267587058633005" lon="12.107763397116026"><ele>1.9999999999999998</ele><time>2026-04-12T08:44:59Z</time></trkpt><trkpt lat="45.267574365136866" lon="12.10787095887029"><ele>2.0</ele><time>2026-04-12T08:45:00Z</time></trkpt><trkpt lat="45.26755154523642" lon="12.107961074925925"><ele>2.0</ele><time>2026-04-12T08:45:01Z</time></trkpt><trkpt lat="45.26747722480636" lon="12.108034075162479"><ele>2.0</ele><time>2026-04-12T08:45:03Z</time></trkpt><trkpt lat="45.267295264192754" lon="12.108011575291401"><ele>2.0</ele><time>2026-04-12T08:45:04Z</time></trkpt><trkpt lat="45.267148803724595" lon="12.10800298405582"><ele>2.0</ele><time>2026-04-12T08:45:05Z</time></trkpt><trkpt lat="45.2669955615145" lon="12.108006564922052"><ele>2.0</ele><time>2026-04-12T08:45:06Z</time></trkpt><trkpt lat="45.26683056410526" lon="12.107988815110767"><ele>2.0</ele><time>2026-04-12T08:45:07Z</time></trkpt><trkpt lat="45.266664978621" lon="12.107989222260425"><ele>2.0</ele><time>2026-04-12T08:45:08Z</time></trkpt><trkpt lat="45.266494597700174" lon="12.107988593191994"><ele>1.6666666666666665</ele><time>2026-04-12T08:45:09Z</time></trkpt><trkpt lat="45.2663208510283" lon="12.107982139399624"><ele>1.3333333333333333</ele><time>2026-04-12T08:45:10Z</time></trkpt><trkpt lat="45.26614388392929" lon="12.107973516004266"><ele>1.0</ele><time>2026-04-12T08:45:11Z</time></trkpt><trkpt lat="45.26596091840777" lon="12.107962451349719"><ele>1.0</ele><time>2026-04-12T08:45:12Z</time></trkpt><trkpt lat="45.26576671341567" lon="12.107950362100068"><ele>1.0</ele><time>2026-04-12T08:45:13Z</time></trkpt><trkpt lat="45.26556452997251" lon="12.107937776183755"><ele>1.0</ele><time>2026-04-12T08:45:14Z</time></trkpt><trkpt lat="45.265360366716735" lon="12.107924905357633"><ele>2.0</ele><time>2026-04-12T08:45:15Z</time></trkpt><trkpt lat="45.26516439010376" lon="12.107912470553636"><ele>3.0</ele><time>2026-04-12T08:45:16Z</time></trkpt><trkpt lat="45.26496366701673" lon="12.107922265408854"><ele>4.0</ele><time>2026-04-12T08:45:17Z</time></trkpt><trkpt lat="45.26477533720072" lon="12.107890638867111"><ele>4.333333333333333</ele><time>2026-04-12T08:45:18Z</time></trkpt><trkpt lat="45.26458206476501" lon="12.107880006283558"><ele>4.666666666666667</ele><time>2026-04-12T08:45:19Z</time></trkpt><trkpt lat="45.26438749568715" lon="12.107869079677311"><ele>5.0</ele><time>2026-04-12T08:45:20Z</time></trkpt><trkpt lat="45.26418698556544" lon="12.10785832504829"><ele>5.0</ele><time>2026-04-12T08:45:21Z</time></trkpt><trkpt lat="45.263985442727595" lon="12.107856003988894"><ele>5.0</ele><time>2026-04-12T08:45:22Z</time></trkpt><trkpt lat="45.26378891784134" lon="12.107882898988505"><ele>5.0</ele><time>2026-04-12T08:45:23Z</time></trkpt><trkpt lat="45.26358320192548" lon="12.107866061483442"><ele>4.666666666666667</ele><time>2026-04-12T08:45:24Z</time></trkpt><trkpt lat="45.26337641139061" lon="12.107880150626475"><ele>4.333333333333333</ele><time>2026-04-12T08:45:25Z</time></trkpt><trkpt lat="45.263170016430465" lon="12.107895677097154"><ele>4.0</ele><time>2026-04-12T08:45:26Z</time></trkpt><trkpt lat="45.26295759890452" lon="12.107912066690387"><ele>4.0</ele><time>2026-04-12T08:45:27Z</time></trkpt><trkpt lat="45.2627448424888" lon="12.107928793347128"><ele>4.0</ele><time>2026-04-12T08:45:28Z</time></trkpt><trkpt lat="45.2625308586571" lon="12.107945479897305"><ele>4.0</ele><time>2026-04-12T08:45:29Z</time></trkpt><trkpt lat="45.26231266438054" lon="12.10796177128676"><ele>3.6666666666666665</ele><time>2026-04-12T08:45:30Z</time></trkpt><trkpt lat="45.26209677718954" lon="12.1079778904466"><ele>3.333333333333333</ele><time>2026-04-12T08:45:31Z</time></trkpt><trkpt lat="45.26187702430681" lon="12.107994298198406"><ele>3.0</ele><time>2026-04-12T08:45:32Z</time></trkpt><trkpt lat="45.261653911982066" lon="12.10800899442368"><ele>2.6666666666666665</ele><time>2026-04-12T08:45:33Z</time></trkpt><trkpt lat="45.26143465869514" lon="12.108025340904717"><ele>2.333333333333333</ele><time>2026-04-12T08:45:34Z</time></trkpt><trkpt lat="45.26121686411204" lon="12.108040806352147"><ele>2.0</ele><time>2026-04-12T08:45:35Z</time></trkpt><trkpt lat="45.26099790963637" lon="12.108086924505088"><ele>2.0</ele><time>2026-04-12T08:45:36Z</time></trkpt><trkpt lat="45.260776274811235" lon="12.108092659131524"><ele>2.0</ele><time>2026-04-12T08:45:37Z</time></trkpt><trkpt lat="45.26055832253087" lon="12.108094095908296"><ele>2.0</ele><time>2026-04-12T08:45:38Z</time></trkpt><trkpt lat="45.26033964680312" lon="12.108087013740766"><ele>1.6666666666666665</ele><time>2026-04-12T08:45:39Z</time></trkpt><trkpt lat="45.26012580386992" lon="12.108077502033344"><ele>1.3333333333333333</ele><time>2026-04-12T08:45:40Z</time></trkpt><trkpt lat="45.259908231282445" lon="12.108062694999175"><ele>1.0</ele><time>2026-04-12T08:45:41Z</time></trkpt><trkpt lat="45.25969117553315" lon="12.108016100671318"><ele>0.6666666666666666</ele><time>2026-04-12T08:45:42Z</time></trkpt><trkpt lat="45.25947691613544" lon="12.108001445433077"><ele>0.3333333333333333</ele><time>2026-04-12T08:45:43Z</time></trkpt><trkpt lat="45.2592583652474" lon="12.107983664119333"><ele>0.0</ele><time>2026-04-12T08:45:44Z</time></trkpt><trkpt lat="45.25904545947338" lon="12.107964814680996"><ele>0.3333333333333333</ele><time>2026-04-12T08:45:45Z</time></trkpt><trkpt lat="45.2588308565127" lon="12.107943773428953"><ele>0.6666666666666666</ele><time>2026-04-12T08:45:46Z</time></trkpt><trkpt lat="45.258614518005565" lon="12.107922083592983"><ele>1.0</ele><time>2026-04-12T08:45:47Z</time></trkpt><trkpt lat="45.2583972440102" lon="12.10790029996167"><ele>1.0</ele><time>2026-04-12T08:45:48Z</time></trkpt><trkpt lat="45.25818167438729" lon="12.10787868721352"><ele>1.0</ele><time>2026-04-12T08:45:49Z</time></trkpt><trkpt lat="45.2579695732571" lon="12.107857422211891"><ele>1.0</ele><time>2026-04-12T08:45:50Z</time></trkpt><trkpt lat="45.257747219033355" lon="12.107850455259266"><ele>1.0</ele><time>2026-04-12T08:45:51Z</time></trkpt><trkpt lat="45.25753392690205" lon="12.107854200605848"><ele>1.0</ele><time>2026-04-12T08:45:52Z</time></trkpt><trkpt lat="45.25731772687471" lon="12.107864351798137"><ele>1.0</ele><time>2026-04-12T08:45:53Z</time></trkpt><trkpt lat="45.257101872694584" lon="12.107885479286994"><ele>1.6666666666666665</ele><time>2026-04-12T08:45:54Z</time></trkpt><trkpt lat="45.25688585111506" lon="12.10791646446716"><ele>2.3333333333333335</ele><time>2026-04-12T08:45:55Z</time></trkpt><trkpt lat="45.25666522814522" lon="12.107951229572054"><ele>3.0</ele><time>2026-04-12T08:45:56Z</time></trkpt><trkpt lat="45.256448995640966" lon="12.10799817726379"><ele>3.0</ele><time>2026-04-12T08:45:57Z</time></trkpt><trkpt lat="45.256236770495576" lon="12.108048613745254"><ele>3.0</ele><time>2026-04-12T08:45:58Z</time></trkpt><trkpt lat="45.25602162071952" lon="12.10810074183887"><ele>3.0</ele><time>2026-04-12T08:45:59Z</time></trkpt><trkpt lat="45.25580938279288" lon="12.108152464701076"><ele>3.333333333333333</ele><time>2026-04-12T08:46:00Z</time></trkpt><trkpt lat="45.255596072922636" lon="12.108206541858532"><ele>3.6666666666666665</ele><time>2026-04-12T08:46:01Z</time></trkpt><trkpt lat="45.255385972061255" lon="12.108259805474193"><ele>4.0</ele><time>2026-04-12T08:46:02Z</time></trkpt><trkpt lat="45.25517083352464" lon="12.108314486309173"><ele>4.0</ele><time>2026-04-12T08:46:03Z</time></trkpt><trkpt lat="45.25495806950243" lon="12.108369617157697"><ele>4.0</ele><time>2026-04-12T08:46:04Z</time></trkpt><trkpt lat="45.25474498259935" lon="12.108424831692023"><ele>4.0</ele><time>2026-04-12T08:46:04.999Z</time></trkpt><trkpt lat="45.25453249707715" lon="12.108479890745517"><ele>4.0</ele><time>2026-04-12T08:46:05.999Z</time></trkpt><trkpt lat="45.25431722572918" lon="12.108536128594386"><ele>4.0</ele><time>2026-04-12T08:46:06.999Z</time></trkpt><trkpt lat="45.25410239265713" lon="12.108592149139113"><ele>4.0</ele><time>2026-04-12T08:46:07.999Z</time></trkpt><trkpt lat="45.25389070796836" lon="12.108647348711457"><ele>3.6666666666666665</ele><time>2026-04-12T08:46:08.999Z</time></trkpt><trkpt lat="45.25367918666917" lon="12.108701957732013"><ele>3.333333333333333</ele><time>2026-04-12T08:46:09.999Z</time></trkpt><trkpt lat="45.25346498166047" lon="12.10875662325758"><ele>3.0</ele><time>2026-04-12T08:46:10.999Z</time></trkpt><trkpt lat="45.2532480527165" lon="12.108811983932329"><ele>3.0</ele><time>2026-04-12T08:46:11.999Z</time></trkpt><trkpt lat="45.253033691525914" lon="12.108866689298555"><ele>3.0</ele><time>2026-04-12T08:46:12.999Z</time></trkpt><trkpt lat="45.25281718170735" lon="12.108921944926765"><ele>3.0</ele><time>2026-04-12T08:46:13.999Z</time></trkpt><trkpt lat="45.252604759803006" lon="12.108976155422873"><ele>3.0</ele><time>2026-04-12T08:46:14.999Z</time></trkpt><trkpt lat="45.252387091755594" lon="12.109032707390096"><ele>3.0</ele><time>2026-04-12T08:46:15.999Z</time></trkpt><trkpt lat="45.25217378801071" lon="12.109089227570005"><ele>3.0</ele><time>2026-04-12T08:46:16.999Z</time></trkpt><trkpt lat="45.25196144005181" lon="12.109145491319524"><ele>2.6666666666666665</ele><time>2026-04-12T08:46:17.999Z</time></trkpt><trkpt lat="45.25174971548191" lon="12.109201589533997"><ele>2.333333333333333</ele><time>2026-04-12T08:46:18.999Z</time></trkpt><trkpt lat="45.25154455495516" lon="12.109287432722677"><ele>2.0</ele><time>2026-04-12T08:46:19.999Z</time></trkpt><trkpt lat="45.2513311399554" lon="12.109337526063262"><ele>2.0</ele><time>2026-04-12T08:46:20.999Z</time></trkpt><trkpt lat="45.25112197364857" lon="12.109393861371723"><ele>2.0</ele><time>2026-04-12T08:46:21.999Z</time></trkpt><trkpt lat="45.25090997726788" lon="12.109463712771932"><ele>2.0</ele><time>2026-04-12T08:46:22.999Z</time></trkpt><trkpt lat="45.250708635270655" lon="12.109555951599365"><ele>1.6666666666666665</ele><time>2026-04-12T08:46:23.999Z</time></trkpt><trkpt lat="45.2505061499504" lon="12.10967124047769"><ele>1.3333333333333333</ele><time>2026-04-12T08:46:24.999Z</time></trkpt><trkpt lat="45.25031563196677" lon="12.10981236143147"><ele>1.0</ele><time>2026-04-12T08:46:25.999Z</time></trkpt><trkpt lat="45.250125310406524" lon="12.109969968603767"><ele>1.0</ele><time>2026-04-12T08:46:26.999Z</time></trkpt><trkpt lat="45.24994584499424" lon="12.110139637726782"><ele>1.0</ele><time>2026-04-12T08:46:27.999Z</time></trkpt><trkpt lat="45.249773519387944" lon="12.110329344327555"><ele>1.0</ele><time>2026-04-12T08:46:28.999Z</time></trkpt><trkpt lat="45.24960733815167" lon="12.110534140066914"><ele>1.3333333333333333</ele><time>2026-04-12T08:46:29.999Z</time></trkpt><trkpt lat="45.249453372766325" lon="12.110752309924985"><ele>1.6666666666666665</ele><time>2026-04-12T08:46:30.999Z</time></trkpt><trkpt lat="45.249307298335" lon="12.11098188095355"><ele>2.0</ele><time>2026-04-12T08:46:31.999Z</time></trkpt><trkpt lat="45.24917255893334" lon="12.111218933274362"><ele>2.0</ele><time>2026-04-12T08:46:32.999Z</time></trkpt><trkpt lat="45.24904579796561" lon="12.111465696013079"><ele>2.0</ele><time>2026-04-12T08:46:33.999Z</time></trkpt><trkpt lat="45.24892141099109" lon="12.111721287520322"><ele>2.0</ele><time>2026-04-12T08:46:34.999Z</time></trkpt><trkpt lat="45.24880878589657" lon="12.111984865664887"><ele>1.6666666666666665</ele><time>2026-04-12T08:46:35.999Z</time></trkpt><trkpt lat="45.248708127245536" lon="12.112252677040143"><ele>1.3333333333333333</ele><time>2026-04-12T08:46:37Z</time></trkpt><trkpt lat="45.24861080249633" lon="12.11253253006723"><ele>1.0</ele><time>2026-04-12T08:46:38Z</time></trkpt><trkpt lat="45.2485189650406" lon="12.112815004247173"><ele>1.0</ele><time>2026-04-12T08:46:39Z</time></trkpt><trkpt lat="45.24843401689638" lon="12.113093768169726"><ele>1.0</ele><time>2026-04-12T08:46:40Z</time></trkpt><trkpt lat="45.24834062589997" lon="12.113378741639943"><ele>1.0</ele><time>2026-04-12T08:46:41Z</time></trkpt><trkpt lat="45.24825266869414" lon="12.113654301290609"><ele>1.6666666666666665</ele><time>2026-04-12T08:46:42Z</time></trkpt><trkpt lat="45.24816509690559" lon="12.113933787726552"><ele>2.3333333333333335</ele><time>2026-04-12T08:46:43Z</time></trkpt><trkpt lat="45.248075486418244" lon="12.114216766418785"><ele>3.0</ele><time>2026-04-12T08:46:44Z</time></trkpt><trkpt lat="45.247988017206346" lon="12.114499730871875"><ele>3.0</ele><time>2026-04-12T08:46:45Z</time></trkpt><trkpt lat="45.24790176107992" lon="12.114781523797612"><ele>3.0</ele><time>2026-04-12T08:46:46Z</time></trkpt><trkpt lat="45.24781308187686" lon="12.115062840594506"><ele>3.0</ele><time>2026-04-12T08:46:47Z</time></trkpt><trkpt lat="45.24772371719391" lon="12.115345906534419"><ele>2.3333333333333335</ele><time>2026-04-12T08:46:48Z</time></trkpt><trkpt lat="45.247646001126405" lon="12.115633223847592"><ele>1.6666666666666665</ele><time>2026-04-12T08:46:49Z</time></trkpt><trkpt lat="45.24758165841425" lon="12.115925980597929"><ele>1.0</ele><time>2026-04-12T08:46:50Z</time></trkpt><trkpt lat="45.24752954384905" lon="12.116224720842476"><ele>0.6666666666666666</ele><time>2026-04-12T08:46:51Z</time></trkpt><trkpt lat="45.24748547784376" lon="12.116526790895668"><ele>0.3333333333333333</ele><time>2026-04-12T08:46:52Z</time></trkpt><trkpt lat="45.247442354247745" lon="12.116827824860668"><ele>0.0</ele><time>2026-04-12T08:46:53Z</time></trkpt><trkpt lat="45.24740480135768" lon="12.11712628318657"><ele>-0.3333333333333333</ele><time>2026-04-12T08:46:54Z</time></trkpt><trkpt lat="45.24736889223052" lon="12.117432625301884"><ele>-0.6666666666666666</ele><time>2026-04-12T08:46:55Z</time></trkpt><trkpt lat="45.2473362762815" lon="12.117739433434211"><ele>-1.0</ele><time>2026-04-12T08:46:56Z</time></trkpt><trkpt lat="45.24730955951117" lon="12.11804338824983"><ele>-0.3333333333333333</ele><time>2026-04-12T08:46:57Z</time></trkpt><trkpt lat="45.24727223514126" lon="12.118356143963343"><ele>0.3333333333333333</ele><time>2026-04-12T08:46:58Z</time></trkpt><trkpt lat="45.247243675481855" lon="12.11865562214221"><ele>1.0</ele><time>2026-04-12T08:46:59Z</time></trkpt><trkpt lat="45.247218810996145" lon="12.118956905012283"><ele>1.3333333333333333</ele><time>2026-04-12T08:47:00Z</time></trkpt><trkpt lat="45.247183697486555" lon="12.119267113401094"><ele>1.6666666666666665</ele><time>2026-04-12T08:47:01Z</time></trkpt><trkpt lat="45.24715525930508" lon="12.119568497851773"><ele>2.0</ele><time>2026-04-12T08:47:02Z</time></trkpt><trkpt lat="45.24712651391896" lon="12.119873327949467"><ele>1.6666666666666665</ele><time>2026-04-12T08:47:03Z</time></trkpt><trkpt lat="45.24709313994927" lon="12.120178025974047"><ele>1.3333333333333333</ele><time>2026-04-12T08:47:04Z</time></trkpt><trkpt lat="45.24706138713743" lon="12.120482853520096"><ele>1.0</ele><time>2026-04-12T08:47:05Z</time></trkpt><trkpt lat="45.24703136345247" lon="12.120787721396633"><ele>0.6666666666666666</ele><time>2026-04-12T08:47:06Z</time></trkpt><trkpt lat="45.24700458662389" lon="12.121080113155491"><ele>0.3333333333333333</ele><time>2026-04-12T08:47:07Z</time></trkpt><trkpt lat="45.24697720425309" lon="12.121343868676137"><ele>0.0</ele><time>2026-04-12T08:47:08Z</time></trkpt><trkpt lat="45.24694788985083" lon="12.12158522307749"><ele>0.6666666666666666</ele><time>2026-04-12T08:47:09Z</time></trkpt><trkpt lat="45.24692008960909" lon="12.121831884201494"><ele>1.3333333333333333</ele><time>2026-04-12T08:47:10Z</time></trkpt><trkpt lat="45.24689111539867" lon="12.122092283954082"><ele>2.0</ele><time>2026-04-12T08:47:11Z</time></trkpt><trkpt lat="45.246863091466224" lon="12.122347069739284"><ele>1.3333333333333333</ele><time>2026-04-12T08:47:12Z</time></trkpt><trkpt lat="45.246830865448324" lon="12.122603246255256"><ele>0.6666666666666666</ele><time>2026-04-12T08:47:13Z</time></trkpt><trkpt lat="45.24678812870773" lon="12.122873101322687"><ele>0.0</ele><time>2026-04-12T08:47:14Z</time></trkpt><trkpt lat="45.24674868521988" lon="12.123137938029663"><ele>-0.3333333333333333</ele><time>2026-04-12T08:47:15Z</time></trkpt><trkpt lat="45.246710403080456" lon="12.12341038321568"><ele>-0.6666666666666666</ele><time>2026-04-12T08:47:16Z</time></trkpt><trkpt lat="45.246671317258716" lon="12.1236868438939"><ele>-1.0</ele><time>2026-04-12T08:47:17Z</time></trkpt><trkpt lat="45.24663078381323" lon="12.12396543281461"><ele>-1.0</ele><time>2026-04-12T08:47:18Z</time></trkpt><trkpt lat="45.246588749676995" lon="12.12424841430314"><ele>-1.0</ele><time>2026-04-12T08:47:19Z</time></trkpt><trkpt lat="45.246546283165294" lon="12.124523419191934"><ele>-1.0</ele><time>2026-04-12T08:47:20Z</time></trkpt><trkpt lat="45.2465056665918" lon="12.124783238371071"><ele>-1.3333333333333333</ele><time>2026-04-12T08:47:21Z</time></trkpt><trkpt lat="45.246465726428795" lon="12.125031388163597"><ele>-1.6666666666666665</ele><time>2026-04-12T08:47:22Z</time></trkpt><trkpt lat="45.24642445455324" lon="12.125274738973179"><ele>-2.0</ele><time>2026-04-12T08:47:23Z</time></trkpt><trkpt lat="45.24637647947873" lon="12.125512441736845"><ele>-1.6666666666666665</ele><time>2026-04-12T08:47:24Z</time></trkpt><trkpt lat="45.24630601480267" lon="12.125746158513506"><ele>-1.3333333333333333</ele><time>2026-04-12T08:47:25Z</time></trkpt><trkpt lat="45.246260964755194" lon="12.125952563584644"><ele>-1.0</ele><time>2026-04-12T08:47:26Z</time></trkpt><trkpt lat="45.24621184179859" lon="12.126172275353223"><ele>-1.0</ele><time>2026-04-12T08:47:27Z</time></trkpt><trkpt lat="45.24616643682925" lon="12.126379824440054"><ele>-1.0</ele><time>2026-04-12T08:47:28Z</time></trkpt><trkpt lat="45.246121462954726" lon="12.12658643429306"><ele>-1.0</ele><time>2026-04-12T08:47:29Z</time></trkpt><trkpt lat="45.246074258088086" lon="12.126801236838526"><ele>-0.6666666666666666</ele><time>2026-04-12T08:47:30Z</time></trkpt><trkpt lat="45.24601337928398" lon="12.127068058962308"><ele>-0.3333333333333333</ele><time>2026-04-12T08:47:31Z</time></trkpt><trkpt lat="45.24594249079309" lon="12.12738592778789"><ele>0.0</ele><time>2026-04-12T08:47:32Z</time></trkpt><trkpt lat="45.24587338852068" lon="12.127690748956812"><ele>0.3333333333333333</ele><time>2026-04-12T08:47:33Z</time></trkpt><trkpt lat="45.245814121100736" lon="12.127952525358875"><ele>0.6666666666666666</ele><time>2026-04-12T08:47:34Z</time></trkpt><trkpt lat="45.2457816021977" lon="12.12818978853133"><ele>1.0</ele><time>2026-04-12T08:47:35Z</time></trkpt><trkpt lat="45.24572880328011" lon="12.128416726992398"><ele>1.0</ele><time>2026-04-12T08:47:36Z</time></trkpt><trkpt lat="45.24567701131771" lon="12.128659002586673"><ele>1.0</ele><time>2026-04-12T08:47:37Z</time></trkpt><trkpt lat="45.24562299677522" lon="12.128920448458292"><ele>1.0</ele><time>2026-04-12T08:47:38Z</time></trkpt><trkpt lat="45.24556738797848" lon="12.129221679407838"><ele>0.5</ele><time>2026-04-12T08:47:39Z</time></trkpt><trkpt lat="45.24549668727628" lon="12.12956416318625"><ele>0.0</ele><time>2026-04-12T08:47:40Z</time></trkpt><trkpt lat="45.245415836856424" lon="12.129896491571381"><ele>-0.6666666666666666</ele><time>2026-04-12T08:47:41Z</time></trkpt><trkpt lat="45.24533950645046" lon="12.13018341548505"><ele>-1.3333333333333333</ele><time>2026-04-12T08:47:42Z</time></trkpt><trkpt lat="45.24524946060739" lon="12.130436881468373"><ele>-2.0</ele><time>2026-04-12T08:47:43Z</time></trkpt><trkpt lat="45.245175495525814" lon="12.1306932098875"><ele>-1.3333333333333333</ele><time>2026-04-12T08:47:44Z</time></trkpt><trkpt lat="45.245087768524236" lon="12.13095641025185"><ele>-0.6666666666666666</ele><time>2026-04-12T08:47:45Z</time></trkpt><trkpt lat="45.24499378804398" lon="12.131209124866473"><ele>0.0</ele><time>2026-04-12T08:47:46Z</time></trkpt><trkpt lat="45.244900454427736" lon="12.1314506370829"><ele>0.6666666666666666</ele><time>2026-04-12T08:47:47Z</time></trkpt><trkpt lat="45.244804220359704" lon="12.131694410190983"><ele>1.3333333333333333</ele><time>2026-04-12T08:47:48Z</time></trkpt><trkpt lat="45.24470783492371" lon="12.131934287302208"><ele>2.0</ele><time>2026-04-12T08:47:49Z</time></trkpt><trkpt lat="45.24460645139915" lon="12.132179773692709"><ele>1.0</ele><time>2026-04-12T08:47:50Z</time></trkpt><trkpt lat="45.2444966529226" lon="12.132422966764944"><ele>0.0</ele><time>2026-04-12T08:47:51Z</time></trkpt><trkpt lat="45.2443657988915" lon="12.132676211560005"><ele>-1.0</ele><time>2026-04-12T08:47:52Z</time></trkpt><trkpt lat="45.24421962111223" lon="12.132929083606472"><ele>-1.0</ele><time>2026-04-12T08:47:53Z</time></trkpt><trkpt lat="45.24407395236105" lon="12.133169213257098"><ele>-1.0</ele><time>2026-04-12T08:47:54Z</time></trkpt><trkpt lat="45.243934505711046" lon="12.133395346262821"><ele>-1.0</ele><time>2026-04-12T08:47:55Z</time></trkpt><trkpt lat="45.24379952581809" lon="12.133608749071955"><ele>-0.6666666666666666</ele><time>2026-04-12T08:47:56Z</time></trkpt><trkpt lat="45.24366618652598" lon="12.133819677594534"><ele>-0.3333333333333333</ele><time>2026-04-12T08:47:57Z</time></trkpt><trkpt lat="45.24352710873391" lon="12.13403411218606"><ele>0.0</ele><time>2026-04-12T08:47:58Z</time></trkpt><trkpt lat="45.24338333464531" lon="12.134251201622074"><ele>0.0</ele><time>2026-04-12T08:47:59Z</time></trkpt><trkpt lat="45.243234604031215" lon="12.134470409660736"><ele>0.0</ele><time>2026-04-12T08:48:00Z</time></trkpt><trkpt lat="45.2430834009734" lon="12.13469326151136"><ele>0.0</ele><time>2026-04-12T08:48:01Z</time></trkpt><trkpt lat="45.242954541955534" lon="12.134929165713945"><ele>0.3333333333333333</ele><time>2026-04-12T08:48:02Z</time></trkpt><trkpt lat="45.242812742645526" lon="12.135136813744081"><ele>0.6666666666666666</ele><time>2026-04-12T08:48:02.999Z</time></trkpt><trkpt lat="45.24266966190591" lon="12.135368707424043"><ele>1.0</ele><time>2026-04-12T08:48:03.999Z</time></trkpt><trkpt lat="45.24251750639547" lon="12.135619141021161"><ele>1.0</ele><time>2026-04-12T08:48:04.999Z</time></trkpt><trkpt lat="45.242317937649005" lon="12.13583839268533"><ele>1.0</ele><time>2026-04-12T08:48:05.999Z</time></trkpt><trkpt lat="45.24213561987267" lon="12.136124416137417"><ele>1.0</ele><time>2026-04-12T08:48:06.999Z</time></trkpt><trkpt lat="45.24195212437513" lon="12.136412287252858"><ele>1.0</ele><time>2026-04-12T08:48:07.999Z</time></trkpt><trkpt lat="45.241760893026765" lon="12.136717176996113"><ele>1.0</ele><time>2026-04-12T08:48:08.999Z</time></trkpt><trkpt lat="45.241566813623336" lon="12.137029650579755"><ele>1.0</ele><time>2026-04-12T08:48:09.999Z</time></trkpt><trkpt lat="45.24136889804421" lon="12.137348300892132"><ele>0.5</ele><time>2026-04-12T08:48:10.999Z</time></trkpt><trkpt lat="45.24117390260564" lon="12.13766224798152"><ele>0.0</ele><time>2026-04-12T08:48:11.999Z</time></trkpt><trkpt lat="45.240997214525045" lon="12.137952220658613"><ele>0.0</ele><time>2026-04-12T08:48:12.999Z</time></trkpt><trkpt lat="45.24089194270231" lon="12.138303594180945"><ele>0.0</ele><time>2026-04-12T08:48:13.999Z</time></trkpt><trkpt lat="45.24076207285761" lon="12.138624751828402"><ele>0.0</ele><time>2026-04-12T08:48:14.999Z</time></trkpt><trkpt lat="45.240640780325364" lon="12.138955720134598"><ele>0.0</ele><time>2026-04-12T08:48:15.999Z</time></trkpt><trkpt lat="45.24052063082958" lon="12.139287755819035"><ele>0.0</ele><time>2026-04-12T08:48:16.999Z</time></trkpt><trkpt lat="45.2404056492274" lon="12.139623529867272"><ele>0.0</ele><time>2026-04-12T08:48:17.999Z</time></trkpt><trkpt lat="45.24029930772221" lon="12.139964094761115"><ele>1.0</ele><time>2026-04-12T08:48:18.999Z</time></trkpt><trkpt lat="45.240198815479246" lon="12.140310968759977"><ele>2.0</ele><time>2026-04-12T08:48:19.999Z</time></trkpt><trkpt lat="45.240103904046634" lon="12.140656057077843"><ele>1.0</ele><time>2026-04-12T08:48:20.999Z</time></trkpt><trkpt lat="45.24002282831883" lon="12.140979636567074"><ele>0.0</ele><time>2026-04-12T08:48:21.999Z</time></trkpt><trkpt lat="45.239953663287764" lon="12.141293339106298"><ele>0.0</ele><time>2026-04-12T08:48:22.999Z</time></trkpt><trkpt lat="45.23989206411768" lon="12.141607110989217"><ele>0.0</ele><time>2026-04-12T08:48:23.999Z</time></trkpt><trkpt lat="45.23982729153188" lon="12.141916843205372"><ele>0.3333333333333333</ele><time>2026-04-12T08:48:24.999Z</time></trkpt><trkpt lat="45.23976110641454" lon="12.142193424256115"><ele>0.6666666666666666</ele><time>2026-04-12T08:48:25.999Z</time></trkpt><trkpt lat="45.23967962130857" lon="12.142437086146918"><ele>1.0</ele><time>2026-04-12T08:48:26.999Z</time></trkpt><trkpt lat="45.239568669784035" lon="12.142668643276977"><ele>1.0</ele><time>2026-04-12T08:48:27.999Z</time></trkpt><trkpt lat="45.23943471111468" lon="12.142889953196438"><ele>1.0</ele><time>2026-04-12T08:48:28.999Z</time></trkpt><trkpt lat="45.23928950237386" lon="12.143097816845186"><ele>1.0</ele><time>2026-04-12T08:48:29.999Z</time></trkpt><trkpt lat="45.239141425403744" lon="12.143312563223772"><ele>0.6666666666666666</ele><time>2026-04-12T08:48:30.999Z</time></trkpt><trkpt lat="45.23899675811639" lon="12.143536926022467"><ele>0.3333333333333333</ele><time>2026-04-12T08:48:31.999Z</time></trkpt><trkpt lat="45.23885081751125" lon="12.14376640767757"><ele>0.0</ele><time>2026-04-12T08:48:32.999Z</time></trkpt><trkpt lat="45.23870399696226" lon="12.14399758100414"><ele>0.0</ele><time>2026-04-12T08:48:33.999Z</time></trkpt><trkpt lat="45.23855654025206" lon="12.144229813306666"><ele>0.0</ele><time>2026-04-12T08:48:34.999Z</time></trkpt><trkpt lat="45.23841085746468" lon="12.14445899753161"><ele>0.0</ele><time>2026-04-12T08:48:35.999Z</time></trkpt><trkpt lat="45.238263951775565" lon="12.144686123780698"><ele>0.3333333333333333</ele><time>2026-04-12T08:48:36.999Z</time></trkpt><trkpt lat="45.23812189814724" lon="12.144907689713488"><ele>0.6666666666666666</ele><time>2026-04-12T08:48:37.999Z</time></trkpt><trkpt lat="45.23798914572596" lon="12.14511720105099"><ele>1.0</ele><time>2026-04-12T08:48:38.999Z</time></trkpt><trkpt lat="45.2378619392495" lon="12.145320915643307"><ele>1.0</ele><time>2026-04-12T08:48:39.999Z</time></trkpt><trkpt lat="45.23774271755345" lon="12.14551225856734"><ele>1.0</ele><time>2026-04-12T08:48:40.999Z</time></trkpt><trkpt lat="45.23760368409166" lon="12.145751581445575"><ele>1.0</ele><time>2026-04-12T08:48:41.999Z</time></trkpt><trkpt lat="45.23744470990401" lon="12.146025172541009"><ele>1.5</ele><time>2026-04-12T08:48:43Z</time></trkpt><trkpt lat="45.23726157901519" lon="12.146304740545183"><ele>2.0</ele><time>2026-04-12T08:48:44Z</time></trkpt><trkpt lat="45.23706248970201" lon="12.146583033912025"><ele>1.0</ele><time>2026-04-12T08:48:45Z</time></trkpt><trkpt lat="45.23685622319566" lon="12.146877718774604"><ele>0.0</ele><time>2026-04-12T08:48:46Z</time></trkpt><trkpt lat="45.23664818027273" lon="12.147198739098874"><ele>-0.5</ele><time>2026-04-12T08:48:47Z</time></trkpt><trkpt lat="45.236447244363184" lon="12.14752334192768"><ele>-1.0</ele><time>2026-04-12T08:48:48Z</time></trkpt><trkpt lat="45.23626382529485" lon="12.14780653012948"><ele>-1.0</ele><time>2026-04-12T08:48:49Z</time></trkpt><trkpt lat="45.23609865422282" lon="12.148061919253385"><ele>-1.0</ele><time>2026-04-12T08:48:50Z</time></trkpt><trkpt lat="45.2359432935266" lon="12.148302361514698"><ele>-1.3333333333333333</ele><time>2026-04-12T08:48:51Z</time></trkpt><trkpt lat="45.23579985014583" lon="12.148526886788542"><ele>-1.6666666666666665</ele><time>2026-04-12T08:48:52Z</time></trkpt><trkpt lat="45.23566015931349" lon="12.148749675096205"><ele>-2.0</ele><time>2026-04-12T08:48:53Z</time></trkpt><trkpt lat="45.23552110191864" lon="12.14897278693712"><ele>-1.3333333333333333</ele><time>2026-04-12T08:48:54Z</time></trkpt><trkpt lat="45.23538206417928" lon="12.149198823870078"><ele>-0.6666666666666666</ele><time>2026-04-12T08:48:55Z</time></trkpt><trkpt lat="45.23524135259278" lon="12.14942189509168"><ele>0.0</ele><time>2026-04-12T08:48:56Z</time></trkpt><trkpt lat="45.23510217063031" lon="12.149642174784335"><ele>0.0</ele><time>2026-04-12T08:48:57Z</time></trkpt><trkpt lat="45.234962916888435" lon="12.14986731491458"><ele>0.0</ele><time>2026-04-12T08:48:58Z</time></trkpt><trkpt lat="45.23482863373828" lon="12.150091831343124"><ele>0.0</ele><time>2026-04-12T08:48:59Z</time></trkpt><trkpt lat="45.23468930422203" lon="12.150320450817475"><ele>0.0</ele><time>2026-04-12T08:49:00Z</time></trkpt><trkpt lat="45.23454900827259" lon="12.150549727678953"><ele>0.0</ele><time>2026-04-12T08:49:01Z</time></trkpt><trkpt lat="45.23441071052866" lon="12.15078102444549"><ele>0.0</ele><time>2026-04-12T08:49:02Z</time></trkpt><trkpt lat="45.234271612665154" lon="12.151014357878076"><ele>0.0</ele><time>2026-04-12T08:49:03Z</time></trkpt><trkpt lat="45.23412914208948" lon="12.151247636012709"><ele>0.0</ele><time>2026-04-12T08:49:04Z</time></trkpt><trkpt lat="45.233987353504865" lon="12.151483273810225"><ele>0.0</ele><time>2026-04-12T08:49:05Z</time></trkpt><trkpt lat="45.23384870893113" lon="12.151716780264433"><ele>0.3333333333333333</ele><time>2026-04-12T08:49:06Z</time></trkpt><trkpt lat="45.23370769976216" lon="12.151953085684244"><ele>0.6666666666666666</ele><time>2026-04-12T08:49:07Z</time></trkpt><trkpt lat="45.23356516909069" lon="12.152188600893243"><ele>1.0</ele><time>2026-04-12T08:49:08Z</time></trkpt><trkpt lat="45.23342322265231" lon="12.152425928041543"><ele>0.3333333333333333</ele><time>2026-04-12T08:49:09Z</time></trkpt><trkpt lat="45.23328454860194" lon="12.152663191329882"><ele>-0.3333333333333333</ele><time>2026-04-12T08:49:10Z</time></trkpt><trkpt lat="45.233148646951165" lon="12.15290178997556"><ele>-1.0</ele><time>2026-04-12T08:49:11Z</time></trkpt><trkpt lat="45.233012468125985" lon="12.153146041861103"><ele>-1.0</ele><time>2026-04-12T08:49:12Z</time></trkpt><trkpt lat="45.232879108489065" lon="12.153387803160046"><ele>-1.0</ele><time>2026-04-12T08:49:13Z</time></trkpt><trkpt lat="45.23274646172352" lon="12.153626964677558"><ele>-1.0</ele><time>2026-04-12T08:49:14Z</time></trkpt><trkpt lat="45.23261083617379" lon="12.153868924129611"><ele>-0.6666666666666666</ele><time>2026-04-12T08:49:15Z</time></trkpt><trkpt lat="45.23247912780513" lon="12.154111167659776"><ele>-0.3333333333333333</ele><time>2026-04-12T08:49:16Z</time></trkpt><trkpt lat="45.23234829948451" lon="12.154357867503029"><ele>0.0</ele><time>2026-04-12T08:49:17Z</time></trkpt><trkpt lat="45.232217988548676" lon="12.1546078926415"><ele>0.0</ele><time>2026-04-12T08:49:18Z</time></trkpt><trkpt lat="45.232067895939004" lon="12.154831709837783"><ele>0.0</ele><time>2026-04-12T08:49:19Z</time></trkpt><trkpt lat="45.23193864730433" lon="12.155083051119911"><ele>0.0</ele><time>2026-04-12T08:49:20Z</time></trkpt><trkpt lat="45.23181200816121" lon="12.15533441376223"><ele>0.0</ele><time>2026-04-12T08:49:21Z</time></trkpt><trkpt lat="45.231684888449536" lon="12.155587064218755"><ele>0.0</ele><time>2026-04-12T08:49:22Z</time></trkpt><trkpt lat="45.23155965277298" lon="12.15583724692817"><ele>0.0</ele><time>2026-04-12T08:49:23Z</time></trkpt><trkpt lat="45.23143349877417" lon="12.156089602184617"><ele>-0.3333333333333333</ele><time>2026-04-12T08:49:24Z</time></trkpt><trkpt lat="45.23130695240544" lon="12.156342742268748"><ele>-0.6666666666666666</ele><time>2026-04-12T08:49:25Z</time></trkpt><trkpt lat="45.23118099921906" lon="12.156594695964083"><ele>-1.0</ele><time>2026-04-12T08:49:26Z</time></trkpt><trkpt lat="45.23104865710084" lon="12.15685741472225"><ele>-1.0</ele><time>2026-04-12T08:49:27Z</time></trkpt><trkpt lat="45.2309083388269" lon="12.157134407039823"><ele>-1.0</ele><time>2026-04-12T08:49:28Z</time></trkpt><trkpt lat="45.230760763994994" lon="12.157425723969752"><ele>0.5</ele><time>2026-04-12T08:49:29Z</time></trkpt><trkpt lat="45.230612920527925" lon="12.157723197074848"><ele>2.0</ele><time>2026-04-12T08:49:30Z</time></trkpt><trkpt lat="45.230473853328924" lon="12.15800497067307"><ele>1.6666666666666665</ele><time>2026-04-12T08:49:31Z</time></trkpt><trkpt lat="45.23034573566676" lon="12.158253871409103"><ele>1.3333333333333333</ele><time>2026-04-12T08:49:32Z</time></trkpt><trkpt lat="45.23022295380914" lon="12.158477688925766"><ele>1.0</ele><time>2026-04-12T08:49:33Z</time></trkpt><trkpt lat="45.230093539992005" lon="12.158705957261404"><ele>1.0</ele><time>2026-04-12T08:49:34Z</time></trkpt><trkpt lat="45.22995917444447" lon="12.158934710974815"><ele>1.0</ele><time>2026-04-12T08:49:35Z</time></trkpt><trkpt lat="45.229817955079376" lon="12.15916093443815"><ele>1.0</ele><time>2026-04-12T08:49:36Z</time></trkpt><trkpt lat="45.229672670970515" lon="12.159380809327578"><ele>1.3333333333333333</ele><time>2026-04-12T08:49:37Z</time></trkpt><trkpt lat="45.22952360546174" lon="12.159595207336796"><ele>1.6666666666666665</ele><time>2026-04-12T08:49:38Z</time></trkpt><trkpt lat="45.22937275831405" lon="12.15980369346929"><ele>2.0</ele><time>2026-04-12T08:49:39Z</time></trkpt><trkpt lat="45.22921125056197" lon="12.160015107872445"><ele>1.3333333333333333</ele><time>2026-04-12T08:49:40Z</time></trkpt><trkpt lat="45.229046070685065" lon="12.160212353600258"><ele>0.6666666666666666</ele><time>2026-04-12T08:49:41Z</time></trkpt><trkpt lat="45.22887448059646" lon="12.160408937187764"><ele>0.0</ele><time>2026-04-12T08:49:42Z</time></trkpt><trkpt lat="45.22870858624168" lon="12.160598324931502"><ele>0.3333333333333333</ele><time>2026-04-12T08:49:43Z</time></trkpt><trkpt lat="45.2285369267395" lon="12.160793193690354"><ele>0.6666666666666666</ele><time>2026-04-12T08:49:44Z</time></trkpt><trkpt lat="45.22836842150696" lon="12.160985354858932"><ele>1.0</ele><time>2026-04-12T08:49:45Z</time></trkpt><trkpt lat="45.22819910809111" lon="12.161178895572686"><ele>1.3333333333333333</ele><time>2026-04-12T08:49:46Z</time></trkpt><trkpt lat="45.22802772331396" lon="12.161374244527304"><ele>1.6666666666666665</ele><time>2026-04-12T08:49:47Z</time></trkpt><trkpt lat="45.227857069430065" lon="12.161566440547455"><ele>2.0</ele><time>2026-04-12T08:49:48Z</time></trkpt><trkpt lat="45.22768490166668" lon="12.16175847682486"><ele>2.0</ele><time>2026-04-12T08:49:49Z</time></trkpt><trkpt lat="45.22751260800725" lon="12.161951367670333"><ele>2.0</ele><time>2026-04-12T08:49:50Z</time></trkpt><trkpt lat="45.22733877015522" lon="12.162141318838174"><ele>2.0</ele><time>2026-04-12T08:49:51Z</time></trkpt><trkpt lat="45.22716794377806" lon="12.162326838217627"><ele>2.6666666666666665</ele><time>2026-04-12T08:49:52Z</time></trkpt><trkpt lat="45.226993371228126" lon="12.162520114238893"><ele>3.333333333333333</ele><time>2026-04-12T08:49:53Z</time></trkpt><trkpt lat="45.2268227180688" lon="12.16270954262092"><ele>4.0</ele><time>2026-04-12T08:49:54Z</time></trkpt><trkpt lat="45.22665164381495" lon="12.162900480535933"><ele>4.0</ele><time>2026-04-12T08:49:55Z</time></trkpt><trkpt lat="45.226480408000846" lon="12.16309258239327"><ele>4.0</ele><time>2026-04-12T08:49:56Z</time></trkpt><trkpt lat="45.226312860051614" lon="12.16328241849015"><ele>4.0</ele><time>2026-04-12T08:49:57Z</time></trkpt><trkpt lat="45.22615246840731" lon="12.163492296520806"><ele>3.0</ele><time>2026-04-12T08:49:58Z</time></trkpt><trkpt lat="45.22598638009234" lon="12.163682801262373"><ele>2.0</ele><time>2026-04-12T08:49:59Z</time></trkpt><trkpt lat="45.22581165538628" lon="12.16386280715405"><ele>1.0</ele><time>2026-04-12T08:50:00Z</time></trkpt><trkpt lat="45.225651037751234" lon="12.164066967501482"><ele>1.0</ele><time>2026-04-12T08:50:01Z</time></trkpt><trkpt lat="45.22549105757414" lon="12.164276461949102"><ele>1.0</ele><time>2026-04-12T08:50:02Z</time></trkpt><trkpt lat="45.225334286010145" lon="12.16448668885059"><ele>1.0</ele><time>2026-04-12T08:50:03Z</time></trkpt><trkpt lat="45.2251793033589" lon="12.16469486589373"><ele>1.3333333333333333</ele><time>2026-04-12T08:50:04Z</time></trkpt><trkpt lat="45.225021555290546" lon="12.164910084251497"><ele>1.6666666666666665</ele><time>2026-04-12T08:50:05Z</time></trkpt><trkpt lat="45.22486641087616" lon="12.165121750439003"><ele>2.0</ele><time>2026-04-12T08:50:06Z</time></trkpt><trkpt lat="45.22471187885212" lon="12.165335370330732"><ele>1.0</ele><time>2026-04-12T08:50:07Z</time></trkpt><trkpt lat="45.22455759761948" lon="12.165551025047733"><ele>0.0</ele><time>2026-04-12T08:50:08Z</time></trkpt><trkpt lat="45.224401715313846" lon="12.165767025364797"><ele>-1.0</ele><time>2026-04-12T08:50:09Z</time></trkpt><trkpt lat="45.22424453313867" lon="12.165983537660773"><ele>-1.0</ele><time>2026-04-12T08:50:10Z</time></trkpt><trkpt lat="45.2240875178647" lon="12.166201566257968"><ele>-1.0</ele><time>2026-04-12T08:50:11Z</time></trkpt><trkpt lat="45.2239323343504" lon="12.166420104179663"><ele>-1.0</ele><time>2026-04-12T08:50:12Z</time></trkpt><trkpt lat="45.22377629346886" lon="12.16663819292244"><ele>-1.3333333333333333</ele><time>2026-04-12T08:50:13Z</time></trkpt><trkpt lat="45.22362185559854" lon="12.166853916215262"><ele>-1.6666666666666665</ele><time>2026-04-12T08:50:14Z</time></trkpt><trkpt lat="45.22346548719303" lon="12.16707240510701"><ele>-2.0</ele><time>2026-04-12T08:50:14.999Z</time></trkpt><trkpt lat="45.22330986678007" lon="12.16729005745466"><ele>-2.0</ele><time>2026-04-12T08:50:15.999Z</time></trkpt><trkpt lat="45.22315477531762" lon="12.167507616622336"><ele>-2.0</ele><time>2026-04-12T08:50:16.999Z</time></trkpt><trkpt lat="45.223001264254876" lon="12.167722475019012"><ele>-2.0</ele><time>2026-04-12T08:50:17.999Z</time></trkpt><trkpt lat="45.22284525112663" lon="12.167940030548614"><ele>-2.0</ele><time>2026-04-12T08:50:18.999Z</time></trkpt><trkpt lat="45.222691530923846" lon="12.16815261330815"><ele>-2.0</ele><time>2026-04-12T08:50:19.999Z</time></trkpt><trkpt lat="45.222537515533716" lon="12.168367035543298"><ele>-2.0</ele><time>2026-04-12T08:50:20.999Z</time></trkpt><trkpt lat="45.222384938757386" lon="12.168581922677191"><ele>-1.3333333333333333</ele><time>2026-04-12T08:50:21.999Z</time></trkpt><trkpt lat="45.222232425414035" lon="12.168797605042203"><ele>-0.6666666666666666</ele><time>2026-04-12T08:50:22.999Z</time></trkpt><trkpt lat="45.222092348437144" lon="12.168992242065132"><ele>0.0</ele><time>2026-04-12T08:50:23.999Z</time></trkpt><trkpt lat="45.22196421365561" lon="12.169170285384167"><ele>0.0</ele><time>2026-04-12T08:50:24.999Z</time></trkpt><trkpt lat="45.221843968844404" lon="12.169347585734032"><ele>0.0</ele><time>2026-04-12T08:50:25.999Z</time></trkpt><trkpt lat="45.22174568324061" lon="12.169526733074427"><ele>0.0</ele><time>2026-04-12T08:50:26.999Z</time></trkpt><trkpt lat="45.22165794160786" lon="12.16968763514823"><ele>0.0</ele><time>2026-04-12T08:50:27.999Z</time></trkpt><trkpt lat="45.2215687289521" lon="12.169849859181527"><ele>0.0</ele><time>2026-04-12T08:50:28.999Z</time></trkpt><trkpt lat="45.221479000047886" lon="12.170010916085735"><ele>0.0</ele><time>2026-04-12T08:50:29.999Z</time></trkpt><trkpt lat="45.22139250194366" lon="12.170187434207872"><ele>0.0</ele><time>2026-04-12T08:50:30.999Z</time></trkpt><trkpt lat="45.221289292593625" lon="12.170343206193385"><ele>-0.5</ele><time>2026-04-12T08:50:31.999Z</time></trkpt><trkpt lat="45.22120511010117" lon="12.170499439419647"><ele>-1.0</ele><time>2026-04-12T08:50:32.999Z</time></trkpt><trkpt lat="45.22112307417324" lon="12.17064736141544"><ele>-1.5</ele><time>2026-04-12T08:50:33.999Z</time></trkpt><trkpt lat="45.22101586232792" lon="12.170795168400598"><ele>-2.0</ele><time>2026-04-12T08:50:34.999Z</time></trkpt><trkpt lat="45.22088129570402" lon="12.170945982746835"><ele>-2.0</ele><time>2026-04-12T08:50:35.999Z</time></trkpt><trkpt lat="45.22074305965509" lon="12.171118134615588"><ele>-2.0</ele><time>2026-04-12T08:50:36.999Z</time></trkpt><trkpt lat="45.22061251286063" lon="12.17129364934224"><ele>-2.0</ele><time>2026-04-12T08:50:37.999Z</time></trkpt><trkpt lat="45.22049957190432" lon="12.17143622874277"><ele>-1.6666666666666665</ele><time>2026-04-12T08:50:38.999Z</time></trkpt><trkpt lat="45.22037458872972" lon="12.17157926197909"><ele>-1.3333333333333333</ele><time>2026-04-12T08:50:39.999Z</time></trkpt><trkpt lat="45.220253340363534" lon="12.171704589874485"><ele>-1.0</ele><time>2026-04-12T08:50:40.999Z</time></trkpt><trkpt lat="45.220125593905045" lon="12.17184166631856"><ele>-1.0</ele><time>2026-04-12T08:50:41.999Z</time></trkpt><trkpt lat="45.21999778976679" lon="12.172006058941347"><ele>-1.0</ele><time>2026-04-12T08:50:42.999Z</time></trkpt><trkpt lat="45.219861364479215" lon="12.172209530232273"><ele>-1.0</ele><time>2026-04-12T08:50:43.999Z</time></trkpt><trkpt lat="45.219703009686214" lon="12.17243342286641"><ele>-1.0</ele><time>2026-04-12T08:50:44.999Z</time></trkpt><trkpt lat="45.21954280968545" lon="12.172650026010187"><ele>-1.0</ele><time>2026-04-12T08:50:45.999Z</time></trkpt><trkpt lat="45.21936055264461" lon="12.172883069552865"><ele>-1.0</ele><time>2026-04-12T08:50:46.999Z</time></trkpt><trkpt lat="45.219181435828474" lon="12.173122153509373"><ele>-1.0</ele><time>2026-04-12T08:50:47.999Z</time></trkpt><trkpt lat="45.21900547022513" lon="12.173363741788487"><ele>0.0</ele><time>2026-04-12T08:50:49Z</time></trkpt><trkpt lat="45.21883925780498" lon="12.173603821886854"><ele>1.0</ele><time>2026-04-12T08:50:50Z</time></trkpt><trkpt lat="45.21867660634908" lon="12.173829443230723"><ele>0.3333333333333333</ele><time>2026-04-12T08:50:51Z</time></trkpt><trkpt lat="45.21852502561583" lon="12.174040828625985"><ele>-0.3333333333333333</ele><time>2026-04-12T08:50:52Z</time></trkpt><trkpt lat="45.21837537784125" lon="12.174251490088398"><ele>-1.0</ele><time>2026-04-12T08:50:53Z</time></trkpt><trkpt lat="45.218227296152186" lon="12.174463820277698"><ele>-1.0</ele><time>2026-04-12T08:50:54Z</time></trkpt><trkpt lat="45.21808159520503" lon="12.174672857825243"><ele>-1.0</ele><time>2026-04-12T08:50:55Z</time></trkpt><trkpt lat="45.21793479477506" lon="12.174882861225427"><ele>-1.0</ele><time>2026-04-12T08:50:56Z</time></trkpt><trkpt lat="45.217784297791695" lon="12.17509406519161"><ele>-1.3333333333333333</ele><time>2026-04-12T08:50:57Z</time></trkpt><trkpt lat="45.21763890805217" lon="12.175302615087396"><ele>-1.6666666666666665</ele><time>2026-04-12T08:50:58Z</time></trkpt><trkpt lat="45.217487541285465" lon="12.17551503293569"><ele>-2.0</ele><time>2026-04-12T08:50:59Z</time></trkpt><trkpt lat="45.21733380462526" lon="12.175728056060304"><ele>-2.0</ele><time>2026-04-12T08:51:00Z</time></trkpt><trkpt lat="45.21718092866363" lon="12.175942937762695"><ele>-2.0</ele><time>2026-04-12T08:51:01Z</time></trkpt><trkpt lat="45.2170269598377" lon="12.176158632072264"><ele>-2.0</ele><time>2026-04-12T08:51:02Z</time></trkpt><trkpt lat="45.216871595457434" lon="12.176378477435613"><ele>-2.0</ele><time>2026-04-12T08:51:03Z</time></trkpt><trkpt lat="45.21671680672118" lon="12.17659832280374"><ele>-2.0</ele><time>2026-04-12T08:51:04Z</time></trkpt><trkpt lat="45.21656274729278" lon="12.176818551469465"><ele>-2.0</ele><time>2026-04-12T08:51:05Z</time></trkpt><trkpt lat="45.21641122380602" lon="12.177035615681959"><ele>-2.0</ele><time>2026-04-12T08:51:06Z</time></trkpt><trkpt lat="45.21625539166555" lon="12.17725619402222"><ele>-2.0</ele><time>2026-04-12T08:51:07Z</time></trkpt><trkpt lat="45.21610286368173" lon="12.177473856052035"><ele>-2.0</ele><time>2026-04-12T08:51:08Z</time></trkpt><trkpt lat="45.21594467592477" lon="12.17769819484501"><ele>-2.0</ele><time>2026-04-12T08:51:09Z</time></trkpt><trkpt lat="45.21579190754854" lon="12.177921332467099"><ele>-2.0</ele><time>2026-04-12T08:51:10Z</time></trkpt><trkpt lat="45.215641841098964" lon="12.178139382379618"><ele>-2.0</ele><time>2026-04-12T08:51:11Z</time></trkpt><trkpt lat="45.21548779625072" lon="12.178355417293005"><ele>-1.3333333333333333</ele><time>2026-04-12T08:51:12Z</time></trkpt><trkpt lat="45.215336935944734" lon="12.178568638910464"><ele>-0.6666666666666666</ele><time>2026-04-12T08:51:13Z</time></trkpt><trkpt lat="45.21518106617593" lon="12.178784295024972"><ele>0.0</ele><time>2026-04-12T08:51:14Z</time></trkpt><trkpt lat="45.21502839746851" lon="12.17899973288541"><ele>0.0</ele><time>2026-04-12T08:51:15Z</time></trkpt><trkpt lat="45.214877101213354" lon="12.179216556512886"><ele>0.0</ele><time>2026-04-12T08:51:16Z</time></trkpt><trkpt lat="45.21472458926408" lon="12.179434714647458"><ele>0.0</ele><time>2026-04-12T08:51:17Z</time></trkpt><trkpt lat="45.21457258295508" lon="12.179652801225373"><ele>0.0</ele><time>2026-04-12T08:51:18Z</time></trkpt><trkpt lat="45.21442007155713" lon="12.179869890327398"><ele>0.0</ele><time>2026-04-12T08:51:19Z</time></trkpt><trkpt lat="45.21426337200227" lon="12.180085619800355"><ele>0.0</ele><time>2026-04-12T08:51:20Z</time></trkpt><trkpt lat="45.21410919897412" lon="12.180301182679953"><ele>-1.0</ele><time>2026-04-12T08:51:21Z</time></trkpt><trkpt lat="45.21395639359629" lon="12.180518971604696"><ele>-2.0</ele><time>2026-04-12T08:51:22Z</time></trkpt><trkpt lat="45.2138032893446" lon="12.180736030090019"><ele>-3.0</ele><time>2026-04-12T08:51:23Z</time></trkpt><trkpt lat="45.21364754100747" lon="12.18095286162776"><ele>-3.0</ele><time>2026-04-12T08:51:24Z</time></trkpt><trkpt lat="45.213494474744046" lon="12.18117005846142"><ele>-3.0</ele><time>2026-04-12T08:51:25Z</time></trkpt><trkpt lat="45.213339618198574" lon="12.18138896716826"><ele>-3.0</ele><time>2026-04-12T08:51:26Z</time></trkpt><trkpt lat="45.21318752015171" lon="12.181609161868918"><ele>-2.3333333333333335</ele><time>2026-04-12T08:51:27Z</time></trkpt><trkpt lat="45.21303538511618" lon="12.18182797880601"><ele>-1.6666666666666665</ele><time>2026-04-12T08:51:28Z</time></trkpt><trkpt lat="45.2128831200874" lon="12.182047768530616"><ele>-1.0</ele><time>2026-04-12T08:51:29Z</time></trkpt><trkpt lat="45.212726763480156" lon="12.182265307075482"><ele>-1.3333333333333333</ele><time>2026-04-12T08:51:30Z</time></trkpt><trkpt lat="45.212572745266044" lon="12.182482525521548"><ele>-1.6666666666666665</ele><time>2026-04-12T08:51:31Z</time></trkpt><trkpt lat="45.2124230945151" lon="12.18270202506756"><ele>-2.0</ele><time>2026-04-12T08:51:32Z</time></trkpt><trkpt lat="45.21227515615349" lon="12.182925609615598"><ele>-1.6666666666666665</ele><time>2026-04-12T08:51:33Z</time></trkpt><trkpt lat="45.212122341821406" lon="12.183146222659895"><ele>-1.3333333333333333</ele><time>2026-04-12T08:51:34Z</time></trkpt><trkpt lat="45.211970735506235" lon="12.183353772709202"><ele>-1.0</ele><time>2026-04-12T08:51:35Z</time></trkpt><trkpt lat="45.21183130241975" lon="12.183542458484736"><ele>-1.0</ele><time>2026-04-12T08:51:36Z</time></trkpt><trkpt lat="45.21167996699413" lon="12.183707641973461"><ele>-1.0</ele><time>2026-04-12T08:51:37Z</time></trkpt><trkpt lat="45.211521610340334" lon="12.18393099790006"><ele>-1.0</ele><time>2026-04-12T08:51:38Z</time></trkpt><trkpt lat="45.211354618227965" lon="12.184165009193519"><ele>-0.5</ele><time>2026-04-12T08:51:39Z</time></trkpt><trkpt lat="45.211175341145434" lon="12.184417592656686"><ele>0.0</ele><time>2026-04-12T08:51:40Z</time></trkpt><trkpt lat="45.21097909341475" lon="12.184694745966395"><ele>-1.0</ele><time>2026-04-12T08:51:41Z</time></trkpt><trkpt lat="45.210773590135354" lon="12.184984970502194"><ele>-2.0</ele><time>2026-04-12T08:51:42Z</time></trkpt><trkpt lat="45.2105849854667" lon="12.18525132989261"><ele>-2.0</ele><time>2026-04-12T08:51:43Z</time></trkpt><trkpt lat="45.210420571929355" lon="12.185484292735865"><ele>-2.0</ele><time>2026-04-12T08:51:44Z</time></trkpt><trkpt lat="45.210272030320525" lon="12.185694850648938"><ele>-2.0</ele><time>2026-04-12T08:51:45Z</time></trkpt><trkpt lat="45.21013438034006" lon="12.18588996967102"><ele>-2.0</ele><time>2026-04-12T08:51:46Z</time></trkpt><trkpt lat="45.21000608136997" lon="12.186071833610585"><ele>-2.0</ele><time>2026-04-12T08:51:47Z</time></trkpt><trkpt lat="45.2098755207834" lon="12.186257549852991"><ele>-2.0</ele><time>2026-04-12T08:51:48Z</time></trkpt><trkpt lat="45.20973533810603" lon="12.186458393094584"><ele>-1.5</ele><time>2026-04-12T08:51:49Z</time></trkpt><trkpt lat="45.20957773566665" lon="12.18668315453164"><ele>-1.0</ele><time>2026-04-12T08:51:50Z</time></trkpt><trkpt lat="45.20940169434462" lon="12.186931258239055"><ele>-1.0</ele><time>2026-04-12T08:51:51Z</time></trkpt><trkpt lat="45.209218275564204" lon="12.187189759375176"><ele>-1.0</ele><time>2026-04-12T08:51:52Z</time></trkpt><trkpt lat="45.209039003125405" lon="12.187442416826178"><ele>-1.0</ele><time>2026-04-12T08:51:53Z</time></trkpt><trkpt lat="45.20886341747371" lon="12.187689878307165"><ele>-1.0</ele><time>2026-04-12T08:51:54Z</time></trkpt><trkpt lat="45.208691971684814" lon="12.18793150525528"><ele>-1.3333333333333333</ele><time>2026-04-12T08:51:55Z</time></trkpt><trkpt lat="45.20854004124186" lon="12.188177165951855"><ele>-1.6666666666666665</ele><time>2026-04-12T08:51:56Z</time></trkpt><trkpt lat="45.20839094595637" lon="12.188384831446916"><ele>-2.0</ele><time>2026-04-12T08:51:57Z</time></trkpt><trkpt lat="45.208235441128636" lon="12.188577357931553"><ele>-2.0</ele><time>2026-04-12T08:51:58Z</time></trkpt><trkpt lat="45.208083695379294" lon="12.188792036524713"><ele>-2.0</ele><time>2026-04-12T08:51:59Z</time></trkpt><trkpt lat="45.207936931019994" lon="12.188999667913954"><ele>-2.0</ele><time>2026-04-12T08:52:00Z</time></trkpt><trkpt lat="45.207797888690216" lon="12.189228727961018"><ele>-1.6666666666666665</ele><time>2026-04-12T08:52:01Z</time></trkpt><trkpt lat="45.20763773337401" lon="12.18942036178149"><ele>-1.3333333333333333</ele><time>2026-04-12T08:52:02Z</time></trkpt><trkpt lat="45.207488427315766" lon="12.189629389721592"><ele>-1.0</ele><time>2026-04-12T08:52:03Z</time></trkpt><trkpt lat="45.2073391735711" lon="12.18984190823994"><ele>-0.6666666666666666</ele><time>2026-04-12T08:52:03.999Z</time></trkpt><trkpt lat="45.20718842029539" lon="12.190057053523235"><ele>-0.3333333333333333</ele><time>2026-04-12T08:52:04.999Z</time></trkpt><trkpt lat="45.20703922191335" lon="12.19026997822431"><ele>0.0</ele><time>2026-04-12T08:52:05.999Z</time></trkpt><trkpt lat="45.206887645215296" lon="12.190484921023817"><ele>-0.6666666666666666</ele><time>2026-04-12T08:52:06.999Z</time></trkpt><trkpt lat="45.20673365244739" lon="12.190701119041544"><ele>-1.3333333333333333</ele><time>2026-04-12T08:52:07.999Z</time></trkpt><trkpt lat="45.20657977176079" lon="12.190917159706753"><ele>-2.0</ele><time>2026-04-12T08:52:08.999Z</time></trkpt><trkpt lat="45.20642473776427" lon="12.191134819579947"><ele>-2.0</ele><time>2026-04-12T08:52:09.999Z</time></trkpt><trkpt lat="45.206270716250884" lon="12.191349289940174"><ele>-2.0</ele><time>2026-04-12T08:52:10.999Z</time></trkpt><trkpt lat="45.20611694041516" lon="12.191563550815728"><ele>-2.0</ele><time>2026-04-12T08:52:11.999Z</time></trkpt><trkpt lat="45.2059602721765" lon="12.191784879465688"><ele>-2.0</ele><time>2026-04-12T08:52:12.999Z</time></trkpt><trkpt lat="45.20580518796274" lon="12.192003970384077"><ele>-2.0</ele><time>2026-04-12T08:52:13.999Z</time></trkpt><trkpt lat="45.20565187370954" lon="12.192220560666941"><ele>-2.0</ele><time>2026-04-12T08:52:14.999Z</time></trkpt><trkpt lat="45.205497834928046" lon="12.192438174680827"><ele>-2.0</ele><time>2026-04-12T08:52:15.999Z</time></trkpt><trkpt lat="45.205344368013186" lon="12.192654980650742"><ele>-2.0</ele><time>2026-04-12T08:52:16.999Z</time></trkpt><trkpt lat="45.20519072612376" lon="12.192875862447394"><ele>-2.0</ele><time>2026-04-12T08:52:17.999Z</time></trkpt><trkpt lat="45.20503764688123" lon="12.193097227409847"><ele>-2.6666666666666665</ele><time>2026-04-12T08:52:18.999Z</time></trkpt><trkpt lat="45.20488477207805" lon="12.193318296736452"><ele>-3.333333333333333</ele><time>2026-04-12T08:52:19.999Z</time></trkpt><trkpt lat="45.20474063751864" lon="12.193552130253197"><ele>-4.0</ele><time>2026-04-12T08:52:20.999Z</time></trkpt><trkpt lat="45.20458843314116" lon="12.193765686759114"><ele>-4.0</ele><time>2026-04-12T08:52:21.999Z</time></trkpt><trkpt lat="45.204433507650556" lon="12.193982395056723"><ele>-4.0</ele><time>2026-04-12T08:52:22.999Z</time></trkpt><trkpt lat="45.204276556470916" lon="12.194202031792786"><ele>-4.0</ele><time>2026-04-12T08:52:23.999Z</time></trkpt><trkpt lat="45.20412424860163" lon="12.19441645019106"><ele>-3.6666666666666665</ele><time>2026-04-12T08:52:24.999Z</time></trkpt><trkpt lat="45.20397108951149" lon="12.19463112337008"><ele>-3.333333333333333</ele><time>2026-04-12T08:52:25.999Z</time></trkpt><trkpt lat="45.20381706430112" lon="12.194847020025065"><ele>-3.0</ele><time>2026-04-12T08:52:26.999Z</time></trkpt><trkpt lat="45.20366228800003" lon="12.195066076255804"><ele>-3.0</ele><time>2026-04-12T08:52:27.999Z</time></trkpt><trkpt lat="45.20350986547039" lon="12.195283831542651"><ele>-3.0</ele><time>2026-04-12T08:52:28.999Z</time></trkpt><trkpt lat="45.20335827161951" lon="12.195501174568808"><ele>-3.0</ele><time>2026-04-12T08:52:29.999Z</time></trkpt><trkpt lat="45.20320399837854" lon="12.195718082662324"><ele>-2.3333333333333335</ele><time>2026-04-12T08:52:30.999Z</time></trkpt><trkpt lat="45.203048766345205" lon="12.195933143219815"><ele>-1.6666666666666665</ele><time>2026-04-12T08:52:31.999Z</time></trkpt><trkpt lat="45.20289213814517" lon="12.196148541979133"><ele>-1.0</ele><time>2026-04-12T08:52:32.999Z</time></trkpt><trkpt lat="45.20274068772591" lon="12.19636484809094"><ele>-1.6666666666666665</ele><time>2026-04-12T08:52:33.999Z</time></trkpt><trkpt lat="45.202585272837126" lon="12.196583852257616"><ele>-2.3333333333333335</ele><time>2026-04-12T08:52:34.999Z</time></trkpt><trkpt lat="45.20243226495958" lon="12.196801574613147"><ele>-3.0</ele><time>2026-04-12T08:52:35.999Z</time></trkpt><trkpt lat="45.20227629258386" lon="12.197016738715217"><ele>-3.666666666666667</ele><time>2026-04-12T08:52:36.999Z</time></trkpt><trkpt lat="45.202119614305325" lon="12.19723067761709"><ele>-4.333333333333334</ele><time>2026-04-12T08:52:37.999Z</time></trkpt><trkpt lat="45.201966012056495" lon="12.197447514927982"><ele>-5.0</ele><time>2026-04-12T08:52:38.999Z</time></trkpt><trkpt lat="45.20181492055327" lon="12.197665624660067"><ele>-3.666666666666667</ele><time>2026-04-12T08:52:39.999Z</time></trkpt><trkpt lat="45.20166221008504" lon="12.197883863606886"><ele>-2.3333333333333335</ele><time>2026-04-12T08:52:40.999Z</time></trkpt><trkpt lat="45.201509680063864" lon="12.19810248235666"><ele>-1.0</ele><time>2026-04-12T08:52:41.999Z</time></trkpt><trkpt lat="45.2013552496468" lon="12.198321338827075"><ele>-1.0</ele><time>2026-04-12T08:52:42.999Z</time></trkpt><trkpt lat="45.20120397712892" lon="12.198539088819599"><ele>-1.0</ele><time>2026-04-12T08:52:43.999Z</time></trkpt><trkpt lat="45.20105389340854" lon="12.198757107596988"><ele>-1.0</ele><time>2026-04-12T08:52:44.999Z</time></trkpt><trkpt lat="45.20090403313542" lon="12.198974011893004"><ele>-1.0</ele><time>2026-04-12T08:52:45.999Z</time></trkpt><trkpt lat="45.200750372640584" lon="12.199189808523428"><ele>-1.0</ele><time>2026-04-12T08:52:46.999Z</time></trkpt><trkpt lat="45.20059935036778" lon="12.199404607732308"><ele>-1.0</ele><time>2026-04-12T08:52:47.999Z</time></trkpt><trkpt lat="45.200446250787145" lon="12.199621168640117"><ele>-1.0</ele><time>2026-04-12T08:52:48.999Z</time></trkpt><trkpt lat="45.200292216463" lon="12.199839458009622"><ele>-1.0</ele><time>2026-04-12T08:52:49.999Z</time></trkpt><trkpt lat="45.20013802001429" lon="12.200056608843056"><ele>-1.0</ele><time>2026-04-12T08:52:50.999Z</time></trkpt><trkpt lat="45.19998592239071" lon="12.200277296016417"><ele>-2.0</ele><time>2026-04-12T08:52:51.999Z</time></trkpt><trkpt lat="45.19982957637875" lon="12.200498053720436"><ele>-3.0</ele><time>2026-04-12T08:52:52.999Z</time></trkpt><trkpt lat="45.19967306695962" lon="12.200717772938642"><ele>-4.0</ele><time>2026-04-12T08:52:53.999Z</time></trkpt><trkpt lat="45.199518857985574" lon="12.2009366738213"><ele>-4.0</ele><time>2026-04-12T08:52:55Z</time></trkpt><trkpt lat="45.199367466830495" lon="12.201157676233546"><ele>-4.0</ele><time>2026-04-12T08:52:56Z</time></trkpt><trkpt lat="45.19921995705597" lon="12.20138137848318"><ele>-4.0</ele><time>2026-04-12T08:52:57Z</time></trkpt><trkpt lat="45.19907074688157" lon="12.201603742018966"><ele>-3.6666666666666665</ele><time>2026-04-12T08:52:58Z</time></trkpt><trkpt lat="45.198918919367486" lon="12.201823731347636"><ele>-3.333333333333333</ele><time>2026-04-12T08:52:59Z</time></trkpt><trkpt lat="45.19876518386649" lon="12.202045979344293"><ele>-3.0</ele><time>2026-04-12T08:53:00Z</time></trkpt><trkpt lat="45.19861295367335" lon="12.202267151763223"><ele>-2.6666666666666665</ele><time>2026-04-12T08:53:01Z</time></trkpt><trkpt lat="45.19846574913567" lon="12.202485912158467"><ele>-2.333333333333333</ele><time>2026-04-12T08:53:02Z</time></trkpt><trkpt lat="45.19831068323488" lon="12.202706917614112"><ele>-2.0</ele><time>2026-04-12T08:53:03Z</time></trkpt><trkpt lat="45.19815429875972" lon="12.202930788849313"><ele>-2.0</ele><time>2026-04-12T08:53:04Z</time></trkpt><trkpt lat="45.19799383984877" lon="12.203163148681693"><ele>-2.0</ele><time>2026-04-12T08:53:05Z</time></trkpt><trkpt lat="45.19782710351068" lon="12.20340216700518"><ele>-1.5</ele><time>2026-04-12T08:53:06Z</time></trkpt><trkpt lat="45.19765107496546" lon="12.203645693755433"><ele>-1.0</ele><time>2026-04-12T08:53:07Z</time></trkpt><trkpt lat="45.19748152352311" lon="12.203885958371226"><ele>-1.0</ele><time>2026-04-12T08:53:08Z</time></trkpt><trkpt lat="45.19731475904808" lon="12.204121432534382"><ele>-1.0</ele><time>2026-04-12T08:53:09Z</time></trkpt><trkpt lat="45.197148234790276" lon="12.204357874299196"><ele>-1.0</ele><time>2026-04-12T08:53:10Z</time></trkpt><trkpt lat="45.19698234716858" lon="12.204601506852576"><ele>-1.0</ele><time>2026-04-12T08:53:11Z</time></trkpt><trkpt lat="45.196821203692636" lon="12.20485202726116"><ele>-1.0</ele><time>2026-04-12T08:53:12Z</time></trkpt><trkpt lat="45.196667740723754" lon="12.205113818787737"><ele>-1.0</ele><time>2026-04-12T08:53:13Z</time></trkpt><trkpt lat="45.19653119729698" lon="12.205381779710423"><ele>0.0</ele><time>2026-04-12T08:53:14Z</time></trkpt><trkpt lat="45.196399554857244" lon="12.205659384257107"><ele>1.0</ele><time>2026-04-12T08:53:15Z</time></trkpt><trkpt lat="45.19627414596577" lon="12.205948574966186"><ele>1.0</ele><time>2026-04-12T08:53:16Z</time></trkpt><trkpt lat="45.196170426667024" lon="12.206242176313973"><ele>1.0</ele><time>2026-04-12T08:53:17Z</time></trkpt><trkpt lat="45.196071225526744" lon="12.206545929387545"><ele>1.0</ele><time>2026-04-12T08:53:18Z</time></trkpt><trkpt lat="45.19597218493539" lon="12.206864284769976"><ele>1.0</ele><time>2026-04-12T08:53:19Z</time></trkpt><trkpt lat="45.1958753194723" lon="12.207184284253483"><ele>-0.5</ele><time>2026-04-12T08:53:20Z</time></trkpt><trkpt lat="45.19578361668248" lon="12.207497502231782"><ele>-2.0</ele><time>2026-04-12T08:53:21Z</time></trkpt><trkpt lat="45.195691253455905" lon="12.207812767805912"><ele>-2.0</ele><time>2026-04-12T08:53:22Z</time></trkpt><trkpt lat="45.19559865772927" lon="12.208131382703048"><ele>-2.0</ele><time>2026-04-12T08:53:23Z</time></trkpt><trkpt lat="45.195510216084536" lon="12.208445797450082"><ele>-1.0</ele><time>2026-04-12T08:53:24Z</time></trkpt><trkpt lat="45.195418251242245" lon="12.208762387810502"><ele>0.0</ele><time>2026-04-12T08:53:25Z</time></trkpt><trkpt lat="45.195325268945155" lon="12.209080184020971"><ele>0.0</ele><time>2026-04-12T08:53:26Z</time></trkpt><trkpt lat="45.19523549359188" lon="12.209395550299234"><ele>0.0</ele><time>2026-04-12T08:53:27Z</time></trkpt><trkpt lat="45.195146098980004" lon="12.209708309254907"><ele>-0.5</ele><time>2026-04-12T08:53:28Z</time></trkpt><trkpt lat="45.195054577927785" lon="12.21002306505313"><ele>-1.0</ele><time>2026-04-12T08:53:29Z</time></trkpt><trkpt lat="45.19496323736986" lon="12.21033955611552"><ele>-1.0</ele><time>2026-04-12T08:53:30Z</time></trkpt><trkpt lat="45.19487265183523" lon="12.210655468090113"><ele>-1.0</ele><time>2026-04-12T08:53:31Z</time></trkpt><trkpt lat="45.19478023083998" lon="12.210971432083438"><ele>-0.5</ele><time>2026-04-12T08:53:32Z</time></trkpt><trkpt lat="45.194688320407295" lon="12.211287110040637"><ele>0.0</ele><time>2026-04-12T08:53:33Z</time></trkpt><trkpt lat="45.19459500676388" lon="12.21160300470187"><ele>0.0</ele><time>2026-04-12T08:53:34Z</time></trkpt><trkpt lat="45.19450403575665" lon="12.211918511832593"><ele>0.0</ele><time>2026-04-12T08:53:35Z</time></trkpt><trkpt lat="45.19441626165101" lon="12.212225393913824"><ele>0.0</ele><time>2026-04-12T08:53:36Z</time></trkpt><trkpt lat="45.1943240498838" lon="12.212540047655793"><ele>0.0</ele><time>2026-04-12T08:53:37Z</time></trkpt><trkpt lat="45.19423235245406" lon="12.2128570028746"><ele>0.0</ele><time>2026-04-12T08:53:38Z</time></trkpt><trkpt lat="45.194140481321995" lon="12.213172535011585"><ele>0.0</ele><time>2026-04-12T08:53:39Z</time></trkpt><trkpt lat="45.194052097652424" lon="12.213483253031818"><ele>0.0</ele><time>2026-04-12T08:53:40Z</time></trkpt><trkpt lat="45.19395902805349" lon="12.213797850344799"><ele>0.0</ele><time>2026-04-12T08:53:41Z</time></trkpt><trkpt lat="45.19386511278264" lon="12.214114233941658"><ele>0.5</ele><time>2026-04-12T08:53:42Z</time></trkpt><trkpt lat="45.193773888519246" lon="12.214430984817136"><ele>1.0</ele><time>2026-04-12T08:53:43Z</time></trkpt><trkpt lat="45.19368110460266" lon="12.21475116276012"><ele>0.5</ele><time>2026-04-12T08:53:44Z</time></trkpt><trkpt lat="45.19359332463324" lon="12.215064988622366"><ele>0.0</ele><time>2026-04-12T08:53:45Z</time></trkpt><trkpt lat="45.19350106322866" lon="12.215384492388083"><ele>0.0</ele><time>2026-04-12T08:53:46Z</time></trkpt><trkpt lat="45.19341140508572" lon="12.215694852710497"><ele>0.0</ele><time>2026-04-12T08:53:47Z</time></trkpt><trkpt lat="45.19332133234053" lon="12.216011632390595"><ele>0.0</ele><time>2026-04-12T08:53:48Z</time></trkpt><trkpt lat="45.19323127884418" lon="12.216329862825496"><ele>0.0</ele><time>2026-04-12T08:53:49Z</time></trkpt><trkpt lat="45.193144358928365" lon="12.216645351034886"><ele>-1.0</ele><time>2026-04-12T08:53:50Z</time></trkpt><trkpt lat="45.1930528212517" lon="12.21696411509008"><ele>-2.0</ele><time>2026-04-12T08:53:51Z</time></trkpt><trkpt lat="45.19296093289003" lon="12.21727854935646"><ele>-1.5</ele><time>2026-04-12T08:53:52Z</time></trkpt><trkpt lat="45.19287008976073" lon="12.217592391638616"><ele>-1.0</ele><time>2026-04-12T08:53:53Z</time></trkpt><trkpt lat="45.19277629311522" lon="12.217906227029326"><ele>-1.0</ele><time>2026-04-12T08:53:54Z</time></trkpt><trkpt lat="45.19268453297913" lon="12.218220971533782"><ele>-1.0</ele><time>2026-04-12T08:53:55Z</time></trkpt><trkpt lat="45.19259297402971" lon="12.218533198634875"><ele>-1.0</ele><time>2026-04-12T08:53:56Z</time></trkpt><trkpt lat="45.1925013017602" lon="12.218852188004599"><ele>-1.0</ele><time>2026-04-12T08:53:57Z</time></trkpt><trkpt lat="45.192413466439" lon="12.219167602741507"><ele>-1.5</ele><time>2026-04-12T08:53:58Z</time></trkpt><trkpt lat="45.192320368122616" lon="12.219486242077926"><ele>-2.0</ele><time>2026-04-12T08:53:59Z</time></trkpt><trkpt lat="45.192229164209685" lon="12.219798799385153"><ele>-1.5</ele><time>2026-04-12T08:54:00Z</time></trkpt><trkpt lat="45.19213394787502" lon="12.220113153919286"><ele>-1.0</ele><time>2026-04-12T08:54:01Z</time></trkpt><trkpt lat="45.1920405978638" lon="12.220425022440345"><ele>0.0</ele><time>2026-04-12T08:54:02Z</time></trkpt><trkpt lat="45.19194809637084" lon="12.220739280007386"><ele>1.0</ele><time>2026-04-12T08:54:03Z</time></trkpt><trkpt lat="45.191859054429024" lon="12.221051033888314"><ele>1.0</ele><time>2026-04-12T08:54:04Z</time></trkpt><trkpt lat="45.191769317988424" lon="12.221364361172066"><ele>1.0</ele><time>2026-04-12T08:54:05Z</time></trkpt><trkpt lat="45.191678782295156" lon="12.22167685087807"><ele>0.5</ele><time>2026-04-12T08:54:06Z</time></trkpt><trkpt lat="45.191586025045424" lon="12.221995339937274"><ele>0.0</ele><time>2026-04-12T08:54:07Z</time></trkpt><trkpt lat="45.191497026983555" lon="12.222307030995275"><ele>0.5</ele><time>2026-04-12T08:54:08Z</time></trkpt><trkpt lat="45.191405029883484" lon="12.222625111540976"><ele>1.0</ele><time>2026-04-12T08:54:09Z</time></trkpt><trkpt lat="45.19131343981206" lon="12.222941537291375"><ele>0.5</ele><time>2026-04-12T08:54:10Z</time></trkpt><trkpt lat="45.19122558987399" lon="12.223254328369793"><ele>0.0</ele><time>2026-04-12T08:54:11Z</time></trkpt><trkpt lat="45.191139140272384" lon="12.223572313371939"><ele>0.0</ele><time>2026-04-12T08:54:12Z</time></trkpt><trkpt lat="45.1910518494391" lon="12.223886872585386"><ele>0.0</ele><time>2026-04-12T08:54:13Z</time></trkpt><trkpt lat="45.19096125253194" lon="12.224204310398807"><ele>0.0</ele><time>2026-04-12T08:54:14Z</time></trkpt><trkpt lat="45.190869586095225" lon="12.224523848698325"><ele>0.0</ele><time>2026-04-12T08:54:15Z</time></trkpt><trkpt lat="45.19078070532763" lon="12.224843093968193"><ele>0.0</ele><time>2026-04-12T08:54:15.999Z</time></trkpt><trkpt lat="45.19069371256444" lon="12.225157860249169"><ele>0.0</ele><time>2026-04-12T08:54:16.999Z</time></trkpt><trkpt lat="45.19060341139921" lon="12.225475357633211"><ele>-1.0</ele><time>2026-04-12T08:54:17.999Z</time></trkpt><trkpt lat="45.1905156834579" lon="12.22579160934561"><ele>-2.0</ele><time>2026-04-12T08:54:18.999Z</time></trkpt><trkpt lat="45.190426209793344" lon="12.226110605104703"><ele>-2.0</ele><time>2026-04-12T08:54:19.999Z</time></trkpt><trkpt lat="45.19033631077611" lon="12.226429535362138"><ele>-2.0</ele><time>2026-04-12T08:54:20.999Z</time></trkpt><trkpt lat="45.190245761605404" lon="12.226744065472122"><ele>-1.5</ele><time>2026-04-12T08:54:21.999Z</time></trkpt><trkpt lat="45.1901566060219" lon="12.227056764478371"><ele>-1.0</ele><time>2026-04-12T08:54:22.999Z</time></trkpt><trkpt lat="45.190067252836364" lon="12.2273725535935"><ele>-0.5</ele><time>2026-04-12T08:54:23.999Z</time></trkpt><trkpt lat="45.18997932936253" lon="12.227689551671721"><ele>0.0</ele><time>2026-04-12T08:54:24.999Z</time></trkpt><trkpt lat="45.18989028912855" lon="12.228008460029496"><ele>0.5</ele><time>2026-04-12T08:54:25.999Z</time></trkpt><trkpt lat="45.18980497871912" lon="12.228317112888735"><ele>1.0</ele><time>2026-04-12T08:54:26.999Z</time></trkpt><trkpt lat="45.189716885667885" lon="12.228629759186058"><ele>1.0</ele><time>2026-04-12T08:54:27.999Z</time></trkpt><trkpt lat="45.18962491141554" lon="12.228950397114097"><ele>1.0</ele><time>2026-04-12T08:54:28.999Z</time></trkpt><trkpt lat="45.18953713945397" lon="12.229266712799701"><ele>0.5</ele><time>2026-04-12T08:54:29.999Z</time></trkpt><trkpt lat="45.189450584771464" lon="12.229578916380362"><ele>0.0</ele><time>2026-04-12T08:54:30.999Z</time></trkpt><trkpt lat="45.18936042566169" lon="12.229894186981054"><ele>-0.5</ele><time>2026-04-12T08:54:31.999Z</time></trkpt><trkpt lat="45.18927017657359" lon="12.230209555192108"><ele>-1.0</ele><time>2026-04-12T08:54:32.999Z</time></trkpt><trkpt lat="45.189181746025426" lon="12.2305260696412"><ele>-1.0</ele><time>2026-04-12T08:54:33.999Z</time></trkpt><trkpt lat="45.189093014699296" lon="12.230846697365985"><ele>-1.0</ele><time>2026-04-12T08:54:34.999Z</time></trkpt><trkpt lat="45.189004215987744" lon="12.231165788720551"><ele>0.0</ele><time>2026-04-12T08:54:35.999Z</time></trkpt><trkpt lat="45.188916903784886" lon="12.231479740572338"><ele>1.0</ele><time>2026-04-12T08:54:36.999Z</time></trkpt><trkpt lat="45.18882550811074" lon="12.231796326983623"><ele>1.0</ele><time>2026-04-12T08:54:37.999Z</time></trkpt><trkpt lat="45.18873544087088" lon="12.232116726093729"><ele>1.0</ele><time>2026-04-12T08:54:38.999Z</time></trkpt><trkpt lat="45.18864460158743" lon="12.232434127693429"><ele>-0.5</ele><time>2026-04-12T08:54:39.999Z</time></trkpt><trkpt lat="45.188555580834176" lon="12.232752662624883"><ele>-2.0</ele><time>2026-04-12T08:54:40.999Z</time></trkpt><trkpt lat="45.188466295593386" lon="12.233071145835947"><ele>-2.5</ele><time>2026-04-12T08:54:41.999Z</time></trkpt><trkpt lat="45.18837841076207" lon="12.233387089364491"><ele>-3.0</ele><time>2026-04-12T08:54:42.999Z</time></trkpt><trkpt lat="45.18828837105169" lon="12.23370376375747"><ele>-2.5</ele><time>2026-04-12T08:54:43.999Z</time></trkpt><trkpt lat="45.188197587589535" lon="12.234021922223251"><ele>-2.0</ele><time>2026-04-12T08:54:44.999Z</time></trkpt><trkpt lat="45.1881089620462" lon="12.23434132451942"><ele>-2.0</ele><time>2026-04-12T08:54:45.999Z</time></trkpt><trkpt lat="45.18802320591368" lon="12.234657218031277"><ele>-2.0</ele><time>2026-04-12T08:54:46.999Z</time></trkpt><trkpt lat="45.18793372340712" lon="12.23497310315284"><ele>-1.0</ele><time>2026-04-12T08:54:47.999Z</time></trkpt><trkpt lat="45.1878445728941" lon="12.23529162185184"><ele>0.0</ele><time>2026-04-12T08:54:48.999Z</time></trkpt><trkpt lat="45.18775541909544" lon="12.235606813309216"><ele>0.0</ele><time>2026-04-12T08:54:49.999Z</time></trkpt><trkpt lat="45.187665031268075" lon="12.235923977621761"><ele>0.0</ele><time>2026-04-12T08:54:50.999Z</time></trkpt><trkpt lat="45.18757491482933" lon="12.236244142624331"><ele>0.0</ele><time>2026-04-12T08:54:51.999Z</time></trkpt><trkpt lat="45.1874850403389" lon="12.236559709409468"><ele>0.0</ele><time>2026-04-12T08:54:52.999Z</time></trkpt><trkpt lat="45.18739627152073" lon="12.236868346336385"><ele>-0.5</ele><time>2026-04-12T08:54:53.999Z</time></trkpt><trkpt lat="45.187303828127575" lon="12.23719042036076"><ele>-1.0</ele><time>2026-04-12T08:54:54.999Z</time></trkpt><trkpt lat="45.18721643564681" lon="12.237505534135071"><ele>-1.5</ele><time>2026-04-12T08:54:55.999Z</time></trkpt><trkpt lat="45.187128626489944" lon="12.2378227011691"><ele>-2.0</ele><time>2026-04-12T08:54:56.999Z</time></trkpt><trkpt lat="45.18704009305917" lon="12.238135256264524"><ele>-1.0</ele><time>2026-04-12T08:54:57.999Z</time></trkpt><trkpt lat="45.186951880563974" lon="12.238453517002663"><ele>0.0</ele><time>2026-04-12T08:54:58.999Z</time></trkpt><trkpt lat="45.18686333503619" lon="12.238769810994055"><ele>0.0</ele><time>2026-04-12T08:54:59.999Z</time></trkpt><trkpt lat="45.18677553927204" lon="12.239085253285307"><ele>0.0</ele><time>2026-04-12T08:55:01Z</time></trkpt><trkpt lat="45.18668769938376" lon="12.239404387551062"><ele>0.0</ele><time>2026-04-12T08:55:02Z</time></trkpt><trkpt lat="45.18660325691891" lon="12.239720609975342"><ele>0.0</ele><time>2026-04-12T08:55:03Z</time></trkpt><trkpt lat="45.186520000539225" lon="12.240041238752994"><ele>-0.5</ele><time>2026-04-12T08:55:04Z</time></trkpt><trkpt lat="45.18643571427609" lon="12.24036197506667"><ele>-1.0</ele><time>2026-04-12T08:55:05Z</time></trkpt><trkpt lat="45.18634827611641" lon="12.240682331000304"><ele>0.0</ele><time>2026-04-12T08:55:06Z</time></trkpt><trkpt lat="45.18626110320911" lon="12.240996666212194"><ele>1.0</ele><time>2026-04-12T08:55:07Z</time></trkpt><trkpt lat="45.1861737401745" lon="12.241317725489397"><ele>0.6666666666666666</ele><time>2026-04-12T08:55:08Z</time></trkpt><trkpt lat="45.18609156588559" lon="12.241621534649127"><ele>0.3333333333333333</ele><time>2026-04-12T08:55:09Z</time></trkpt><trkpt lat="45.18601389671294" lon="12.241905610491028"><ele>0.0</ele><time>2026-04-12T08:55:10Z</time></trkpt><trkpt lat="45.18593979624446" lon="12.24216716964244"><ele>0.0</ele><time>2026-04-12T08:55:11Z</time></trkpt><trkpt lat="45.18585716283323" lon="12.242414065967507"><ele>0.0</ele><time>2026-04-12T08:55:12Z</time></trkpt><trkpt lat="45.18577652977217" lon="12.24262774063962"><ele>0.0</ele><time>2026-04-12T08:55:13Z</time></trkpt><trkpt lat="45.18570382589368" lon="12.242815916705386"><ele>-0.2</ele><time>2026-04-12T08:55:14Z</time></trkpt><trkpt lat="45.18563528796465" lon="12.242990590170015"><ele>-0.4</ele><time>2026-04-12T08:55:15Z</time></trkpt><trkpt lat="45.18557802047727" lon="12.243138621965082"><ele>-0.6000000000000001</ele><time>2026-04-12T08:55:16Z</time></trkpt><trkpt lat="45.18552942082448" lon="12.243233853380168"><ele>-0.8</ele><time>2026-04-12T08:55:17Z</time></trkpt><trkpt lat="45.1854674392047" lon="12.243316825467415"><ele>-1.0</ele><time>2026-04-12T08:55:18Z</time></trkpt><trkpt lat="45.1853916230655" lon="12.243351677832848"><ele>-1.0</ele><time>2026-04-12T08:55:19Z</time></trkpt><trkpt lat="45.18531640367915" lon="12.243322071482897"><ele>-1.0</ele><time>2026-04-12T08:55:20Z</time></trkpt><trkpt lat="45.18524728039318" lon="12.24323156522297"><ele>-1.0</ele><time>2026-04-12T08:55:21Z</time></trkpt><trkpt lat="45.18516956054433" lon="12.243100696188156"><ele>-1.0</ele><time>2026-04-12T08:55:22Z</time></trkpt><trkpt lat="45.18507152088862" lon="12.242958963779271"><ele>-1.0</ele><time>2026-04-12T08:55:23Z</time></trkpt><trkpt lat="45.184962518497116" lon="12.2427893311096"><ele>-1.0</ele><time>2026-04-12T08:55:24Z</time></trkpt><trkpt lat="45.18484316125294" lon="12.242603587732239"><ele>-1.0</ele><time>2026-04-12T08:55:25Z</time></trkpt><trkpt lat="45.18470258334659" lon="12.242398669023508"><ele>-1.0</ele><time>2026-04-12T08:55:26Z</time></trkpt><trkpt lat="45.18454671776389" lon="12.242175295658766"><ele>-1.0</ele><time>2026-04-12T08:55:27Z</time></trkpt><trkpt lat="45.184383746297506" lon="12.241930479292225"><ele>-1.0</ele><time>2026-04-12T08:55:28Z</time></trkpt><trkpt lat="45.18424016712378" lon="12.241718763311027"><ele>-1.0</ele><time>2026-04-12T08:55:29Z</time></trkpt><trkpt lat="45.184114545159005" lon="12.241526943424269"><ele>-0.75</ele><time>2026-04-12T08:55:30Z</time></trkpt><trkpt lat="45.183998997226304" lon="12.24135788001713"><ele>-0.5</ele><time>2026-04-12T08:55:31Z</time></trkpt><trkpt lat="45.18389542141925" lon="12.241210659032976"><ele>-0.25</ele><time>2026-04-12T08:55:32Z</time></trkpt><trkpt lat="45.18380777019448" lon="12.241075858280908"><ele>0.0</ele><time>2026-04-12T08:55:33Z</time></trkpt><trkpt lat="45.18373511725066" lon="12.24094989270682"><ele>0.0</ele><time>2026-04-12T08:55:34Z</time></trkpt><trkpt lat="45.183678000662454" lon="12.240821759992583"><ele>0.0</ele><time>2026-04-12T08:55:35Z</time></trkpt><trkpt lat="45.183625638855744" lon="12.240707435237404"><ele>0.0</ele><time>2026-04-12T08:55:36Z</time></trkpt><trkpt lat="45.183622408424995" lon="12.240542997715398"><ele>0.0</ele><time>2026-04-12T08:55:37Z</time></trkpt><trkpt lat="45.18362295354731" lon="12.24036816168653"><ele>0.0</ele><time>2026-04-12T08:55:38Z</time></trkpt><trkpt lat="45.18360244252701" lon="12.240182727173574"><ele>0.0</ele><time>2026-04-12T08:55:39Z</time></trkpt><trkpt lat="45.183683200660326" lon="12.240002504654674"><ele>0.0</ele><time>2026-04-12T08:55:40Z</time></trkpt><trkpt lat="45.183720385422546" lon="12.239851408267038"><ele>0.0</ele><time>2026-04-12T08:55:41Z</time></trkpt><trkpt lat="45.18374916898918" lon="12.239722043853352"><ele>0.0</ele><time>2026-04-12T08:55:42Z</time></trkpt><trkpt lat="45.18376030921478" lon="12.23961123077588"><ele>0.0</ele><time>2026-04-12T08:55:43Z</time></trkpt><trkpt lat="45.1837820112587" lon="12.239478615075054"><ele>-1.0</ele><time>2026-04-12T08:55:45Z</time></trkpt><trkpt lat="45.18361640420685" lon="12.239416695706808"><ele>-2.0</ele><time>2026-04-12T08:55:46Z</time></trkpt><trkpt lat="45.183483285519216" lon="12.239391805192328"><ele>-3.0</ele><time>2026-04-12T08:55:47Z</time></trkpt><trkpt lat="45.18333392032411" lon="12.239356483314364"><ele>-3.0</ele><time>2026-04-12T08:55:48Z</time></trkpt><trkpt lat="45.18315303591569" lon="12.239362610567534"><ele>-3.0</ele><time>2026-04-12T08:55:49Z</time></trkpt><trkpt lat="45.182931079056225" lon="12.239341653841329"><ele>-3.0</ele><time>2026-04-12T08:55:50Z</time></trkpt><trkpt lat="45.182685941808295" lon="12.239326712770051"><ele>-3.0</ele><time>2026-04-12T08:55:51Z</time></trkpt><trkpt lat="45.18242214918635" lon="12.239317588570849"><ele>-3.0</ele><time>2026-04-12T08:55:52Z</time></trkpt><trkpt lat="45.182137838731244" lon="12.239304700790452"><ele>-3.5</ele><time>2026-04-12T08:55:53Z</time></trkpt><trkpt lat="45.18183345020116" lon="12.239293797176357"><ele>-4.0</ele><time>2026-04-12T08:55:54Z</time></trkpt><trkpt lat="45.18152579053932" lon="12.23927824897152"><ele>-4.5</ele><time>2026-04-12T08:55:55Z</time></trkpt><trkpt lat="45.181231685288765" lon="12.239259717816942"><ele>-5.0</ele><time>2026-04-12T08:55:56Z</time></trkpt><trkpt lat="45.18094738097236" lon="12.23924705405498"><ele>-5.0</ele><time>2026-04-12T08:55:57Z</time></trkpt><trkpt lat="45.18068650718508" lon="12.239241992515458"><ele>-5.0</ele><time>2026-04-12T08:55:58Z</time></trkpt><trkpt lat="45.180404248951874" lon="12.23922297772151"><ele>-4.5</ele><time>2026-04-12T08:55:59Z</time></trkpt><trkpt lat="45.18015435455622" lon="12.239223249123262"><ele>-4.0</ele><time>2026-04-12T08:56:00Z</time></trkpt><trkpt lat="45.17989274972766" lon="12.23921290771817"><ele>-3.5</ele><time>2026-04-12T08:56:01Z</time></trkpt><trkpt lat="45.17962885601492" lon="12.239202724354781"><ele>-3.0</ele><time>2026-04-12T08:56:02Z</time></trkpt><trkpt lat="45.179381867002846" lon="12.239189519248468"><ele>-3.0</ele><time>2026-04-12T08:56:03Z</time></trkpt><trkpt lat="45.17915677625091" lon="12.239176447937748"><ele>-3.0</ele><time>2026-04-12T08:56:04Z</time></trkpt><trkpt lat="45.17892894246634" lon="12.239164811132564"><ele>-3.5</ele><time>2026-04-12T08:56:05Z</time></trkpt><trkpt lat="45.178696726385645" lon="12.239159248493245"><ele>-4.0</ele><time>2026-04-12T08:56:06Z</time></trkpt><trkpt lat="45.17846410991481" lon="12.239148423938108"><ele>-4.0</ele><time>2026-04-12T08:56:07Z</time></trkpt><trkpt lat="45.178237144121766" lon="12.23913837807061"><ele>-4.0</ele><time>2026-04-12T08:56:08Z</time></trkpt><trkpt lat="45.17801142308337" lon="12.239128817807075"><ele>-3.333333333333333</ele><time>2026-04-12T08:56:09Z</time></trkpt><trkpt lat="45.17779830070229" lon="12.239122575311576"><ele>-2.6666666666666665</ele><time>2026-04-12T08:56:10Z</time></trkpt><trkpt lat="45.17758374126627" lon="12.23911541670596"><ele>-2.0</ele><time>2026-04-12T08:56:11Z</time></trkpt><trkpt lat="45.177369724895016" lon="12.239104893464429"><ele>-2.6666666666666665</ele><time>2026-04-12T08:56:12Z</time></trkpt><trkpt lat="45.177156362887324" lon="12.239090119412163"><ele>-3.333333333333333</ele><time>2026-04-12T08:56:13Z</time></trkpt><trkpt lat="45.17695018485771" lon="12.23907157939949"><ele>-4.0</ele><time>2026-04-12T08:56:14Z</time></trkpt><trkpt lat="45.176736409252825" lon="12.239045417753891"><ele>-4.0</ele><time>2026-04-12T08:56:15Z</time></trkpt><trkpt lat="45.1765261054421" lon="12.238980037723376"><ele>-4.0</ele><time>2026-04-12T08:56:16Z</time></trkpt><trkpt lat="45.17631440837572" lon="12.23893465273856"><ele>-4.0</ele><time>2026-04-12T08:56:17Z</time></trkpt><trkpt lat="45.17610446957754" lon="12.238904396460134"><ele>-4.0</ele><time>2026-04-12T08:56:18Z</time></trkpt><trkpt lat="45.175891682272436" lon="12.238855326775159"><ele>-4.0</ele><time>2026-04-12T08:56:19Z</time></trkpt><trkpt lat="45.175679230033566" lon="12.238807027569742"><ele>-4.0</ele><time>2026-04-12T08:56:20Z</time></trkpt><trkpt lat="45.17546509096272" lon="12.238760673823197"><ele>-4.0</ele><time>2026-04-12T08:56:21Z</time></trkpt><trkpt lat="45.17525107203908" lon="12.238713253367186"><ele>-4.0</ele><time>2026-04-12T08:56:22Z</time></trkpt><trkpt lat="45.1750385249818" lon="12.238669336736312"><ele>-4.0</ele><time>2026-04-12T08:56:23Z</time></trkpt><trkpt lat="45.17482036260817" lon="12.238620977418877"><ele>-3.6666666666666665</ele><time>2026-04-12T08:56:24Z</time></trkpt><trkpt lat="45.174604978356484" lon="12.2385723355791"><ele>-3.333333333333333</ele><time>2026-04-12T08:56:25Z</time></trkpt><trkpt lat="45.1743886156416" lon="12.238523059090513"><ele>-3.0</ele><time>2026-04-12T08:56:26Z</time></trkpt><trkpt lat="45.17417241906068" lon="12.238475515248071"><ele>-3.333333333333333</ele><time>2026-04-12T08:56:27Z</time></trkpt><trkpt lat="45.17395884406951" lon="12.23843028269993"><ele>-3.6666666666666665</ele><time>2026-04-12T08:56:28Z</time></trkpt><trkpt lat="45.17374368211375" lon="12.238384217127688"><ele>-4.0</ele><time>2026-04-12T08:56:29Z</time></trkpt><trkpt lat="45.1735295050549" lon="12.238336543766966"><ele>-4.0</ele><time>2026-04-12T08:56:30Z</time></trkpt><trkpt lat="45.17331525481689" lon="12.238287645105412"><ele>-4.0</ele><time>2026-04-12T08:56:31Z</time></trkpt><trkpt lat="45.173099319077906" lon="12.238241163204226"><ele>-4.0</ele><time>2026-04-12T08:56:32Z</time></trkpt><trkpt lat="45.17288207840625" lon="12.238195156764798"><ele>-4.0</ele><time>2026-04-12T08:56:33Z</time></trkpt><trkpt lat="45.17266571739392" lon="12.23815041284069"><ele>-4.0</ele><time>2026-04-12T08:56:34Z</time></trkpt><trkpt lat="45.17245094773882" lon="12.238107774738214"><ele>-4.0</ele><time>2026-04-12T08:56:34.999Z</time></trkpt><trkpt lat="45.172234913363646" lon="12.238066202155467"><ele>-3.6666666666666665</ele><time>2026-04-12T08:56:35.999Z</time></trkpt><trkpt lat="45.17201979603936" lon="12.238022464782357"><ele>-3.333333333333333</ele><time>2026-04-12T08:56:36.999Z</time></trkpt><trkpt lat="45.17180447905544" lon="12.237975628598772"><ele>-3.0</ele><time>2026-04-12T08:56:37.999Z</time></trkpt><trkpt lat="45.171588875955756" lon="12.2379277502473"><ele>-2.6666666666666665</ele><time>2026-04-12T08:56:38.999Z</time></trkpt><trkpt lat="45.171373863216346" lon="12.237880000064001"><ele>-2.333333333333333</ele><time>2026-04-12T08:56:39.999Z</time></trkpt><trkpt lat="45.17115375805035" lon="12.237832125587712"><ele>-2.0</ele><time>2026-04-12T08:56:40.999Z</time></trkpt><trkpt lat="45.170941869333134" lon="12.237787659905448"><ele>-2.0</ele><time>2026-04-12T08:56:41.999Z</time></trkpt><trkpt lat="45.17072752257538" lon="12.237736767342891"><ele>-2.0</ele><time>2026-04-12T08:56:42.999Z</time></trkpt><trkpt lat="45.170512439534896" lon="12.237678423639712"><ele>-2.0</ele><time>2026-04-12T08:56:43.999Z</time></trkpt><trkpt lat="45.170301446344354" lon="12.237614450763456"><ele>-2.333333333333333</ele><time>2026-04-12T08:56:44.999Z</time></trkpt><trkpt lat="45.17009033950777" lon="12.237541172782315"><ele>-2.6666666666666665</ele><time>2026-04-12T08:56:45.999Z</time></trkpt><trkpt lat="45.16988151581036" lon="12.237462025819697"><ele>-3.0</ele><time>2026-04-12T08:56:46.999Z</time></trkpt><trkpt lat="45.169674715784254" lon="12.237386491546664"><ele>-3.0</ele><time>2026-04-12T08:56:47.999Z</time></trkpt><trkpt lat="45.169465791570516" lon="12.237310633836195"><ele>-3.0</ele><time>2026-04-12T08:56:48.999Z</time></trkpt><trkpt lat="45.16925520661769" lon="12.237235225718587"><ele>-3.0</ele><time>2026-04-12T08:56:49.999Z</time></trkpt><trkpt lat="45.16904631003864" lon="12.237162634619276"><ele>-3.0</ele><time>2026-04-12T08:56:50.999Z</time></trkpt><trkpt lat="45.16883588901968" lon="12.237087215141031"><ele>-3.0</ele><time>2026-04-12T08:56:51.999Z</time></trkpt><trkpt lat="45.168620907432185" lon="12.23700969738604"><ele>-3.0</ele><time>2026-04-12T08:56:52.999Z</time></trkpt><trkpt lat="45.168410877858825" lon="12.236935372340994"><ele>-3.0</ele><time>2026-04-12T08:56:53.999Z</time></trkpt><trkpt lat="45.16819852818797" lon="12.236864118406416"><ele>-3.0</ele><time>2026-04-12T08:56:54.999Z</time></trkpt><trkpt lat="45.167988415424816" lon="12.23678831232313"><ele>-3.0</ele><time>2026-04-12T08:56:55.999Z</time></trkpt><trkpt lat="45.16778741429114" lon="12.23669676094137"><ele>-2.6666666666666665</ele><time>2026-04-12T08:56:56.999Z</time></trkpt><trkpt lat="45.167580223829034" lon="12.236586932561927"><ele>-2.333333333333333</ele><time>2026-04-12T08:56:57.999Z</time></trkpt><trkpt lat="45.167386670463095" lon="12.236468250790546"><ele>-2.0</ele><time>2026-04-12T08:56:58.999Z</time></trkpt><trkpt lat="45.16721434541919" lon="12.236326293688048"><ele>-2.0</ele><time>2026-04-12T08:56:59.999Z</time></trkpt><trkpt lat="45.16706666663402" lon="12.236160349326266"><ele>-2.0</ele><time>2026-04-12T08:57:00.999Z</time></trkpt><trkpt lat="45.166934067795545" lon="12.235963631804772"><ele>-2.0</ele><time>2026-04-12T08:57:01.999Z</time></trkpt><trkpt lat="45.166809013578195" lon="12.235732686232193"><ele>-2.0</ele><time>2026-04-12T08:57:02.999Z</time></trkpt><trkpt lat="45.16669107831444" lon="12.235463367418294"><ele>-2.0</ele><time>2026-04-12T08:57:03.999Z</time></trkpt><trkpt lat="45.16660196300595" lon="12.23519879477756"><ele>-2.0</ele><time>2026-04-12T08:57:04.999Z</time></trkpt><trkpt lat="45.166539634181106" lon="12.234931514029872"><ele>-1.6666666666666665</ele><time>2026-04-12T08:57:05.999Z</time></trkpt><trkpt lat="45.1665061250102" lon="12.234662190089042"><ele>-1.3333333333333333</ele><time>2026-04-12T08:57:07Z</time></trkpt><trkpt lat="45.166487878325825" lon="12.23438428386904"><ele>-1.0</ele><time>2026-04-12T08:57:08Z</time></trkpt><trkpt lat="45.166482827594955" lon="12.234106422830308"><ele>-1.0</ele><time>2026-04-12T08:57:09Z</time></trkpt><trkpt lat="45.166470246655614" lon="12.233871267927148"><ele>-1.0</ele><time>2026-04-12T08:57:10Z</time></trkpt><trkpt lat="45.16645572007894" lon="12.23365728954521"><ele>-1.0</ele><time>2026-04-12T08:57:11Z</time></trkpt><trkpt lat="45.16644668283853" lon="12.23343604104963"><ele>-1.0</ele><time>2026-04-12T08:57:12Z</time></trkpt><trkpt lat="45.16642314015422" lon="12.233236033212279"><ele>-1.0</ele><time>2026-04-12T08:57:13Z</time></trkpt><trkpt lat="45.16637953748648" lon="12.233025377611385"><ele>-1.0</ele><time>2026-04-12T08:57:14Z</time></trkpt><trkpt lat="45.16631164579437" lon="12.232799345625935"><ele>-1.0</ele><time>2026-04-12T08:57:15Z</time></trkpt><trkpt lat="45.16622369239268" lon="12.23255107350329"><ele>-1.0</ele><time>2026-04-12T08:57:16Z</time></trkpt><trkpt lat="45.16611914573395" lon="12.232290363679978"><ele>-1.0</ele><time>2026-04-12T08:57:17Z</time></trkpt><trkpt lat="45.16601041315517" lon="12.232041076484164"><ele>-1.0</ele><time>2026-04-12T08:57:18Z</time></trkpt><trkpt lat="45.16589293973538" lon="12.231777549792787"><ele>-1.0</ele><time>2026-04-12T08:57:19Z</time></trkpt><trkpt lat="45.165769080777395" lon="12.231513564494401"><ele>-1.0</ele><time>2026-04-12T08:57:20Z</time></trkpt><trkpt lat="45.16564535550979" lon="12.231246938671232"><ele>-0.6666666666666666</ele><time>2026-04-12T08:57:21Z</time></trkpt><trkpt lat="45.165524903107354" lon="12.23098834574188"><ele>-0.3333333333333333</ele><time>2026-04-12T08:57:22Z</time></trkpt><trkpt lat="45.16540625702993" lon="12.230726695804632"><ele>0.0</ele><time>2026-04-12T08:57:23Z</time></trkpt><trkpt lat="45.165290739048956" lon="12.230477207360368"><ele>0.0</ele><time>2026-04-12T08:57:24Z</time></trkpt><trkpt lat="45.16517011508643" lon="12.230228324296226"><ele>0.0</ele><time>2026-04-12T08:57:25Z</time></trkpt><trkpt lat="45.165051579896286" lon="12.229988157978646"><ele>0.0</ele><time>2026-04-12T08:57:26Z</time></trkpt><trkpt lat="45.164931752052446" lon="12.229733923984503"><ele>-0.3333333333333333</ele><time>2026-04-12T08:57:27Z</time></trkpt><trkpt lat="45.164813710778354" lon="12.22949000233456"><ele>-0.6666666666666666</ele><time>2026-04-12T08:57:28Z</time></trkpt><trkpt lat="45.16469324498087" lon="12.2292367383915"><ele>-1.0</ele><time>2026-04-12T08:57:29Z</time></trkpt><trkpt lat="45.164575652928626" lon="12.228979816246001"><ele>-1.3333333333333333</ele><time>2026-04-12T08:57:30Z</time></trkpt><trkpt lat="45.16445865442754" lon="12.228721909506222"><ele>-1.6666666666666665</ele><time>2026-04-12T08:57:31Z</time></trkpt><trkpt lat="45.16433844108428" lon="12.228468857532524"><ele>-2.0</ele><time>2026-04-12T08:57:32Z</time></trkpt><trkpt lat="45.164217746387564" lon="12.228215185865501"><ele>-2.0</ele><time>2026-04-12T08:57:33Z</time></trkpt><trkpt lat="45.16409696806148" lon="12.227957440625337"><ele>-2.0</ele><time>2026-04-12T08:57:34Z</time></trkpt><trkpt lat="45.16397869366053" lon="12.227709479093527"><ele>-2.0</ele><time>2026-04-12T08:57:35Z</time></trkpt><trkpt lat="45.16385770131356" lon="12.227444974272538"><ele>-1.6666666666666665</ele><time>2026-04-12T08:57:36Z</time></trkpt><trkpt lat="45.163738435996954" lon="12.227186975505129"><ele>-1.3333333333333333</ele><time>2026-04-12T08:57:37Z</time></trkpt><trkpt lat="45.16361861418568" lon="12.22693257363154"><ele>-1.0</ele><time>2026-04-12T08:57:38Z</time></trkpt><trkpt lat="45.163498112469156" lon="12.226671881909251"><ele>-1.3333333333333333</ele><time>2026-04-12T08:57:39Z</time></trkpt><trkpt lat="45.163376795204556" lon="12.22642002618868"><ele>-1.6666666666666665</ele><time>2026-04-12T08:57:40Z</time></trkpt><trkpt lat="45.16325580413864" lon="12.226172889574945"><ele>-2.0</ele><time>2026-04-12T08:57:41Z</time></trkpt><trkpt lat="45.16313376817815" lon="12.225911228056507"><ele>-2.0</ele><time>2026-04-12T08:57:42Z</time></trkpt><trkpt lat="45.16301089096366" lon="12.225658545909024"><ele>-2.0</ele><time>2026-04-12T08:57:43Z</time></trkpt><trkpt lat="45.16288987346904" lon="12.225404060683994"><ele>-2.0</ele><time>2026-04-12T08:57:44Z</time></trkpt><trkpt lat="45.16277060064529" lon="12.225147045275678"><ele>-2.0</ele><time>2026-04-12T08:57:45Z</time></trkpt><trkpt lat="45.162650162258494" lon="12.22488872513469"><ele>-2.0</ele><time>2026-04-12T08:57:46Z</time></trkpt><trkpt lat="45.16253045845839" lon="12.224641888284824"><ele>-2.0</ele><time>2026-04-12T08:57:47Z</time></trkpt><trkpt lat="45.162411859668694" lon="12.224390697932847"><ele>-2.0</ele><time>2026-04-12T08:57:48Z</time></trkpt><trkpt lat="45.16229264923606" lon="12.224129134265418"><ele>-2.0</ele><time>2026-04-12T08:57:49Z</time></trkpt><trkpt lat="45.16217145575397" lon="12.223877834509018"><ele>-2.0</ele><time>2026-04-12T08:57:50Z</time></trkpt><trkpt lat="45.162047425919546" lon="12.22362980920221"><ele>-2.0</ele><time>2026-04-12T08:57:51Z</time></trkpt><trkpt lat="45.16192438119139" lon="12.223373434395869"><ele>-2.0</ele><time>2026-04-12T08:57:52Z</time></trkpt><trkpt lat="45.161806769396385" lon="12.223117537998284"><ele>-2.0</ele><time>2026-04-12T08:57:53Z</time></trkpt><trkpt lat="45.16168773580234" lon="12.222858857100498"><ele>-2.0</ele><time>2026-04-12T08:57:54Z</time></trkpt><trkpt lat="45.161565838643156" lon="12.222604721872672"><ele>-2.0</ele><time>2026-04-12T08:57:55Z</time></trkpt><trkpt lat="45.16144423198974" lon="12.222347895227054"><ele>-2.0</ele><time>2026-04-12T08:57:56Z</time></trkpt><trkpt lat="45.16132398563237" lon="12.222094359427071"><ele>-2.0</ele><time>2026-04-12T08:57:57Z</time></trkpt><trkpt lat="45.16120348647226" lon="12.221839920781917"><ele>-2.0</ele><time>2026-04-12T08:57:58Z</time></trkpt><trkpt lat="45.161080333539154" lon="12.221588718445904"><ele>-2.0</ele><time>2026-04-12T08:57:59Z</time></trkpt><trkpt lat="45.16095670704307" lon="12.221346973377349"><ele>-2.0</ele><time>2026-04-12T08:58:00Z</time></trkpt><trkpt lat="45.16083660865921" lon="12.221093247927122"><ele>-2.0</ele><time>2026-04-12T08:58:01Z</time></trkpt><trkpt lat="45.160715899601826" lon="12.220837189298258"><ele>-2.0</ele><time>2026-04-12T08:58:02Z</time></trkpt><trkpt lat="45.16059807827792" lon="12.220584857137249"><ele>-2.0</ele><time>2026-04-12T08:58:03Z</time></trkpt><trkpt lat="45.16047956522293" lon="12.220329428835967"><ele>-2.0</ele><time>2026-04-12T08:58:04Z</time></trkpt><trkpt lat="45.160361417451014" lon="12.220077876285995"><ele>-2.0</ele><time>2026-04-12T08:58:05Z</time></trkpt><trkpt lat="45.160238105451796" lon="12.219809832581253"><ele>-2.6666666666666665</ele><time>2026-04-12T08:58:06Z</time></trkpt><trkpt lat="45.16011487812516" lon="12.219551307064032"><ele>-3.333333333333333</ele><time>2026-04-12T08:58:07Z</time></trkpt><trkpt lat="45.15999160696859" lon="12.219304584603996"><ele>-4.0</ele><time>2026-04-12T08:58:08Z</time></trkpt><trkpt lat="45.15986969982704" lon="12.219056661347297"><ele>-3.333333333333333</ele><time>2026-04-12T08:58:09Z</time></trkpt><trkpt lat="45.159748957148224" lon="12.218791021408826"><ele>-2.6666666666666665</ele><time>2026-04-12T08:58:10Z</time></trkpt><trkpt lat="45.15962823350532" lon="12.218532380028156"><ele>-2.0</ele><time>2026-04-12T08:58:11Z</time></trkpt><trkpt lat="45.159507953375794" lon="12.218278392782397"><ele>-2.0</ele><time>2026-04-12T08:58:12Z</time></trkpt><trkpt lat="45.15938756582245" lon="12.218028809996559"><ele>-2.0</ele><time>2026-04-12T08:58:13Z</time></trkpt><trkpt lat="45.15926537009801" lon="12.217771271799704"><ele>-2.0</ele><time>2026-04-12T08:58:14Z</time></trkpt><trkpt lat="45.15914457990786" lon="12.217512894061834"><ele>-2.0</ele><time>2026-04-12T08:58:15Z</time></trkpt><trkpt lat="45.15902225283744" lon="12.217255020290958"><ele>-2.0</ele><time>2026-04-12T08:58:16Z</time></trkpt><trkpt lat="45.15890198327746" lon="12.217000673578083"><ele>-2.0</ele><time>2026-04-12T08:58:17Z</time></trkpt><trkpt lat="45.15878417865084" lon="12.216747651466362"><ele>-2.0</ele><time>2026-04-12T08:58:18Z</time></trkpt><trkpt lat="45.15866030143884" lon="12.216488836643782"><ele>-2.0</ele><time>2026-04-12T08:58:19Z</time></trkpt><trkpt lat="45.15853787787881" lon="12.21622797554713"><ele>-2.0</ele><time>2026-04-12T08:58:20Z</time></trkpt><trkpt lat="45.158420698561635" lon="12.215976941947142"><ele>-2.0</ele><time>2026-04-12T08:58:21Z</time></trkpt><trkpt lat="45.15830198579833" lon="12.21572145862909"><ele>-2.0</ele><time>2026-04-12T08:58:22Z</time></trkpt><trkpt lat="45.15818252820096" lon="12.21545787094612"><ele>-2.0</ele><time>2026-04-12T08:58:23Z</time></trkpt><trkpt lat="45.15806435040092" lon="12.215202331825928"><ele>-1.6666666666666665</ele><time>2026-04-12T08:58:24Z</time></trkpt><trkpt lat="45.15794567123897" lon="12.214945368593101"><ele>-1.3333333333333333</ele><time>2026-04-12T08:58:25Z</time></trkpt><trkpt lat="45.15782396146679" lon="12.214682586806864"><ele>-1.0</ele><time>2026-04-12T08:58:26Z</time></trkpt><trkpt lat="45.15770399612438" lon="12.214432676962927"><ele>-1.0</ele><time>2026-04-12T08:58:26.999Z</time></trkpt><trkpt lat="45.15758567949862" lon="12.214174137508017"><ele>-1.0</ele><time>2026-04-12T08:58:27.999Z</time></trkpt><trkpt lat="45.15746996004539" lon="12.213911359733153"><ele>-1.0</ele><time>2026-04-12T08:58:28.999Z</time></trkpt><trkpt lat="45.1573563322886" lon="12.213643537866576"><ele>-1.0</ele><time>2026-04-12T08:58:29.999Z</time></trkpt><trkpt lat="45.15724376635713" lon="12.213378241066607"><ele>-1.0</ele><time>2026-04-12T08:58:30.999Z</time></trkpt><trkpt lat="45.15713016310097" lon="12.213115568832974"><ele>-1.0</ele><time>2026-04-12T08:58:31.999Z</time></trkpt><trkpt lat="45.157015289294456" lon="12.212856614027066"><ele>-1.3333333333333333</ele><time>2026-04-12T08:58:32.999Z</time></trkpt><trkpt lat="45.156899369722076" lon="12.212596326534658"><ele>-1.6666666666666665</ele><time>2026-04-12T08:58:33.999Z</time></trkpt><trkpt lat="45.15678887721383" lon="12.212340420204828"><ele>-2.0</ele><time>2026-04-12T08:58:34.999Z</time></trkpt><trkpt lat="45.15667853727956" lon="12.212078337002753"><ele>-2.0</ele><time>2026-04-12T08:58:35.999Z</time></trkpt><trkpt lat="45.15656740222015" lon="12.211807302947236"><ele>-2.0</ele><time>2026-04-12T08:58:36.999Z</time></trkpt><trkpt lat="45.156457106212095" lon="12.211548705656073"><ele>-2.0</ele><time>2026-04-12T08:58:37.999Z</time></trkpt><trkpt lat="45.15634435717192" lon="12.211286477527526"><ele>-2.0</ele><time>2026-04-12T08:58:38.999Z</time></trkpt><trkpt lat="45.156235106368335" lon="12.21103830526323"><ele>-2.0</ele><time>2026-04-12T08:58:39.999Z</time></trkpt><trkpt lat="45.15613532311543" lon="12.210815382990774"><ele>-2.0</ele><time>2026-04-12T08:58:40.999Z</time></trkpt><trkpt lat="45.15604321292819" lon="12.210597860265915"><ele>-1.75</ele><time>2026-04-12T08:58:41.999Z</time></trkpt><trkpt lat="45.15595947216212" lon="12.210407749614147"><ele>-1.5</ele><time>2026-04-12T08:58:42.999Z</time></trkpt><trkpt lat="45.15588089184646" lon="12.210227565887966"><ele>-1.25</ele><time>2026-04-12T08:58:43.999Z</time></trkpt><trkpt lat="45.15580829786596" lon="12.210061611271982"><ele>-1.0</ele><time>2026-04-12T08:58:44.999Z</time></trkpt><trkpt lat="45.15574686097097" lon="12.209908031873734"><ele>-1.0</ele><time>2026-04-12T08:58:45.999Z</time></trkpt><trkpt lat="45.155694475032526" lon="12.209774577505616"><ele>-1.0</ele><time>2026-04-12T08:58:46.999Z</time></trkpt><trkpt lat="45.15565358093886" lon="12.209677391041192"><ele>-1.0</ele><time>2026-04-12T08:58:47.999Z</time></trkpt><trkpt lat="45.15557623601157" lon="12.209588948864525"><ele>-1.0</ele><time>2026-04-12T08:58:49.999Z</time></trkpt><trkpt lat="45.15546931352346" lon="12.209691474733548"><ele>-1.0</ele><time>2026-04-12T08:58:51.999Z</time></trkpt><trkpt lat="45.15539768071491" lon="12.209762436333998"><ele>-0.8</ele><time>2026-04-12T08:58:52.999Z</time></trkpt><trkpt lat="45.15531504653505" lon="12.209846168826164"><ele>-0.6000000000000001</ele><time>2026-04-12T08:58:53.999Z</time></trkpt><trkpt lat="45.155230989803385" lon="12.209920554704933"><ele>-0.4</ele><time>2026-04-12T08:58:54.999Z</time></trkpt><trkpt lat="45.15516456562446" lon="12.209975637844916"><ele>-0.2</ele><time>2026-04-12T08:58:55.999Z</time></trkpt><trkpt lat="45.15504851056093" lon="12.209961163063873"><ele>0.0</ele><time>2026-04-12T08:58:57.999Z</time></trkpt><trkpt lat="45.15499201752283" lon="12.209864874266499"><ele>-0.25</ele><time>2026-04-12T08:58:58.999Z</time></trkpt><trkpt lat="45.15492886977949" lon="12.20971537216934"><ele>-0.5</ele><time>2026-04-12T08:58:59.999Z</time></trkpt><trkpt lat="45.154854514142116" lon="12.209536818563787"><ele>-0.75</ele><time>2026-04-12T08:59:00.999Z</time></trkpt><trkpt lat="45.15476785581907" lon="12.20934577760805"><ele>-1.0</ele><time>2026-04-12T08:59:01.999Z</time></trkpt><trkpt lat="45.15469603160364" lon="12.209172744238076"><ele>-1.0</ele><time>2026-04-12T08:59:02.999Z</time></trkpt><trkpt lat="45.154632119817656" lon="12.209028299664698"><ele>-1.0</ele><time>2026-04-12T08:59:03.999Z</time></trkpt><trkpt lat="45.15456331418869" lon="12.208929246416268"><ele>-1.0</ele><time>2026-04-12T08:59:04.999Z</time></trkpt><trkpt lat="45.15447040039217" lon="12.208883894383558"><ele>-1.0</ele><time>2026-04-12T08:59:05.999Z</time></trkpt><trkpt lat="45.154356808233224" lon="12.208903718023334"><ele>-1.0</ele><time>2026-04-12T08:59:06.999Z</time></trkpt><trkpt lat="45.154234071443575" lon="12.20897607346523"><ele>-0.6666666666666666</ele><time>2026-04-12T08:59:07.999Z</time></trkpt><trkpt lat="45.15410109717625" lon="12.209038446652217"><ele>-0.3333333333333333</ele><time>2026-04-12T08:59:08.999Z</time></trkpt><trkpt lat="45.15395899234439" lon="12.20903387563296"><ele>0.0</ele><time>2026-04-12T08:59:09.999Z</time></trkpt><trkpt lat="45.15379323229504" lon="12.20898125256664"><ele>-0.6666666666666666</ele><time>2026-04-12T08:59:10.999Z</time></trkpt><trkpt lat="45.153602393515115" lon="12.20892553159402"><ele>-1.3333333333333333</ele><time>2026-04-12T08:59:11.999Z</time></trkpt><trkpt lat="45.15341219675858" lon="12.208883544308925"><ele>-2.0</ele><time>2026-04-12T08:59:13Z</time></trkpt><trkpt lat="45.15320795630904" lon="12.208842787866413"><ele>-1.6666666666666665</ele><time>2026-04-12T08:59:14Z</time></trkpt><trkpt lat="45.15300169528522" lon="12.2087964452232"><ele>-1.3333333333333333</ele><time>2026-04-12T08:59:15Z</time></trkpt><trkpt lat="45.15279227688418" lon="12.208747521170576"><ele>-1.0</ele><time>2026-04-12T08:59:16Z</time></trkpt><trkpt lat="45.152573071759285" lon="12.208697367148922"><ele>-1.3333333333333333</ele><time>2026-04-12T08:59:17Z</time></trkpt><trkpt lat="45.15235148479188" lon="12.208647193167455"><ele>-1.6666666666666665</ele><time>2026-04-12T08:59:18Z</time></trkpt><trkpt lat="45.1521337817821" lon="12.208595938535726"><ele>-2.0</ele><time>2026-04-12T08:59:19Z</time></trkpt><trkpt lat="45.15192140810879" lon="12.208546938253203"><ele>-2.0</ele><time>2026-04-12T08:59:20Z</time></trkpt><trkpt lat="45.15169808335976" lon="12.208503911296862"><ele>-2.0</ele><time>2026-04-12T08:59:21Z</time></trkpt><trkpt lat="45.15147781137167" lon="12.208457315036906"><ele>-2.0</ele><time>2026-04-12T08:59:22Z</time></trkpt><trkpt lat="45.15126111879888" lon="12.208411184458058"><ele>-2.0</ele><time>2026-04-12T08:59:23Z</time></trkpt><trkpt lat="45.151044865515914" lon="12.208363774082102"><ele>-2.0</ele><time>2026-04-12T08:59:24Z</time></trkpt><trkpt lat="45.15083390543578" lon="12.208317820144845"><ele>-2.0</ele><time>2026-04-12T08:59:25Z</time></trkpt><trkpt lat="45.15062231882949" lon="12.208271490230437"><ele>-2.0</ele><time>2026-04-12T08:59:26Z</time></trkpt><trkpt lat="45.15041499011165" lon="12.20822954471436"><ele>-2.0</ele><time>2026-04-12T08:59:27Z</time></trkpt><trkpt lat="45.15020709799655" lon="12.208183251123646"><ele>-2.0</ele><time>2026-04-12T08:59:28Z</time></trkpt><trkpt lat="45.14999939948521" lon="12.208133637126213"><ele>-2.0</ele><time>2026-04-12T08:59:29Z</time></trkpt><trkpt lat="45.14978997761196" lon="12.20808803879982"><ele>-2.0</ele><time>2026-04-12T08:59:30Z</time></trkpt><trkpt lat="45.14958039803631" lon="12.20804190216547"><ele>-2.0</ele><time>2026-04-12T08:59:31Z</time></trkpt><trkpt lat="45.149369287968234" lon="12.207993020871882"><ele>-2.0</ele><time>2026-04-12T08:59:32Z</time></trkpt><trkpt lat="45.1491600253492" lon="12.207945601749145"><ele>-2.0</ele><time>2026-04-12T08:59:33Z</time></trkpt><trkpt lat="45.14894725890678" lon="12.20790313614174"><ele>-2.0</ele><time>2026-04-12T08:59:34Z</time></trkpt><trkpt lat="45.14873431570173" lon="12.207858513476962"><ele>-2.333333333333333</ele><time>2026-04-12T08:59:35Z</time></trkpt><trkpt lat="45.148511844779165" lon="12.207805637552177"><ele>-2.6666666666666665</ele><time>2026-04-12T08:59:36Z</time></trkpt><trkpt lat="45.14829616863916" lon="12.207756390132923"><ele>-3.0</ele><time>2026-04-12T08:59:37Z</time></trkpt><trkpt lat="45.14808315277969" lon="12.20771464824681"><ele>-3.333333333333333</ele><time>2026-04-12T08:59:38Z</time></trkpt><trkpt lat="45.147867209492105" lon="12.207669237867831"><ele>-3.6666666666666665</ele><time>2026-04-12T08:59:39Z</time></trkpt><trkpt lat="45.147645783683124" lon="12.207617671868583"><ele>-4.0</ele><time>2026-04-12T08:59:40Z</time></trkpt><trkpt lat="45.147430802056405" lon="12.20756833470102"><ele>-3.6666666666666665</ele><time>2026-04-12T08:59:41Z</time></trkpt><trkpt lat="45.147210600885266" lon="12.207516955889483"><ele>-3.333333333333333</ele><time>2026-04-12T08:59:42Z</time></trkpt><trkpt lat="45.14699856690184" lon="12.207471855781996"><ele>-3.0</ele><time>2026-04-12T08:59:43Z</time></trkpt><trkpt lat="45.14678328362194" lon="12.2074246437125"><ele>-3.0</ele><time>2026-04-12T08:59:44Z</time></trkpt><trkpt lat="45.14656745729491" lon="12.207355212370512"><ele>-3.0</ele><time>2026-04-12T08:59:45Z</time></trkpt><trkpt lat="45.146349359630854" lon="12.207306883348597"><ele>-3.0</ele><time>2026-04-12T08:59:46Z</time></trkpt><trkpt lat="45.14613725029078" lon="12.207259881809247"><ele>-3.0</ele><time>2026-04-12T08:59:47Z</time></trkpt><trkpt lat="45.145925010275604" lon="12.207235335829562"><ele>-3.0</ele><time>2026-04-12T08:59:48Z</time></trkpt><trkpt lat="45.145710506879645" lon="12.207183480956292"><ele>-3.0</ele><time>2026-04-12T08:59:49Z</time></trkpt><trkpt lat="45.145492422068585" lon="12.207134523448932"><ele>-3.0</ele><time>2026-04-12T08:59:50Z</time></trkpt><trkpt lat="45.14527971276085" lon="12.207089979291572"><ele>-3.0</ele><time>2026-04-12T08:59:51Z</time></trkpt><trkpt lat="45.145066533921714" lon="12.207041820364218"><ele>-3.0</ele><time>2026-04-12T08:59:52Z</time></trkpt><trkpt lat="45.1448471345627" lon="12.206993015118327"><ele>-3.0</ele><time>2026-04-12T08:59:53Z</time></trkpt><trkpt lat="45.144634930422605" lon="12.20694236637713"><ele>-3.0</ele><time>2026-04-12T08:59:54Z</time></trkpt><trkpt lat="45.14441888439677" lon="12.206891734661378"><ele>-3.0</ele><time>2026-04-12T08:59:55Z</time></trkpt><trkpt lat="45.14420592996707" lon="12.206841635466267"><ele>-3.666666666666667</ele><time>2026-04-12T08:59:56Z</time></trkpt><trkpt lat="45.14399203594082" lon="12.206795091070871"><ele>-4.333333333333334</ele><time>2026-04-12T08:59:57Z</time></trkpt><trkpt lat="45.143775906825205" lon="12.206748224385565"><ele>-5.0</ele><time>2026-04-12T08:59:58Z</time></trkpt><trkpt lat="45.14356292979295" lon="12.206701587342861"><ele>-5.0</ele><time>2026-04-12T08:59:59Z</time></trkpt><trkpt lat="45.14334933213024" lon="12.206656311859874"><ele>-5.0</ele><time>2026-04-12T09:00:00Z</time></trkpt><trkpt lat="45.14313562223817" lon="12.206609806209567"><ele>-5.0</ele><time>2026-04-12T09:00:01Z</time></trkpt><trkpt lat="45.142920826823406" lon="12.206560025660725"><ele>-5.0</ele><time>2026-04-12T09:00:02Z</time></trkpt><trkpt lat="45.14270700722126" lon="12.206512630096771"><ele>-5.0</ele><time>2026-04-12T09:00:03Z</time></trkpt><trkpt lat="45.142495979285805" lon="12.206465667924737"><ele>-5.0</ele><time>2026-04-12T09:00:04Z</time></trkpt><trkpt lat="45.14228116012553" lon="12.206419720465973"><ele>-4.333333333333334</ele><time>2026-04-12T09:00:05Z</time></trkpt><trkpt lat="45.1420651419046" lon="12.206374904474664"><ele>-3.666666666666667</ele><time>2026-04-12T09:00:06Z</time></trkpt><trkpt lat="45.141848679756656" lon="12.206331970529764"><ele>-3.0</ele><time>2026-04-12T09:00:07Z</time></trkpt><trkpt lat="45.14163376309657" lon="12.206285071563922"><ele>-3.333333333333333</ele><time>2026-04-12T09:00:08Z</time></trkpt><trkpt lat="45.14141962703313" lon="12.206234223472975"><ele>-3.6666666666666665</ele><time>2026-04-12T09:00:09Z</time></trkpt><trkpt lat="45.141206062790445" lon="12.206187226093265"><ele>-4.0</ele><time>2026-04-12T09:00:10Z</time></trkpt><trkpt lat="45.140984576014084" lon="12.206135440248818"><ele>-4.0</ele><time>2026-04-12T09:00:11Z</time></trkpt><trkpt lat="45.140773024931796" lon="12.2060874930903"><ele>-4.0</ele><time>2026-04-12T09:00:12Z</time></trkpt><trkpt lat="45.14055660315886" lon="12.206040962252889"><ele>-4.0</ele><time>2026-04-12T09:00:13Z</time></trkpt><trkpt lat="45.14033947759287" lon="12.205994565187785"><ele>-3.6666666666666665</ele><time>2026-04-12T09:00:14Z</time></trkpt><trkpt lat="45.14012433899012" lon="12.205947465743018"><ele>-3.333333333333333</ele><time>2026-04-12T09:00:15Z</time></trkpt><trkpt lat="45.13991159704914" lon="12.205901649012592"><ele>-3.0</ele><time>2026-04-12T09:00:16Z</time></trkpt><trkpt lat="45.139697186485705" lon="12.205852971802207"><ele>-3.0</ele><time>2026-04-12T09:00:17Z</time></trkpt><trkpt lat="45.139484974107894" lon="12.20580663022432"><ele>-3.0</ele><time>2026-04-12T09:00:17.999Z</time></trkpt><trkpt lat="45.13926952286134" lon="12.205757138012006"><ele>-3.0</ele><time>2026-04-12T09:00:18.999Z</time></trkpt><trkpt lat="45.13905792632948" lon="12.205710807831736"><ele>-3.0</ele><time>2026-04-12T09:00:19.999Z</time></trkpt><trkpt lat="45.138842454794386" lon="12.205666015082542"><ele>-3.0</ele><time>2026-04-12T09:00:20.999Z</time></trkpt><trkpt lat="45.13862686147116" lon="12.205619654299555"><ele>-3.0</ele><time>2026-04-12T09:00:21.999Z</time></trkpt><trkpt lat="45.13841239849492" lon="12.205573403491728"><ele>-3.0</ele><time>2026-04-12T09:00:22.999Z</time></trkpt><trkpt lat="45.13819675735705" lon="12.205524976908029"><ele>-3.0</ele><time>2026-04-12T09:00:23.999Z</time></trkpt><trkpt lat="45.1379810354296" lon="12.205477807615523"><ele>-3.0</ele><time>2026-04-12T09:00:24.999Z</time></trkpt><trkpt lat="45.13776525317214" lon="12.205430465451409"><ele>-3.0</ele><time>2026-04-12T09:00:25.999Z</time></trkpt><trkpt lat="45.13755169563386" lon="12.205384452050087"><ele>-3.0</ele><time>2026-04-12T09:00:26.999Z</time></trkpt><trkpt lat="45.13733683309683" lon="12.205339184308132"><ele>-3.0</ele><time>2026-04-12T09:00:27.999Z</time></trkpt><trkpt lat="45.137122018604096" lon="12.2052956446737"><ele>-3.333333333333333</ele><time>2026-04-12T09:00:28.999Z</time></trkpt><trkpt lat="45.136912777591796" lon="12.205229291503217"><ele>-3.6666666666666665</ele><time>2026-04-12T09:00:29.999Z</time></trkpt><trkpt lat="45.13669618268889" lon="12.205201772785223"><ele>-4.0</ele><time>2026-04-12T09:00:30.999Z</time></trkpt><trkpt lat="45.13648038415112" lon="12.205147655383225"><ele>-4.0</ele><time>2026-04-12T09:00:31.999Z</time></trkpt><trkpt lat="45.136266077902214" lon="12.205102355662065"><ele>-4.0</ele><time>2026-04-12T09:00:32.999Z</time></trkpt><trkpt lat="45.13605207264688" lon="12.205060871749474"><ele>-4.0</ele><time>2026-04-12T09:00:33.999Z</time></trkpt><trkpt lat="45.13583740536648" lon="12.205016351598346"><ele>-4.0</ele><time>2026-04-12T09:00:34.999Z</time></trkpt><trkpt lat="45.13562090046571" lon="12.204969071188271"><ele>-4.0</ele><time>2026-04-12T09:00:35.999Z</time></trkpt><trkpt lat="45.13540482111408" lon="12.204920224266827"><ele>-4.0</ele><time>2026-04-12T09:00:36.999Z</time></trkpt><trkpt lat="45.135191557396624" lon="12.20487415868144"><ele>-4.333333333333333</ele><time>2026-04-12T09:00:37.999Z</time></trkpt><trkpt lat="45.13497520461294" lon="12.204823958739208"><ele>-4.666666666666667</ele><time>2026-04-12T09:00:38.999Z</time></trkpt><trkpt lat="45.13475890929659" lon="12.204774921107791"><ele>-5.0</ele><time>2026-04-12T09:00:39.999Z</time></trkpt><trkpt lat="45.13454169855296" lon="12.204726185831321"><ele>-4.333333333333334</ele><time>2026-04-12T09:00:40.999Z</time></trkpt><trkpt lat="45.13433044362787" lon="12.204686714323412"><ele>-3.666666666666667</ele><time>2026-04-12T09:00:41.999Z</time></trkpt><trkpt lat="45.134113509908296" lon="12.204640246774623"><ele>-3.0</ele><time>2026-04-12T09:00:42.999Z</time></trkpt><trkpt lat="45.13389954520613" lon="12.204596045838391"><ele>-2.6666666666666665</ele><time>2026-04-12T09:00:43.999Z</time></trkpt><trkpt lat="45.13368628599285" lon="12.204554166871535"><ele>-2.333333333333333</ele><time>2026-04-12T09:00:44.999Z</time></trkpt><trkpt lat="45.133469076095956" lon="12.204503339503535"><ele>-2.0</ele><time>2026-04-12T09:00:45.999Z</time></trkpt><trkpt lat="45.133255333048" lon="12.204455230475894"><ele>-2.333333333333333</ele><time>2026-04-12T09:00:46.999Z</time></trkpt><trkpt lat="45.13304001639315" lon="12.204405165926216"><ele>-2.6666666666666665</ele><time>2026-04-12T09:00:47.999Z</time></trkpt><trkpt lat="45.13282368193852" lon="12.20435808031404"><ele>-3.0</ele><time>2026-04-12T09:00:48.999Z</time></trkpt><trkpt lat="45.132612075058105" lon="12.204321304986067"><ele>-3.0</ele><time>2026-04-12T09:00:49.999Z</time></trkpt><trkpt lat="45.13241385877235" lon="12.204283366975481"><ele>-3.0</ele><time>2026-04-12T09:00:50.999Z</time></trkpt><trkpt lat="45.132245229694895" lon="12.204247831284535"><ele>-3.0</ele><time>2026-04-12T09:00:51.999Z</time></trkpt><trkpt lat="45.13210606962253" lon="12.204211986516256"><ele>-2.75</ele><time>2026-04-12T09:00:52.999Z</time></trkpt><trkpt lat="45.131989780850155" lon="12.204171495801607"><ele>-2.5</ele><time>2026-04-12T09:00:53.999Z</time></trkpt><trkpt lat="45.13189038655803" lon="12.204097297121393"><ele>-2.25</ele><time>2026-04-12T09:00:54.999Z</time></trkpt><trkpt lat="45.13181835027933" lon="12.20398376740845"><ele>-2.0</ele><time>2026-04-12T09:00:55.999Z</time></trkpt><trkpt lat="45.1317680682501" lon="12.20383221077129"><ele>-2.0</ele><time>2026-04-12T09:00:56.999Z</time></trkpt><trkpt lat="45.13173902696123" lon="12.203642285699887"><ele>-2.0</ele><time>2026-04-12T09:00:57.999Z</time></trkpt><trkpt lat="45.13170063925515" lon="12.2034153811932"><ele>-2.0</ele><time>2026-04-12T09:00:58.999Z</time></trkpt><trkpt lat="45.13164492844275" lon="12.203153526552198"><ele>-2.5</ele><time>2026-04-12T09:00:59.999Z</time></trkpt><trkpt lat="45.13158462376525" lon="12.202849635982902"><ele>-3.0</ele><time>2026-04-12T09:01:00.999Z</time></trkpt><trkpt lat="45.13152839386177" lon="12.202531528063522"><ele>-3.5</ele><time>2026-04-12T09:01:01.999Z</time></trkpt><trkpt lat="45.13146400253046" lon="12.202194119300712"><ele>-4.0</ele><time>2026-04-12T09:01:02.999Z</time></trkpt><trkpt lat="45.13139817430082" lon="12.2018559292161"><ele>-4.0</ele><time>2026-04-12T09:01:03.999Z</time></trkpt><trkpt lat="45.13134482659787" lon="12.201571129596937"><ele>-4.0</ele><time>2026-04-12T09:01:04.999Z</time></trkpt><trkpt lat="45.131304372178775" lon="12.201321711477606"><ele>-4.0</ele><time>2026-04-12T09:01:05.999Z</time></trkpt><trkpt lat="45.13127836362478" lon="12.20110172190791"><ele>-3.6</ele><time>2026-04-12T09:01:06.999Z</time></trkpt><trkpt lat="45.131266971136704" lon="12.200911461498595"><ele>-3.2</ele><time>2026-04-12T09:01:07.999Z</time></trkpt><trkpt lat="45.13125961599008" lon="12.200749483046547"><ele>-2.8000000000000003</ele><time>2026-04-12T09:01:08.999Z</time></trkpt><trkpt lat="45.13124082135388" lon="12.200618530279533"><ele>-2.4000000000000004</ele><time>2026-04-12T09:01:09.999Z</time></trkpt><trkpt lat="45.131199885437645" lon="12.200519310884347"><ele>-2.0</ele><time>2026-04-12T09:01:10.999Z</time></trkpt><trkpt lat="45.13113277111803" lon="12.200449035574726"><ele>-1.75</ele><time>2026-04-12T09:01:11.999Z</time></trkpt><trkpt lat="45.131049003695004" lon="12.200426973100452"><ele>-1.5</ele><time>2026-04-12T09:01:12.999Z</time></trkpt><trkpt lat="45.130939804969834" lon="12.200427171648485"><ele>-1.25</ele><time>2026-04-12T09:01:13.999Z</time></trkpt><trkpt lat="45.13079818275545" lon="12.20042530383262"><ele>-1.0</ele><time>2026-04-12T09:01:14.999Z</time></trkpt><trkpt lat="45.130628118023516" lon="12.200408402670297"><ele>-2.0</ele><time>2026-04-12T09:01:15.999Z</time></trkpt><trkpt lat="45.13043288246841" lon="12.200379314453942"><ele>-3.0</ele><time>2026-04-12T09:01:16.999Z</time></trkpt><trkpt lat="45.13022393107714" lon="12.200351967018557"><ele>-4.0</ele><time>2026-04-12T09:01:17.999Z</time></trkpt><trkpt lat="45.12999220182801" lon="12.200325684639724"><ele>-4.0</ele><time>2026-04-12T09:01:19Z</time></trkpt><trkpt lat="45.12975103632001" lon="12.200295503423547"><ele>-4.0</ele><time>2026-04-12T09:01:20Z</time></trkpt><trkpt lat="45.12951057055827" lon="12.200262784158726"><ele>-4.0</ele><time>2026-04-12T09:01:21Z</time></trkpt><trkpt lat="45.12925819389895" lon="12.200234324558714"><ele>-4.0</ele><time>2026-04-12T09:01:22Z</time></trkpt><trkpt lat="45.129014769851246" lon="12.20020859606117"><ele>-4.0</ele><time>2026-04-12T09:01:23Z</time></trkpt><trkpt lat="45.12877538367629" lon="12.200181018293804"><ele>-4.0</ele><time>2026-04-12T09:01:24Z</time></trkpt><trkpt lat="45.12854429880179" lon="12.200154818888256"><ele>-4.0</ele><time>2026-04-12T09:01:25Z</time></trkpt><trkpt lat="45.128311764487506" lon="12.20012815806529"><ele>-4.0</ele><time>2026-04-12T09:01:26Z</time></trkpt><trkpt lat="45.128077150376086" lon="12.200098696840982"><ele>-3.5</ele><time>2026-04-12T09:01:27Z</time></trkpt><trkpt lat="45.12784179873547" lon="12.200074053324593"><ele>-3.0</ele><time>2026-04-12T09:01:28Z</time></trkpt><trkpt lat="45.12760664902315" lon="12.200049046349529"><ele>-3.0</ele><time>2026-04-12T09:01:29Z</time></trkpt><trkpt lat="45.127371172285784" lon="12.200022259311769"><ele>-3.0</ele><time>2026-04-12T09:01:30Z</time></trkpt><trkpt lat="45.12713602665606" lon="12.199993885776674"><ele>-3.0</ele><time>2026-04-12T09:01:31Z</time></trkpt><trkpt lat="45.12689660581705" lon="12.199964257930183"><ele>-3.0</ele><time>2026-04-12T09:01:32Z</time></trkpt><trkpt lat="45.1266540543371" lon="12.199933097362845"><ele>-2.0</ele><time>2026-04-12T09:01:33Z</time></trkpt><trkpt lat="45.1264115653945" lon="12.199899962059433"><ele>-1.0</ele><time>2026-04-12T09:01:34Z</time></trkpt><trkpt lat="45.12617319949258" lon="12.19986930239376"><ele>-1.0</ele><time>2026-04-12T09:01:35Z</time></trkpt><trkpt lat="45.125934526836595" lon="12.19983923169354"><ele>-1.0</ele><time>2026-04-12T09:01:36Z</time></trkpt><trkpt lat="45.12569060563586" lon="12.19981648149345"><ele>-2.0</ele><time>2026-04-12T09:01:37Z</time></trkpt><trkpt lat="45.12545024889943" lon="12.199791428863891"><ele>-3.0</ele><time>2026-04-12T09:01:38Z</time></trkpt><trkpt lat="45.125205930096215" lon="12.199763018832115"><ele>-3.0</ele><time>2026-04-12T09:01:39Z</time></trkpt><trkpt lat="45.124971039277966" lon="12.199729602293104"><ele>-3.0</ele><time>2026-04-12T09:01:40Z</time></trkpt><trkpt lat="45.12472735861678" lon="12.199698705673603"><ele>-3.5</ele><time>2026-04-12T09:01:41Z</time></trkpt><trkpt lat="45.12448650740703" lon="12.199672533467027"><ele>-4.0</ele><time>2026-04-12T09:01:42Z</time></trkpt><trkpt lat="45.12424397313397" lon="12.199645200660234"><ele>-3.5</ele><time>2026-04-12T09:01:43Z</time></trkpt><trkpt lat="45.124003367098" lon="12.199616283764996"><ele>-3.0</ele><time>2026-04-12T09:01:44Z</time></trkpt><trkpt lat="45.12376146197675" lon="12.199586670195856"><ele>-3.0</ele><time>2026-04-12T09:01:45Z</time></trkpt><trkpt lat="45.12352433489367" lon="12.19955500114257"><ele>-3.0</ele><time>2026-04-12T09:01:46Z</time></trkpt><trkpt lat="45.1232897338186" lon="12.199524122667567"><ele>-3.0</ele><time>2026-04-12T09:01:47Z</time></trkpt><trkpt lat="45.12304646930548" lon="12.199496058797923"><ele>-3.0</ele><time>2026-04-12T09:01:48Z</time></trkpt><trkpt lat="45.12280998270624" lon="12.19947218679739"><ele>-3.0</ele><time>2026-04-12T09:01:49Z</time></trkpt><trkpt lat="45.12256606958232" lon="12.19944608022288"><ele>-3.0</ele><time>2026-04-12T09:01:50Z</time></trkpt><trkpt lat="45.12233138942834" lon="12.199420388847452"><ele>-3.5</ele><time>2026-04-12T09:01:51Z</time></trkpt><trkpt lat="45.122088893166264" lon="12.199393677534571"><ele>-4.0</ele><time>2026-04-12T09:01:52Z</time></trkpt><trkpt lat="45.12185376410433" lon="12.199364932914126"><ele>-4.0</ele><time>2026-04-12T09:01:53Z</time></trkpt><trkpt lat="45.121640670813186" lon="12.199337430601844"><ele>-4.0</ele><time>2026-04-12T09:01:54Z</time></trkpt><trkpt lat="45.12144866211607" lon="12.199316699989202"><ele>-4.0</ele><time>2026-04-12T09:01:55Z</time></trkpt><trkpt lat="45.12127787660143" lon="12.199298650026003"><ele>-3.5</ele><time>2026-04-12T09:01:56Z</time></trkpt><trkpt lat="45.1211428576446" lon="12.199259499479231"><ele>-3.0</ele><time>2026-04-12T09:01:57Z</time></trkpt><trkpt lat="45.12102411482617" lon="12.199234843787927"><ele>-2.5</ele><time>2026-04-12T09:01:58Z</time></trkpt><trkpt lat="45.12092139841972" lon="12.199215617175996"><ele>-2.0</ele><time>2026-04-12T09:01:59Z</time></trkpt><trkpt lat="45.12083531134738" lon="12.199117575640026"><ele>-2.6666666666666665</ele><time>2026-04-12T09:02:00Z</time></trkpt><trkpt lat="45.12075774787866" lon="12.198976590115096"><ele>-3.333333333333333</ele><time>2026-04-12T09:02:01Z</time></trkpt><trkpt lat="45.120675188050825" lon="12.198784630528994"><ele>-4.0</ele><time>2026-04-12T09:02:02Z</time></trkpt><trkpt lat="45.120571859783595" lon="12.198552653205759"><ele>-4.333333333333333</ele><time>2026-04-12T09:02:03Z</time></trkpt><trkpt lat="45.1204489500194" lon="12.198299523069299"><ele>-4.666666666666667</ele><time>2026-04-12T09:02:04Z</time></trkpt><trkpt lat="45.1203190613255" lon="12.198050994737"><ele>-5.0</ele><time>2026-04-12T09:02:05Z</time></trkpt><trkpt lat="45.12017766333541" lon="12.197773202566005"><ele>-5.0</ele><time>2026-04-12T09:02:06Z</time></trkpt><trkpt lat="45.120038641870984" lon="12.197491231474435"><ele>-5.0</ele><time>2026-04-12T09:02:07Z</time></trkpt><trkpt lat="45.119892964786864" lon="12.197195604814892"><ele>-3.5</ele><time>2026-04-12T09:02:08Z</time></trkpt><trkpt lat="45.119735064571145" lon="12.19688620329888"><ele>-2.0</ele><time>2026-04-12T09:02:09Z</time></trkpt><trkpt lat="45.1195718319405" lon="12.196562442197468"><ele>-3.0</ele><time>2026-04-12T09:02:10Z</time></trkpt><trkpt lat="45.11940849576371" lon="12.196229928509169"><ele>-4.0</ele><time>2026-04-12T09:02:11Z</time></trkpt><trkpt lat="45.119245677300306" lon="12.195898288546363"><ele>-4.0</ele><time>2026-04-12T09:02:12Z</time></trkpt><trkpt lat="45.1190795913317" lon="12.19556115448532"><ele>-4.0</ele><time>2026-04-12T09:02:13Z</time></trkpt><trkpt lat="45.11890807681704" lon="12.195218432489902"><ele>-4.0</ele><time>2026-04-12T09:02:14Z</time></trkpt><trkpt lat="45.11873563686663" lon="12.194870497445484"><ele>-4.0</ele><time>2026-04-12T09:02:15Z</time></trkpt><trkpt lat="45.11856185848205" lon="12.19450764692772"><ele>-4.0</ele><time>2026-04-12T09:02:16Z</time></trkpt><trkpt lat="45.1183808615017" lon="12.194146591991558"><ele>-4.0</ele><time>2026-04-12T09:02:17Z</time></trkpt><trkpt lat="45.118212568587836" lon="12.193765131614647"><ele>-4.0</ele><time>2026-04-12T09:02:18Z</time></trkpt><trkpt lat="45.11801624860685" lon="12.193393460174013"><ele>-4.0</ele><time>2026-04-12T09:02:19Z</time></trkpt><trkpt lat="45.11784635768226" lon="12.193039792595558"><ele>-4.0</ele><time>2026-04-12T09:02:20Z</time></trkpt><trkpt lat="45.11768693303793" lon="12.192720128674166"><ele>-4.0</ele><time>2026-04-12T09:02:21Z</time></trkpt><trkpt lat="45.117542221638665" lon="12.192424743014245"><ele>-4.0</ele><time>2026-04-12T09:02:22Z</time></trkpt><trkpt lat="45.11740062737975" lon="12.19212057407547"><ele>-4.0</ele><time>2026-04-12T09:02:23Z</time></trkpt><trkpt lat="45.11725243285864" lon="12.191818207408492"><ele>-4.0</ele><time>2026-04-12T09:02:24Z</time></trkpt><trkpt lat="45.117103777916284" lon="12.191517598817349"><ele>-4.0</ele><time>2026-04-12T09:02:25Z</time></trkpt><trkpt lat="45.11695043860549" lon="12.191206115243554"><ele>-4.0</ele><time>2026-04-12T09:02:26Z</time></trkpt><trkpt lat="45.11679180017972" lon="12.19088842101737"><ele>-4.0</ele><time>2026-04-12T09:02:27Z</time></trkpt><trkpt lat="45.116645549513784" lon="12.190546870073566"><ele>-2.5</ele><time>2026-04-12T09:02:28Z</time></trkpt><trkpt lat="45.11647696798175" lon="12.190240562330821"><ele>-1.0</ele><time>2026-04-12T09:02:29Z</time></trkpt><trkpt lat="45.1163366365014" lon="12.189953422069479"><ele>-1.0</ele><time>2026-04-12T09:02:30Z</time></trkpt><trkpt lat="45.116206788660804" lon="12.189691912046266"><ele>-1.0</ele><time>2026-04-12T09:02:31Z</time></trkpt><trkpt lat="45.1160826627067" lon="12.189444417581054"><ele>-1.0</ele><time>2026-04-12T09:02:32Z</time></trkpt><trkpt lat="45.115967364665444" lon="12.189222067729618"><ele>-1.0</ele><time>2026-04-12T09:02:33Z</time></trkpt><trkpt lat="45.11584294400547" lon="12.189002092586938"><ele>-1.0</ele><time>2026-04-12T09:02:34Z</time></trkpt><trkpt lat="45.11571083290254" lon="12.18878374534724"><ele>-1.0</ele><time>2026-04-12T09:02:35Z</time></trkpt><trkpt lat="45.1155707352646" lon="12.188563607310716"><ele>-1.0</ele><time>2026-04-12T09:02:36Z</time></trkpt><trkpt lat="45.11542287895157" lon="12.188365382955523"><ele>-1.0</ele><time>2026-04-12T09:02:37Z</time></trkpt><trkpt lat="45.115283041032285" lon="12.188190644615833"><ele>-1.0</ele><time>2026-04-12T09:02:38Z</time></trkpt><trkpt lat="45.115169340861996" lon="12.188013558194392"><ele>-1.0</ele><time>2026-04-12T09:02:39Z</time></trkpt><trkpt lat="45.11506446363767" lon="12.187874007940897"><ele>-1.0</ele><time>2026-04-12T09:02:40Z</time></trkpt><trkpt lat="45.114955587938134" lon="12.187765696826547"><ele>-1.0</ele><time>2026-04-12T09:02:41Z</time></trkpt><trkpt lat="45.11487135019658" lon="12.187644153193697"><ele>-1.0</ele><time>2026-04-12T09:02:42Z</time></trkpt><trkpt lat="45.11477200325624" lon="12.187465531200283"><ele>0.33333333333333337</ele><time>2026-04-12T09:02:44Z</time></trkpt><trkpt lat="45.11457004872757" lon="12.18758048764145"><ele>1.6666666666666667</ele><time>2026-04-12T09:02:46Z</time></trkpt><trkpt lat="45.114482468818885" lon="12.187699514229163"><ele>3.0</ele><time>2026-04-12T09:02:46.999Z</time></trkpt><trkpt lat="45.114396839879525" lon="12.187866968347178"><ele>3.0</ele><time>2026-04-12T09:02:47.999Z</time></trkpt><trkpt lat="45.11429081614445" lon="12.18806620725019"><ele>3.0</ele><time>2026-04-12T09:02:48.999Z</time></trkpt><trkpt lat="45.11417570732501" lon="12.188244295057723"><ele>3.0</ele><time>2026-04-12T09:02:49.999Z</time></trkpt><trkpt lat="45.11407342600867" lon="12.188381149797644"><ele>3.0</ele><time>2026-04-12T09:02:50.999Z</time></trkpt><trkpt lat="45.11398438036236" lon="12.188510719628667"><ele>3.0</ele><time>2026-04-12T09:02:51.999Z</time></trkpt><trkpt lat="45.11385130392453" lon="12.188596584065122"><ele>3.0</ele><time>2026-04-12T09:02:52.999Z</time></trkpt><trkpt lat="45.113776062201" lon="12.18882836598243"><ele>3.0</ele><time>2026-04-12T09:02:53.999Z</time></trkpt><trkpt lat="45.11368216315834" lon="12.18900419290011"><ele>3.0</ele><time>2026-04-12T09:02:54.999Z</time></trkpt><trkpt lat="45.11361505330674" lon="12.189158980481292"><ele>3.0</ele><time>2026-04-12T09:02:55.999Z</time></trkpt><trkpt lat="45.113558580514415" lon="12.189277538176539"><ele>3.0</ele><time>2026-04-12T09:02:56.999Z</time></trkpt><trkpt lat="45.113503033416485" lon="12.189358972823964"><ele>3.0</ele><time>2026-04-12T09:02:57.999Z</time></trkpt><trkpt lat="45.11343865748829" lon="12.189400001794835"><ele>3.0</ele><time>2026-04-12T09:02:58.999Z</time></trkpt><trkpt lat="45.11331301445428" lon="12.18930194042652"><ele>3.0</ele><time>2026-04-12T09:03:00.999Z</time></trkpt><trkpt lat="45.11323574401132" lon="12.189212351863233"><ele>3.0</ele><time>2026-04-12T09:03:01.999Z</time></trkpt><trkpt lat="45.11313733401964" lon="12.18909825380567"><ele>3.0</ele><time>2026-04-12T09:03:02.999Z</time></trkpt><trkpt lat="45.113015208425196" lon="12.188964227191248"><ele>3.0</ele><time>2026-04-12T09:03:03.999Z</time></trkpt><trkpt lat="45.11288749696731" lon="12.188819706431394"><ele>3.0</ele><time>2026-04-12T09:03:04.999Z</time></trkpt><trkpt lat="45.112783806746364" lon="12.188714189435283"><ele>3.0</ele><time>2026-04-12T09:03:05.999Z</time></trkpt><trkpt lat="45.11269993284095" lon="12.188606830381454"><ele>3.0</ele><time>2026-04-12T09:03:06.999Z</time></trkpt><trkpt lat="45.11262406294066" lon="12.188515682740814"><ele>3.0</ele><time>2026-04-12T09:03:07.999Z</time></trkpt><trkpt lat="45.112555887622015" lon="12.188428660711224"><ele>3.0</ele><time>2026-04-12T09:03:08.999Z</time></trkpt><trkpt lat="45.112489604717545" lon="12.18836700574134"><ele>3.0</ele><time>2026-04-12T09:03:09.999Z</time></trkpt><trkpt lat="45.11241818910719" lon="12.188347407741245"><ele>3.0</ele><time>2026-04-12T09:03:10.999Z</time></trkpt><trkpt lat="45.1123504471277" lon="12.188373077757756"><ele>3.0</ele><time>2026-04-12T09:03:11.999Z</time></trkpt><trkpt lat="45.1122682545282" lon="12.188434156092264"><ele>3.0</ele><time>2026-04-12T09:03:12.999Z</time></trkpt><trkpt lat="45.11217835841187" lon="12.1885598641695"><ele>2.0</ele><time>2026-04-12T09:03:13.999Z</time></trkpt><trkpt lat="45.11208599476135" lon="12.188722437418912"><ele>1.0</ele><time>2026-04-12T09:03:14.999Z</time></trkpt><trkpt lat="45.111987278211984" lon="12.188903570780774"><ele>0.0</ele><time>2026-04-12T09:03:15.999Z</time></trkpt><trkpt lat="45.11187436301262" lon="12.189105571898725"><ele>0.0</ele><time>2026-04-12T09:03:16.999Z</time></trkpt><trkpt lat="45.111750954630054" lon="12.189309052497377"><ele>0.0</ele><time>2026-04-12T09:03:17.999Z</time></trkpt><trkpt lat="45.111605748611986" lon="12.189523007452744"><ele>0.0</ele><time>2026-04-12T09:03:18.999Z</time></trkpt><trkpt lat="45.11144947387086" lon="12.189742421424722"><ele>-0.3333333333333333</ele><time>2026-04-12T09:03:19.999Z</time></trkpt><trkpt lat="45.11131199647439" lon="12.18995185925592"><ele>-0.6666666666666666</ele><time>2026-04-12T09:03:20.999Z</time></trkpt><trkpt lat="45.11115952962546" lon="12.190181717406517"><ele>-1.0</ele><time>2026-04-12T09:03:21.999Z</time></trkpt><trkpt lat="45.11099898495817" lon="12.190411854109447"><ele>-1.0</ele><time>2026-04-12T09:03:22.999Z</time></trkpt><trkpt lat="45.110838676318565" lon="12.190632734898573"><ele>-1.0</ele><time>2026-04-12T09:03:23.999Z</time></trkpt><trkpt lat="45.1106735372971" lon="12.190857249072833"><ele>-2.0</ele><time>2026-04-12T09:03:25Z</time></trkpt><trkpt lat="45.11050772582689" lon="12.191086288708641"><ele>-3.0</ele><time>2026-04-12T09:03:26Z</time></trkpt><trkpt lat="45.110335197688244" lon="12.191317472600465"><ele>-1.0</ele><time>2026-04-12T09:03:27Z</time></trkpt><trkpt lat="45.11015768673113" lon="12.191550543550994"><ele>1.0</ele><time>2026-04-12T09:03:28Z</time></trkpt><trkpt lat="45.10997874904905" lon="12.191785605135353"><ele>0.6666666666666666</ele><time>2026-04-12T09:03:29Z</time></trkpt><trkpt lat="45.1098057758944" lon="12.192011385489213"><ele>0.3333333333333333</ele><time>2026-04-12T09:03:30Z</time></trkpt><trkpt lat="45.10964993025879" lon="12.1922130054432"><ele>0.0</ele><time>2026-04-12T09:03:31Z</time></trkpt><trkpt lat="45.109496019538504" lon="12.19241546873488"><ele>0.0</ele><time>2026-04-12T09:03:32Z</time></trkpt><trkpt lat="45.1093381956078" lon="12.19263342824137"><ele>0.0</ele><time>2026-04-12T09:03:33Z</time></trkpt><trkpt lat="45.109171577315934" lon="12.192859048822438"><ele>-0.5</ele><time>2026-04-12T09:03:34Z</time></trkpt><trkpt lat="45.10900004623944" lon="12.193076895311597"><ele>-1.0</ele><time>2026-04-12T09:03:35Z</time></trkpt><trkpt lat="45.10883577143983" lon="12.193300858074746"><ele>-1.0</ele><time>2026-04-12T09:03:36Z</time></trkpt><trkpt lat="45.10867920779338" lon="12.193539686125193"><ele>-1.0</ele><time>2026-04-12T09:03:37Z</time></trkpt><trkpt lat="45.108528096038974" lon="12.193794819350202"><ele>-1.5</ele><time>2026-04-12T09:03:38Z</time></trkpt><trkpt lat="45.10837145763354" lon="12.194068131912534"><ele>-2.0</ele><time>2026-04-12T09:03:39Z</time></trkpt><trkpt lat="45.1082199152845" lon="12.194349627279246"><ele>-2.0</ele><time>2026-04-12T09:03:40Z</time></trkpt><trkpt lat="45.10806530071125" lon="12.194640930817245"><ele>-2.0</ele><time>2026-04-12T09:03:41Z</time></trkpt><trkpt lat="45.10790685537735" lon="12.19493870306495"><ele>-1.0</ele><time>2026-04-12T09:03:42Z</time></trkpt><trkpt lat="45.10774514845609" lon="12.195242634768713"><ele>0.0</ele><time>2026-04-12T09:03:43Z</time></trkpt><trkpt lat="45.10758250409065" lon="12.195552995778879"><ele>0.0</ele><time>2026-04-12T09:03:44Z</time></trkpt><trkpt lat="45.10742193587174" lon="12.195862124709008"><ele>0.0</ele><time>2026-04-12T09:03:45Z</time></trkpt><trkpt lat="45.10725609675362" lon="12.196173615739966"><ele>0.0</ele><time>2026-04-12T09:03:46Z</time></trkpt><trkpt lat="45.10709150593833" lon="12.196479770800178"><ele>0.0</ele><time>2026-04-12T09:03:47Z</time></trkpt><trkpt lat="45.10693621892912" lon="12.196776089382706"><ele>0.0</ele><time>2026-04-12T09:03:48Z</time></trkpt><trkpt lat="45.10678938000243" lon="12.197062337496522"><ele>0.0</ele><time>2026-04-12T09:03:49Z</time></trkpt><trkpt lat="45.1066447149713" lon="12.19734013665224"><ele>-1.5</ele><time>2026-04-12T09:03:50Z</time></trkpt><trkpt lat="45.10650590350577" lon="12.197610663394983"><ele>-3.0</ele><time>2026-04-12T09:03:51Z</time></trkpt><trkpt lat="45.106363529511775" lon="12.197883842962343"><ele>-3.0</ele><time>2026-04-12T09:03:52Z</time></trkpt><trkpt lat="45.10622712870932" lon="12.198160863634353"><ele>-3.0</ele><time>2026-04-12T09:03:53Z</time></trkpt><trkpt lat="45.10607052532164" lon="12.19842374481212"><ele>-1.5</ele><time>2026-04-12T09:03:54Z</time></trkpt><trkpt lat="45.10593462712307" lon="12.198709839267961"><ele>0.0</ele><time>2026-04-12T09:03:55Z</time></trkpt><trkpt lat="45.10579650477104" lon="12.199001600321763"><ele>-0.5</ele><time>2026-04-12T09:03:56Z</time></trkpt><trkpt lat="45.10565872018891" lon="12.199296448261075"><ele>-1.0</ele><time>2026-04-12T09:03:57Z</time></trkpt><trkpt lat="45.105523259348395" lon="12.19958632355325"><ele>-1.0</ele><time>2026-04-12T09:03:58Z</time></trkpt><trkpt lat="45.1054037269742" lon="12.199842113241584"><ele>-1.0</ele><time>2026-04-12T09:03:59Z</time></trkpt><trkpt lat="45.10529146586113" lon="12.20007384248097"><ele>-1.0</ele><time>2026-04-12T09:04:00Z</time></trkpt><trkpt lat="45.10519364526193" lon="12.20028778618437"><ele>-1.0</ele><time>2026-04-12T09:04:01Z</time></trkpt><trkpt lat="45.10508579862638" lon="12.200461879073428"><ele>-1.0</ele><time>2026-04-12T09:04:02Z</time></trkpt><trkpt lat="45.10499465470599" lon="12.200611597215083"><ele>-1.0</ele><time>2026-04-12T09:04:03Z</time></trkpt><trkpt lat="45.10493055635289" lon="12.200749483093027"><ele>-1.0</ele><time>2026-04-12T09:04:04Z</time></trkpt><trkpt lat="45.104891184025874" lon="12.200896251068022"><ele>-0.9999999999999999</ele><time>2026-04-12T09:04:05Z</time></trkpt><trkpt lat="45.10488041763578" lon="12.201045338368973"><ele>-1.0</ele><time>2026-04-12T09:04:06Z</time></trkpt><trkpt lat="45.10490136611809" lon="12.201167796250537"><ele>-1.0</ele><time>2026-04-12T09:04:07Z</time></trkpt><trkpt lat="45.10493803840733" lon="12.201264537602354"><ele>-1.0</ele><time>2026-04-12T09:04:08Z</time></trkpt><trkpt lat="45.10497302499652" lon="12.201371795511816"><ele>-0.9999999999999999</ele><time>2026-04-12T09:04:10Z</time></trkpt><trkpt lat="45.104923037162536" lon="12.201274984033558"><ele>-1.0</ele><time>2026-04-12T09:04:49Z</time></trkpt><trkpt lat="45.10490112184044" lon="12.2011516888277"><ele>-1.0</ele><time>2026-04-12T09:04:51Z</time></trkpt><trkpt lat="45.10488670114638" lon="12.201014695094571"><ele>-1.0</ele><time>2026-04-12T09:04:53Z</time></trkpt><trkpt lat="45.10477649332409" lon="12.200944565851993"><ele>-1.0</ele><time>2026-04-12T09:04:54Z</time></trkpt><trkpt lat="45.10473746955476" lon="12.2008521114108"><ele>-1.0</ele><time>2026-04-12T09:04:56Z</time></trkpt><trkpt lat="45.10478945937276" lon="12.200996506849801"><ele>-1.0</ele><time>2026-04-12T09:05:32Z</time></trkpt><trkpt lat="45.104818702449315" lon="12.201107161556545"><ele>-1.0</ele><time>2026-04-12T09:05:33Z</time></trkpt><trkpt lat="45.1048446216731" lon="12.20120934030907"><ele>-1.0</ele><time>2026-04-12T09:05:34Z</time></trkpt><trkpt lat="45.10490772064185" lon="12.201327325411352"><ele>-1.0</ele><time>2026-04-12T09:05:36Z</time></trkpt><trkpt lat="45.10497317691407" lon="12.201437917907766"><ele>-1.0</ele><time>2026-04-12T09:05:38Z</time></trkpt><trkpt lat="45.10501582543127" lon="12.201550128986636"><ele>-1.0</ele><time>2026-04-12T09:05:39Z</time></trkpt><trkpt lat="45.10504113605237" lon="12.201685906261956"><ele>-0.8</ele><time>2026-04-12T09:05:40Z</time></trkpt><trkpt lat="45.10504991012949" lon="12.201843436037365"><ele>-0.6000000000000001</ele><time>2026-04-12T09:05:41Z</time></trkpt><trkpt lat="45.10504482808432" lon="12.201993974154735"><ele>-0.4</ele><time>2026-04-12T09:05:42Z</time></trkpt><trkpt lat="45.105030924701175" lon="12.20213865854729"><ele>-0.2</ele><time>2026-04-12T09:05:43Z</time></trkpt><trkpt lat="45.1050056968301" lon="12.20226927843631"><ele>0.0</ele><time>2026-04-12T09:05:44Z</time></trkpt><trkpt lat="45.10496510490608" lon="12.202375063853959"><ele>0.0</ele><time>2026-04-12T09:05:45Z</time></trkpt><trkpt lat="45.104911344351365" lon="12.20245831603124"><ele>0.0</ele><time>2026-04-12T09:05:46Z</time></trkpt><trkpt lat="45.1048345978853" lon="12.202534823317187"><ele>0.0</ele><time>2026-04-12T09:05:47Z</time></trkpt><trkpt lat="45.10471919562338" lon="12.202563035357992"><ele>0.0</ele><time>2026-04-12T09:05:48Z</time></trkpt><trkpt lat="45.10462691331479" lon="12.20265810302989"><ele>0.0</ele><time>2026-04-12T09:05:49Z</time></trkpt><trkpt lat="45.10456245465516" lon="12.202768138702448"><ele>0.0</ele><time>2026-04-12T09:05:50Z</time></trkpt><trkpt lat="45.10440462795566" lon="12.202727234224357"><ele>0.0</ele><time>2026-04-12T09:05:51Z</time></trkpt><trkpt lat="45.104262354948006" lon="12.20269406806895"><ele>0.0</ele><time>2026-04-12T09:05:52Z</time></trkpt><trkpt lat="45.10408752878268" lon="12.202665612341697"><ele>-0.3333333333333333</ele><time>2026-04-12T09:05:53Z</time></trkpt><trkpt lat="45.103916001033404" lon="12.202601184960276"><ele>-0.6666666666666666</ele><time>2026-04-12T09:05:54Z</time></trkpt><trkpt lat="45.103720278711236" lon="12.202523434684073"><ele>-1.0</ele><time>2026-04-12T09:05:55Z</time></trkpt><trkpt lat="45.10351059136118" lon="12.202437156350783"><ele>-1.0</ele><time>2026-04-12T09:05:56Z</time></trkpt><trkpt lat="45.10329806287002" lon="12.202345283248265"><ele>-1.0</ele><time>2026-04-12T09:05:57Z</time></trkpt><trkpt lat="45.10307767287789" lon="12.202257382517406"><ele>-1.0</ele><time>2026-04-12T09:05:58Z</time></trkpt><trkpt lat="45.10286788038481" lon="12.202175157459678"><ele>-1.0</ele><time>2026-04-12T09:05:59Z</time></trkpt><trkpt lat="45.10265888637564" lon="12.202091873171133"><ele>-1.0</ele><time>2026-04-12T09:06:00Z</time></trkpt><trkpt lat="45.10245201796528" lon="12.202012232263995"><ele>-1.0</ele><time>2026-04-12T09:06:01Z</time></trkpt><trkpt lat="45.102247687001814" lon="12.201931362229308"><ele>-1.0</ele><time>2026-04-12T09:06:02Z</time></trkpt><trkpt lat="45.102046881247226" lon="12.201851144264404"><ele>-1.0</ele><time>2026-04-12T09:06:03Z</time></trkpt><trkpt lat="45.101848962575644" lon="12.20177208152379"><ele>-1.0</ele><time>2026-04-12T09:06:04Z</time></trkpt><trkpt lat="45.1016499786032" lon="12.201690021536592"><ele>-1.0</ele><time>2026-04-12T09:06:05Z</time></trkpt><trkpt lat="45.10146202441308" lon="12.201585156616824"><ele>-1.0</ele><time>2026-04-12T09:06:06Z</time></trkpt><trkpt lat="45.10127581567349" lon="12.201470277542596"><ele>-1.3333333333333333</ele><time>2026-04-12T09:06:07Z</time></trkpt><trkpt lat="45.10109174331483" lon="12.201339113262453"><ele>-1.6666666666666665</ele><time>2026-04-12T09:06:08Z</time></trkpt><trkpt lat="45.10091237736449" lon="12.201193681236676"><ele>-2.0</ele><time>2026-04-12T09:06:09Z</time></trkpt><trkpt lat="45.10073606791251" lon="12.201041398235775"><ele>-2.0</ele><time>2026-04-12T09:06:10Z</time></trkpt><trkpt lat="45.10055530919532" lon="12.200887571842017"><ele>-2.0</ele><time>2026-04-12T09:06:11Z</time></trkpt><trkpt lat="45.10037725639799" lon="12.200716478297288"><ele>-2.0</ele><time>2026-04-12T09:06:12Z</time></trkpt><trkpt lat="45.10019839285547" lon="12.200535500364888"><ele>-1.6666666666666665</ele><time>2026-04-12T09:06:13Z</time></trkpt><trkpt lat="45.100024121079045" lon="12.200344660401697"><ele>-1.3333333333333333</ele><time>2026-04-12T09:06:14Z</time></trkpt><trkpt lat="45.099852305227316" lon="12.200150399408894"><ele>-1.0</ele><time>2026-04-12T09:06:15Z</time></trkpt><trkpt lat="45.099684928366" lon="12.199951386227522"><ele>-1.0</ele><time>2026-04-12T09:06:16Z</time></trkpt><trkpt lat="45.09952161369496" lon="12.199740934481062"><ele>-1.0</ele><time>2026-04-12T09:06:17Z</time></trkpt><trkpt lat="45.09937095024968" lon="12.199511256232949"><ele>-1.0</ele><time>2026-04-12T09:06:18Z</time></trkpt><trkpt lat="45.099220293145535" lon="12.199280449345187"><ele>-1.3333333333333333</ele><time>2026-04-12T09:06:19Z</time></trkpt><trkpt lat="45.09907245691388" lon="12.199049638472717"><ele>-1.6666666666666665</ele><time>2026-04-12T09:06:20Z</time></trkpt><trkpt lat="45.098928313763324" lon="12.198819549808208"><ele>-2.0</ele><time>2026-04-12T09:06:21Z</time></trkpt><trkpt lat="45.09878420272644" lon="12.19858954235648"><ele>-2.0</ele><time>2026-04-12T09:06:22Z</time></trkpt><trkpt lat="45.098641587654846" lon="12.198360122553343"><ele>-2.0</ele><time>2026-04-12T09:06:23Z</time></trkpt><trkpt lat="45.09849903711847" lon="12.198130650794319"><ele>-2.0</ele><time>2026-04-12T09:06:24Z</time></trkpt><trkpt lat="45.098360569316284" lon="12.197897521642046"><ele>-2.0</ele><time>2026-04-12T09:06:25Z</time></trkpt><trkpt lat="45.098237676962356" lon="12.19765549132082"><ele>-2.0</ele><time>2026-04-12T09:06:26Z</time></trkpt><trkpt lat="45.09812662517383" lon="12.197396540700495"><ele>-2.0</ele><time>2026-04-12T09:06:27Z</time></trkpt><trkpt lat="45.098029031031516" lon="12.197140906223462"><ele>-1.6666666666666665</ele><time>2026-04-12T09:06:28Z</time></trkpt><trkpt lat="45.09794356041625" lon="12.196900946185245"><ele>-1.3333333333333333</ele><time>2026-04-12T09:06:29Z</time></trkpt><trkpt lat="45.09785489620947" lon="12.196680088027733"><ele>-1.0</ele><time>2026-04-12T09:06:30Z</time></trkpt><trkpt lat="45.09775201693163" lon="12.196493003215656"><ele>-1.3333333333333333</ele><time>2026-04-12T09:06:31Z</time></trkpt><trkpt lat="45.097607794098906" lon="12.196325069133406"><ele>-1.6666666666666665</ele><time>2026-04-12T09:06:32Z</time></trkpt><trkpt lat="45.09747348295036" lon="12.19616493186362"><ele>-2.0</ele><time>2026-04-12T09:06:33Z</time></trkpt><trkpt lat="45.09736008257599" lon="12.196004011892716"><ele>-2.0</ele><time>2026-04-12T09:06:34Z</time></trkpt><trkpt lat="45.097236512010106" lon="12.195866202791322"><ele>-2.0</ele><time>2026-04-12T09:06:35Z</time></trkpt><trkpt lat="45.09709851619201" lon="12.195736643507333"><ele>-2.0</ele><time>2026-04-12T09:06:36Z</time></trkpt><trkpt lat="45.09694624065094" lon="12.195629984854067"><ele>-2.0</ele><time>2026-04-12T09:06:37Z</time></trkpt><trkpt lat="45.09678394200208" lon="12.19553200141166"><ele>-2.0</ele><time>2026-04-12T09:06:38Z</time></trkpt><trkpt lat="45.09661413594191" lon="12.195453869371836"><ele>-2.0</ele><time>2026-04-12T09:06:39Z</time></trkpt><trkpt lat="45.09643743644619" lon="12.195423260565203"><ele>-2.0</ele><time>2026-04-12T09:06:40Z</time></trkpt><trkpt lat="45.09627721531168" lon="12.195399223960187"><ele>-2.0</ele><time>2026-04-12T09:06:41Z</time></trkpt><trkpt lat="45.09613523039232" lon="12.195419316924504"><ele>-2.0</ele><time>2026-04-12T09:06:42Z</time></trkpt><trkpt lat="45.095989803086056" lon="12.195462892464002"><ele>-2.0</ele><time>2026-04-12T09:06:43Z</time></trkpt><trkpt lat="45.09583413024561" lon="12.195549786033904"><ele>-2.0</ele><time>2026-04-12T09:06:44Z</time></trkpt><trkpt lat="45.09566669601696" lon="12.195673401396277"><ele>-2.0</ele><time>2026-04-12T09:06:45Z</time></trkpt><trkpt lat="45.095505651944904" lon="12.19583012306798"><ele>-2.0</ele><time>2026-04-12T09:06:46Z</time></trkpt><trkpt lat="45.09536377292265" lon="12.196012361617719"><ele>-2.0</ele><time>2026-04-12T09:06:47Z</time></trkpt><trkpt lat="45.095237672118046" lon="12.196233567492149"><ele>-2.0</ele><time>2026-04-12T09:06:48Z</time></trkpt><trkpt lat="45.095128956932875" lon="12.196448354111855"><ele>-2.0</ele><time>2026-04-12T09:06:49Z</time></trkpt><trkpt lat="45.09505026773695" lon="12.196652990062253"><ele>-2.0</ele><time>2026-04-12T09:06:50Z</time></trkpt><trkpt lat="45.09497294222193" lon="12.196880020254868"><ele>-2.0</ele><time>2026-04-12T09:06:51Z</time></trkpt><trkpt lat="45.0949069286228" lon="12.197120477485251"><ele>-2.333333333333333</ele><time>2026-04-12T09:06:52Z</time></trkpt><trkpt lat="45.09485185242174" lon="12.197369385300366"><ele>-2.6666666666666665</ele><time>2026-04-12T09:06:53Z</time></trkpt><trkpt lat="45.09481274444778" lon="12.197608424322848"><ele>-3.0</ele><time>2026-04-12T09:06:54Z</time></trkpt><trkpt lat="45.094774709772885" lon="12.197828346549008"><ele>-3.0</ele><time>2026-04-12T09:06:55Z</time></trkpt><trkpt lat="45.09473273410798" lon="12.198024046563225"><ele>-3.0</ele><time>2026-04-12T09:06:56Z</time></trkpt><trkpt lat="45.09468852215108" lon="12.198187833544356"><ele>-3.0</ele><time>2026-04-12T09:06:57Z</time></trkpt><trkpt lat="45.09462462319363" lon="12.198327670119715"><ele>-3.0</ele><time>2026-04-12T09:06:58Z</time></trkpt><trkpt lat="45.09453424115165" lon="12.19843190973481"><ele>-2.75</ele><time>2026-04-12T09:06:59Z</time></trkpt><trkpt lat="45.09441700185891" lon="12.198508956413134"><ele>-2.5</ele><time>2026-04-12T09:07:00Z</time></trkpt><trkpt lat="45.09428299913686" lon="12.198527610107584"><ele>-2.25</ele><time>2026-04-12T09:07:01Z</time></trkpt><trkpt lat="45.094149095296395" lon="12.198536473325401"><ele>-2.0</ele><time>2026-04-12T09:07:02Z</time></trkpt><trkpt lat="45.09402361780498" lon="12.198477346930131"><ele>-3.0</ele><time>2026-04-12T09:07:03Z</time></trkpt><trkpt lat="45.09387603375423" lon="12.198393578095201"><ele>-4.0</ele><time>2026-04-12T09:07:04Z</time></trkpt><trkpt lat="45.09370539946866" lon="12.198295056030712"><ele>-5.0</ele><time>2026-04-12T09:07:05Z</time></trkpt><trkpt lat="45.093514146286616" lon="12.198220335252097"><ele>-5.0</ele><time>2026-04-12T09:07:06Z</time></trkpt><trkpt lat="45.093306050820125" lon="12.198129572176835"><ele>-5.0</ele><time>2026-04-12T09:07:07Z</time></trkpt><trkpt lat="45.093099882505854" lon="12.198062830504046"><ele>-5.0</ele><time>2026-04-12T09:07:07.999Z</time></trkpt><trkpt lat="45.09287907538737" lon="12.19796832192094"><ele>-5.0</ele><time>2026-04-12T09:07:08.999Z</time></trkpt><trkpt lat="45.09264696449161" lon="12.197894204603452"><ele>-5.0</ele><time>2026-04-12T09:07:09.999Z</time></trkpt><trkpt lat="45.09241886141818" lon="12.197821367053578"><ele>-4.5</ele><time>2026-04-12T09:07:10.999Z</time></trkpt><trkpt lat="45.09219095305056" lon="12.197748593598705"><ele>-4.0</ele><time>2026-04-12T09:07:11.999Z</time></trkpt><trkpt lat="45.09195900116232" lon="12.197697456344116"><ele>-4.0</ele><time>2026-04-12T09:07:12.999Z</time></trkpt><trkpt lat="45.091727608885606" lon="12.197599235546425"><ele>-4.0</ele><time>2026-04-12T09:07:13.999Z</time></trkpt><trkpt lat="45.091490542366884" lon="12.197549265731803"><ele>-4.0</ele><time>2026-04-12T09:07:14.999Z</time></trkpt><trkpt lat="45.09125566675027" lon="12.1974760311191"><ele>-4.0</ele><time>2026-04-12T09:07:15.999Z</time></trkpt><trkpt lat="45.09102593146087" lon="12.197406305220285"><ele>-4.0</ele><time>2026-04-12T09:07:16.999Z</time></trkpt><trkpt lat="45.09080150402122" lon="12.197309236981154"><ele>-4.0</ele><time>2026-04-12T09:07:17.999Z</time></trkpt><trkpt lat="45.09057076911634" lon="12.197234862165693"><ele>-3.5</ele><time>2026-04-12T09:07:18.999Z</time></trkpt><trkpt lat="45.09033265784781" lon="12.197177554952843"><ele>-3.0</ele><time>2026-04-12T09:07:19.999Z</time></trkpt><trkpt lat="45.09009952701975" lon="12.197102899212029"><ele>-3.5</ele><time>2026-04-12T09:07:20.999Z</time></trkpt><trkpt lat="45.089867725960225" lon="12.197031784998712"><ele>-4.0</ele><time>2026-04-12T09:07:21.999Z</time></trkpt><trkpt lat="45.08963969865997" lon="12.19693527569114"><ele>-4.0</ele><time>2026-04-12T09:07:22.999Z</time></trkpt><trkpt lat="45.08940416412367" lon="12.196859955089646"><ele>-4.0</ele><time>2026-04-12T09:07:23.999Z</time></trkpt><trkpt lat="45.08917192103235" lon="12.196783534948818"><ele>-3.5</ele><time>2026-04-12T09:07:24.999Z</time></trkpt><trkpt lat="45.088938681480705" lon="12.19670536319187"><ele>-3.0</ele><time>2026-04-12T09:07:25.999Z</time></trkpt><trkpt lat="45.08870206855677" lon="12.196648916510075"><ele>-3.0</ele><time>2026-04-12T09:07:26.999Z</time></trkpt><trkpt lat="45.08847013377994" lon="12.19654574153832"><ele>-3.0</ele><time>2026-04-12T09:07:27.999Z</time></trkpt><trkpt lat="45.08823182782128" lon="12.19646483374642"><ele>-3.0</ele><time>2026-04-12T09:07:28.999Z</time></trkpt><trkpt lat="45.087993245338644" lon="12.19638718982381"><ele>-3.0</ele><time>2026-04-12T09:07:29.999Z</time></trkpt><trkpt lat="45.08775915044954" lon="12.19631198721152"><ele>-3.0</ele><time>2026-04-12T09:07:30.999Z</time></trkpt><trkpt lat="45.08752586800213" lon="12.19623451379367"><ele>-3.0</ele><time>2026-04-12T09:07:31.999Z</time></trkpt><trkpt lat="45.08729212805249" lon="12.19615678156046"><ele>-3.0</ele><time>2026-04-12T09:07:32.999Z</time></trkpt><trkpt lat="45.08705480315838" lon="12.196077789309754"><ele>-3.0</ele><time>2026-04-12T09:07:33.999Z</time></trkpt><trkpt lat="45.08681910642458" lon="12.19600053655708"><ele>-3.5</ele><time>2026-04-12T09:07:34.999Z</time></trkpt><trkpt lat="45.086581559808664" lon="12.195951110831468"><ele>-4.0</ele><time>2026-04-12T09:07:35.999Z</time></trkpt><trkpt lat="45.08634240868063" lon="12.195871050496347"><ele>-4.0</ele><time>2026-04-12T09:07:37Z</time></trkpt><trkpt lat="45.08611633539934" lon="12.195773443094355"><ele>-4.0</ele><time>2026-04-12T09:07:38Z</time></trkpt><trkpt lat="45.08588165533724" lon="12.195698828925941"><ele>-3.5</ele><time>2026-04-12T09:07:39Z</time></trkpt><trkpt lat="45.08564454861772" lon="12.195623577738983"><ele>-3.0</ele><time>2026-04-12T09:07:40Z</time></trkpt><trkpt lat="45.085413865446284" lon="12.195550297941699"><ele>-3.0</ele><time>2026-04-12T09:07:41Z</time></trkpt><trkpt lat="45.0851748535666" lon="12.195497729273983"><ele>-3.0</ele><time>2026-04-12T09:07:42Z</time></trkpt><trkpt lat="45.084946029213654" lon="12.195400567442391"><ele>-3.0</ele><time>2026-04-12T09:07:43Z</time></trkpt><trkpt lat="45.08471618464052" lon="12.195325678560614"><ele>-3.0</ele><time>2026-04-12T09:07:44Z</time></trkpt><trkpt lat="45.08448454175754" lon="12.195250073171456"><ele>-3.0</ele><time>2026-04-12T09:07:45Z</time></trkpt><trkpt lat="45.08424873736999" lon="12.195173932168709"><ele>-3.0</ele><time>2026-04-12T09:07:46Z</time></trkpt><trkpt lat="45.08401687011296" lon="12.195100115863289"><ele>-3.5</ele><time>2026-04-12T09:07:47Z</time></trkpt><trkpt lat="45.08378106557234" lon="12.195024678851388"><ele>-4.0</ele><time>2026-04-12T09:07:48Z</time></trkpt><trkpt lat="45.08354766702043" lon="12.194950011554397"><ele>-4.0</ele><time>2026-04-12T09:07:49Z</time></trkpt><trkpt lat="45.08331248795658" lon="12.194874310971139"><ele>-4.0</ele><time>2026-04-12T09:07:50Z</time></trkpt><trkpt lat="45.08307747689864" lon="12.194797420497958"><ele>-4.0</ele><time>2026-04-12T09:07:51Z</time></trkpt><trkpt lat="45.082842592687165" lon="12.194720570108078"><ele>-4.0</ele><time>2026-04-12T09:07:52Z</time></trkpt><trkpt lat="45.082607871314295" lon="12.194643772996654"><ele>-3.0</ele><time>2026-04-12T09:07:53Z</time></trkpt><trkpt lat="45.08236845036327" lon="12.194606593640431"><ele>-2.0</ele><time>2026-04-12T09:07:54Z</time></trkpt><trkpt lat="45.08213397384438" lon="12.194540447493218"><ele>-2.0</ele><time>2026-04-12T09:07:55Z</time></trkpt><trkpt lat="45.081897586958554" lon="12.194475737401252"><ele>-2.0</ele><time>2026-04-12T09:07:56Z</time></trkpt><trkpt lat="45.08166009392518" lon="12.194422859162845"><ele>-2.5</ele><time>2026-04-12T09:07:57Z</time></trkpt><trkpt lat="45.08142314199482" lon="12.194381073897322"><ele>-3.0</ele><time>2026-04-12T09:07:58Z</time></trkpt><trkpt lat="45.08118512513166" lon="12.194359250065142"><ele>-3.0</ele><time>2026-04-12T09:07:59Z</time></trkpt><trkpt lat="45.08094895547372" lon="12.19435462937822"><ele>-3.0</ele><time>2026-04-12T09:08:00Z</time></trkpt><trkpt lat="45.08074061953533" lon="12.194359701928096"><ele>-3.0</ele><time>2026-04-12T09:08:01Z</time></trkpt><trkpt lat="45.08053570983293" lon="12.19434749678264"><ele>-3.333333333333333</ele><time>2026-04-12T09:08:02Z</time></trkpt><trkpt lat="45.08032548656084" lon="12.194296316694828"><ele>-3.6666666666666665</ele><time>2026-04-12T09:08:03Z</time></trkpt><trkpt lat="45.08011859022489" lon="12.194214108549176"><ele>-4.0</ele><time>2026-04-12T09:08:04Z</time></trkpt><trkpt lat="45.07991736971263" lon="12.194109912015557"><ele>-3.6666666666666665</ele><time>2026-04-12T09:08:05Z</time></trkpt><trkpt lat="45.079719438923995" lon="12.193984314310695"><ele>-3.333333333333333</ele><time>2026-04-12T09:08:06Z</time></trkpt><trkpt lat="45.07953672963082" lon="12.193837777782303"><ele>-3.0</ele><time>2026-04-12T09:08:07Z</time></trkpt><trkpt lat="45.07936447228661" lon="12.193709864600288"><ele>-3.0</ele><time>2026-04-12T09:08:08Z</time></trkpt><trkpt lat="45.07918011963237" lon="12.193615755705967"><ele>-3.0</ele><time>2026-04-12T09:08:09Z</time></trkpt><trkpt lat="45.07899469309269" lon="12.193548047996158"><ele>-3.0</ele><time>2026-04-12T09:08:10Z</time></trkpt><trkpt lat="45.078802757733264" lon="12.19348807248026"><ele>-3.0</ele><time>2026-04-12T09:08:11Z</time></trkpt><trkpt lat="45.07859150922826" lon="12.193433672826266"><ele>-3.0</ele><time>2026-04-12T09:08:12Z</time></trkpt><trkpt lat="45.078370862999165" lon="12.193388641159968"><ele>-3.0</ele><time>2026-04-12T09:08:13Z</time></trkpt><trkpt lat="45.07813299457603" lon="12.193334757146935"><ele>-3.0</ele><time>2026-04-12T09:08:14Z</time></trkpt><trkpt lat="45.077890071814956" lon="12.193275217761602"><ele>-3.0</ele><time>2026-04-12T09:08:15Z</time></trkpt><trkpt lat="45.07764984018928" lon="12.193216766618473"><ele>-1.5</ele><time>2026-04-12T09:08:16Z</time></trkpt><trkpt lat="45.07740606472334" lon="12.193151851888558"><ele>0.0</ele><time>2026-04-12T09:08:17Z</time></trkpt><trkpt lat="45.077169252974734" lon="12.193091198608935"><ele>0.0</ele><time>2026-04-12T09:08:18Z</time></trkpt><trkpt lat="45.076931502589076" lon="12.193038348704599"><ele>0.0</ele><time>2026-04-12T09:08:19Z</time></trkpt><trkpt lat="45.07669639592345" lon="12.192987860403548"><ele>-1.0</ele><time>2026-04-12T09:08:20Z</time></trkpt><trkpt lat="45.07645788226323" lon="12.192936537576394"><ele>-2.0</ele><time>2026-04-12T09:08:21Z</time></trkpt><trkpt lat="45.07622472502701" lon="12.192875424272925"><ele>-2.0</ele><time>2026-04-12T09:08:22Z</time></trkpt><trkpt lat="45.07599984278061" lon="12.192808935048085"><ele>-2.0</ele><time>2026-04-12T09:08:23Z</time></trkpt><trkpt lat="45.075765978129596" lon="12.192741637376638"><ele>-2.0</ele><time>2026-04-12T09:08:24Z</time></trkpt><trkpt lat="45.07553014524331" lon="12.192672708468967"><ele>-2.0</ele><time>2026-04-12T09:08:25Z</time></trkpt><trkpt lat="45.07529610595537" lon="12.19260662928114"><ele>-2.0</ele><time>2026-04-12T09:08:26Z</time></trkpt><trkpt lat="45.0750578221901" lon="12.192537538036511"><ele>-2.0</ele><time>2026-04-12T09:08:27Z</time></trkpt><trkpt lat="45.074826199050904" lon="12.192460088910057"><ele>-2.0</ele><time>2026-04-12T09:08:28Z</time></trkpt><trkpt lat="45.074595451682924" lon="12.192381757454946"><ele>-2.0</ele><time>2026-04-12T09:08:29Z</time></trkpt><trkpt lat="45.07436476232193" lon="12.192305879484108"><ele>-2.0</ele><time>2026-04-12T09:08:30Z</time></trkpt><trkpt lat="45.07413111206466" lon="12.192232820198134"><ele>-2.0</ele><time>2026-04-12T09:08:31Z</time></trkpt><trkpt lat="45.07389319773803" lon="12.192162399613931"><ele>-2.0</ele><time>2026-04-12T09:08:32Z</time></trkpt><trkpt lat="45.07365895370399" lon="12.192086923498607"><ele>-2.0</ele><time>2026-04-12T09:08:33Z</time></trkpt><trkpt lat="45.07342124216647" lon="12.19200956095391"><ele>-2.5</ele><time>2026-04-12T09:08:34Z</time></trkpt><trkpt lat="45.07318508641056" lon="12.191939595546513"><ele>-3.0</ele><time>2026-04-12T09:08:35Z</time></trkpt><trkpt lat="45.07294856128319" lon="12.191872107230841"><ele>-3.0</ele><time>2026-04-12T09:08:36Z</time></trkpt><trkpt lat="45.072714612311216" lon="12.191804315094723"><ele>-3.0</ele><time>2026-04-12T09:08:37Z</time></trkpt><trkpt lat="45.07248475893279" lon="12.191734302611504"><ele>-3.0</ele><time>2026-04-12T09:08:38Z</time></trkpt><trkpt lat="45.07224400867086" lon="12.191658858536623"><ele>-3.0</ele><time>2026-04-12T09:08:39Z</time></trkpt><trkpt lat="45.072007780843364" lon="12.191583755527148"><ele>-3.0</ele><time>2026-04-12T09:08:40Z</time></trkpt><trkpt lat="45.07177291879149" lon="12.191510874144283"><ele>-3.0</ele><time>2026-04-12T09:08:41Z</time></trkpt><trkpt lat="45.07153766607106" lon="12.191436230024673"><ele>-3.0</ele><time>2026-04-12T09:08:42Z</time></trkpt><trkpt lat="45.07130010873579" lon="12.191361072317351"><ele>-3.0</ele><time>2026-04-12T09:08:43Z</time></trkpt><trkpt lat="45.07106643750604" lon="12.19129035029065"><ele>-3.0</ele><time>2026-04-12T09:08:44Z</time></trkpt><trkpt lat="45.070832591477995" lon="12.191221510242448"><ele>-3.0</ele><time>2026-04-12T09:08:45Z</time></trkpt><trkpt lat="45.07059546160439" lon="12.191143732195066"><ele>-2.5</ele><time>2026-04-12T09:08:46Z</time></trkpt><trkpt lat="45.070361252068786" lon="12.191068806491087"><ele>-2.0</ele><time>2026-04-12T09:08:47Z</time></trkpt><trkpt lat="45.070134696078625" lon="12.191002495508686"><ele>-2.333333333333333</ele><time>2026-04-12T09:08:48Z</time></trkpt><trkpt lat="45.06993305782809" lon="12.190943515454098"><ele>-2.6666666666666665</ele><time>2026-04-12T09:08:49Z</time></trkpt><trkpt lat="45.06974426820663" lon="12.190886182072806"><ele>-3.0</ele><time>2026-04-12T09:08:50Z</time></trkpt><trkpt lat="45.06956529974085" lon="12.190831612268296"><ele>-3.0</ele><time>2026-04-12T09:08:51Z</time></trkpt><trkpt lat="45.06938810620858" lon="12.190776515410104"><ele>-3.0</ele><time>2026-04-12T09:08:52Z</time></trkpt><trkpt lat="45.06921559149521" lon="12.190721387373415"><ele>-3.0</ele><time>2026-04-12T09:08:53Z</time></trkpt><trkpt lat="45.06903901066353" lon="12.190664455536913"><ele>-3.0</ele><time>2026-04-12T09:08:54Z</time></trkpt><trkpt lat="45.06867386858097" lon="12.19055794643769"><ele>-3.0</ele><time>2026-04-12T09:08:56Z</time></trkpt><trkpt lat="45.068492622394245" lon="12.190500921436909"><ele>-3.0</ele><time>2026-04-12T09:08:57Z</time></trkpt><trkpt lat="45.06830833460832" lon="12.19044450078758"><ele>-3.0</ele><time>2026-04-12T09:08:58Z</time></trkpt><trkpt lat="45.06812122741478" lon="12.190392737274044"><ele>-3.0</ele><time>2026-04-12T09:08:58.999Z</time></trkpt><trkpt lat="45.067929377605424" lon="12.190334617644742"><ele>-3.0</ele><time>2026-04-12T09:08:59.999Z</time></trkpt><trkpt lat="45.06773238660233" lon="12.190274884500424"><ele>-3.0</ele><time>2026-04-12T09:09:00.999Z</time></trkpt><trkpt lat="45.06752665603335" lon="12.190216644841552"><ele>-3.0</ele><time>2026-04-12T09:09:01.999Z</time></trkpt><trkpt lat="45.06731715842552" lon="12.19015971850367"><ele>-2.6666666666666665</ele><time>2026-04-12T09:09:02.999Z</time></trkpt><trkpt lat="45.06711473169666" lon="12.190099274035882"><ele>-2.333333333333333</ele><time>2026-04-12T09:09:03.999Z</time></trkpt><trkpt lat="45.066934394106895" lon="12.190026000482362"><ele>-2.0</ele><time>2026-04-12T09:09:04.999Z</time></trkpt><trkpt lat="45.066773036160974" lon="12.189978376624271"><ele>-2.0</ele><time>2026-04-12T09:09:05.999Z</time></trkpt><trkpt lat="45.06660737515307" lon="12.189928604347468"><ele>-2.0</ele><time>2026-04-12T09:09:06.999Z</time></trkpt><trkpt lat="45.06646043392619" lon="12.189901429812794"><ele>-2.0</ele><time>2026-04-12T09:09:07.999Z</time></trkpt><trkpt lat="45.06633069840554" lon="12.189851532943607"><ele>-1.9999999999999998</ele><time>2026-04-12T09:09:08.999Z</time></trkpt><trkpt lat="45.06621747007441" lon="12.189809078617849"><ele>-2.0</ele><time>2026-04-12T09:09:09.999Z</time></trkpt><trkpt lat="45.06611651227991" lon="12.189767154641384"><ele>-2.0</ele><time>2026-04-12T09:09:10.999Z</time></trkpt><trkpt lat="45.0660366349253" lon="12.18974179236492"><ele>-2.0</ele><time>2026-04-12T09:09:11.999Z</time></trkpt><trkpt lat="45.065976661841745" lon="12.189698449386649"><ele>-1.9999999999999998</ele><time>2026-04-12T09:09:12.999Z</time></trkpt><trkpt lat="45.06590467206174" lon="12.189688013621945"><ele>-2.0</ele><time>2026-04-12T09:09:14.999Z</time></trkpt><trkpt lat="45.065870237827205" lon="12.18994568135663"><ele>-2.0</ele><time>2026-04-12T09:09:15.999Z</time></trkpt><trkpt lat="45.06585779612654" lon="12.190119636763455"><ele>-2.0</ele><time>2026-04-12T09:09:16.999Z</time></trkpt><trkpt lat="45.06582255348583" lon="12.19033630298075"><ele>-2.0</ele><time>2026-04-12T09:09:17.999Z</time></trkpt><trkpt lat="45.06576866802826" lon="12.190585993223669"><ele>-2.6666666666666665</ele><time>2026-04-12T09:09:18.999Z</time></trkpt><trkpt lat="45.06571996080195" lon="12.190856499455176"><ele>-3.333333333333333</ele><time>2026-04-12T09:09:19.999Z</time></trkpt><trkpt lat="45.06567256675176" lon="12.191151567534241"><ele>-4.0</ele><time>2026-04-12T09:09:20.999Z</time></trkpt><trkpt lat="45.0656135575511" lon="12.191460571196409"><ele>-4.0</ele><time>2026-04-12T09:09:21.999Z</time></trkpt><trkpt lat="45.06555121480899" lon="12.191766150025058"><ele>-4.0</ele><time>2026-04-12T09:09:22.999Z</time></trkpt><trkpt lat="45.06549554365966" lon="12.19209060407107"><ele>-4.333333333333333</ele><time>2026-04-12T09:09:23.999Z</time></trkpt><trkpt lat="45.06545701061318" lon="12.192397004896112"><ele>-4.666666666666667</ele><time>2026-04-12T09:09:24.999Z</time></trkpt><trkpt lat="45.0654337084511" lon="12.192662623137094"><ele>-5.0</ele><time>2026-04-12T09:09:25.999Z</time></trkpt><trkpt lat="45.06541199020399" lon="12.192910745925333"><ele>-5.0</ele><time>2026-04-12T09:09:26.999Z</time></trkpt><trkpt lat="45.06538950399772" lon="12.193142893408359"><ele>-5.0</ele><time>2026-04-12T09:09:27.999Z</time></trkpt><trkpt lat="45.06536837272828" lon="12.193350555272664"><ele>-5.0</ele><time>2026-04-12T09:09:28.999Z</time></trkpt><trkpt lat="45.065350216087026" lon="12.193546013577327"><ele>-4.75</ele><time>2026-04-12T09:09:29.999Z</time></trkpt><trkpt lat="45.06533516203208" lon="12.19373151521544"><ele>-4.5</ele><time>2026-04-12T09:09:30.999Z</time></trkpt><trkpt lat="45.065319755361706" lon="12.193904571740015"><ele>-4.25</ele><time>2026-04-12T09:09:31.999Z</time></trkpt><trkpt lat="45.06530040007905" lon="12.19405928303221"><ele>-4.0</ele><time>2026-04-12T09:09:32.999Z</time></trkpt><trkpt lat="45.06527891877162" lon="12.194194258524236"><ele>-3.9999999999999996</ele><time>2026-04-12T09:09:33.999Z</time></trkpt><trkpt lat="45.065257639693876" lon="12.19430905746234"><ele>-4.0</ele><time>2026-04-12T09:09:34.999Z</time></trkpt><trkpt lat="45.06522518991114" lon="12.194413079935094"><ele>-4.0</ele><time>2026-04-12T09:09:35.999Z</time></trkpt><trkpt lat="45.0651617179987" lon="12.194473381298211"><ele>-4.0</ele><time>2026-04-12T09:09:36.999Z</time></trkpt><trkpt lat="45.06507386261321" lon="12.194516121564138"><ele>-3.9999999999999996</ele><time>2026-04-12T09:09:37.999Z</time></trkpt><trkpt lat="45.06501174242749" lon="12.194600342102225"><ele>-4.0</ele><time>2026-04-12T09:09:38.999Z</time></trkpt><trkpt lat="45.06498650337244" lon="12.194742662391555"><ele>-4.333333333333333</ele><time>2026-04-12T09:09:39.999Z</time></trkpt><trkpt lat="45.06499178499862" lon="12.194934227307495"><ele>-4.666666666666667</ele><time>2026-04-12T09:09:40.999Z</time></trkpt><trkpt lat="45.064984569178655" lon="12.195182484259956"><ele>-5.0</ele><time>2026-04-12T09:09:41.999Z</time></trkpt><trkpt lat="45.06495888240485" lon="12.195445604354381"><ele>-4.0</ele><time>2026-04-12T09:09:43Z</time></trkpt><trkpt lat="45.064928224033146" lon="12.19571226017869"><ele>-3.0</ele><time>2026-04-12T09:09:44Z</time></trkpt><trkpt lat="45.064903507249724" lon="12.195985691579496"><ele>-2.0</ele><time>2026-04-12T09:09:45Z</time></trkpt><trkpt lat="45.06487595205196" lon="12.196264639452602"><ele>-2.333333333333333</ele><time>2026-04-12T09:09:46Z</time></trkpt><trkpt lat="45.06484670342322" lon="12.196561751562916"><ele>-2.6666666666666665</ele><time>2026-04-12T09:09:47Z</time></trkpt><trkpt lat="45.0648215871114" lon="12.196849276539274"><ele>-3.0</ele><time>2026-04-12T09:09:48Z</time></trkpt><trkpt lat="45.0647990873543" lon="12.197137399803108"><ele>-3.333333333333333</ele><time>2026-04-12T09:09:49Z</time></trkpt><trkpt lat="45.06477075832482" lon="12.197424514777362"><ele>-3.6666666666666665</ele><time>2026-04-12T09:09:50Z</time></trkpt><trkpt lat="45.06473904727089" lon="12.197715506759506"><ele>-4.0</ele><time>2026-04-12T09:09:51Z</time></trkpt><trkpt lat="45.06471262989512" lon="12.198006297026147"><ele>-4.333333333333333</ele><time>2026-04-12T09:09:52Z</time></trkpt><trkpt lat="45.06468593142168" lon="12.198301995934031"><ele>-4.666666666666667</ele><time>2026-04-12T09:09:53Z</time></trkpt><trkpt lat="45.064656750260376" lon="12.198607120492346"><ele>-5.0</ele><time>2026-04-12T09:09:54Z</time></trkpt><trkpt lat="45.06462683762286" lon="12.198915822224938"><ele>-5.333333333333334</ele><time>2026-04-12T09:09:55Z</time></trkpt><trkpt lat="45.06459745103432" lon="12.199221835840225"><ele>-5.666666666666667</ele><time>2026-04-12T09:09:56Z</time></trkpt><trkpt lat="45.06456697121542" lon="12.199542701633584"><ele>-6.0</ele><time>2026-04-12T09:09:57Z</time></trkpt><trkpt lat="45.064534762255974" lon="12.199865415429459"><ele>-5.0</ele><time>2026-04-12T09:09:58Z</time></trkpt><trkpt lat="45.064500998349565" lon="12.20019464531885"><ele>-4.0</ele><time>2026-04-12T09:09:59Z</time></trkpt><trkpt lat="45.06447139419241" lon="12.200520060958832"><ele>-4.5</ele><time>2026-04-12T09:10:00Z</time></trkpt><trkpt lat="45.06443918162144" lon="12.200855056516934"><ele>-5.0</ele><time>2026-04-12T09:10:01Z</time></trkpt><trkpt lat="45.06440739438188" lon="12.201169427412454"><ele>-5.0</ele><time>2026-04-12T09:10:02Z</time></trkpt><trkpt lat="45.06437482229617" lon="12.201490715719226"><ele>-5.0</ele><time>2026-04-12T09:10:03Z</time></trkpt><trkpt lat="45.06434151214881" lon="12.201808029121752"><ele>-5.0</ele><time>2026-04-12T09:10:04Z</time></trkpt><trkpt lat="45.06430927110521" lon="12.202126437079185"><ele>-5.0</ele><time>2026-04-12T09:10:05Z</time></trkpt><trkpt lat="45.06427799803256" lon="12.202447175352043"><ele>-5.0</ele><time>2026-04-12T09:10:06Z</time></trkpt><trkpt lat="45.064248162935215" lon="12.202774522315947"><ele>-5.0</ele><time>2026-04-12T09:10:07Z</time></trkpt><trkpt lat="45.06421829342098" lon="12.203102724872279"><ele>-4.5</ele><time>2026-04-12T09:10:08Z</time></trkpt><trkpt lat="45.06418803572751" lon="12.2034226933868"><ele>-4.0</ele><time>2026-04-12T09:10:09Z</time></trkpt><trkpt lat="45.064151404026404" lon="12.2037571615953"><ele>-5.0</ele><time>2026-04-12T09:10:10Z</time></trkpt><trkpt lat="45.06411888536196" lon="12.204092154795468"><ele>-6.0</ele><time>2026-04-12T09:10:11Z</time></trkpt><trkpt lat="45.06408623339241" lon="12.204408276316164"><ele>-6.0</ele><time>2026-04-12T09:10:12Z</time></trkpt><trkpt lat="45.06405579240469" lon="12.204692169815942"><ele>-6.0</ele><time>2026-04-12T09:10:13Z</time></trkpt><trkpt lat="45.06402884265717" lon="12.20496877050016"><ele>-6.0</ele><time>2026-04-12T09:10:14Z</time></trkpt><trkpt lat="45.064002625196764" lon="12.205246765424556"><ele>-5.666666666666667</ele><time>2026-04-12T09:10:15Z</time></trkpt><trkpt lat="45.06397690209995" lon="12.205541349929508"><ele>-5.333333333333334</ele><time>2026-04-12T09:10:16Z</time></trkpt><trkpt lat="45.06394941860658" lon="12.205833420183957"><ele>-5.0</ele><time>2026-04-12T09:10:17Z</time></trkpt><trkpt lat="45.063922630054535" lon="12.206139334081955"><ele>-5.0</ele><time>2026-04-12T09:10:18Z</time></trkpt><trkpt lat="45.06390185089327" lon="12.206405660223334"><ele>-5.0</ele><time>2026-04-12T09:10:19Z</time></trkpt><trkpt lat="45.06387791824965" lon="12.206645742133743"><ele>-5.0</ele><time>2026-04-12T09:10:20Z</time></trkpt><trkpt lat="45.063855533181034" lon="12.206869947984472"><ele>-4.75</ele><time>2026-04-12T09:10:21Z</time></trkpt><trkpt lat="45.06382793597416" lon="12.207077243928184"><ele>-4.5</ele><time>2026-04-12T09:10:22Z</time></trkpt><trkpt lat="45.063791593119305" lon="12.20726570403666"><ele>-4.25</ele><time>2026-04-12T09:10:23Z</time></trkpt><trkpt lat="45.0637465818861" lon="12.207429246442231"><ele>-4.0</ele><time>2026-04-12T09:10:24Z</time></trkpt><trkpt lat="45.06368970564386" lon="12.207569147062921"><ele>-4.0</ele><time>2026-04-12T09:10:25Z</time></trkpt><trkpt lat="45.063632840764505" lon="12.207695123368199"><ele>-4.0</ele><time>2026-04-12T09:10:26Z</time></trkpt><trkpt lat="45.063593219613" lon="12.207813741953496"><ele>-4.0</ele><time>2026-04-12T09:10:27Z</time></trkpt><trkpt lat="45.06357247287655" lon="12.207923282023343"><ele>-4.0</ele><time>2026-04-12T09:10:28Z</time></trkpt><trkpt lat="45.063581171643065" lon="12.208045453766776"><ele>-4.0</ele><time>2026-04-12T09:10:29Z</time></trkpt><trkpt lat="45.063615392754116" lon="12.208254584408838"><ele>-4.333333333333333</ele><time>2026-04-12T09:10:30Z</time></trkpt><trkpt lat="45.06365891538313" lon="12.208511204613963"><ele>-4.666666666666667</ele><time>2026-04-12T09:10:31Z</time></trkpt><trkpt lat="45.06367345845885" lon="12.208754663663163"><ele>-5.0</ele><time>2026-04-12T09:10:32Z</time></trkpt><trkpt lat="45.063663822344786" lon="12.2089653669462"><ele>-5.25</ele><time>2026-04-12T09:10:33Z</time></trkpt><trkpt lat="45.06364583268906" lon="12.209154441213798"><ele>-5.5</ele><time>2026-04-12T09:10:34Z</time></trkpt><trkpt lat="45.06362247996807" lon="12.209333260479173"><ele>-5.75</ele><time>2026-04-12T09:10:35Z</time></trkpt><trkpt lat="45.063597771152025" lon="12.209533712648213"><ele>-6.0</ele><time>2026-04-12T09:10:36Z</time></trkpt><trkpt lat="45.06357450568879" lon="12.209753787773206"><ele>-6.0</ele><time>2026-04-12T09:10:37Z</time></trkpt><trkpt lat="45.0635519701314" lon="12.20999608971184"><ele>-6.0</ele><time>2026-04-12T09:10:38Z</time></trkpt><trkpt lat="45.06351268604715" lon="12.210260123161145"><ele>-6.0</ele><time>2026-04-12T09:10:39Z</time></trkpt><trkpt lat="45.06352848523698" lon="12.210529460636002"><ele>-5.666666666666667</ele><time>2026-04-12T09:10:40Z</time></trkpt><trkpt lat="45.06353085177849" lon="12.210807939617293"><ele>-5.333333333333334</ele><time>2026-04-12T09:10:41Z</time></trkpt><trkpt lat="45.06351680535186" lon="12.211130643804335"><ele>-5.0</ele><time>2026-04-12T09:10:42Z</time></trkpt><trkpt lat="45.06347695388521" lon="12.211463406596064"><ele>-5.0</ele><time>2026-04-12T09:10:43Z</time></trkpt><trkpt lat="45.06342779938042" lon="12.211805592150021"><ele>-5.0</ele><time>2026-04-12T09:10:44Z</time></trkpt><trkpt lat="45.063374022104334" lon="12.21216896735042"><ele>-4.5</ele><time>2026-04-12T09:10:45Z</time></trkpt><trkpt lat="45.06332345946009" lon="12.212534605434149"><ele>-4.0</ele><time>2026-04-12T09:10:46Z</time></trkpt><trkpt lat="45.06327934521742" lon="12.212879176902874"><ele>-4.5</ele><time>2026-04-12T09:10:47Z</time></trkpt><trkpt lat="45.06323466104201" lon="12.213219262197722"><ele>-5.0</ele><time>2026-04-12T09:10:48Z</time></trkpt><trkpt lat="45.06318672064187" lon="12.21355957031116"><ele>-5.0</ele><time>2026-04-12T09:10:49Z</time></trkpt><trkpt lat="45.063135106181406" lon="12.213900784697051"><ele>-5.0</ele><time>2026-04-12T09:10:50Z</time></trkpt><trkpt lat="45.06308457296265" lon="12.214234193883994"><ele>-5.0</ele><time>2026-04-12T09:10:51Z</time></trkpt><trkpt lat="45.06303755400521" lon="12.214552841566586"><ele>-5.0</ele><time>2026-04-12T09:10:52Z</time></trkpt><trkpt lat="45.062990887288855" lon="12.214860926669909"><ele>-5.0</ele><time>2026-04-12T09:10:53Z</time></trkpt><trkpt lat="45.06294806258501" lon="12.215145830305454"><ele>-5.0</ele><time>2026-04-12T09:10:54Z</time></trkpt><trkpt lat="45.06290840656754" lon="12.215414996978316"><ele>-5.0</ele><time>2026-04-12T09:10:55Z</time></trkpt><trkpt lat="45.06287425654537" lon="12.215672578330505"><ele>-4.666666666666667</ele><time>2026-04-12T09:10:56Z</time></trkpt><trkpt lat="45.06284135400347" lon="12.215934494554073"><ele>-4.333333333333333</ele><time>2026-04-12T09:10:57Z</time></trkpt><trkpt lat="45.06281569046773" lon="12.216192321672791"><ele>-4.0</ele><time>2026-04-12T09:10:58Z</time></trkpt><trkpt lat="45.06279815530064" lon="12.216433559272822"><ele>-3.6666666666666665</ele><time>2026-04-12T09:10:59Z</time></trkpt><trkpt lat="45.06278395666297" lon="12.216663441840819"><ele>-3.333333333333333</ele><time>2026-04-12T09:11:00Z</time></trkpt><trkpt lat="45.062776191222746" lon="12.216888898408522"><ele>-3.0</ele><time>2026-04-12T09:11:01Z</time></trkpt><trkpt lat="45.06276978098218" lon="12.21710614986728"><ele>-2.6666666666666665</ele><time>2026-04-12T09:11:02Z</time></trkpt><trkpt lat="45.06276220162462" lon="12.2173282284591"><ele>-2.333333333333333</ele><time>2026-04-12T09:11:03Z</time></trkpt><trkpt lat="45.062746731502166" lon="12.217561470468327"><ele>-2.0</ele><time>2026-04-12T09:11:04Z</time></trkpt><trkpt lat="45.06271383530613" lon="12.217786479876953"><ele>-2.0</ele><time>2026-04-12T09:11:05Z</time></trkpt><trkpt lat="45.0626568897622" lon="12.218016088340695"><ele>-2.0</ele><time>2026-04-12T09:11:06Z</time></trkpt><trkpt lat="45.06258574408079" lon="12.218232247188944"><ele>-2.0</ele><time>2026-04-12T09:11:07Z</time></trkpt><trkpt lat="45.06252463355091" lon="12.218431525368045"><ele>-2.0</ele><time>2026-04-12T09:11:07.999Z</time></trkpt><trkpt lat="45.06247036082469" lon="12.218614355592106"><ele>-2.0</ele><time>2026-04-12T09:11:08.999Z</time></trkpt><trkpt lat="45.06242376839498" lon="12.218783321971273"><ele>-2.0</ele><time>2026-04-12T09:11:09.999Z</time></trkpt><trkpt lat="45.06237764478375" lon="12.21894857412855"><ele>-2.0</ele><time>2026-04-12T09:11:10.999Z</time></trkpt><trkpt lat="45.062328315721615" lon="12.219124933090313"><ele>-2.0</ele><time>2026-04-12T09:11:11.999Z</time></trkpt><trkpt lat="45.06227448791623" lon="12.219306720225799"><ele>-2.0</ele><time>2026-04-12T09:11:12.999Z</time></trkpt><trkpt lat="45.062220008228614" lon="12.219493058900357"><ele>-2.0</ele><time>2026-04-12T09:11:13.999Z</time></trkpt><trkpt lat="45.06217309176933" lon="12.21967324538001"><ele>-2.0</ele><time>2026-04-12T09:11:14.999Z</time></trkpt><trkpt lat="45.062143925852965" lon="12.219856514940478"><ele>-1.75</ele><time>2026-04-12T09:11:15.999Z</time></trkpt><trkpt lat="45.06212631644354" lon="12.220047219378714"><ele>-1.5</ele><time>2026-04-12T09:11:16.999Z</time></trkpt><trkpt lat="45.06211911124647" lon="12.220239164068389"><ele>-1.25</ele><time>2026-04-12T09:11:17.999Z</time></trkpt><trkpt lat="45.0621160571293" lon="12.22043608134166"><ele>-1.0</ele><time>2026-04-12T09:11:18.999Z</time></trkpt><trkpt lat="45.06211908853519" lon="12.220642534600804"><ele>-1.0</ele><time>2026-04-12T09:11:19.999Z</time></trkpt><trkpt lat="45.062132778888525" lon="12.22085058025148"><ele>-1.0</ele><time>2026-04-12T09:11:20.999Z</time></trkpt><trkpt lat="45.062152802876035" lon="12.221042583522197"><ele>-1.0</ele><time>2026-04-12T09:11:21.999Z</time></trkpt><trkpt lat="45.062169510128065" lon="12.221226915790902"><ele>-1.0</ele><time>2026-04-12T09:11:22.999Z</time></trkpt><trkpt lat="45.0621829642386" lon="12.221421590332705"><ele>-0.75</ele><time>2026-04-12T09:11:23.999Z</time></trkpt><trkpt lat="45.062196401037866" lon="12.221622177380558"><ele>-0.5</ele><time>2026-04-12T09:11:24.999Z</time></trkpt><trkpt lat="45.06221323004789" lon="12.221829446328439"><ele>-0.25</ele><time>2026-04-12T09:11:25.999Z</time></trkpt><trkpt lat="45.06223231934706" lon="12.222036772402866"><ele>0.0</ele><time>2026-04-12T09:11:26.999Z</time></trkpt><trkpt lat="45.06225024461397" lon="12.222233750095494"><ele>0.0</ele><time>2026-04-12T09:11:27.999Z</time></trkpt><trkpt lat="45.06226411482341" lon="12.22242096568959"><ele>0.0</ele><time>2026-04-12T09:11:28.999Z</time></trkpt><trkpt lat="45.06227707305486" lon="12.222610604839332"><ele>0.0</ele><time>2026-04-12T09:11:29.999Z</time></trkpt><trkpt lat="45.06229801617109" lon="12.222802878630086"><ele>0.0</ele><time>2026-04-12T09:11:30.999Z</time></trkpt><trkpt lat="45.062323903830304" lon="12.222986520662406"><ele>-0.25</ele><time>2026-04-12T09:11:31.999Z</time></trkpt><trkpt lat="45.06235568127903" lon="12.223157282687188"><ele>-0.5</ele><time>2026-04-12T09:11:32.999Z</time></trkpt><trkpt lat="45.06239243636494" lon="12.223331360162698"><ele>-0.75</ele><time>2026-04-12T09:11:33.999Z</time></trkpt><trkpt lat="45.06243431667968" lon="12.223500370245485"><ele>-1.0</ele><time>2026-04-12T09:11:34.999Z</time></trkpt><trkpt lat="45.06247723575069" lon="12.223650117327407"><ele>-1.0</ele><time>2026-04-12T09:11:35.999Z</time></trkpt><trkpt lat="45.06251930754046" lon="12.223771787373673"><ele>-1.0</ele><time>2026-04-12T09:11:36.999Z</time></trkpt><trkpt lat="45.06255391060168" lon="12.223866581910118"><ele>-1.0</ele><time>2026-04-12T09:11:37.999Z</time></trkpt><trkpt lat="45.06257720444365" lon="12.223997974922368"><ele>-1.0</ele><time>2026-04-12T09:11:39.999Z</time></trkpt><trkpt lat="45.06246173844959" lon="12.224124908477414"><ele>-1.0</ele><time>2026-04-12T09:11:42.999Z</time></trkpt><trkpt lat="45.062374740653276" lon="12.224206112097413"><ele>-1.2000000000000002</ele><time>2026-04-12T09:11:43.999Z</time></trkpt><trkpt lat="45.06228048093196" lon="12.224300750531388"><ele>-1.4000000000000001</ele><time>2026-04-12T09:11:44.999Z</time></trkpt><trkpt lat="45.06219960397538" lon="12.224395512008856"><ele>-1.6</ele><time>2026-04-12T09:11:45.999Z</time></trkpt><trkpt lat="45.06211834462942" lon="12.224489695669519"><ele>-1.8</ele><time>2026-04-12T09:11:46.999Z</time></trkpt><trkpt lat="45.06203928693715" lon="12.224578042405193"><ele>-2.0</ele><time>2026-04-12T09:11:47.999Z</time></trkpt><trkpt lat="45.06196276676442" lon="12.224658032027502"><ele>-1.9999999999999998</ele><time>2026-04-12T09:11:49Z</time></trkpt><trkpt lat="45.06189212605051" lon="12.224733204632143"><ele>-2.0</ele><time>2026-04-12T09:11:50Z</time></trkpt><trkpt lat="45.06182808004798" lon="12.224801356887406"><ele>-2.0</ele><time>2026-04-12T09:11:51Z</time></trkpt><trkpt lat="45.06177085759611" lon="12.22485769569901"><ele>-2.0</ele><time>2026-04-12T09:11:52Z</time></trkpt><trkpt lat="45.06168820572898" lon="12.224943167834109"><ele>-1.9999999999999998</ele><time>2026-04-12T09:11:54Z</time></trkpt><trkpt lat="45.06165383805043" lon="12.225056931067792"><ele>-2.0</ele><time>2026-04-12T09:11:56Z</time></trkpt><trkpt lat="45.0616932390882" lon="12.22521620584399"><ele>-2.0</ele><time>2026-04-12T09:11:58Z</time></trkpt><trkpt lat="45.06174471032881" lon="12.22533071220818"><ele>-2.0</ele><time>2026-04-12T09:11:59Z</time></trkpt><trkpt lat="45.06180368403097" lon="12.22547368265579"><ele>-2.0</ele><time>2026-04-12T09:12:00Z</time></trkpt><trkpt lat="45.061857665783606" lon="12.225628898088768"><ele>-2.0</ele><time>2026-04-12T09:12:01Z</time></trkpt><trkpt lat="45.06191132453408" lon="12.225792084315325"><ele>-1.8</ele><time>2026-04-12T09:12:02Z</time></trkpt><trkpt lat="45.06195736235662" lon="12.225939166457758"><ele>-1.6</ele><time>2026-04-12T09:12:03Z</time></trkpt><trkpt lat="45.061997050456505" lon="12.226065943729482"><ele>-1.4000000000000001</ele><time>2026-04-12T09:12:04Z</time></trkpt><trkpt lat="45.06203731074311" lon="12.226175739134986"><ele>-1.2000000000000002</ele><time>2026-04-12T09:12:05Z</time></trkpt><trkpt lat="45.062076198772644" lon="12.226282040217473"><ele>-1.0</ele><time>2026-04-12T09:12:06Z</time></trkpt><trkpt lat="45.06211155718931" lon="12.226371269532116"><ele>-1.0</ele><time>2026-04-12T09:12:07Z</time></trkpt><trkpt lat="45.06214262532978" lon="12.22645271893557"><ele>-1.0</ele><time>2026-04-12T09:12:08Z</time></trkpt><trkpt lat="45.0621693099026" lon="12.226533728753788"><ele>-1.0</ele><time>2026-04-12T09:12:09Z</time></trkpt><trkpt lat="45.06221543550827" lon="12.22667087207417"><ele>-1.0</ele><time>2026-04-12T09:12:11Z</time></trkpt><trkpt lat="45.06224464314985" lon="12.226756814347175"><ele>-1.0</ele><time>2026-04-12T09:12:12Z</time></trkpt><trkpt lat="45.062314670448295" lon="12.226940646813471"><ele>-1.0</ele><time>2026-04-12T09:12:14Z</time></trkpt><trkpt lat="45.06237377985024" lon="12.227099761227027"><ele>-1.0</ele><time>2026-04-12T09:12:15Z</time></trkpt><trkpt lat="45.06243703665086" lon="12.22726761572697"><ele>-1.0</ele><time>2026-04-12T09:12:16Z</time></trkpt><trkpt lat="45.062490679923634" lon="12.22743046965782"><ele>-1.0</ele><time>2026-04-12T09:12:17Z</time></trkpt><trkpt lat="45.06253401788086" lon="12.227576453273397"><ele>-1.0</ele><time>2026-04-12T09:12:18Z</time></trkpt><trkpt lat="45.06256483933722" lon="12.2277116313294"><ele>-1.0</ele><time>2026-04-12T09:12:19Z</time></trkpt><trkpt lat="45.06258104175948" lon="12.227844789607603"><ele>-1.0</ele><time>2026-04-12T09:12:20Z</time></trkpt><trkpt lat="45.06258040786074" lon="12.22798329572479"><ele>-1.0</ele><time>2026-04-12T09:12:21Z</time></trkpt><trkpt lat="45.06257928459366" lon="12.228114350765175"><ele>-1.0</ele><time>2026-04-12T09:12:22Z</time></trkpt><trkpt lat="45.06256064157844" lon="12.22826482360513"><ele>-0.8</ele><time>2026-04-12T09:12:23Z</time></trkpt><trkpt lat="45.06252443458962" lon="12.228406384670341"><ele>-0.6000000000000001</ele><time>2026-04-12T09:12:24Z</time></trkpt><trkpt lat="45.062472860004306" lon="12.228548680524392"><ele>-0.4</ele><time>2026-04-12T09:12:25Z</time></trkpt><trkpt lat="45.06242358709742" lon="12.22868700855087"><ele>-0.2</ele><time>2026-04-12T09:12:26Z</time></trkpt><trkpt lat="45.06237235406288" lon="12.228838312083923"><ele>0.0</ele><time>2026-04-12T09:12:27Z</time></trkpt><trkpt lat="45.06231299959232" lon="12.229004207124966"><ele>-0.75</ele><time>2026-04-12T09:12:28Z</time></trkpt><trkpt lat="45.06226409870153" lon="12.229147676345676"><ele>-1.5</ele><time>2026-04-12T09:12:29Z</time></trkpt><trkpt lat="45.06221768294712" lon="12.229299859973604"><ele>-2.25</ele><time>2026-04-12T09:12:30Z</time></trkpt><trkpt lat="45.062173732007736" lon="12.229448149565263"><ele>-3.0</ele><time>2026-04-12T09:12:31Z</time></trkpt><trkpt lat="45.06211779814187" lon="12.22960197573773"><ele>-3.0</ele><time>2026-04-12T09:12:32Z</time></trkpt><trkpt lat="45.06206067817873" lon="12.229767739273182"><ele>-3.0</ele><time>2026-04-12T09:12:33Z</time></trkpt><trkpt lat="45.062007348406816" lon="12.22992623212912"><ele>-3.0</ele><time>2026-04-12T09:12:34Z</time></trkpt><trkpt lat="45.06195573231912" lon="12.230080458706173"><ele>-3.0</ele><time>2026-04-12T09:12:35Z</time></trkpt><trkpt lat="45.06189964772518" lon="12.230242893236342"><ele>-3.0</ele><time>2026-04-12T09:12:36Z</time></trkpt><trkpt lat="45.061846566954834" lon="12.230404145784235"><ele>-3.0</ele><time>2026-04-12T09:12:37Z</time></trkpt><trkpt lat="45.06179013863267" lon="12.230571531695345"><ele>-3.0</ele><time>2026-04-12T09:12:38Z</time></trkpt><trkpt lat="45.061735792180365" lon="12.230738080593317"><ele>-3.0</ele><time>2026-04-12T09:12:39Z</time></trkpt><trkpt lat="45.06168299721401" lon="12.230888159823866"><ele>-3.0</ele><time>2026-04-12T09:12:40Z</time></trkpt><trkpt lat="45.061629702503595" lon="12.23104230775668"><ele>-3.0</ele><time>2026-04-12T09:12:41Z</time></trkpt><trkpt lat="45.061577688213774" lon="12.231205423354266"><ele>-3.0</ele><time>2026-04-12T09:12:42Z</time></trkpt><trkpt lat="45.061524830925755" lon="12.231366003564704"><ele>-3.0</ele><time>2026-04-12T09:12:43Z</time></trkpt><trkpt lat="45.061472169278616" lon="12.231520962308197"><ele>-3.25</ele><time>2026-04-12T09:12:44Z</time></trkpt><trkpt lat="45.06142051057492" lon="12.231679554594942"><ele>-3.5</ele><time>2026-04-12T09:12:45Z</time></trkpt><trkpt lat="45.06137097636472" lon="12.231822720853797"><ele>-3.75</ele><time>2026-04-12T09:12:46Z</time></trkpt><trkpt lat="45.061323882643634" lon="12.231974195716734"><ele>-4.0</ele><time>2026-04-12T09:12:47Z</time></trkpt><trkpt lat="45.06127360321212" lon="12.232130333052384"><ele>-4.0</ele><time>2026-04-12T09:12:48Z</time></trkpt><trkpt lat="45.061220886754" lon="12.232288819355645"><ele>-4.0</ele><time>2026-04-12T09:12:49Z</time></trkpt><trkpt lat="45.0611707791538" lon="12.232445135620933"><ele>-4.0</ele><time>2026-04-12T09:12:50Z</time></trkpt><trkpt lat="45.061122256041635" lon="12.232595349315211"><ele>-4.0</ele><time>2026-04-12T09:12:51Z</time></trkpt><trkpt lat="45.06108157691567" lon="12.232741242352718"><ele>-3.5</ele><time>2026-04-12T09:12:52Z</time></trkpt><trkpt lat="45.061039680092584" lon="12.23290154135355"><ele>-3.0</ele><time>2026-04-12T09:12:53Z</time></trkpt><trkpt lat="45.06099288877031" lon="12.233049291078547"><ele>-2.5</ele><time>2026-04-12T09:12:54Z</time></trkpt><trkpt lat="45.06095001270314" lon="12.233182575014787"><ele>-2.0</ele><time>2026-04-12T09:12:55Z</time></trkpt><trkpt lat="45.06089016354687" lon="12.233324139209557"><ele>-2.0</ele><time>2026-04-12T09:12:56Z</time></trkpt><trkpt lat="45.06085110039246" lon="12.233481028861194"><ele>-2.0</ele><time>2026-04-12T09:12:57Z</time></trkpt><trkpt lat="45.0607932418467" lon="12.233650024564914"><ele>-2.0</ele><time>2026-04-12T09:12:58Z</time></trkpt><trkpt lat="45.060742013019045" lon="12.233814233550529"><ele>-2.0</ele><time>2026-04-12T09:12:59Z</time></trkpt><trkpt lat="45.060676695843235" lon="12.2339693950723"><ele>-2.5</ele><time>2026-04-12T09:13:00Z</time></trkpt><trkpt lat="45.06063663518717" lon="12.234141457730049"><ele>-3.0</ele><time>2026-04-12T09:13:01Z</time></trkpt><trkpt lat="45.060578914521955" lon="12.234286399082446"><ele>-3.5</ele><time>2026-04-12T09:13:02Z</time></trkpt><trkpt lat="45.06053143621919" lon="12.234444041510216"><ele>-4.0</ele><time>2026-04-12T09:13:03Z</time></trkpt><trkpt lat="45.06047896512011" lon="12.234599295230938"><ele>-4.0</ele><time>2026-04-12T09:13:04Z</time></trkpt><trkpt lat="45.06042667547799" lon="12.234757747417305"><ele>-4.0</ele><time>2026-04-12T09:13:04.999Z</time></trkpt><trkpt lat="45.0603797513127" lon="12.2349043367035"><ele>-4.0</ele><time>2026-04-12T09:13:05.999Z</time></trkpt><trkpt lat="45.06031978585406" lon="12.235040210025698"><ele>-4.0</ele><time>2026-04-12T09:13:06.999Z</time></trkpt><trkpt lat="45.06028417540788" lon="12.23520099499015"><ele>-4.0</ele><time>2026-04-12T09:13:07.999Z</time></trkpt><trkpt lat="45.06022873572536" lon="12.23534830929669"><ele>-4.0</ele><time>2026-04-12T09:13:08.999Z</time></trkpt><trkpt lat="45.060178829317124" lon="12.235501865574486"><ele>-4.0</ele><time>2026-04-12T09:13:09.999Z</time></trkpt><trkpt lat="45.06012893345201" lon="12.235659306883027"><ele>-4.0</ele><time>2026-04-12T09:13:10.999Z</time></trkpt><trkpt lat="45.0600635426373" lon="12.235805729473476"><ele>-4.0</ele><time>2026-04-12T09:13:11.999Z</time></trkpt><trkpt lat="45.060013550082886" lon="12.235955080445589"><ele>-4.0</ele><time>2026-04-12T09:13:12.999Z</time></trkpt><trkpt lat="45.05996460174049" lon="12.23610131226396"><ele>-4.0</ele><time>2026-04-12T09:13:13.999Z</time></trkpt><trkpt lat="45.05992543955674" lon="12.236256034091301"><ele>-4.0</ele><time>2026-04-12T09:13:14.999Z</time></trkpt><trkpt lat="45.059871394436925" lon="12.23640813450934"><ele>-4.2</ele><time>2026-04-12T09:13:15.999Z</time></trkpt><trkpt lat="45.05982750356176" lon="12.236554337745927"><ele>-4.4</ele><time>2026-04-12T09:13:16.999Z</time></trkpt><trkpt lat="45.05977191316707" lon="12.236681292973342"><ele>-4.6</ele><time>2026-04-12T09:13:17.999Z</time></trkpt><trkpt lat="45.05974685606114" lon="12.23680829024507"><ele>-4.8</ele><time>2026-04-12T09:13:18.999Z</time></trkpt><trkpt lat="45.05970508257337" lon="12.236919587541555"><ele>-5.0</ele><time>2026-04-12T09:13:19.999Z</time></trkpt><trkpt lat="45.059667712758134" lon="12.237037638557766"><ele>-5.0</ele><time>2026-04-12T09:13:20.999Z</time></trkpt><trkpt lat="45.05963383637474" lon="12.237161098554068"><ele>-5.0</ele><time>2026-04-12T09:13:21.999Z</time></trkpt><trkpt lat="45.059581462462035" lon="12.237278154988461"><ele>-5.0</ele><time>2026-04-12T09:13:22.999Z</time></trkpt><trkpt lat="45.05955682387188" lon="12.237410091881985"><ele>-5.0</ele><time>2026-04-12T09:13:23.999Z</time></trkpt><trkpt lat="45.0595303729139" lon="12.237528059830812"><ele>-5.0</ele><time>2026-04-12T09:13:24.999Z</time></trkpt><trkpt lat="45.05949874207362" lon="12.237638950435281"><ele>-4.833333333333334</ele><time>2026-04-12T09:13:25.999Z</time></trkpt><trkpt lat="45.05947129702817" lon="12.237742393675003"><ele>-4.666666666666667</ele><time>2026-04-12T09:13:26.999Z</time></trkpt><trkpt lat="45.05945004817" lon="12.23783921696447"><ele>-4.5</ele><time>2026-04-12T09:13:27.999Z</time></trkpt><trkpt lat="45.05943140268812" lon="12.237927995868763"><ele>-4.333333333333333</ele><time>2026-04-12T09:13:28.999Z</time></trkpt><trkpt lat="45.05939802546165" lon="12.23809169109986"><ele>-4.166666666666666</ele><time>2026-04-12T09:13:30.999Z</time></trkpt><trkpt lat="45.05937496145384" lon="12.238183792569304"><ele>-4.0</ele><time>2026-04-12T09:13:31.999Z</time></trkpt><trkpt lat="45.05933749854928" lon="12.238273095992302"><ele>-3.833333333333333</ele><time>2026-04-12T09:13:32.999Z</time></trkpt><trkpt lat="45.059316412459445" lon="12.238360730986768"><ele>-3.6666666666666665</ele><time>2026-04-12T09:13:33.999Z</time></trkpt><trkpt lat="45.05928109073118" lon="12.238508894831224"><ele>-3.5</ele><time>2026-04-12T09:13:35.999Z</time></trkpt><trkpt lat="45.05927525906187" lon="12.238607485564764"><ele>-3.333333333333333</ele><time>2026-04-12T09:13:37.999Z</time></trkpt><trkpt lat="45.05922525365497" lon="12.238744566747217"><ele>-3.1666666666666665</ele><time>2026-04-12T09:13:40.999Z</time></trkpt><trkpt lat="45.059215426310075" lon="12.238848425523905"><ele>-3.0</ele><time>2026-04-12T09:13:41.999Z</time></trkpt><trkpt lat="45.059184156234906" lon="12.238959796487945"><ele>-3.0</ele><time>2026-04-12T09:13:42.999Z</time></trkpt><trkpt lat="45.059158191894696" lon="12.239075952352191"><ele>-3.0</ele><time>2026-04-12T09:13:43.999Z</time></trkpt><trkpt lat="45.059128438091015" lon="12.23920885838138"><ele>-3.0</ele><time>2026-04-12T09:13:44.999Z</time></trkpt><trkpt lat="45.059096797498235" lon="12.239337376019058"><ele>-3.0</ele><time>2026-04-12T09:13:45.999Z</time></trkpt><trkpt lat="45.05906382671446" lon="12.239469803446754"><ele>-3.0</ele><time>2026-04-12T09:13:46.999Z</time></trkpt><trkpt lat="45.05903556833077" lon="12.23959198850613"><ele>-3.0</ele><time>2026-04-12T09:13:47.999Z</time></trkpt><trkpt lat="45.059005872056254" lon="12.239721359174524"><ele>-3.0</ele><time>2026-04-12T09:13:48.999Z</time></trkpt><trkpt lat="45.05897228321032" lon="12.239848566722998"><ele>-3.0</ele><time>2026-04-12T09:13:49.999Z</time></trkpt><trkpt lat="45.05894063842523" lon="12.239978898550023"><ele>-3.0</ele><time>2026-04-12T09:13:50.999Z</time></trkpt><trkpt lat="45.058914935656226" lon="12.240099500831198"><ele>-3.0</ele><time>2026-04-12T09:13:51.999Z</time></trkpt><trkpt lat="45.05889440348606" lon="12.240208974449708"><ele>-3.1666666666666665</ele><time>2026-04-12T09:13:52.999Z</time></trkpt><trkpt lat="45.058872915509646" lon="12.240303944944813"><ele>-3.333333333333333</ele><time>2026-04-12T09:13:53.999Z</time></trkpt><trkpt lat="45.05885611303562" lon="12.240391880092002"><ele>-3.5</ele><time>2026-04-12T09:13:55Z</time></trkpt><trkpt lat="45.058824083457786" lon="12.240546804733553"><ele>-3.6666666666666665</ele><time>2026-04-12T09:13:57Z</time></trkpt><trkpt lat="45.05880741083388" lon="12.240661316154503"><ele>-3.833333333333333</ele><time>2026-04-12T09:13:59Z</time></trkpt><trkpt lat="45.05879194826694" lon="12.240751680434538"><ele>-4.0</ele><time>2026-04-12T09:14:01Z</time></trkpt><trkpt lat="45.058776578109054" lon="12.240842991418827"><ele>-4.0</ele><time>2026-04-12T09:14:03Z</time></trkpt><trkpt lat="45.05875794437165" lon="12.24095501864915"><ele>-4.0</ele><time>2026-04-12T09:14:05Z</time></trkpt><trkpt lat="45.0587366449045" lon="12.24106271571969"><ele>-4.0</ele><time>2026-04-12T09:14:07Z</time></trkpt><trkpt lat="45.05870387160389" lon="12.241229373119564"><ele>-4.0</ele><time>2026-04-12T09:14:09Z</time></trkpt><trkpt lat="45.05870522135306" lon="12.24134795497312"><ele>-4.0</ele><time>2026-04-12T09:14:10Z</time></trkpt><trkpt lat="45.058685474023164" lon="12.2414743924169"><ele>-3.6</ele><time>2026-04-12T09:14:11Z</time></trkpt><trkpt lat="45.05866892911769" lon="12.24158697358126"><ele>-3.2</ele><time>2026-04-12T09:14:12Z</time></trkpt><trkpt lat="45.05865697609329" lon="12.241723377095166"><ele>-2.8000000000000003</ele><time>2026-04-12T09:14:13Z</time></trkpt><trkpt lat="45.058651068411905" lon="12.24188178708319"><ele>-2.4000000000000004</ele><time>2026-04-12T09:14:14Z</time></trkpt><trkpt lat="45.05865032865468" lon="12.242048364066854"><ele>-2.0</ele><time>2026-04-12T09:14:15Z</time></trkpt><trkpt lat="45.05865220849026" lon="12.242206016225698"><ele>-1.8</ele><time>2026-04-12T09:14:16Z</time></trkpt><trkpt lat="45.0586554991958" lon="12.24234776166887"><ele>-1.6</ele><time>2026-04-12T09:14:17Z</time></trkpt><trkpt lat="45.05865655684122" lon="12.24248243274859"><ele>-1.4000000000000001</ele><time>2026-04-12T09:14:18Z</time></trkpt><trkpt lat="45.05865796817546" lon="12.242619700726442"><ele>-1.2000000000000002</ele><time>2026-04-12T09:14:19Z</time></trkpt><trkpt lat="45.058659388702026" lon="12.242758431874666"><ele>-1.0</ele><time>2026-04-12T09:14:20Z</time></trkpt><trkpt lat="45.05865965605348" lon="12.242898220237105"><ele>-0.9999999999999999</ele><time>2026-04-12T09:14:21Z</time></trkpt><trkpt lat="45.058664199475935" lon="12.243027360393375"><ele>-1.0</ele><time>2026-04-12T09:14:22Z</time></trkpt><trkpt lat="45.05866696755645" lon="12.243154978894413"><ele>-1.0</ele><time>2026-04-12T09:14:23Z</time></trkpt><trkpt lat="45.05865258981557" lon="12.243277293376625"><ele>-1.0</ele><time>2026-04-12T09:14:24Z</time></trkpt><trkpt lat="45.058652816158876" lon="12.243379533423576"><ele>-0.9999999999999999</ele><time>2026-04-12T09:14:25Z</time></trkpt><trkpt lat="45.05867391455524" lon="12.243467657146347"><ele>-1.0</ele><time>2026-04-12T09:14:26Z</time></trkpt><trkpt lat="45.058679440567495" lon="12.24358007318017"><ele>-1.4</ele><time>2026-04-12T09:14:28Z</time></trkpt><trkpt lat="45.05867971047636" lon="12.243688227175197"><ele>-1.8</ele><time>2026-04-12T09:14:31Z</time></trkpt><trkpt lat="45.05860957885039" lon="12.24382124057273"><ele>-2.1999999999999997</ele><time>2026-04-12T09:14:33Z</time></trkpt><trkpt lat="45.05862628805836" lon="12.243924245559457"><ele>-2.6</ele><time>2026-04-12T09:14:35Z</time></trkpt><trkpt lat="45.05870667069581" lon="12.24403846991796"><ele>-3.0</ele><time>2026-04-12T09:14:37Z</time></trkpt><trkpt lat="45.05876170477669" lon="12.24409968812774"><ele>-3.0</ele><time>2026-04-12T09:14:38Z</time></trkpt><trkpt lat="45.058799491473046" lon="12.244175489242224"><ele>-3.0</ele><time>2026-04-12T09:14:39Z</time></trkpt><trkpt lat="45.05882246113857" lon="12.244282460684747"><ele>-3.0</ele><time>2026-04-12T09:14:40Z</time></trkpt><trkpt lat="45.058839415995486" lon="12.24440427574876"><ele>-3.0</ele><time>2026-04-12T09:14:41Z</time></trkpt><trkpt lat="45.0588600102868" lon="12.244505993181859"><ele>-3.0</ele><time>2026-04-12T09:14:42Z</time></trkpt><trkpt lat="45.058893229981436" lon="12.244624627795721"><ele>-3.0</ele><time>2026-04-12T09:14:43Z</time></trkpt><trkpt lat="45.05893160391717" lon="12.24475310889825"><ele>-3.0</ele><time>2026-04-12T09:14:44Z</time></trkpt><trkpt lat="45.05897679682787" lon="12.244877563018852"><ele>-3.0</ele><time>2026-04-12T09:14:45Z</time></trkpt><trkpt lat="45.059027022481736" lon="12.244981102653432"><ele>-3.0</ele><time>2026-04-12T09:14:46Z</time></trkpt><trkpt lat="45.05907959485712" lon="12.245097035208575"><ele>-3.0</ele><time>2026-04-12T09:14:47Z</time></trkpt><trkpt lat="45.059135525806454" lon="12.245209147197544"><ele>-3.0</ele><time>2026-04-12T09:14:48Z</time></trkpt><trkpt lat="45.05919680822388" lon="12.245314494279658"><ele>-3.0</ele><time>2026-04-12T09:14:49Z</time></trkpt><trkpt lat="45.059260854380724" lon="12.245416301412558"><ele>-3.0</ele><time>2026-04-12T09:14:50Z</time></trkpt><trkpt lat="45.05933307518501" lon="12.24551778800407"><ele>-3.0</ele><time>2026-04-12T09:14:51Z</time></trkpt><trkpt lat="45.0594080390047" lon="12.245594609506606"><ele>-3.0</ele><time>2026-04-12T09:14:52Z</time></trkpt><trkpt lat="45.059493122921516" lon="12.245672529579274"><ele>-3.0</ele><time>2026-04-12T09:14:53Z</time></trkpt><trkpt lat="45.059576315312796" lon="12.245744934437866"><ele>-3.0</ele><time>2026-04-12T09:14:54Z</time></trkpt><trkpt lat="45.05964792273547" lon="12.245781878928751"><ele>-3.0</ele><time>2026-04-12T09:14:55Z</time></trkpt><trkpt lat="45.05973464838237" lon="12.24581128780953"><ele>-3.0</ele><time>2026-04-12T09:14:56Z</time></trkpt><trkpt lat="45.05983321501547" lon="12.245829848784306"><ele>-3.0</ele><time>2026-04-12T09:14:57Z</time></trkpt><trkpt lat="45.05993540482088" lon="12.24583620194954"><ele>-3.0</ele><time>2026-04-12T09:14:58Z</time></trkpt><trkpt lat="45.06004750114427" lon="12.245843116418497"><ele>-3.8</ele><time>2026-04-12T09:14:59Z</time></trkpt><trkpt lat="45.060149007130015" lon="12.245836854287417"><ele>-4.6</ele><time>2026-04-12T09:15:00Z</time></trkpt><trkpt lat="45.06025299159704" lon="12.245830999761658"><ele>-5.3999999999999995</ele><time>2026-04-12T09:15:01Z</time></trkpt><trkpt lat="45.0603616835718" lon="12.245821775642508"><ele>-6.199999999999999</ele><time>2026-04-12T09:15:02Z</time></trkpt><trkpt lat="45.06045916194967" lon="12.245817537809472"><ele>-7.0</ele><time>2026-04-12T09:15:03Z</time></trkpt><trkpt lat="45.06055829327451" lon="12.245819665027348"><ele>-7.0</ele><time>2026-04-12T09:15:04Z</time></trkpt><trkpt lat="45.06065731357569" lon="12.24582942426483"><ele>-6.999999999999999</ele><time>2026-04-12T09:15:05Z</time></trkpt><trkpt lat="45.06076599706026" lon="12.245847063302383"><ele>-6.999999999999999</ele><time>2026-04-12T09:15:06Z</time></trkpt><trkpt lat="45.0608748491686" lon="12.245880424736805"><ele>-7.0</ele><time>2026-04-12T09:15:07Z</time></trkpt><trkpt lat="45.06097274473233" lon="12.245912735253548"><ele>-7.0</ele><time>2026-04-12T09:15:08Z</time></trkpt><trkpt lat="45.06107597850313" lon="12.24594837088003"><ele>-6.25</ele><time>2026-04-12T09:15:09Z</time></trkpt><trkpt lat="45.06119636175096" lon="12.245994427598147"><ele>-5.5</ele><time>2026-04-12T09:15:10Z</time></trkpt><trkpt lat="45.06131134641668" lon="12.24604758655038"><ele>-4.75</ele><time>2026-04-12T09:15:11Z</time></trkpt><trkpt lat="45.06141691306362" lon="12.246104876665033"><ele>-4.0</ele><time>2026-04-12T09:15:12Z</time></trkpt><trkpt lat="45.06151594182773" lon="12.246157215975542"><ele>-4.0</ele><time>2026-04-12T09:15:13Z</time></trkpt><trkpt lat="45.061617571760415" lon="12.246209120706474"><ele>-4.0</ele><time>2026-04-12T09:15:14Z</time></trkpt><trkpt lat="45.06171240202188" lon="12.246255276984018"><ele>-4.0</ele><time>2026-04-12T09:15:15Z</time></trkpt><trkpt lat="45.061804697049055" lon="12.246302185649334"><ele>-4.0</ele><time>2026-04-12T09:15:16Z</time></trkpt><trkpt lat="45.06190286011989" lon="12.246346262626158"><ele>-4.0</ele><time>2026-04-12T09:15:17Z</time></trkpt><trkpt lat="45.06199933371724" lon="12.246401189876266"><ele>-4.0</ele><time>2026-04-12T09:15:17.999Z</time></trkpt><trkpt lat="45.062087660034415" lon="12.246458763077126"><ele>-4.0</ele><time>2026-04-12T09:15:18.999Z</time></trkpt><trkpt lat="45.062181127180544" lon="12.246531542903949"><ele>-4.0</ele><time>2026-04-12T09:15:19.999Z</time></trkpt><trkpt lat="45.06226086013017" lon="12.246618253572299"><ele>-4.0</ele><time>2026-04-12T09:15:20.999Z</time></trkpt><trkpt lat="45.062357132812686" lon="12.246732521528262"><ele>-4.0</ele><time>2026-04-12T09:15:21.999Z</time></trkpt><trkpt lat="45.0624523812305" lon="12.246840093734738"><ele>-4.4</ele><time>2026-04-12T09:15:22.999Z</time></trkpt><trkpt lat="45.062544025576635" lon="12.246932598635679"><ele>-4.800000000000001</ele><time>2026-04-12T09:15:23.999Z</time></trkpt><trkpt lat="45.062627032918996" lon="12.24702813983547"><ele>-5.199999999999999</ele><time>2026-04-12T09:15:24.999Z</time></trkpt><trkpt lat="45.06269945963797" lon="12.247106277186539"><ele>-5.6</ele><time>2026-04-12T09:15:25.999Z</time></trkpt><trkpt lat="45.0627708560342" lon="12.247183318474153"><ele>-6.0</ele><time>2026-04-12T09:15:26.999Z</time></trkpt><trkpt lat="45.06284101904734" lon="12.247263699304309"><ele>-6.0</ele><time>2026-04-12T09:15:27.999Z</time></trkpt><trkpt lat="45.06289508692299" lon="12.247321452928505"><ele>-6.0</ele><time>2026-04-12T09:15:28.999Z</time></trkpt><trkpt lat="45.06298955228958" lon="12.24741752301707"><ele>-6.0</ele><time>2026-04-12T09:15:30.999Z</time></trkpt><trkpt lat="45.06309619296329" lon="12.247434182911984"><ele>-6.0</ele><time>2026-04-12T09:15:32.999Z</time></trkpt><trkpt lat="45.06320432058747" lon="12.247396461010531"><ele>-6.0</ele><time>2026-04-12T09:15:34.999Z</time></trkpt><trkpt lat="45.06312735327296" lon="12.247392716375737"><ele>-6.0</ele><time>2026-04-12T09:16:05Z</time></trkpt><trkpt lat="45.06303831218092" lon="12.247423549216562"><ele>-6.0</ele><time>2026-04-12T09:16:07Z</time></trkpt><trkpt lat="45.06296565457287" lon="12.247388560537376"><ele>-6.0</ele><time>2026-04-12T09:16:08Z</time></trkpt><trkpt lat="45.06290111204907" lon="12.247326329563835"><ele>-6.0</ele><time>2026-04-12T09:16:09Z</time></trkpt><trkpt lat="45.06284183485742" lon="12.24724215710652"><ele>-6.0</ele><time>2026-04-12T09:16:10Z</time></trkpt><trkpt lat="45.06277599784183" lon="12.247164493523806"><ele>-6.0</ele><time>2026-04-12T09:16:11Z</time></trkpt><trkpt lat="45.06271620581282" lon="12.247103049952301"><ele>-6.0</ele><time>2026-04-12T09:16:12Z</time></trkpt><trkpt lat="45.062649056692635" lon="12.247026823606236"><ele>-6.0</ele><time>2026-04-12T09:16:13Z</time></trkpt><trkpt lat="45.06259190405691" lon="12.24696029476221"><ele>-6.0</ele><time>2026-04-12T09:16:14Z</time></trkpt><trkpt lat="45.062534979387834" lon="12.246904025510673"><ele>-6.0</ele><time>2026-04-12T09:16:15Z</time></trkpt><trkpt lat="45.06247283966721" lon="12.246837509654217"><ele>-6.0</ele><time>2026-04-12T09:16:16Z</time></trkpt><trkpt lat="45.062408811546874" lon="12.246763289347948"><ele>-6.0</ele><time>2026-04-12T09:16:17Z</time></trkpt><trkpt lat="45.06234237002249" lon="12.246696684981814"><ele>-6.333333333333333</ele><time>2026-04-12T09:16:18Z</time></trkpt><trkpt lat="45.062278038173304" lon="12.2466319231406"><ele>-6.666666666666666</ele><time>2026-04-12T09:16:19Z</time></trkpt><trkpt lat="45.06221242072315" lon="12.24655467506638"><ele>-7.0</ele><time>2026-04-12T09:16:20Z</time></trkpt><trkpt lat="45.06214294982359" lon="12.246488716086173"><ele>-7.333333333333333</ele><time>2026-04-12T09:16:21Z</time></trkpt><trkpt lat="45.06206258075382" lon="12.246420062358101"><ele>-7.666666666666666</ele><time>2026-04-12T09:16:22Z</time></trkpt><trkpt lat="45.061971869910174" lon="12.246367462725265"><ele>-8.0</ele><time>2026-04-12T09:16:23Z</time></trkpt><trkpt lat="45.061874571736304" lon="12.246314599546912"><ele>-7.2</ele><time>2026-04-12T09:16:24Z</time></trkpt><trkpt lat="45.061795435862976" lon="12.246277688652485"><ele>-6.4</ele><time>2026-04-12T09:16:25Z</time></trkpt><trkpt lat="45.061708068044545" lon="12.24623966577645"><ele>-5.6000000000000005</ele><time>2026-04-12T09:16:26Z</time></trkpt><trkpt lat="45.06161129065117" lon="12.246198909413723"><ele>-4.800000000000001</ele><time>2026-04-12T09:16:27Z</time></trkpt><trkpt lat="45.06151163408021" lon="12.246147457800035"><ele>-4.0</ele><time>2026-04-12T09:16:28Z</time></trkpt><trkpt lat="45.06141039080025" lon="12.246089617362728"><ele>-4.0</ele><time>2026-04-12T09:16:29Z</time></trkpt><trkpt lat="45.06131514086881" lon="12.246042398848921"><ele>-4.0</ele><time>2026-04-12T09:16:30Z</time></trkpt><trkpt lat="45.06122401924435" lon="12.246000352094395"><ele>-4.0</ele><time>2026-04-12T09:16:31Z</time></trkpt><trkpt lat="45.06114215539083" lon="12.24596831591375"><ele>-4.0</ele><time>2026-04-12T09:16:32Z</time></trkpt><trkpt lat="45.06104816987911" lon="12.245927593592393"><ele>-4.0</ele><time>2026-04-12T09:16:33Z</time></trkpt><trkpt lat="45.06096613475421" lon="12.24590313657583"><ele>-3.9999999999999996</ele><time>2026-04-12T09:16:34Z</time></trkpt><trkpt lat="45.06087569134118" lon="12.245870003508278"><ele>-4.0</ele><time>2026-04-12T09:16:35Z</time></trkpt><trkpt lat="45.060789535555145" lon="12.2458476841098"><ele>-4.0</ele><time>2026-04-12T09:16:36Z</time></trkpt><trkpt lat="45.06070789850577" lon="12.245832005558746"><ele>-4.0</ele><time>2026-04-12T09:16:37Z</time></trkpt><trkpt lat="45.06062625781993" lon="12.245819408860266"><ele>-3.9999999999999996</ele><time>2026-04-12T09:16:38Z</time></trkpt><trkpt lat="45.060554935165015" lon="12.245815655352457"><ele>-4.0</ele><time>2026-04-12T09:16:39Z</time></trkpt><trkpt lat="45.06043439306705" lon="12.24581463957029"><ele>-4.6</ele><time>2026-04-12T09:16:41Z</time></trkpt><trkpt lat="45.060325321215814" lon="12.245811945379911"><ele>-5.2</ele><time>2026-04-12T09:16:43Z</time></trkpt><trkpt lat="45.060214614306176" lon="12.245816586719831"><ele>-5.799999999999999</ele><time>2026-04-12T09:16:45Z</time></trkpt><trkpt lat="45.060127679236935" lon="12.245822010594587"><ele>-6.3999999999999995</ele><time>2026-04-12T09:16:47Z</time></trkpt><trkpt lat="45.06003816967018" lon="12.245830717956117"><ele>-7.0</ele><time>2026-04-12T09:16:49Z</time></trkpt><trkpt lat="45.059973919741104" lon="12.24584030816706"><ele>-6.333333333333334</ele><time>2026-04-12T09:16:50Z</time></trkpt><trkpt lat="45.05990339046309" lon="12.245835074740839"><ele>-5.666666666666667</ele><time>2026-04-12T09:16:51Z</time></trkpt><trkpt lat="45.059814441183576" lon="12.245813369994913"><ele>-5.0</ele><time>2026-04-12T09:16:52Z</time></trkpt><trkpt lat="45.0597211913554" lon="12.245785902333688"><ele>-4.333333333333334</ele><time>2026-04-12T09:16:53Z</time></trkpt><trkpt lat="45.059638240099154" lon="12.24575748531057"><ele>-3.666666666666667</ele><time>2026-04-12T09:16:54Z</time></trkpt><trkpt lat="45.05954016236516" lon="12.24570412486111"><ele>-3.0</ele><time>2026-04-12T09:16:55Z</time></trkpt><trkpt lat="45.059461753296624" lon="12.24564316833223"><ele>-3.0</ele><time>2026-04-12T09:16:56Z</time></trkpt><trkpt lat="45.05937308505978" lon="12.24555100555729"><ele>-3.0</ele><time>2026-04-12T09:16:57Z</time></trkpt><trkpt lat="45.059298708248306" lon="12.24545332602951"><ele>-3.0</ele><time>2026-04-12T09:16:58Z</time></trkpt><trkpt lat="45.05922374288499" lon="12.245346899632786"><ele>-3.0</ele><time>2026-04-12T09:16:59Z</time></trkpt><trkpt lat="45.05915025993163" lon="12.245235932931324"><ele>-3.0</ele><time>2026-04-12T09:17:00Z</time></trkpt><trkpt lat="45.05908825742943" lon="12.245101772891948"><ele>-3.0</ele><time>2026-04-12T09:17:01Z</time></trkpt><trkpt lat="45.05902037875776" lon="12.244959059051363"><ele>-3.0</ele><time>2026-04-12T09:17:02Z</time></trkpt><trkpt lat="45.05896288376627" lon="12.24482146161221"><ele>-3.0</ele><time>2026-04-12T09:17:03Z</time></trkpt><trkpt lat="45.05891447768079" lon="12.244694412120268"><ele>-3.0</ele><time>2026-04-12T09:17:04Z</time></trkpt><trkpt lat="45.058878019329896" lon="12.244563990512171"><ele>-3.0</ele><time>2026-04-12T09:17:05Z</time></trkpt><trkpt lat="45.05884738845001" lon="12.244442491662582"><ele>-3.0</ele><time>2026-04-12T09:17:06Z</time></trkpt><trkpt lat="45.05881933529599" lon="12.244336976679964"><ele>-3.0</ele><time>2026-04-12T09:17:07Z</time></trkpt><trkpt lat="45.05879253839524" lon="12.244228359823412"><ele>-3.0</ele><time>2026-04-12T09:17:08Z</time></trkpt><trkpt lat="45.05876985931018" lon="12.244139595201897"><ele>-3.0</ele><time>2026-04-12T09:17:09Z</time></trkpt><trkpt lat="45.058715177718675" lon="12.24402537590952"><ele>-3.0</ele><time>2026-04-12T09:17:11Z</time></trkpt><trkpt lat="45.05864264951401" lon="12.243958972299167"><ele>-3.0</ele><time>2026-04-12T09:17:12.999Z</time></trkpt><trkpt lat="45.058612282448756" lon="12.2438553774651"><ele>-3.0</ele><time>2026-04-12T09:17:14.999Z</time></trkpt><trkpt lat="45.05861304476163" lon="12.243692657011188"><ele>-3.0</ele><time>2026-04-12T09:17:16.999Z</time></trkpt><trkpt lat="45.058672351607754" lon="12.243568886476531"><ele>-3.0</ele><time>2026-04-12T09:17:18.999Z</time></trkpt><trkpt lat="45.0587698608538" lon="12.24351021196753"><ele>-3.0</ele><time>2026-04-12T09:17:20.999Z</time></trkpt><trkpt lat="45.05884110589941" lon="12.243496371478736"><ele>-3.0</ele><time>2026-04-12T09:17:21.999Z</time></trkpt><trkpt lat="45.05892122446548" lon="12.243470842248092"><ele>-3.0</ele><time>2026-04-12T09:17:22.999Z</time></trkpt><trkpt lat="45.05899716535562" lon="12.243440735113214"><ele>-3.0</ele><time>2026-04-12T09:17:23.999Z</time></trkpt><trkpt lat="45.05908767753266" lon="12.243392095274526"><ele>-3.0</ele><time>2026-04-12T09:17:24.999Z</time></trkpt><trkpt lat="45.0591992664292" lon="12.243334151526902"><ele>-3.0</ele><time>2026-04-12T09:17:25.999Z</time></trkpt><trkpt lat="45.0593150362979" lon="12.243282639195762"><ele>-3.0</ele><time>2026-04-12T09:17:26.999Z</time></trkpt><trkpt lat="45.0594240300843" lon="12.243242317858375"><ele>-3.0</ele><time>2026-04-12T09:17:27.999Z</time></trkpt><trkpt lat="45.059532719531326" lon="12.243208244766567"><ele>-3.0</ele><time>2026-04-12T09:17:28.999Z</time></trkpt><trkpt lat="45.059644863948705" lon="12.243176296730539"><ele>-3.0</ele><time>2026-04-12T09:17:29.999Z</time></trkpt><trkpt lat="45.059744586670384" lon="12.243144284853852"><ele>-3.0</ele><time>2026-04-12T09:17:30.999Z</time></trkpt><trkpt lat="45.05982886043434" lon="12.243113897749238"><ele>-3.0</ele><time>2026-04-12T09:17:31.999Z</time></trkpt><trkpt lat="45.0599265146377" lon="12.243082609441936"><ele>-3.0</ele><time>2026-04-12T09:17:32.999Z</time></trkpt><trkpt lat="45.060013746325275" lon="12.243079070078895"><ele>-3.0</ele><time>2026-04-12T09:17:33.999Z</time></trkpt><trkpt lat="45.06009852851495" lon="12.24306877312301"><ele>-3.0</ele><time>2026-04-12T09:17:34.999Z</time></trkpt><trkpt lat="45.060184289272094" lon="12.243065229564712"><ele>-3.0</ele><time>2026-04-12T09:17:35.999Z</time></trkpt><trkpt lat="45.060255068386255" lon="12.243082742731922"><ele>-3.0</ele><time>2026-04-12T09:17:36.999Z</time></trkpt><trkpt lat="45.060321527633576" lon="12.243110014387048"><ele>-3.0</ele><time>2026-04-12T09:17:37.999Z</time></trkpt><trkpt lat="45.06038741453021" lon="12.243142026365154"><ele>-3.0</ele><time>2026-04-12T09:17:39.999Z</time></trkpt><trkpt lat="45.06039840389649" lon="12.243241965628286"><ele>-3.0</ele><time>2026-04-12T09:18:01.999Z</time></trkpt><trkpt lat="45.06052903948952" lon="12.243210236541351"><ele>-3.0</ele><time>2026-04-12T09:18:02.999Z</time></trkpt><trkpt lat="45.060637247348495" lon="12.243208317679498"><ele>-3.0</ele><time>2026-04-12T09:18:03.999Z</time></trkpt><trkpt lat="45.060772035045694" lon="12.243194217347583"><ele>-3.0</ele><time>2026-04-12T09:18:04.999Z</time></trkpt><trkpt lat="45.06092595145307" lon="12.243186021006156"><ele>-2.6666666666666665</ele><time>2026-04-12T09:18:05.999Z</time></trkpt><trkpt lat="45.0611108908628" lon="12.243188074295348"><ele>-2.333333333333333</ele><time>2026-04-12T09:18:07Z</time></trkpt><trkpt lat="45.06128972088119" lon="12.243201825061169"><ele>-2.0</ele><time>2026-04-12T09:18:08Z</time></trkpt><trkpt lat="45.06146227316892" lon="12.243214549567162"><ele>-2.6666666666666665</ele><time>2026-04-12T09:18:09Z</time></trkpt><trkpt lat="45.061629906692225" lon="12.243228080344997"><ele>-3.333333333333333</ele><time>2026-04-12T09:18:10Z</time></trkpt><trkpt lat="45.06180303534454" lon="12.243254608056679"><ele>-4.0</ele><time>2026-04-12T09:18:11Z</time></trkpt><trkpt lat="45.06196646708567" lon="12.243278634242717"><ele>-4.0</ele><time>2026-04-12T09:18:12Z</time></trkpt><trkpt lat="45.06212530129186" lon="12.243304759388371"><ele>-4.0</ele><time>2026-04-12T09:18:13Z</time></trkpt><trkpt lat="45.06228358689972" lon="12.243339055178758"><ele>-4.0</ele><time>2026-04-12T09:18:14Z</time></trkpt><trkpt lat="45.062437838798274" lon="12.24337510306957"><ele>-4.0</ele><time>2026-04-12T09:18:15Z</time></trkpt><trkpt lat="45.062595154015376" lon="12.243411198264305"><ele>-4.0</ele><time>2026-04-12T09:18:16Z</time></trkpt><trkpt lat="45.06277024341043" lon="12.243454444478083"><ele>-4.0</ele><time>2026-04-12T09:18:17Z</time></trkpt><trkpt lat="45.062955859727566" lon="12.24350424976"><ele>-4.0</ele><time>2026-04-12T09:18:18Z</time></trkpt><trkpt lat="45.06312611881426" lon="12.243543778174285"><ele>-4.0</ele><time>2026-04-12T09:18:19Z</time></trkpt><trkpt lat="45.06329044098689" lon="12.24358412493875"><ele>-4.0</ele><time>2026-04-12T09:18:20Z</time></trkpt><trkpt lat="45.06345972650025" lon="12.24362374974242"><ele>-4.333333333333333</ele><time>2026-04-12T09:18:21Z</time></trkpt><trkpt lat="45.063635819001156" lon="12.243671548137204"><ele>-4.666666666666667</ele><time>2026-04-12T09:18:22Z</time></trkpt><trkpt lat="45.0638273949606" lon="12.243721794582434"><ele>-5.0</ele><time>2026-04-12T09:18:23Z</time></trkpt><trkpt lat="45.06401367169389" lon="12.243764302734188"><ele>-4.666666666666667</ele><time>2026-04-12T09:18:24Z</time></trkpt><trkpt lat="45.06419314617002" lon="12.24380843262811"><ele>-4.333333333333333</ele><time>2026-04-12T09:18:25Z</time></trkpt><trkpt lat="45.064374816219505" lon="12.243851320313212"><ele>-4.0</ele><time>2026-04-12T09:18:26Z</time></trkpt><trkpt lat="45.06454536008308" lon="12.243897015497973"><ele>-4.0</ele><time>2026-04-12T09:18:27Z</time></trkpt><trkpt lat="45.064706451381056" lon="12.243935945828973"><ele>-4.0</ele><time>2026-04-12T09:18:28Z</time></trkpt><trkpt lat="45.064857796156716" lon="12.243975489612026"><ele>-4.0</ele><time>2026-04-12T09:18:29Z</time></trkpt><trkpt lat="45.06501196998706" lon="12.244015013181206"><ele>-3.6666666666666665</ele><time>2026-04-12T09:18:30Z</time></trkpt><trkpt lat="45.06516756770473" lon="12.24405224273334"><ele>-3.333333333333333</ele><time>2026-04-12T09:18:31Z</time></trkpt><trkpt lat="45.06531814131309" lon="12.244087311315802"><ele>-3.0</ele><time>2026-04-12T09:18:32Z</time></trkpt><trkpt lat="45.0654554718647" lon="12.244127266466483"><ele>-3.0</ele><time>2026-04-12T09:18:33Z</time></trkpt><trkpt lat="45.06558648351443" lon="12.24416191231674"><ele>-3.0</ele><time>2026-04-12T09:18:34Z</time></trkpt><trkpt lat="45.065726757185246" lon="12.24420378317479"><ele>-3.0</ele><time>2026-04-12T09:18:34.999Z</time></trkpt><trkpt lat="45.06587732270057" lon="12.24425452575817"><ele>-3.0</ele><time>2026-04-12T09:18:35.999Z</time></trkpt><trkpt lat="45.06603582350605" lon="12.244298080419163"><ele>-2.75</ele><time>2026-04-12T09:18:36.999Z</time></trkpt><trkpt lat="45.06618475369641" lon="12.244348451187783"><ele>-2.5</ele><time>2026-04-12T09:18:37.999Z</time></trkpt><trkpt lat="45.066327452632834" lon="12.24440151478732"><ele>-2.25</ele><time>2026-04-12T09:18:38.999Z</time></trkpt><trkpt lat="45.0664578723306" lon="12.244453236950164"><ele>-2.0</ele><time>2026-04-12T09:18:39.999Z</time></trkpt><trkpt lat="45.06657500881362" lon="12.244527859862288"><ele>-2.25</ele><time>2026-04-12T09:18:40.999Z</time></trkpt><trkpt lat="45.066683137086194" lon="12.244627865231177"><ele>-2.5</ele><time>2026-04-12T09:18:41.999Z</time></trkpt><trkpt lat="45.066760604364674" lon="12.24475599629361"><ele>-2.75</ele><time>2026-04-12T09:18:42.999Z</time></trkpt><trkpt lat="45.06680900970314" lon="12.244904427008628"><ele>-3.0</ele><time>2026-04-12T09:18:43.999Z</time></trkpt><trkpt lat="45.06682465111345" lon="12.245063060726453"><ele>-3.0</ele><time>2026-04-12T09:18:44.999Z</time></trkpt><trkpt lat="45.066801570447545" lon="12.245212837420585"><ele>-3.0</ele><time>2026-04-12T09:18:45.999Z</time></trkpt><trkpt lat="45.066762930765606" lon="12.245335383304386"><ele>-3.0</ele><time>2026-04-12T09:18:46.999Z</time></trkpt><trkpt lat="45.06673856511095" lon="12.24544347821801"><ele>-3.0</ele><time>2026-04-12T09:18:47.999Z</time></trkpt><trkpt lat="45.06672156602643" lon="12.24554627791521"><ele>-3.0</ele><time>2026-04-12T09:18:48.999Z</time></trkpt><trkpt lat="45.06672144340202" lon="12.24566071529843"><ele>-3.0</ele><time>2026-04-12T09:18:49.999Z</time></trkpt><trkpt lat="45.0667450172659" lon="12.24579107079754"><ele>-3.0</ele><time>2026-04-12T09:18:50.999Z</time></trkpt><trkpt lat="45.06674094450395" lon="12.245901672711035"><ele>-3.0</ele><time>2026-04-12T09:18:51.999Z</time></trkpt><trkpt lat="45.06668284727693" lon="12.246031697614873"><ele>-3.0</ele><time>2026-04-12T09:18:53.999Z</time></trkpt><trkpt lat="45.06663679628176" lon="12.246126187210095"><ele>-3.0</ele><time>2026-04-12T09:18:55.999Z</time></trkpt><trkpt lat="45.06659229504157" lon="12.2462746750728"><ele>-3.0</ele><time>2026-04-12T09:19:13.999Z</time></trkpt><trkpt lat="45.06653682391" lon="12.246406339635268"><ele>-3.0</ele><time>2026-04-12T09:19:15.999Z</time></trkpt><trkpt lat="45.0664871285191" lon="12.246542328145557"><ele>-3.0</ele><time>2026-04-12T09:19:17.999Z</time></trkpt><trkpt lat="45.066425396262744" lon="12.24672382093052"><ele>-3.0</ele><time>2026-04-12T09:19:19.999Z</time></trkpt><trkpt lat="45.06639010936486" lon="12.246836727024046"><ele>-3.0</ele><time>2026-04-12T09:19:20.999Z</time></trkpt><trkpt lat="45.06635500776489" lon="12.246949928180616"><ele>-3.0</ele><time>2026-04-12T09:19:21.999Z</time></trkpt><trkpt lat="45.06631565345081" lon="12.247074678281587"><ele>-3.0</ele><time>2026-04-12T09:19:22.999Z</time></trkpt><trkpt lat="45.06627585246028" lon="12.2471971162625"><ele>-3.0</ele><time>2026-04-12T09:19:23.999Z</time></trkpt><trkpt lat="45.06623479029394" lon="12.247322032039378"><ele>-3.0</ele><time>2026-04-12T09:19:24.999Z</time></trkpt><trkpt lat="45.066194681804056" lon="12.247442955462667"><ele>-3.0</ele><time>2026-04-12T09:19:25.999Z</time></trkpt><trkpt lat="45.06615990293359" lon="12.24755330672427"><ele>-3.0</ele><time>2026-04-12T09:19:26.999Z</time></trkpt><trkpt lat="45.06610461434506" lon="12.247706620360699"><ele>-3.5</ele><time>2026-04-12T09:19:27.999Z</time></trkpt><trkpt lat="45.06604732716662" lon="12.247885206341714"><ele>-4.0</ele><time>2026-04-12T09:19:28.999Z</time></trkpt><trkpt lat="45.065988504073225" lon="12.248065573200739"><ele>-4.5</ele><time>2026-04-12T09:19:29.999Z</time></trkpt><trkpt lat="45.06592267640956" lon="12.248257548266059"><ele>-5.0</ele><time>2026-04-12T09:19:30.999Z</time></trkpt><trkpt lat="45.065853538970806" lon="12.248473619245802"><ele>-5.0</ele><time>2026-04-12T09:19:31.999Z</time></trkpt><trkpt lat="45.065784579053876" lon="12.24869951775777"><ele>-5.0</ele><time>2026-04-12T09:19:32.999Z</time></trkpt><trkpt lat="45.06571412017399" lon="12.248947047213852"><ele>-5.0</ele><time>2026-04-12T09:19:33.999Z</time></trkpt><trkpt lat="45.06564563439114" lon="12.249207136695777"><ele>-5.0</ele><time>2026-04-12T09:19:34.999Z</time></trkpt><trkpt lat="45.06556913169624" lon="12.249472211138926"><ele>-5.0</ele><time>2026-04-12T09:19:35.999Z</time></trkpt><trkpt lat="45.06548895108298" lon="12.249743833017778"><ele>-5.0</ele><time>2026-04-12T09:19:36.999Z</time></trkpt><trkpt lat="45.06541846083993" lon="12.25002573613744"><ele>-4.5</ele><time>2026-04-12T09:19:37.999Z</time></trkpt><trkpt lat="45.065349319501664" lon="12.250333634691158"><ele>-4.0</ele><time>2026-04-12T09:19:38.999Z</time></trkpt><trkpt lat="45.06530483754004" lon="12.250648263248062"><ele>-4.0</ele><time>2026-04-12T09:19:39.999Z</time></trkpt><trkpt lat="45.0652804466994" lon="12.250966015607014"><ele>-4.0</ele><time>2026-04-12T09:19:40.999Z</time></trkpt><trkpt lat="45.065269795038695" lon="12.251260352818163"><ele>-4.0</ele><time>2026-04-12T09:19:41.999Z</time></trkpt><trkpt lat="45.06525707211629" lon="12.251541310350625"><ele>-4.0</ele><time>2026-04-12T09:19:42.999Z</time></trkpt><trkpt lat="45.06525966246553" lon="12.251823749825624"><ele>-4.0</ele><time>2026-04-12T09:19:43.999Z</time></trkpt><trkpt lat="45.0652876594392" lon="12.252117216277203"><ele>-4.0</ele><time>2026-04-12T09:19:44.999Z</time></trkpt><trkpt lat="45.065337930361224" lon="12.252431478656508"><ele>-4.0</ele><time>2026-04-12T09:19:45.999Z</time></trkpt><trkpt lat="45.0654014021245" lon="12.252760513583492"><ele>-4.0</ele><time>2026-04-12T09:19:46.999Z</time></trkpt><trkpt lat="45.06546006064938" lon="12.253118025169831"><ele>-4.0</ele><time>2026-04-12T09:19:47.999Z</time></trkpt><trkpt lat="45.06550320594662" lon="12.253447244777018"><ele>-4.0</ele><time>2026-04-12T09:19:48.999Z</time></trkpt><trkpt lat="45.065538719203296" lon="12.25373664860089"><ele>-4.0</ele><time>2026-04-12T09:19:49.999Z</time></trkpt><trkpt lat="45.065576640933116" lon="12.253990928510927"><ele>-4.333333333333333</ele><time>2026-04-12T09:19:50.999Z</time></trkpt><trkpt lat="45.06561509253357" lon="12.254243302119814"><ele>-4.666666666666667</ele><time>2026-04-12T09:19:51.999Z</time></trkpt><trkpt lat="45.06566506810177" lon="12.254467711988262"><ele>-5.0</ele><time>2026-04-12T09:19:52.999Z</time></trkpt><trkpt lat="45.065744784923496" lon="12.25467237451469"><ele>-5.0</ele><time>2026-04-12T09:19:53.999Z</time></trkpt><trkpt lat="45.06586083534177" lon="12.254867616498922"><ele>-5.0</ele><time>2026-04-12T09:19:54.999Z</time></trkpt><trkpt lat="45.066005932963634" lon="12.255041883740894"><ele>-5.0</ele><time>2026-04-12T09:19:55.999Z</time></trkpt><trkpt lat="45.06617298254337" lon="12.255230739646349"><ele>-5.0</ele><time>2026-04-12T09:19:56.999Z</time></trkpt><trkpt lat="45.06632338731623" lon="12.255411313015113"><ele>-5.0</ele><time>2026-04-12T09:19:57.999Z</time></trkpt><trkpt lat="45.06644269985689" lon="12.255564117922848"><ele>-5.0</ele><time>2026-04-12T09:19:58.999Z</time></trkpt><trkpt lat="45.06655442445855" lon="12.255698309684172"><ele>-4.75</ele><time>2026-04-12T09:19:59.999Z</time></trkpt><trkpt lat="45.06665899250853" lon="12.255827236523967"><ele>-4.5</ele><time>2026-04-12T09:20:00.999Z</time></trkpt><trkpt lat="45.06674132328401" lon="12.255977154388066"><ele>-4.25</ele><time>2026-04-12T09:20:01.999Z</time></trkpt><trkpt lat="45.06678293637244" lon="12.256142759444238"><ele>-4.0</ele><time>2026-04-12T09:20:02.999Z</time></trkpt><trkpt lat="45.0667699112383" lon="12.256321036894146"><ele>-4.0</ele><time>2026-04-12T09:20:03.999Z</time></trkpt><trkpt lat="45.066761335756276" lon="12.25651260413601"><ele>-4.0</ele><time>2026-04-12T09:20:04.999Z</time></trkpt><trkpt lat="45.06670579854156" lon="12.25673938566695"><ele>-4.0</ele><time>2026-04-12T09:20:05.999Z</time></trkpt><trkpt lat="45.066637295756706" lon="12.257021455928331"><ele>-4.666666666666666</ele><time>2026-04-12T09:20:06.999Z</time></trkpt><trkpt lat="45.06657504844883" lon="12.257322081169473"><ele>-5.333333333333333</ele><time>2026-04-12T09:20:07.999Z</time></trkpt><trkpt lat="45.06651489540503" lon="12.25761560826865"><ele>-6.0</ele><time>2026-04-12T09:20:08.999Z</time></trkpt><trkpt lat="45.06645589412778" lon="12.257929756396685"><ele>-5.5</ele><time>2026-04-12T09:20:09.999Z</time></trkpt><trkpt lat="45.06639489953245" lon="12.258262721935324"><ele>-5.0</ele><time>2026-04-12T09:20:10.999Z</time></trkpt><trkpt lat="45.06632551613092" lon="12.258611629210783"><ele>-5.0</ele><time>2026-04-12T09:20:11.999Z</time></trkpt><trkpt lat="45.06625855079931" lon="12.258953312492459"><ele>-5.0</ele><time>2026-04-12T09:20:12.999Z</time></trkpt><trkpt lat="45.06618889535564" lon="12.259313413912976"><ele>-5.0</ele><time>2026-04-12T09:20:13.999Z</time></trkpt><trkpt lat="45.066114163461314" lon="12.25968605170377"><ele>-5.0</ele><time>2026-04-12T09:20:14.999Z</time></trkpt><trkpt lat="45.066037256491484" lon="12.260060109367272"><ele>-5.0</ele><time>2026-04-12T09:20:15.999Z</time></trkpt><trkpt lat="45.06596437311476" lon="12.260413822127617"><ele>-5.0</ele><time>2026-04-12T09:20:16.999Z</time></trkpt><trkpt lat="45.06589595173831" lon="12.260740932626303"><ele>-4.5</ele><time>2026-04-12T09:20:18Z</time></trkpt><trkpt lat="45.06583396349826" lon="12.261063696828472"><ele>-4.0</ele><time>2026-04-12T09:20:19Z</time></trkpt><trkpt lat="45.065775101089976" lon="12.26136603306267"><ele>-4.0</ele><time>2026-04-12T09:20:20Z</time></trkpt><trkpt lat="45.06571773031714" lon="12.26163966574551"><ele>-4.0</ele><time>2026-04-12T09:20:21Z</time></trkpt><trkpt lat="45.065666370382665" lon="12.261881456586263"><ele>-4.0</ele><time>2026-04-12T09:20:22Z</time></trkpt><trkpt lat="45.065623005374" lon="12.26210792033032"><ele>-3.8000000000000003</ele><time>2026-04-12T09:20:23Z</time></trkpt><trkpt lat="45.065592340047964" lon="12.262301380603864"><ele>-3.6000000000000005</ele><time>2026-04-12T09:20:24Z</time></trkpt><trkpt lat="45.06557462954605" lon="12.262466670549752"><ele>-3.4</ele><time>2026-04-12T09:20:25Z</time></trkpt><trkpt lat="45.065563923774405" lon="12.26260383417275"><ele>-3.2</ele><time>2026-04-12T09:20:26Z</time></trkpt><trkpt lat="45.06552646419465" lon="12.262688135165915"><ele>-3.0</ele><time>2026-04-12T09:20:27Z</time></trkpt><trkpt lat="45.065413926014685" lon="12.262754511581766"><ele>-3.0</ele><time>2026-04-12T09:20:29Z</time></trkpt><trkpt lat="45.06531234465166" lon="12.262753795709814"><ele>-3.0</ele><time>2026-04-12T09:20:30Z</time></trkpt><trkpt lat="45.06517113128817" lon="12.262771103150857"><ele>-3.0</ele><time>2026-04-12T09:20:31Z</time></trkpt><trkpt lat="45.065011539943136" lon="12.262786554682348"><ele>-3.0</ele><time>2026-04-12T09:20:32Z</time></trkpt><trkpt lat="45.06484834706256" lon="12.262809970396269"><ele>-3.333333333333333</ele><time>2026-04-12T09:20:33Z</time></trkpt><trkpt lat="45.06467939351431" lon="12.262833244228199"><ele>-3.6666666666666665</ele><time>2026-04-12T09:20:34Z</time></trkpt><trkpt lat="45.064529296629836" lon="12.26287939350843"><ele>-4.0</ele><time>2026-04-12T09:20:35Z</time></trkpt><trkpt lat="45.06438779327479" lon="12.26294411928437"><ele>-4.0</ele><time>2026-04-12T09:20:36Z</time></trkpt><trkpt lat="45.064281616388485" lon="12.263099765076937"><ele>-4.0</ele><time>2026-04-12T09:20:37Z</time></trkpt><trkpt lat="45.06418480677068" lon="12.263283143917661"><ele>-4.0</ele><time>2026-04-12T09:20:38Z</time></trkpt><trkpt lat="45.06409723785346" lon="12.263491275461945"><ele>-3.0</ele><time>2026-04-12T09:20:39Z</time></trkpt><trkpt lat="45.06400797039037" lon="12.263719350584832"><ele>-2.0</ele><time>2026-04-12T09:20:40Z</time></trkpt><trkpt lat="45.063894222988864" lon="12.263972372350658"><ele>-1.0</ele><time>2026-04-12T09:20:41Z</time></trkpt><trkpt lat="45.06376863422822" lon="12.26422982242619"><ele>-1.0</ele><time>2026-04-12T09:20:42Z</time></trkpt><trkpt lat="45.06364661645156" lon="12.26449388131253"><ele>-1.0</ele><time>2026-04-12T09:20:43Z</time></trkpt><trkpt lat="45.063512097015995" lon="12.264778674831769"><ele>-0.5</ele><time>2026-04-12T09:20:44Z</time></trkpt><trkpt lat="45.06336082353256" lon="12.265043158016214"><ele>0.0</ele><time>2026-04-12T09:20:45Z</time></trkpt><trkpt lat="45.06318191450369" lon="12.265274752079458"><ele>0.0</ele><time>2026-04-12T09:20:46Z</time></trkpt><trkpt lat="45.06301720185722" lon="12.265524127343335"><ele>0.0</ele><time>2026-04-12T09:20:47Z</time></trkpt><trkpt lat="45.06284144362764" lon="12.265752605720104"><ele>-1.5</ele><time>2026-04-12T09:20:48Z</time></trkpt><trkpt lat="45.06266859370419" lon="12.265987115541964"><ele>-3.0</ele><time>2026-04-12T09:20:49Z</time></trkpt><trkpt lat="45.062504623659905" lon="12.26621580486405"><ele>-3.0</ele><time>2026-04-12T09:20:50Z</time></trkpt><trkpt lat="45.062338338107" lon="12.266422895960748"><ele>-3.0</ele><time>2026-04-12T09:20:51Z</time></trkpt><trkpt lat="45.06216586270496" lon="12.266604822746611"><ele>-3.0</ele><time>2026-04-12T09:20:52Z</time></trkpt><trkpt lat="45.061967805533456" lon="12.26677934599736"><ele>-2.5</ele><time>2026-04-12T09:20:53Z</time></trkpt><trkpt lat="45.06174503608556" lon="12.266944221762204"><ele>-2.0</ele><time>2026-04-12T09:20:54Z</time></trkpt><trkpt lat="45.061498837271415" lon="12.267070868968366"><ele>-2.0</ele><time>2026-04-12T09:20:55Z</time></trkpt><trkpt lat="45.06125079408194" lon="12.267238576077299"><ele>-2.0</ele><time>2026-04-12T09:20:56Z</time></trkpt><trkpt lat="45.06098390867795" lon="12.26738928396158"><ele>-2.5</ele><time>2026-04-12T09:20:57Z</time></trkpt><trkpt lat="45.0607127310521" lon="12.267543777871252"><ele>-3.0</ele><time>2026-04-12T09:20:58Z</time></trkpt><trkpt lat="45.06043962330623" lon="12.267700586748562"><ele>-3.0</ele><time>2026-04-12T09:20:59Z</time></trkpt><trkpt lat="45.06017536288738" lon="12.267851821196968"><ele>-3.0</ele><time>2026-04-12T09:21:00Z</time></trkpt><trkpt lat="45.0599309032297" lon="12.267993437191963"><ele>-3.0</ele><time>2026-04-12T09:21:01Z</time></trkpt><trkpt lat="45.05971149633133" lon="12.268121333757158"><ele>-3.0</ele><time>2026-04-12T09:21:02Z</time></trkpt><trkpt lat="45.05951162159585" lon="12.268266987711186"><ele>-3.0</ele><time>2026-04-12T09:21:03Z</time></trkpt><trkpt lat="45.059320888108765" lon="12.268450509174816"><ele>-3.0</ele><time>2026-04-12T09:21:04Z</time></trkpt><trkpt lat="45.059124089074096" lon="12.268657878694954"><ele>-3.0</ele><time>2026-04-12T09:21:05Z</time></trkpt><trkpt lat="45.05890815042164" lon="12.268876270423325"><ele>-3.0</ele><time>2026-04-12T09:21:06Z</time></trkpt><trkpt lat="45.05868126882613" lon="12.269098086138028"><ele>-3.0</ele><time>2026-04-12T09:21:07Z</time></trkpt><trkpt lat="45.05845967358894" lon="12.269321917734528"><ele>-3.0</ele><time>2026-04-12T09:21:08Z</time></trkpt><trkpt lat="45.05823478386099" lon="12.269549260998659"><ele>-3.5</ele><time>2026-04-12T09:21:09Z</time></trkpt><trkpt lat="45.05801266560165" lon="12.26977580906599"><ele>-4.0</ele><time>2026-04-12T09:21:10Z</time></trkpt><trkpt lat="45.057825200275076" lon="12.26998876991147"><ele>-4.0</ele><time>2026-04-12T09:21:11Z</time></trkpt><trkpt lat="45.0576527601449" lon="12.270211135520727"><ele>-4.0</ele><time>2026-04-12T09:21:12Z</time></trkpt><trkpt lat="45.057502664431055" lon="12.270455428070237"><ele>-0.5</ele><time>2026-04-12T09:21:13Z</time></trkpt><trkpt lat="45.05736976702889" lon="12.270718582852655"><ele>3.0</ele><time>2026-04-12T09:21:14Z</time></trkpt><trkpt lat="45.057255174004275" lon="12.271002792555162"><ele>3.0</ele><time>2026-04-12T09:21:15Z</time></trkpt><trkpt lat="45.05715569446062" lon="12.271299493090497"><ele>3.0</ele><time>2026-04-12T09:21:16Z</time></trkpt><trkpt lat="45.05706531139056" lon="12.271603102887859"><ele>0.5</ele><time>2026-04-12T09:21:17Z</time></trkpt><trkpt lat="45.0569775433344" lon="12.271908846468767"><ele>-2.0</ele><time>2026-04-12T09:21:18Z</time></trkpt><trkpt lat="45.056886717179495" lon="12.272211813027457"><ele>-4.0</ele><time>2026-04-12T09:21:19Z</time></trkpt><trkpt lat="45.05679139416311" lon="12.272523986691443"><ele>-6.0</ele><time>2026-04-12T09:21:20Z</time></trkpt><trkpt lat="45.056702503783946" lon="12.272838151854158"><ele>-5.0</ele><time>2026-04-12T09:21:21Z</time></trkpt><trkpt lat="45.05661780385327" lon="12.273156193163507"><ele>-4.0</ele><time>2026-04-12T09:21:22Z</time></trkpt><trkpt lat="45.05653677617657" lon="12.273477415158359"><ele>-4.0</ele><time>2026-04-12T09:21:23Z</time></trkpt><trkpt lat="45.05646549992474" lon="12.273800812171334"><ele>-4.0</ele><time>2026-04-12T09:21:24Z</time></trkpt><trkpt lat="45.05639193006524" lon="12.274130222249442"><ele>-4.0</ele><time>2026-04-12T09:21:25Z</time></trkpt><trkpt lat="45.056324261060944" lon="12.27445952552976"><ele>-4.0</ele><time>2026-04-12T09:21:26Z</time></trkpt><trkpt lat="45.0562680648898" lon="12.274791447691934"><ele>-4.0</ele><time>2026-04-12T09:21:27Z</time></trkpt><trkpt lat="45.05622194579351" lon="12.275129634752563"><ele>-4.0</ele><time>2026-04-12T09:21:28Z</time></trkpt><trkpt lat="45.05618004323267" lon="12.275466164699791"><ele>-3.5</ele><time>2026-04-12T09:21:29Z</time></trkpt><trkpt lat="45.056144278927505" lon="12.275805747165844"><ele>-3.0</ele><time>2026-04-12T09:21:30Z</time></trkpt><trkpt lat="45.05611454594784" lon="12.27614363413904"><ele>-3.5</ele><time>2026-04-12T09:21:31Z</time></trkpt><trkpt lat="45.056091839684825" lon="12.276484857247032"><ele>-4.0</ele><time>2026-04-12T09:21:32Z</time></trkpt><trkpt lat="45.056078050776335" lon="12.276821060589837"><ele>-4.0</ele><time>2026-04-12T09:21:33Z</time></trkpt><trkpt lat="45.05607119398822" lon="12.277160204277683"><ele>-4.0</ele><time>2026-04-12T09:21:34Z</time></trkpt><trkpt lat="45.05607495196391" lon="12.277499841479111"><ele>-3.0</ele><time>2026-04-12T09:21:35Z</time></trkpt><trkpt lat="45.05608779805119" lon="12.27783403677554"><ele>-2.0</ele><time>2026-04-12T09:21:36Z</time></trkpt><trkpt lat="45.05610749571917" lon="12.27816855965963"><ele>-2.0</ele><time>2026-04-12T09:21:37Z</time></trkpt><trkpt lat="45.056129679782515" lon="12.27849897615913"><ele>-2.0</ele><time>2026-04-12T09:21:38Z</time></trkpt><trkpt lat="45.05615123598881" lon="12.278839129707857"><ele>-2.5</ele><time>2026-04-12T09:21:39Z</time></trkpt><trkpt lat="45.056174682628956" lon="12.279175800108883"><ele>-3.0</ele><time>2026-04-12T09:21:40Z</time></trkpt><trkpt lat="45.05619329859087" lon="12.279508738277558"><ele>-2.5</ele><time>2026-04-12T09:21:41Z</time></trkpt><trkpt lat="45.056213328939656" lon="12.279845355983193"><ele>-2.0</ele><time>2026-04-12T09:21:42Z</time></trkpt><trkpt lat="45.05623365398431" lon="12.280184303185477"><ele>-2.0</ele><time>2026-04-12T09:21:43Z</time></trkpt><trkpt lat="45.05625280376446" lon="12.280529578752294"><ele>-2.0</ele><time>2026-04-12T09:21:44Z</time></trkpt><trkpt lat="45.05627341882034" lon="12.28087195930505"><ele>0.5</ele><time>2026-04-12T09:21:45Z</time></trkpt><trkpt lat="45.05629688888723" lon="12.281215830500624"><ele>3.0</ele><time>2026-04-12T09:21:46Z</time></trkpt><trkpt lat="45.056330313721524" lon="12.281554303108496"><ele>3.0</ele><time>2026-04-12T09:21:47Z</time></trkpt><trkpt lat="45.056366042047394" lon="12.281893974425701"><ele>3.0</ele><time>2026-04-12T09:21:48Z</time></trkpt><trkpt lat="45.05640108360195" lon="12.282235695430483"><ele>0.5</ele><time>2026-04-12T09:21:48.999Z</time></trkpt><trkpt lat="45.056435949112704" lon="12.2825699606207"><ele>-2.0</ele><time>2026-04-12T09:21:49.999Z</time></trkpt><trkpt lat="45.05646891936907" lon="12.28290455147208"><ele>-1.5</ele><time>2026-04-12T09:21:50.999Z</time></trkpt><trkpt lat="45.05649649130533" lon="12.283246526946016"><ele>-1.0</ele><time>2026-04-12T09:21:51.999Z</time></trkpt><trkpt lat="45.0565222313727" lon="12.283586156671994"><ele>-1.0</ele><time>2026-04-12T09:21:52.999Z</time></trkpt><trkpt lat="45.05654574102052" lon="12.283922136643167"><ele>-1.0</ele><time>2026-04-12T09:21:53.999Z</time></trkpt><trkpt lat="45.056568810578426" lon="12.284256418797737"><ele>-1.0</ele><time>2026-04-12T09:21:54.999Z</time></trkpt><trkpt lat="45.056589809387" lon="12.284593847449353"><ele>-1.0</ele><time>2026-04-12T09:21:55.999Z</time></trkpt><trkpt lat="45.05660968711814" lon="12.284933959720806"><ele>-1.0</ele><time>2026-04-12T09:21:56.999Z</time></trkpt><trkpt lat="45.05663372208024" lon="12.285265846436316"><ele>-1.0</ele><time>2026-04-12T09:21:57.999Z</time></trkpt><trkpt lat="45.05665184029307" lon="12.285608287715139"><ele>-1.0</ele><time>2026-04-12T09:21:58.999Z</time></trkpt><trkpt lat="45.05666359525588" lon="12.28594709280539"><ele>-1.0</ele><time>2026-04-12T09:21:59.999Z</time></trkpt><trkpt lat="45.05666498125049" lon="12.286288741061117"><ele>-2.0</ele><time>2026-04-12T09:22:00.999Z</time></trkpt><trkpt lat="45.05666524895795" lon="12.286627173121554"><ele>-3.0</ele><time>2026-04-12T09:22:01.999Z</time></trkpt><trkpt lat="45.05666700635449" lon="12.286963774878558"><ele>-2.5</ele><time>2026-04-12T09:22:02.999Z</time></trkpt><trkpt lat="45.056668464003224" lon="12.287303435833168"><ele>-2.0</ele><time>2026-04-12T09:22:03.999Z</time></trkpt><trkpt lat="45.05667145668195" lon="12.28764202003643"><ele>-2.0</ele><time>2026-04-12T09:22:04.999Z</time></trkpt><trkpt lat="45.05666643673816" lon="12.287982214365519"><ele>-2.0</ele><time>2026-04-12T09:22:05.999Z</time></trkpt><trkpt lat="45.05664536930002" lon="12.288318124334465"><ele>-2.0</ele><time>2026-04-12T09:22:06.999Z</time></trkpt><trkpt lat="45.056611607198086" lon="12.288654269616021"><ele>-2.0</ele><time>2026-04-12T09:22:07.999Z</time></trkpt><trkpt lat="45.05657151336162" lon="12.288988709204963"><ele>-2.5</ele><time>2026-04-12T09:22:08.999Z</time></trkpt><trkpt lat="45.05653318576881" lon="12.289322586464134"><ele>-3.0</ele><time>2026-04-12T09:22:09.999Z</time></trkpt><trkpt lat="45.05650228255026" lon="12.289661125939556"><ele>-2.0</ele><time>2026-04-12T09:22:10.999Z</time></trkpt><trkpt lat="45.05646493973548" lon="12.29000052045601"><ele>-1.0</ele><time>2026-04-12T09:22:11.999Z</time></trkpt><trkpt lat="45.05641446858903" lon="12.290329334660077"><ele>-1.0</ele><time>2026-04-12T09:22:12.999Z</time></trkpt><trkpt lat="45.05633814258453" lon="12.290654382863083"><ele>-1.0</ele><time>2026-04-12T09:22:13.999Z</time></trkpt><trkpt lat="45.056247311972406" lon="12.290971562469295"><ele>-1.0</ele><time>2026-04-12T09:22:14.999Z</time></trkpt><trkpt lat="45.05616097552981" lon="12.291285627050225"><ele>-1.0</ele><time>2026-04-12T09:22:15.999Z</time></trkpt><trkpt lat="45.056075434806125" lon="12.291609265307903"><ele>-1.5</ele><time>2026-04-12T09:22:16.999Z</time></trkpt><trkpt lat="45.05599278938254" lon="12.291927637885303"><ele>-2.0</ele><time>2026-04-12T09:22:17.999Z</time></trkpt><trkpt lat="45.05590770807429" lon="12.29224414912011"><ele>-2.0</ele><time>2026-04-12T09:22:19Z</time></trkpt><trkpt lat="45.055818449765695" lon="12.292553470668455"><ele>-2.0</ele><time>2026-04-12T09:22:20Z</time></trkpt><trkpt lat="45.055711746680416" lon="12.292863003395242"><ele>-2.5</ele><time>2026-04-12T09:22:21Z</time></trkpt><trkpt lat="45.05559089276427" lon="12.293161787231986"><ele>-3.0</ele><time>2026-04-12T09:22:22Z</time></trkpt><trkpt lat="45.05546072139592" lon="12.293444938593233"><ele>-3.0</ele><time>2026-04-12T09:22:23Z</time></trkpt><trkpt lat="45.055315795327566" lon="12.293720513639087"><ele>-3.0</ele><time>2026-04-12T09:22:24Z</time></trkpt><trkpt lat="45.055172073518" lon="12.29399103488305"><ele>-2.5</ele><time>2026-04-12T09:22:25Z</time></trkpt><trkpt lat="45.055026921185416" lon="12.29426755828096"><ele>-2.0</ele><time>2026-04-12T09:22:26Z</time></trkpt><trkpt lat="45.0548863142261" lon="12.294543364595533"><ele>-2.5</ele><time>2026-04-12T09:22:27Z</time></trkpt><trkpt lat="45.05474615248749" lon="12.294818259876317"><ele>-3.0</ele><time>2026-04-12T09:22:28Z</time></trkpt><trkpt lat="45.05460321196209" lon="12.295093356013334"><ele>-3.0</ele><time>2026-04-12T09:22:29Z</time></trkpt><trkpt lat="45.054458368934704" lon="12.295363532659989"><ele>-3.0</ele><time>2026-04-12T09:22:30Z</time></trkpt><trkpt lat="45.054305330552495" lon="12.295627362786043"><ele>-2.5</ele><time>2026-04-12T09:22:31Z</time></trkpt><trkpt lat="45.05414609735939" lon="12.295885587677398"><ele>-2.0</ele><time>2026-04-12T09:22:32Z</time></trkpt><trkpt lat="45.05399190155536" lon="12.296143739433614"><ele>-2.0</ele><time>2026-04-12T09:22:33Z</time></trkpt><trkpt lat="45.053841350513686" lon="12.296405856010544"><ele>-2.0</ele><time>2026-04-12T09:22:34Z</time></trkpt><trkpt lat="45.05369086408295" lon="12.29666792026222"><ele>-1.5</ele><time>2026-04-12T09:22:35Z</time></trkpt><trkpt lat="45.05353890319617" lon="12.2969325288542"><ele>-1.0</ele><time>2026-04-12T09:22:36Z</time></trkpt><trkpt lat="45.05339287558978" lon="12.297197851079558"><ele>-1.5</ele><time>2026-04-12T09:22:37Z</time></trkpt><trkpt lat="45.05325340073916" lon="12.29746925207626"><ele>-2.0</ele><time>2026-04-12T09:22:38Z</time></trkpt><trkpt lat="45.05312202639247" lon="12.297756358284431"><ele>-2.0</ele><time>2026-04-12T09:22:39Z</time></trkpt><trkpt lat="45.05300295190516" lon="12.298050987714406"><ele>-2.0</ele><time>2026-04-12T09:22:40Z</time></trkpt><trkpt lat="45.05288657793535" lon="12.298348322998638"><ele>-2.5</ele><time>2026-04-12T09:22:41Z</time></trkpt><trkpt lat="45.05276498130258" lon="12.298643395727803"><ele>-3.0</ele><time>2026-04-12T09:22:42Z</time></trkpt><trkpt lat="45.05264529005506" lon="12.298934127525945"><ele>-3.0</ele><time>2026-04-12T09:22:43Z</time></trkpt><trkpt lat="45.05252439845694" lon="12.299228740788072"><ele>-3.0</ele><time>2026-04-12T09:22:44Z</time></trkpt><trkpt lat="45.052407076747336" lon="12.2995204467672"><ele>-3.0</ele><time>2026-04-12T09:22:45Z</time></trkpt><trkpt lat="45.05228754053694" lon="12.299815474118686"><ele>-3.0</ele><time>2026-04-12T09:22:46Z</time></trkpt><trkpt lat="45.05216937855103" lon="12.300109563404785"><ele>-3.0</ele><time>2026-04-12T09:22:47Z</time></trkpt><trkpt lat="45.05205245014088" lon="12.300405903311226"><ele>-3.0</ele><time>2026-04-12T09:22:48Z</time></trkpt><trkpt lat="45.05193641685249" lon="12.300700641015137"><ele>-2.5</ele><time>2026-04-12T09:22:49Z</time></trkpt><trkpt lat="45.05181917403363" lon="12.300995123219018"><ele>-2.0</ele><time>2026-04-12T09:22:50Z</time></trkpt><trkpt lat="45.05170294780496" lon="12.301292186273237"><ele>-2.5</ele><time>2026-04-12T09:22:51Z</time></trkpt><trkpt lat="45.05158440949746" lon="12.301589506404328"><ele>-3.0</ele><time>2026-04-12T09:22:52Z</time></trkpt><trkpt lat="45.05147222460044" lon="12.30188795927451"><ele>-3.0</ele><time>2026-04-12T09:22:53Z</time></trkpt><trkpt lat="45.05135990105172" lon="12.302193488050527"><ele>-3.0</ele><time>2026-04-12T09:22:54Z</time></trkpt><trkpt lat="45.051247521833794" lon="12.302497539943014"><ele>-3.0</ele><time>2026-04-12T09:22:55Z</time></trkpt><trkpt lat="45.051135129812906" lon="12.302801980973658"><ele>-3.0</ele><time>2026-04-12T09:22:56Z</time></trkpt><trkpt lat="45.05102587452883" lon="12.303104468765715"><ele>-3.0</ele><time>2026-04-12T09:22:57Z</time></trkpt><trkpt lat="45.050916591569845" lon="12.303407160633538"><ele>-3.0</ele><time>2026-04-12T09:22:58Z</time></trkpt><trkpt lat="45.05080861415036" lon="12.303712302547734"><ele>-4.0</ele><time>2026-04-12T09:22:59Z</time></trkpt><trkpt lat="45.05070384821466" lon="12.304018728468863"><ele>-5.0</ele><time>2026-04-12T09:23:00Z</time></trkpt><trkpt lat="45.05059631353768" lon="12.304323671093762"><ele>-5.0</ele><time>2026-04-12T09:23:01Z</time></trkpt><trkpt lat="45.05048709794222" lon="12.304627838092786"><ele>-5.0</ele><time>2026-04-12T09:23:02Z</time></trkpt><trkpt lat="45.050381434155206" lon="12.3049298013348"><ele>-3.0</ele><time>2026-04-12T09:23:03Z</time></trkpt><trkpt lat="45.05027443445689" lon="12.305230573220008"><ele>-1.0</ele><time>2026-04-12T09:23:04Z</time></trkpt><trkpt lat="45.05016459833594" lon="12.305533460316143"><ele>-1.0</ele><time>2026-04-12T09:23:05Z</time></trkpt><trkpt lat="45.050060938846386" lon="12.30583054970763"><ele>-1.0</ele><time>2026-04-12T09:23:06Z</time></trkpt><trkpt lat="45.04994572798348" lon="12.306134921467327"><ele>0.0</ele><time>2026-04-12T09:23:07Z</time></trkpt><trkpt lat="45.049842058260445" lon="12.306436719907085"><ele>1.0</ele><time>2026-04-12T09:23:08Z</time></trkpt><trkpt lat="45.04973808192944" lon="12.306738871432081"><ele>1.0</ele><time>2026-04-12T09:23:09Z</time></trkpt><trkpt lat="45.049629395666734" lon="12.307044039444127"><ele>1.0</ele><time>2026-04-12T09:23:10Z</time></trkpt><trkpt lat="45.04951985898614" lon="12.307343721718192"><ele>0.5</ele><time>2026-04-12T09:23:11Z</time></trkpt><trkpt lat="45.04941246981308" lon="12.30764514420217"><ele>0.0</ele><time>2026-04-12T09:23:12Z</time></trkpt><trkpt lat="45.049309120559705" lon="12.30794891568873"><ele>-0.5</ele><time>2026-04-12T09:23:13Z</time></trkpt><trkpt lat="45.04921212204799" lon="12.30825736893654"><ele>-1.0</ele><time>2026-04-12T09:23:14Z</time></trkpt><trkpt lat="45.049114378234485" lon="12.308566226338078"><ele>-1.0</ele><time>2026-04-12T09:23:15Z</time></trkpt><trkpt lat="45.04901722109475" lon="12.308876229781895"><ele>-1.0</ele><time>2026-04-12T09:23:16Z</time></trkpt><trkpt lat="45.048918332089215" lon="12.309187047207118"><ele>-1.0</ele><time>2026-04-12T09:23:17Z</time></trkpt><trkpt lat="45.04882139565011" lon="12.309501168024756"><ele>-1.0</ele><time>2026-04-12T09:23:18Z</time></trkpt><trkpt lat="45.04872689520903" lon="12.309812336872485"><ele>0.0</ele><time>2026-04-12T09:23:19Z</time></trkpt><trkpt lat="45.04862850715364" lon="12.310127817993738"><ele>1.0</ele><time>2026-04-12T09:23:20Z</time></trkpt><trkpt lat="45.04853035170357" lon="12.310439721502222"><ele>-0.5</ele><time>2026-04-12T09:23:21Z</time></trkpt><trkpt lat="45.04843492456072" lon="12.310749323020092"><ele>-2.0</ele><time>2026-04-12T09:23:22Z</time></trkpt><trkpt lat="45.048339340105194" lon="12.311063933166054"><ele>-2.5</ele><time>2026-04-12T09:23:23Z</time></trkpt><trkpt lat="45.048254334057894" lon="12.311378334299365"><ele>-3.0</ele><time>2026-04-12T09:23:24Z</time></trkpt><trkpt lat="45.04817454366356" lon="12.311696105457116"><ele>-3.0</ele><time>2026-04-12T09:23:25Z</time></trkpt><trkpt lat="45.04810350278998" lon="12.312020863001301"><ele>-3.0</ele><time>2026-04-12T09:23:26Z</time></trkpt><trkpt lat="45.04804064937681" lon="12.31234737360262"><ele>-2.5</ele><time>2026-04-12T09:23:27Z</time></trkpt><trkpt lat="45.04797982110012" lon="12.312677768154172"><ele>-2.0</ele><time>2026-04-12T09:23:28Z</time></trkpt><trkpt lat="45.0479209343048" lon="12.313010771160299"><ele>-2.0</ele><time>2026-04-12T09:23:29Z</time></trkpt><trkpt lat="45.04786389055705" lon="12.313346220861119"><ele>-2.0</ele><time>2026-04-12T09:23:30Z</time></trkpt><trkpt lat="45.04780455144955" lon="12.313678762597764"><ele>-2.5</ele><time>2026-04-12T09:23:31Z</time></trkpt><trkpt lat="45.04775229890995" lon="12.314005458241084"><ele>-3.0</ele><time>2026-04-12T09:23:32Z</time></trkpt><trkpt lat="45.04769328140439" lon="12.314337058235523"><ele>-3.0</ele><time>2026-04-12T09:23:33Z</time></trkpt><trkpt lat="45.047637900316985" lon="12.314662763864051"><ele>-3.0</ele><time>2026-04-12T09:23:34Z</time></trkpt><trkpt lat="45.04758088377913" lon="12.314991679629946"><ele>-3.0</ele><time>2026-04-12T09:23:35Z</time></trkpt><trkpt lat="45.0475192981902" lon="12.315323887968592"><ele>-3.0</ele><time>2026-04-12T09:23:36Z</time></trkpt><trkpt lat="45.047464143698484" lon="12.315652241983443"><ele>-4.0</ele><time>2026-04-12T09:23:37Z</time></trkpt><trkpt lat="45.047410116492344" lon="12.31598274805486"><ele>-5.0</ele><time>2026-04-12T09:23:38Z</time></trkpt><trkpt lat="45.047352948900745" lon="12.316311545232638"><ele>-3.0</ele><time>2026-04-12T09:23:39Z</time></trkpt><trkpt lat="45.0472933498903" lon="12.316643068317388"><ele>-1.0</ele><time>2026-04-12T09:23:40Z</time></trkpt><trkpt lat="45.047236456825274" lon="12.316971256591838"><ele>-1.0</ele><time>2026-04-12T09:23:41Z</time></trkpt><trkpt lat="45.047178986143244" lon="12.317299596003888"><ele>-1.0</ele><time>2026-04-12T09:23:42Z</time></trkpt><trkpt lat="45.04711895233118" lon="12.317629933201456"><ele>-1.0</ele><time>2026-04-12T09:23:43Z</time></trkpt><trkpt lat="45.04706272282593" lon="12.317958367782277"><ele>-1.0</ele><time>2026-04-12T09:23:44Z</time></trkpt><trkpt lat="45.04700645646303" lon="12.318291028261605"><ele>-1.0</ele><time>2026-04-12T09:23:45Z</time></trkpt><trkpt lat="45.046953873308766" lon="12.318618342658935"><ele>-1.0</ele><time>2026-04-12T09:23:45.999Z</time></trkpt><trkpt lat="45.04689759046187" lon="12.318948819533919"><ele>-1.0</ele><time>2026-04-12T09:23:46.999Z</time></trkpt><trkpt lat="45.046838806557226" lon="12.319280702672499"><ele>-1.0</ele><time>2026-04-12T09:23:47.999Z</time></trkpt><trkpt lat="45.04677921792874" lon="12.31961128520604"><ele>-1.5</ele><time>2026-04-12T09:23:48.999Z</time></trkpt><trkpt lat="45.04672281544046" lon="12.319940635995543"><ele>-2.0</ele><time>2026-04-12T09:23:49.999Z</time></trkpt><trkpt lat="45.046666433576114" lon="12.320274705119319"><ele>-1.5</ele><time>2026-04-12T09:23:50.999Z</time></trkpt><trkpt lat="45.04661387287804" lon="12.32060426303128"><ele>-1.0</ele><time>2026-04-12T09:23:51.999Z</time></trkpt><trkpt lat="45.046561579907106" lon="12.320937585559191"><ele>-1.0</ele><time>2026-04-12T09:23:52.999Z</time></trkpt><trkpt lat="45.046516654595024" lon="12.3212689309024"><ele>-1.0</ele><time>2026-04-12T09:23:53.999Z</time></trkpt><trkpt lat="45.04647661219141" lon="12.321602668021194"><ele>-1.0</ele><time>2026-04-12T09:23:54.999Z</time></trkpt><trkpt lat="45.04643945469509" lon="12.321935973386303"><ele>-1.0</ele><time>2026-04-12T09:23:55.999Z</time></trkpt><trkpt lat="45.046408984873544" lon="12.322274373819274"><ele>-1.5</ele><time>2026-04-12T09:23:56.999Z</time></trkpt><trkpt lat="45.0463842317624" lon="12.322613641052374"><ele>-2.0</ele><time>2026-04-12T09:23:57.999Z</time></trkpt><trkpt lat="45.04636609087193" lon="12.322949897341713"><ele>-4.0</ele><time>2026-04-12T09:23:58.999Z</time></trkpt><trkpt lat="45.04635387434247" lon="12.323289515293608"><ele>-6.0</ele><time>2026-04-12T09:23:59.999Z</time></trkpt><trkpt lat="45.04634622898787" lon="12.323628816943865"><ele>-4.0</ele><time>2026-04-12T09:24:00.999Z</time></trkpt><trkpt lat="45.04634261964663" lon="12.323971035249253"><ele>-2.0</ele><time>2026-04-12T09:24:01.999Z</time></trkpt><trkpt lat="45.04634328113069" lon="12.324311629246932"><ele>-2.0</ele><time>2026-04-12T09:24:02.999Z</time></trkpt><trkpt lat="45.04634424144008" lon="12.32465261676346"><ele>-2.0</ele><time>2026-04-12T09:24:03.999Z</time></trkpt><trkpt lat="45.046346497234715" lon="12.324991664948767"><ele>-3.0</ele><time>2026-04-12T09:24:04.999Z</time></trkpt><trkpt lat="45.04634589825182" lon="12.325333204212981"><ele>-4.0</ele><time>2026-04-12T09:24:05.999Z</time></trkpt><trkpt lat="45.04634410521168" lon="12.325675042424859"><ele>-4.0</ele><time>2026-04-12T09:24:06.999Z</time></trkpt><trkpt lat="45.04634442079257" lon="12.326015802001027"><ele>-4.0</ele><time>2026-04-12T09:24:07.999Z</time></trkpt><trkpt lat="45.04634486842331" lon="12.326359603997716"><ele>-3.0</ele><time>2026-04-12T09:24:08.999Z</time></trkpt><trkpt lat="45.046348137755025" lon="12.326701383343254"><ele>-2.0</ele><time>2026-04-12T09:24:09.999Z</time></trkpt><trkpt lat="45.046355296112345" lon="12.327042094613802"><ele>-2.0</ele><time>2026-04-12T09:24:10.999Z</time></trkpt><trkpt lat="45.04636322598915" lon="12.327379834865795"><ele>-2.0</ele><time>2026-04-12T09:24:11.999Z</time></trkpt><trkpt lat="45.046367397801525" lon="12.327718440961554"><ele>-3.0</ele><time>2026-04-12T09:24:12.999Z</time></trkpt><trkpt lat="45.04636479063727" lon="12.32806034555438"><ele>-4.0</ele><time>2026-04-12T09:24:13.999Z</time></trkpt><trkpt lat="45.04636991451088" lon="12.328394865567041"><ele>-4.0</ele><time>2026-04-12T09:24:14.999Z</time></trkpt><trkpt lat="45.04637143780755" lon="12.328735413897085"><ele>-4.0</ele><time>2026-04-12T09:24:15.999Z</time></trkpt><trkpt lat="45.04637736884975" lon="12.329075236425092"><ele>-3.5</ele><time>2026-04-12T09:24:16.999Z</time></trkpt><trkpt lat="45.04638340257714" lon="12.329414275093423"><ele>-3.0</ele><time>2026-04-12T09:24:17.999Z</time></trkpt><trkpt lat="45.04638827971504" lon="12.329751104891612"><ele>-2.0</ele><time>2026-04-12T09:24:18.999Z</time></trkpt><trkpt lat="45.046392162017355" lon="12.330090609515027"><ele>-1.0</ele><time>2026-04-12T09:24:19.999Z</time></trkpt><trkpt lat="45.04639652541645" lon="12.330423087128858"><ele>-0.5</ele><time>2026-04-12T09:24:20.999Z</time></trkpt><trkpt lat="45.04639902203222" lon="12.330765722380479"><ele>0.0</ele><time>2026-04-12T09:24:21.999Z</time></trkpt><trkpt lat="45.0464014057167" lon="12.331104306238693"><ele>0.0</ele><time>2026-04-12T09:24:22.999Z</time></trkpt><trkpt lat="45.0464042979535" lon="12.331443468527866"><ele>0.0</ele><time>2026-04-12T09:24:23.999Z</time></trkpt><trkpt lat="45.04640638127302" lon="12.331785540683734"><ele>0.0</ele><time>2026-04-12T09:24:25Z</time></trkpt><trkpt lat="45.04639914377569" lon="12.33212704929896"><ele>0.0</ele><time>2026-04-12T09:24:26Z</time></trkpt><trkpt lat="45.046377994259764" lon="12.332467744465642"><ele>-1.0</ele><time>2026-04-12T09:24:27Z</time></trkpt><trkpt lat="45.04634711414418" lon="12.332805942419604"><ele>-2.0</ele><time>2026-04-12T09:24:28Z</time></trkpt><trkpt lat="45.046311942098576" lon="12.333146271062134"><ele>-2.5</ele><time>2026-04-12T09:24:29Z</time></trkpt><trkpt lat="45.04628177367621" lon="12.333480513969953"><ele>-3.0</ele><time>2026-04-12T09:24:30Z</time></trkpt><trkpt lat="45.046253845646376" lon="12.3338165624712"><ele>-1.0</ele><time>2026-04-12T09:24:31Z</time></trkpt><trkpt lat="45.046226030782634" lon="12.334152239288862"><ele>1.0</ele><time>2026-04-12T09:24:32Z</time></trkpt><trkpt lat="45.04619469958633" lon="12.334491619114099"><ele>0.5</ele><time>2026-04-12T09:24:33Z</time></trkpt><trkpt lat="45.046164805297686" lon="12.334823515001863"><ele>0.0</ele><time>2026-04-12T09:24:34Z</time></trkpt><trkpt lat="45.04613235626986" lon="12.335157672971118"><ele>0.0</ele><time>2026-04-12T09:24:35Z</time></trkpt><trkpt lat="45.04609814834754" lon="12.335496443633266"><ele>0.0</ele><time>2026-04-12T09:24:36Z</time></trkpt><trkpt lat="45.04606721471375" lon="12.335828324892427"><ele>0.0</ele><time>2026-04-12T09:24:37Z</time></trkpt><trkpt lat="45.04603216964484" lon="12.33616780473919"><ele>0.0</ele><time>2026-04-12T09:24:38Z</time></trkpt><trkpt lat="45.04599995476493" lon="12.336497291968026"><ele>1.5</ele><time>2026-04-12T09:24:39Z</time></trkpt><trkpt lat="45.04596018368541" lon="12.336835746033504"><ele>3.0</ele><time>2026-04-12T09:24:40Z</time></trkpt><trkpt lat="45.04591912173235" lon="12.337172978475031"><ele>1.5</ele><time>2026-04-12T09:24:41Z</time></trkpt><trkpt lat="45.045876905043436" lon="12.337508372737489"><ele>0.0</ele><time>2026-04-12T09:24:42Z</time></trkpt><trkpt lat="45.04583553672671" lon="12.33784573358073"><ele>-0.5</ele><time>2026-04-12T09:24:43Z</time></trkpt><trkpt lat="45.045797567141115" lon="12.33818292339867"><ele>-1.0</ele><time>2026-04-12T09:24:44Z</time></trkpt><trkpt lat="45.045765190377594" lon="12.338520697896234"><ele>0.0</ele><time>2026-04-12T09:24:45Z</time></trkpt><trkpt lat="45.045736788365964" lon="12.338860961012367"><ele>1.0</ele><time>2026-04-12T09:24:46Z</time></trkpt><trkpt lat="45.04571426137763" lon="12.339196036202184"><ele>1.0</ele><time>2026-04-12T09:24:47Z</time></trkpt><trkpt lat="45.04568611506689" lon="12.339535675524589"><ele>1.0</ele><time>2026-04-12T09:24:48Z</time></trkpt><trkpt lat="45.04565979796876" lon="12.339871971713224"><ele>1.0</ele><time>2026-04-12T09:24:49Z</time></trkpt><trkpt lat="45.04563873252188" lon="12.340208054300641"><ele>1.0</ele><time>2026-04-12T09:24:50Z</time></trkpt><trkpt lat="45.04562457352038" lon="12.34054598237373"><ele>1.0</ele><time>2026-04-12T09:24:51Z</time></trkpt><trkpt lat="45.04561566904053" lon="12.34089215132026"><ele>1.0</ele><time>2026-04-12T09:24:52Z</time></trkpt><trkpt lat="45.04561147798003" lon="12.341234428579199"><ele>1.5</ele><time>2026-04-12T09:24:53Z</time></trkpt><trkpt lat="45.04561353207728" lon="12.341571305450197"><ele>2.0</ele><time>2026-04-12T09:24:54Z</time></trkpt><trkpt lat="45.04562039649811" lon="12.341912230816016"><ele>3.5</ele><time>2026-04-12T09:24:55Z</time></trkpt><trkpt lat="45.045636180238496" lon="12.342253798917831"><ele>5.0</ele><time>2026-04-12T09:24:56Z</time></trkpt><trkpt lat="45.04565806642196" lon="12.342596313737827"><ele>5.0</ele><time>2026-04-12T09:24:57Z</time></trkpt><trkpt lat="45.04568668669306" lon="12.342924016400097"><ele>5.0</ele><time>2026-04-12T09:24:58Z</time></trkpt><trkpt lat="45.045714015463716" lon="12.343261401521852"><ele>2.5</ele><time>2026-04-12T09:24:59Z</time></trkpt><trkpt lat="45.04574490575299" lon="12.343601151067933"><ele>0.0</ele><time>2026-04-12T09:25:00Z</time></trkpt><trkpt lat="45.045779440859455" lon="12.343935440453846"><ele>-0.5</ele><time>2026-04-12T09:25:01Z</time></trkpt><trkpt lat="45.04581257842274" lon="12.344266846626537"><ele>-1.0</ele><time>2026-04-12T09:25:02Z</time></trkpt><trkpt lat="45.04584513142527" lon="12.344604446794834"><ele>-1.0</ele><time>2026-04-12T09:25:03Z</time></trkpt><trkpt lat="45.045882321834036" lon="12.344933545509255"><ele>-1.0</ele><time>2026-04-12T09:25:04Z</time></trkpt><trkpt lat="45.045917240908146" lon="12.345271522256146"><ele>-0.5</ele><time>2026-04-12T09:25:05Z</time></trkpt><trkpt lat="45.04594608841033" lon="12.345602250097961"><ele>0.0</ele><time>2026-04-12T09:25:06Z</time></trkpt><trkpt lat="45.04597528777221" lon="12.345941807351771"><ele>0.0</ele><time>2026-04-12T09:25:07Z</time></trkpt><trkpt lat="45.04600574560642" lon="12.346274174447817"><ele>0.0</ele><time>2026-04-12T09:25:08Z</time></trkpt><trkpt lat="45.0460378072467" lon="12.346609532836972"><ele>0.0</ele><time>2026-04-12T09:25:09Z</time></trkpt><trkpt lat="45.04606975621382" lon="12.346949140797452"><ele>0.0</ele><time>2026-04-12T09:25:10Z</time></trkpt><trkpt lat="45.046104575867346" lon="12.347283774794086"><ele>0.0</ele><time>2026-04-12T09:25:11Z</time></trkpt><trkpt lat="45.046136764669356" lon="12.347624346409589"><ele>0.0</ele><time>2026-04-12T09:25:12Z</time></trkpt><trkpt lat="45.04616877103198" lon="12.34796386621876"><ele>0.5</ele><time>2026-04-12T09:25:13Z</time></trkpt><trkpt lat="45.04620010128106" lon="12.348302221969872"><ele>1.0</ele><time>2026-04-12T09:25:14Z</time></trkpt><trkpt lat="45.04623267909389" lon="12.348640086300565"><ele>1.5</ele><time>2026-04-12T09:25:15Z</time></trkpt><trkpt lat="45.04627079435811" lon="12.348973353612744"><ele>2.0</ele><time>2026-04-12T09:25:16Z</time></trkpt><trkpt lat="45.04631886710061" lon="12.349300751827233"><ele>2.0</ele><time>2026-04-12T09:25:17Z</time></trkpt><trkpt lat="45.046375122380205" lon="12.349635322766439"><ele>2.0</ele><time>2026-04-12T09:25:18Z</time></trkpt><trkpt lat="45.046437761071694" lon="12.349961554922459"><ele>1.0</ele><time>2026-04-12T09:25:19Z</time></trkpt><trkpt lat="45.046502116096235" lon="12.350288424930522"><ele>0.0</ele><time>2026-04-12T09:25:20Z</time></trkpt><trkpt lat="45.04656270533902" lon="12.350617857912463"><ele>0.0</ele><time>2026-04-12T09:25:21Z</time></trkpt><trkpt lat="45.04662290945578" lon="12.350947246581164"><ele>0.0</ele><time>2026-04-12T09:25:22Z</time></trkpt><trkpt lat="45.04668741468845" lon="12.351273593892277"><ele>0.5</ele><time>2026-04-12T09:25:23Z</time></trkpt><trkpt lat="45.04675604145408" lon="12.351597445555107"><ele>1.0</ele><time>2026-04-12T09:25:24Z</time></trkpt><trkpt lat="45.04682691434765" lon="12.351922719726954"><ele>1.0</ele><time>2026-04-12T09:25:25Z</time></trkpt><trkpt lat="45.04690456466001" lon="12.352246019849451"><ele>1.0</ele><time>2026-04-12T09:25:26Z</time></trkpt><trkpt lat="45.04698741775429" lon="12.352565714928618"><ele>1.0</ele><time>2026-04-12T09:25:27Z</time></trkpt><trkpt lat="45.04707510803768" lon="12.352883647756821"><ele>1.0</ele><time>2026-04-12T09:25:28Z</time></trkpt><trkpt lat="45.047165437877176" lon="12.353197042108544"><ele>-0.5</ele><time>2026-04-12T09:25:29Z</time></trkpt><trkpt lat="45.04725601508198" lon="12.35351570883604"><ele>-2.0</ele><time>2026-04-12T09:25:30Z</time></trkpt><trkpt lat="45.047343156463675" lon="12.353830280105536"><ele>-2.0</ele><time>2026-04-12T09:25:31Z</time></trkpt><trkpt lat="45.04743258905743" lon="12.354155960513403"><ele>-2.0</ele><time>2026-04-12T09:25:32Z</time></trkpt><trkpt lat="45.04752204863415" lon="12.354462209794283"><ele>-1.0</ele><time>2026-04-12T09:25:33Z</time></trkpt><trkpt lat="45.04761424732498" lon="12.354773524158034"><ele>0.0</ele><time>2026-04-12T09:25:34Z</time></trkpt><trkpt lat="45.047703111532456" lon="12.355091506201294"><ele>0.0</ele><time>2026-04-12T09:25:35Z</time></trkpt><trkpt lat="45.047785600241696" lon="12.355405853577574"><ele>0.0</ele><time>2026-04-12T09:25:36Z</time></trkpt><trkpt lat="45.04787469791374" lon="12.355721140064551"><ele>1.0</ele><time>2026-04-12T09:25:37Z</time></trkpt><trkpt lat="45.04796534897529" lon="12.356036603098289"><ele>2.0</ele><time>2026-04-12T09:25:38Z</time></trkpt><trkpt lat="45.04805505205148" lon="12.356346700209812"><ele>2.0</ele><time>2026-04-12T09:25:39Z</time></trkpt><trkpt lat="45.04814745372094" lon="12.356666134336843"><ele>2.0</ele><time>2026-04-12T09:25:40Z</time></trkpt><trkpt lat="45.04823563331121" lon="12.356981193850714"><ele>1.0</ele><time>2026-04-12T09:25:41Z</time></trkpt><trkpt lat="45.048322251174916" lon="12.357294298469688"><ele>0.0</ele><time>2026-04-12T09:25:42Z</time></trkpt><trkpt lat="45.04840817442448" lon="12.357611572269214"><ele>0.0</ele><time>2026-04-12T09:25:43Z</time></trkpt><trkpt lat="45.04848985587246" lon="12.357926072737937"><ele>0.0</ele><time>2026-04-12T09:25:44Z</time></trkpt><trkpt lat="45.04857654113687" lon="12.358242509565557"><ele>-1.0</ele><time>2026-04-12T09:25:44.999Z</time></trkpt><trkpt lat="45.04866485770792" lon="12.358560287596118"><ele>-2.0</ele><time>2026-04-12T09:25:45.999Z</time></trkpt><trkpt lat="45.04875228862192" lon="12.358875752089677"><ele>-3.5</ele><time>2026-04-12T09:25:46.999Z</time></trkpt><trkpt lat="45.04884125404131" lon="12.359192676167126"><ele>-5.0</ele><time>2026-04-12T09:25:47.999Z</time></trkpt><trkpt lat="45.048931973379375" lon="12.359509129033658"><ele>-2.5</ele><time>2026-04-12T09:25:48.999Z</time></trkpt><trkpt lat="45.04903336985212" lon="12.359819661457866"><ele>0.0</ele><time>2026-04-12T09:25:49.999Z</time></trkpt><trkpt lat="45.0491132846626" lon="12.360135359853642"><ele>-0.5</ele><time>2026-04-12T09:25:50.999Z</time></trkpt><trkpt lat="45.049204988197104" lon="12.360446910248369"><ele>-1.0</ele><time>2026-04-12T09:25:51.999Z</time></trkpt><trkpt lat="45.04944993415185" lon="12.360662092676758"><ele>-1.0</ele><time>2026-04-12T09:25:52.999Z</time></trkpt><trkpt lat="45.04959648219178" lon="12.360925880608589"><ele>-1.0</ele><time>2026-04-12T09:25:53.999Z</time></trkpt><trkpt lat="45.04973581601554" lon="12.361201619757066"><ele>-1.5</ele><time>2026-04-12T09:25:54.999Z</time></trkpt><trkpt lat="45.049875118013105" lon="12.361471467791825"><ele>-2.0</ele><time>2026-04-12T09:25:55.999Z</time></trkpt><trkpt lat="45.050008143485584" lon="12.36171643603756"><ele>-2.0</ele><time>2026-04-12T09:25:56.999Z</time></trkpt><trkpt lat="45.05012922609913" lon="12.361941908717807"><ele>-2.0</ele><time>2026-04-12T09:25:57.999Z</time></trkpt><trkpt lat="45.05023947902848" lon="12.362151027666057"><ele>-2.0</ele><time>2026-04-12T09:25:58.999Z</time></trkpt><trkpt lat="45.0503459018709" lon="12.36234857043853"><ele>-1.6666666666666665</ele><time>2026-04-12T09:25:59.999Z</time></trkpt><trkpt lat="45.05044770305381" lon="12.362539265359953"><ele>-1.3333333333333333</ele><time>2026-04-12T09:26:00.999Z</time></trkpt><trkpt lat="45.05054121042803" lon="12.362714283092865"><ele>-1.0</ele><time>2026-04-12T09:26:01.999Z</time></trkpt><trkpt lat="45.05062893582329" lon="12.362872070566317"><ele>-1.0</ele><time>2026-04-12T09:26:02.999Z</time></trkpt><trkpt lat="45.05070953361734" lon="12.363008429318814"><ele>-1.0</ele><time>2026-04-12T09:26:03.999Z</time></trkpt><trkpt lat="45.050803665475215" lon="12.363117271813373"><ele>-1.0</ele><time>2026-04-12T09:26:04.999Z</time></trkpt><trkpt lat="45.0509102239327" lon="12.363173273061564"><ele>-1.0</ele><time>2026-04-12T09:26:05.999Z</time></trkpt><trkpt lat="45.05104147196216" lon="12.363201481529988"><ele>-0.75</ele><time>2026-04-12T09:26:06.999Z</time></trkpt><trkpt lat="45.051186739584665" lon="12.363189974495178"><ele>-0.5</ele><time>2026-04-12T09:26:07.999Z</time></trkpt><trkpt lat="45.0513233186871" lon="12.363130450393545"><ele>-0.25</ele><time>2026-04-12T09:26:08.999Z</time></trkpt><trkpt lat="45.05146551350831" lon="12.363031560529564"><ele>0.0</ele><time>2026-04-12T09:26:09.999Z</time></trkpt><trkpt lat="45.051610655614844" lon="12.362908949685995"><ele>0.3333333333333333</ele><time>2026-04-12T09:26:10.999Z</time></trkpt><trkpt lat="45.051767957570455" lon="12.362783024572346"><ele>0.6666666666666666</ele><time>2026-04-12T09:26:11.999Z</time></trkpt><trkpt lat="45.05192365566586" lon="12.362667367524695"><ele>1.0</ele><time>2026-04-12T09:26:12.999Z</time></trkpt><trkpt lat="45.0520646166338" lon="12.362564983546976"><ele>1.0</ele><time>2026-04-12T09:26:13.999Z</time></trkpt><trkpt lat="45.05220020817303" lon="12.362468222293362"><ele>1.0</ele><time>2026-04-12T09:26:14.999Z</time></trkpt><trkpt lat="45.05231891010976" lon="12.362378099081159"><ele>1.0</ele><time>2026-04-12T09:26:15.999Z</time></trkpt><trkpt lat="45.05244248375044" lon="12.362284954330963"><ele>1.0</ele><time>2026-04-12T09:26:16.999Z</time></trkpt><trkpt lat="45.05258617206277" lon="12.362171247383296"><ele>0.6666666666666666</ele><time>2026-04-12T09:26:17.999Z</time></trkpt><trkpt lat="45.052751397411605" lon="12.362029007545846"><ele>0.3333333333333333</ele><time>2026-04-12T09:26:18.999Z</time></trkpt><trkpt lat="45.05295723597234" lon="12.36186354992831"><ele>0.0</ele><time>2026-04-12T09:26:19.999Z</time></trkpt><trkpt lat="45.05318327884578" lon="12.36169015311536"><ele>0.0</ele><time>2026-04-12T09:26:20.999Z</time></trkpt><trkpt lat="45.053409957921446" lon="12.361519677016659"><ele>0.0</ele><time>2026-04-12T09:26:21.999Z</time></trkpt><trkpt lat="45.05363920849173" lon="12.361354391609016"><ele>0.0</ele><time>2026-04-12T09:26:22.999Z</time></trkpt><trkpt lat="45.05387152829531" lon="12.361191523186244"><ele>0.0</ele><time>2026-04-12T09:26:23.999Z</time></trkpt><trkpt lat="45.05411050870452" lon="12.361029447717168"><ele>0.5</ele><time>2026-04-12T09:26:24.999Z</time></trkpt><trkpt lat="45.05435300638367" lon="12.36084704468955"><ele>1.0</ele><time>2026-04-12T09:26:25.999Z</time></trkpt><trkpt lat="45.054601655660484" lon="12.360634134222023"><ele>0.5</ele><time>2026-04-12T09:26:26.999Z</time></trkpt><trkpt lat="45.05484400665592" lon="12.36042150798803"><ele>0.0</ele><time>2026-04-12T09:26:27.999Z</time></trkpt><trkpt lat="45.05506333096842" lon="12.360238691992132"><ele>0.0</ele><time>2026-04-12T09:26:28.999Z</time></trkpt><trkpt lat="45.05526135253702" lon="12.36007521923994"><ele>0.0</ele><time>2026-04-12T09:26:29.999Z</time></trkpt><trkpt lat="45.0554396278928" lon="12.359921013042888"><ele>0.0</ele><time>2026-04-12T09:26:31Z</time></trkpt><trkpt lat="45.055623450452515" lon="12.359768042662067"><ele>0.0</ele><time>2026-04-12T09:26:32Z</time></trkpt><trkpt lat="45.055809905800245" lon="12.359617013874894"><ele>0.0</ele><time>2026-04-12T09:26:33Z</time></trkpt><trkpt lat="45.055972490438414" lon="12.359477659490969"><ele>0.0</ele><time>2026-04-12T09:26:34Z</time></trkpt><trkpt lat="45.05610874833462" lon="12.359356248356173"><ele>0.0</ele><time>2026-04-12T09:26:35Z</time></trkpt><trkpt lat="45.05622641506892" lon="12.359243277468575"><ele>0.0</ele><time>2026-04-12T09:26:36Z</time></trkpt><trkpt lat="45.05631091442657" lon="12.359116408982931"><ele>0.0</ele><time>2026-04-12T09:26:37Z</time></trkpt><trkpt lat="45.05637515989674" lon="12.35895126038771"><ele>0.0</ele><time>2026-04-12T09:26:38Z</time></trkpt><trkpt lat="45.056421090277304" lon="12.35872847650742"><ele>-0.6666666666666666</ele><time>2026-04-12T09:26:39Z</time></trkpt><trkpt lat="45.056444220914486" lon="12.35846215469018"><ele>-1.3333333333333333</ele><time>2026-04-12T09:26:40Z</time></trkpt><trkpt lat="45.05645253929722" lon="12.358158230206072"><ele>-2.0</ele><time>2026-04-12T09:26:41Z</time></trkpt><trkpt lat="45.056458008235666" lon="12.357883585498495"><ele>-2.333333333333333</ele><time>2026-04-12T09:26:42Z</time></trkpt><trkpt lat="45.05647521369224" lon="12.357651085953522"><ele>-2.6666666666666665</ele><time>2026-04-12T09:26:43Z</time></trkpt><trkpt lat="45.05649729877538" lon="12.357436980540678"><ele>-3.0</ele><time>2026-04-12T09:26:44Z</time></trkpt><trkpt lat="45.05654006934432" lon="12.357246898359689"><ele>-3.0</ele><time>2026-04-12T09:26:45Z</time></trkpt><trkpt lat="45.05661155266683" lon="12.357060133984701"><ele>-3.0</ele><time>2026-04-12T09:26:46Z</time></trkpt><trkpt lat="45.05670066000407" lon="12.356914750234601"><ele>-3.0</ele><time>2026-04-12T09:26:47Z</time></trkpt><trkpt lat="45.056825230633876" lon="12.35679382090645"><ele>-3.0</ele><time>2026-04-12T09:26:48Z</time></trkpt><trkpt lat="45.056964446242404" lon="12.356692145047063"><ele>-2.6666666666666665</ele><time>2026-04-12T09:26:49Z</time></trkpt><trkpt lat="45.057097906791604" lon="12.356559015501608"><ele>-2.333333333333333</ele><time>2026-04-12T09:26:50Z</time></trkpt><trkpt lat="45.05719892029069" lon="12.356385913558432"><ele>-2.0</ele><time>2026-04-12T09:26:51Z</time></trkpt><trkpt lat="45.05729291991471" lon="12.356148975522055"><ele>-2.0</ele><time>2026-04-12T09:26:52Z</time></trkpt><trkpt lat="45.05738006156641" lon="12.35585225295603"><ele>-2.0</ele><time>2026-04-12T09:26:53Z</time></trkpt><trkpt lat="45.05746509675785" lon="12.355567651328691"><ele>-2.0</ele><time>2026-04-12T09:26:54Z</time></trkpt><trkpt lat="45.05755199607638" lon="12.355331158635277"><ele>-2.0</ele><time>2026-04-12T09:26:55Z</time></trkpt><trkpt lat="45.05763251958623" lon="12.355118401543383"><ele>-2.0</ele><time>2026-04-12T09:26:56Z</time></trkpt><trkpt lat="45.057698386011914" lon="12.354923784354767"><ele>-2.0</ele><time>2026-04-12T09:26:57Z</time></trkpt><trkpt lat="45.05775973817551" lon="12.354751345553272"><ele>-1.8</ele><time>2026-04-12T09:26:58Z</time></trkpt><trkpt lat="45.05780158327489" lon="12.354578402810152"><ele>-1.6</ele><time>2026-04-12T09:26:59Z</time></trkpt><trkpt lat="45.057833922306145" lon="12.354420567155758"><ele>-1.4000000000000001</ele><time>2026-04-12T09:27:00Z</time></trkpt><trkpt lat="45.057857131511" lon="12.354280747202024"><ele>-1.2000000000000002</ele><time>2026-04-12T09:27:01Z</time></trkpt><trkpt lat="45.057933889054986" lon="12.354187814642778"><ele>-1.0</ele><time>2026-04-12T09:27:02Z</time></trkpt><trkpt lat="45.058021335487915" lon="12.354142857113832"><ele>-1.0</ele><time>2026-04-12T09:27:03Z</time></trkpt><trkpt lat="45.05811982410112" lon="12.354181245158221"><ele>-1.0</ele><time>2026-04-12T09:27:04Z</time></trkpt><trkpt lat="45.05824080810383" lon="12.354203904683649"><ele>-1.0</ele><time>2026-04-12T09:27:05Z</time></trkpt><trkpt lat="45.05837384186906" lon="12.354266016633265"><ele>-1.0</ele><time>2026-04-12T09:27:06Z</time></trkpt><trkpt lat="45.05852247227279" lon="12.354308073693616"><ele>-1.0</ele><time>2026-04-12T09:27:07Z</time></trkpt><trkpt lat="45.05865506430929" lon="12.354335269698668"><ele>-1.0</ele><time>2026-04-12T09:27:08Z</time></trkpt><trkpt lat="45.05876546584368" lon="12.354332373804688"><ele>-1.0</ele><time>2026-04-12T09:27:09Z</time></trkpt><trkpt lat="45.058884185728445" lon="12.354329693007639"><ele>-1.0</ele><time>2026-04-12T09:27:10Z</time></trkpt><trkpt lat="45.059005511726546" lon="12.354174072437813"><ele>-1.3333333333333333</ele><time>2026-04-12T09:27:11Z</time></trkpt><trkpt lat="45.059156192498136" lon="12.35403414071296"><ele>-1.6666666666666665</ele><time>2026-04-12T09:27:12Z</time></trkpt><trkpt lat="45.05931525840918" lon="12.353896912004549"><ele>-2.0</ele><time>2026-04-12T09:27:13Z</time></trkpt><trkpt lat="45.05947251690363" lon="12.353761483016786"><ele>-2.333333333333333</ele><time>2026-04-12T09:27:14Z</time></trkpt><trkpt lat="45.059638317901594" lon="12.35361897357849"><ele>-2.6666666666666665</ele><time>2026-04-12T09:27:15Z</time></trkpt><trkpt lat="45.05982760791832" lon="12.353493088987205"><ele>-3.0</ele><time>2026-04-12T09:27:16Z</time></trkpt><trkpt lat="45.06001614960103" lon="12.353340978639519"><ele>-3.0</ele><time>2026-04-12T09:27:17Z</time></trkpt><trkpt lat="45.06020976643194" lon="12.353166031737311"><ele>-3.0</ele><time>2026-04-12T09:27:18Z</time></trkpt><trkpt lat="45.06040270575062" lon="12.353007571145538"><ele>-3.0</ele><time>2026-04-12T09:27:19Z</time></trkpt><trkpt lat="45.06057067560608" lon="12.352873508890845"><ele>-3.0</ele><time>2026-04-12T09:27:20Z</time></trkpt><trkpt lat="45.06072100999216" lon="12.352754883143332"><ele>-3.0</ele><time>2026-04-12T09:27:21Z</time></trkpt><trkpt lat="45.06085101983408" lon="12.352647255334817"><ele>-2.6</ele><time>2026-04-12T09:27:22Z</time></trkpt><trkpt lat="45.06095946300857" lon="12.352557890729194"><ele>-2.1999999999999997</ele><time>2026-04-12T09:27:23Z</time></trkpt><trkpt lat="45.06105659413371" lon="12.352482657143813"><ele>-1.8</ele><time>2026-04-12T09:27:24Z</time></trkpt><trkpt lat="45.06113422568201" lon="12.352427687281386"><ele>-1.4</ele><time>2026-04-12T09:27:25Z</time></trkpt><trkpt lat="45.06120422692717" lon="12.35237589060379"><ele>-1.0</ele><time>2026-04-12T09:27:26Z</time></trkpt><trkpt lat="45.061264761871996" lon="12.35232517165768"><ele>-0.9999999999999999</ele><time>2026-04-12T09:27:27Z</time></trkpt><trkpt lat="45.06132276371987" lon="12.352278958270656"><ele>-1.0</ele><time>2026-04-12T09:27:28Z</time></trkpt><trkpt lat="45.06137829974417" lon="12.352236183606665"><ele>-1.0</ele><time>2026-04-12T09:27:29Z</time></trkpt><trkpt lat="45.06149462090823" lon="12.352140841811417"><ele>-1.0</ele><time>2026-04-12T09:27:31Z</time></trkpt><trkpt lat="45.061567096565746" lon="12.35208285046207"><ele>-0.9999999999999999</ele><time>2026-04-12T09:27:32Z</time></trkpt><trkpt lat="45.06163193404618" lon="12.352025650059172"><ele>-1.0</ele><time>2026-04-12T09:27:33Z</time></trkpt><trkpt lat="45.06169082609557" lon="12.351961374707132"><ele>-0.6666666666666666</ele><time>2026-04-12T09:27:34Z</time></trkpt><trkpt lat="45.06174715643238" lon="12.351885488295519"><ele>-0.3333333333333333</ele><time>2026-04-12T09:27:35Z</time></trkpt><trkpt lat="45.06179363178458" lon="12.351811876341856"><ele>0.0</ele><time>2026-04-12T09:27:36Z</time></trkpt><trkpt lat="45.061848414382496" lon="12.351736186374465"><ele>0.3333333333333333</ele><time>2026-04-12T09:27:37Z</time></trkpt><trkpt lat="45.06190616964367" lon="12.351665316971122"><ele>0.6666666666666666</ele><time>2026-04-12T09:27:38Z</time></trkpt><trkpt lat="45.06196291975862" lon="12.351593342862758"><ele>1.0</ele><time>2026-04-12T09:27:39Z</time></trkpt><trkpt lat="45.06201593898837" lon="12.351518620620482"><ele>0.9999999999999999</ele><time>2026-04-12T09:27:40Z</time></trkpt><trkpt lat="45.062066505517215" lon="12.351434455607123"><ele>1.0</ele><time>2026-04-12T09:27:41Z</time></trkpt><trkpt lat="45.062116348719556" lon="12.351350080995507"><ele>1.0</ele><time>2026-04-12T09:27:42Z</time></trkpt><trkpt lat="45.06217017262417" lon="12.35127931924392"><ele>1.0</ele><time>2026-04-12T09:27:43Z</time></trkpt><trkpt lat="45.06221967345671" lon="12.351217605421231"><ele>0.9999999999999999</ele><time>2026-04-12T09:27:44Z</time></trkpt><trkpt lat="45.06232643664326" lon="12.351199034449364"><ele>1.0</ele><time>2026-04-12T09:27:46Z</time></trkpt><trkpt lat="45.06236486971594" lon="12.351280657217812"><ele>0.9999999999999999</ele><time>2026-04-12T09:27:47Z</time></trkpt><trkpt lat="45.06243589904447" lon="12.351378460766384"><ele>1.0</ele><time>2026-04-12T09:27:48Z</time></trkpt><trkpt lat="45.062501606212" lon="12.351501477713365"><ele>1.0</ele><time>2026-04-12T09:27:49Z</time></trkpt><trkpt lat="45.062550636798775" lon="12.351577882666435"><ele>1.0</ele><time>2026-04-12T09:27:50Z</time></trkpt><trkpt lat="45.0626092064797" lon="12.35162096010366"><ele>0.9999999999999999</ele><time>2026-04-12T09:27:51Z</time></trkpt><trkpt lat="45.062672655621085" lon="12.351600076222763"><ele>1.0</ele><time>2026-04-12T09:27:52Z</time></trkpt><trkpt lat="45.06276779644488" lon="12.35156264977654"><ele>1.0</ele><time>2026-04-12T09:27:54Z</time></trkpt><trkpt lat="45.06276581534765" lon="12.351381835496356"><ele>1.0</ele><time>2026-04-12T09:27:57Z</time></trkpt><trkpt lat="45.06274234732981" lon="12.351294674073243"><ele>2.0</ele><time>2026-04-12T09:27:59.999Z</time></trkpt></trkseg></trk></gpx>